<?xml version="1.0" encoding="UTF-8" standalone="no" ?>
<gpx xmlns="http://www.topografix.com/GPX/1/1" xmlns:xsi="http://www.w3.org/2001/XMLSchema-instance" xsi:schemaLocation="http://www.topografix.com/GPX/1/1 http://www.topografix.com/GPX/1/1/gpx.xsd" version="1.1" creator="VisuGPX - https://www.visugpx.com">
  <metadata>
    <name>Pornichet 26/08/2021</name>
    <desc><![CDATA[Sortie Jeudi 26 août 2021]]></desc>
  </metadata>
  <trk>
    <name><![CDATA[Pornichet Cyclisme]]></name>
    <trkseg>
      <trkpt lat="47.26392" lon="-2.31543">
        <ele>9.6</ele>
        <time>2021-08-26T06:50:29.000Z</time>
      </trkpt>
      <trkpt lat="47.26392" lon="-2.31555">
        <ele>9.1</ele>
        <time>2021-08-26T06:50:32.000Z</time>
      </trkpt>
      <trkpt lat="47.26393" lon="-2.3156">
        <ele>9.1</ele>
        <time>2021-08-26T06:50:33.000Z</time>
      </trkpt>
      <trkpt lat="47.26393" lon="-2.31591">
        <ele>9.1</ele>
        <time>2021-08-26T06:50:39.000Z</time>
      </trkpt>
      <trkpt lat="47.26394" lon="-2.31633">
        <ele>9</ele>
        <time>2021-08-26T06:50:46.000Z</time>
      </trkpt>
      <trkpt lat="47.26394" lon="-2.31637">
        <ele>9</ele>
        <time>2021-08-26T06:50:47.000Z</time>
      </trkpt>
      <trkpt lat="47.26389" lon="-2.31645">
        <ele>8.8</ele>
        <time>2021-08-26T06:50:49.000Z</time>
      </trkpt>
      <trkpt lat="47.26379" lon="-2.31651">
        <ele>8.4</ele>
        <time>2021-08-26T06:50:52.000Z</time>
      </trkpt>
      <trkpt lat="47.26375" lon="-2.31653">
        <ele>8.2</ele>
        <time>2021-08-26T06:50:53.000Z</time>
      </trkpt>
      <trkpt lat="47.26346" lon="-2.31669">
        <ele>7.4</ele>
        <time>2021-08-26T06:50:59.000Z</time>
      </trkpt>
      <trkpt lat="47.26331" lon="-2.31677">
        <ele>-0.40000000596046</ele>
        <time>2021-08-26T06:51:02.000Z</time>
      </trkpt>
      <trkpt lat="47.26325" lon="-2.3168">
        <ele>-0.80000001192093</ele>
        <time>2021-08-26T06:51:03.000Z</time>
      </trkpt>
      <trkpt lat="47.2632" lon="-2.31682">
        <ele>-1.2000000476837</ele>
        <time>2021-08-26T06:51:04.000Z</time>
      </trkpt>
      <trkpt lat="47.26315" lon="-2.31685">
        <ele>-1.6000000238419</ele>
        <time>2021-08-26T06:51:05.000Z</time>
      </trkpt>
      <trkpt lat="47.2631" lon="-2.31688">
        <ele>-2</ele>
        <time>2021-08-26T06:51:06.000Z</time>
      </trkpt>
      <trkpt lat="47.26296" lon="-2.31696">
        <ele>-2</ele>
        <time>2021-08-26T06:51:09.000Z</time>
      </trkpt>
      <trkpt lat="47.26292" lon="-2.317">
        <ele>-2</ele>
        <time>2021-08-26T06:51:10.000Z</time>
      </trkpt>
      <trkpt lat="47.2629" lon="-2.31711">
        <ele>-2.4000000953674</ele>
        <time>2021-08-26T06:51:12.000Z</time>
      </trkpt>
      <trkpt lat="47.26291" lon="-2.31717">
        <ele>-2.7999999523163</ele>
        <time>2021-08-26T06:51:13.000Z</time>
      </trkpt>
      <trkpt lat="47.26292" lon="-2.31724">
        <ele>-3.7999999523163</ele>
        <time>2021-08-26T06:51:14.000Z</time>
      </trkpt>
      <trkpt lat="47.26293" lon="-2.31731">
        <ele>-4.1999998092651</ele>
        <time>2021-08-26T06:51:15.000Z</time>
      </trkpt>
      <trkpt lat="47.26294" lon="-2.31757">
        <ele>-4.1999998092651</ele>
        <time>2021-08-26T06:51:19.000Z</time>
      </trkpt>
      <trkpt lat="47.26293" lon="-2.31801">
        <ele>-4.1999998092651</ele>
        <time>2021-08-26T06:51:26.000Z</time>
      </trkpt>
      <trkpt lat="47.26291" lon="-2.31843">
        <ele>-4.1999998092651</ele>
        <time>2021-08-26T06:51:32.000Z</time>
      </trkpt>
      <trkpt lat="47.26287" lon="-2.31864">
        <ele>-4.1999998092651</ele>
        <time>2021-08-26T06:51:36.000Z</time>
      </trkpt>
      <trkpt lat="47.26277" lon="-2.31873">
        <ele>-4.1999998092651</ele>
        <time>2021-08-26T06:51:39.000Z</time>
      </trkpt>
      <trkpt lat="47.2627" lon="-2.31882">
        <ele>-4.1999998092651</ele>
        <time>2021-08-26T06:51:41.000Z</time>
      </trkpt>
      <trkpt lat="47.26264" lon="-2.31892">
        <ele>-4.1999998092651</ele>
        <time>2021-08-26T06:51:43.000Z</time>
      </trkpt>
      <trkpt lat="47.26258" lon="-2.31902">
        <ele>-4.1999998092651</ele>
        <time>2021-08-26T06:51:45.000Z</time>
      </trkpt>
      <trkpt lat="47.26252" lon="-2.31912">
        <ele>-4.1999998092651</ele>
        <time>2021-08-26T06:51:47.000Z</time>
      </trkpt>
      <trkpt lat="47.26238" lon="-2.31938">
        <ele>-4.1999998092651</ele>
        <time>2021-08-26T06:51:52.000Z</time>
      </trkpt>
      <trkpt lat="47.26235" lon="-2.3194">
        <ele>-4.1999998092651</ele>
        <time>2021-08-26T06:51:53.000Z</time>
      </trkpt>
      <trkpt lat="47.26225" lon="-2.31943">
        <ele>-4.1999998092651</ele>
        <time>2021-08-26T06:51:56.000Z</time>
      </trkpt>
      <trkpt lat="47.26223" lon="-2.31946">
        <ele>-4.1999998092651</ele>
        <time>2021-08-26T06:51:57.000Z</time>
      </trkpt>
      <trkpt lat="47.26209" lon="-2.31961">
        <ele>-4.1999998092651</ele>
        <time>2021-08-26T06:52:03.000Z</time>
      </trkpt>
      <trkpt lat="47.26203" lon="-2.31964">
        <ele>-4.5999999046326</ele>
        <time>2021-08-26T06:52:05.000Z</time>
      </trkpt>
      <trkpt lat="47.26201" lon="-2.31968">
        <ele>-5</ele>
        <time>2021-08-26T06:52:06.000Z</time>
      </trkpt>
      <trkpt lat="47.26199" lon="-2.31971">
        <ele>-5.4000000953674</ele>
        <time>2021-08-26T06:52:07.000Z</time>
      </trkpt>
      <trkpt lat="47.26197" lon="-2.31975">
        <ele>-5.8000001907349</ele>
        <time>2021-08-26T06:52:08.000Z</time>
      </trkpt>
      <trkpt lat="47.26197" lon="-2.31979">
        <ele>-6.1999998092651</ele>
        <time>2021-08-26T06:52:09.000Z</time>
      </trkpt>
      <trkpt lat="47.26194" lon="-2.31987">
        <ele>-6.1999998092651</ele>
        <time>2021-08-26T06:52:12.000Z</time>
      </trkpt>
      <trkpt lat="47.2619" lon="-2.31988">
        <ele>-6.1999998092651</ele>
        <time>2021-08-26T06:52:14.000Z</time>
      </trkpt>
      <trkpt lat="47.26186" lon="-2.31988">
        <ele>-6.1999998092651</ele>
        <time>2021-08-26T06:52:16.000Z</time>
      </trkpt>
      <trkpt lat="47.26168" lon="-2.31995">
        <ele>-6.1999998092651</ele>
        <time>2021-08-26T06:52:22.000Z</time>
      </trkpt>
      <trkpt lat="47.26158" lon="-2.32007">
        <ele>-6.1999998092651</ele>
        <time>2021-08-26T06:52:25.000Z</time>
      </trkpt>
      <trkpt lat="47.26153" lon="-2.32019">
        <ele>-6.1999998092651</ele>
        <time>2021-08-26T06:52:27.000Z</time>
      </trkpt>
      <trkpt lat="47.26143" lon="-2.3205">
        <ele>-6.1999998092651</ele>
        <time>2021-08-26T06:52:32.000Z</time>
      </trkpt>
      <trkpt lat="47.2614" lon="-2.32062">
        <ele>-6.1999998092651</ele>
        <time>2021-08-26T06:52:34.000Z</time>
      </trkpt>
      <trkpt lat="47.26128" lon="-2.32104">
        <ele>-6.1999998092651</ele>
        <time>2021-08-26T06:52:41.000Z</time>
      </trkpt>
      <trkpt lat="47.26123" lon="-2.32116">
        <ele>-6.1999998092651</ele>
        <time>2021-08-26T06:52:43.000Z</time>
      </trkpt>
      <trkpt lat="47.26121" lon="-2.32121">
        <ele>-6.1999998092651</ele>
        <time>2021-08-26T06:52:44.000Z</time>
      </trkpt>
      <trkpt lat="47.26108" lon="-2.32152">
        <ele>-6.1999998092651</ele>
        <time>2021-08-26T06:52:49.000Z</time>
      </trkpt>
      <trkpt lat="47.26098" lon="-2.32175">
        <ele>-6.1999998092651</ele>
        <time>2021-08-26T06:52:53.000Z</time>
      </trkpt>
      <trkpt lat="47.26084" lon="-2.32196">
        <ele>-6.1999998092651</ele>
        <time>2021-08-26T06:52:57.000Z</time>
      </trkpt>
      <trkpt lat="47.26052" lon="-2.32233">
        <ele>-6.1999998092651</ele>
        <time>2021-08-26T06:53:05.000Z</time>
      </trkpt>
      <trkpt lat="47.26018" lon="-2.3227">
        <ele>-6.1999998092651</ele>
        <time>2021-08-26T06:53:13.000Z</time>
      </trkpt>
      <trkpt lat="47.2601" lon="-2.3228">
        <ele>-6.1999998092651</ele>
        <time>2021-08-26T06:53:15.000Z</time>
      </trkpt>
      <trkpt lat="47.25994" lon="-2.323">
        <ele>-6.1999998092651</ele>
        <time>2021-08-26T06:53:19.000Z</time>
      </trkpt>
      <trkpt lat="47.25958" lon="-2.32344">
        <ele>-6.1999998092651</ele>
        <time>2021-08-26T06:53:28.000Z</time>
      </trkpt>
      <trkpt lat="47.25938" lon="-2.32379">
        <ele>-6.1999998092651</ele>
        <time>2021-08-26T06:53:34.000Z</time>
      </trkpt>
      <trkpt lat="47.25917" lon="-2.32428">
        <ele>-6.1999998092651</ele>
        <time>2021-08-26T06:53:42.000Z</time>
      </trkpt>
      <trkpt lat="47.25911" lon="-2.32439">
        <ele>-6.1999998092651</ele>
        <time>2021-08-26T06:53:44.000Z</time>
      </trkpt>
      <trkpt lat="47.25908" lon="-2.3245">
        <ele>-6.1999998092651</ele>
        <time>2021-08-26T06:53:46.000Z</time>
      </trkpt>
      <trkpt lat="47.25915" lon="-2.32463">
        <ele>-6.1999998092651</ele>
        <time>2021-08-26T06:53:49.000Z</time>
      </trkpt>
      <trkpt lat="47.25921" lon="-2.3247">
        <ele>-6.1999998092651</ele>
        <time>2021-08-26T06:53:51.000Z</time>
      </trkpt>
      <trkpt lat="47.25924" lon="-2.32474">
        <ele>-6.1999998092651</ele>
        <time>2021-08-26T06:53:52.000Z</time>
      </trkpt>
      <trkpt lat="47.2593" lon="-2.32486">
        <ele>-6.1999998092651</ele>
        <time>2021-08-26T06:53:54.000Z</time>
      </trkpt>
      <trkpt lat="47.25948" lon="-2.32538">
        <ele>-6.1999998092651</ele>
        <time>2021-08-26T06:54:02.000Z</time>
      </trkpt>
      <trkpt lat="47.25959" lon="-2.32608">
        <ele>-6.1999998092651</ele>
        <time>2021-08-26T06:54:10.000Z</time>
      </trkpt>
      <trkpt lat="47.25963" lon="-2.32639">
        <ele>-6.1999998092651</ele>
        <time>2021-08-26T06:54:14.000Z</time>
      </trkpt>
      <trkpt lat="47.25962" lon="-2.32656">
        <ele>-6.1999998092651</ele>
        <time>2021-08-26T06:54:16.000Z</time>
      </trkpt>
      <trkpt lat="47.25963" lon="-2.32672">
        <ele>-6.1999998092651</ele>
        <time>2021-08-26T06:54:19.000Z</time>
      </trkpt>
      <trkpt lat="47.25964" lon="-2.32675">
        <ele>-6.1999998092651</ele>
        <time>2021-08-26T06:54:20.000Z</time>
      </trkpt>
      <trkpt lat="47.25965" lon="-2.32678">
        <ele>-6.1999998092651</ele>
        <time>2021-08-26T06:54:24.000Z</time>
      </trkpt>
      <trkpt lat="47.25965" lon="-2.32678">
        <ele>-6.1999998092651</ele>
        <time>2021-08-26T06:54:25.000Z</time>
      </trkpt>
      <trkpt lat="47.25976" lon="-2.32677">
        <ele>-6.1999998092651</ele>
        <time>2021-08-26T06:54:30.000Z</time>
      </trkpt>
      <trkpt lat="47.26003" lon="-2.32669">
        <ele>-6.1999998092651</ele>
        <time>2021-08-26T06:54:36.000Z</time>
      </trkpt>
      <trkpt lat="47.26041" lon="-2.32648">
        <ele>-6.1999998092651</ele>
        <time>2021-08-26T06:54:42.000Z</time>
      </trkpt>
      <trkpt lat="47.26074" lon="-2.32638">
        <ele>-6.1999998092651</ele>
        <time>2021-08-26T06:54:48.000Z</time>
      </trkpt>
      <trkpt lat="47.26078" lon="-2.32636">
        <ele>-5.8000001907349</ele>
        <time>2021-08-26T06:54:49.000Z</time>
      </trkpt>
      <trkpt lat="47.26083" lon="-2.32635">
        <ele>-5.4000000953674</ele>
        <time>2021-08-26T06:54:50.000Z</time>
      </trkpt>
      <trkpt lat="47.26088" lon="-2.32634">
        <ele>-5</ele>
        <time>2021-08-26T06:54:51.000Z</time>
      </trkpt>
      <trkpt lat="47.26093" lon="-2.32633">
        <ele>-4.4000000953674</ele>
        <time>2021-08-26T06:54:52.000Z</time>
      </trkpt>
      <trkpt lat="47.26098" lon="-2.32632">
        <ele>-4</ele>
        <time>2021-08-26T06:54:53.000Z</time>
      </trkpt>
      <trkpt lat="47.26118" lon="-2.32629">
        <ele>-4</ele>
        <time>2021-08-26T06:54:57.000Z</time>
      </trkpt>
      <trkpt lat="47.2616" lon="-2.32631">
        <ele>-4</ele>
        <time>2021-08-26T06:55:05.000Z</time>
      </trkpt>
      <trkpt lat="47.26198" lon="-2.32653">
        <ele>-4</ele>
        <time>2021-08-26T06:55:13.000Z</time>
      </trkpt>
      <trkpt lat="47.26224" lon="-2.32691">
        <ele>-4</ele>
        <time>2021-08-26T06:55:20.000Z</time>
      </trkpt>
      <trkpt lat="47.2625" lon="-2.32736">
        <ele>-4</ele>
        <time>2021-08-26T06:55:27.000Z</time>
      </trkpt>
      <trkpt lat="47.26275" lon="-2.32787">
        <ele>-4</ele>
        <time>2021-08-26T06:55:35.000Z</time>
      </trkpt>
      <trkpt lat="47.26277" lon="-2.32793">
        <ele>-4.4000000953674</ele>
        <time>2021-08-26T06:55:36.000Z</time>
      </trkpt>
      <trkpt lat="47.26278" lon="-2.32801">
        <ele>-5</ele>
        <time>2021-08-26T06:55:37.000Z</time>
      </trkpt>
      <trkpt lat="47.2628" lon="-2.32808">
        <ele>-5.4000000953674</ele>
        <time>2021-08-26T06:55:38.000Z</time>
      </trkpt>
      <trkpt lat="47.26281" lon="-2.32816">
        <ele>-5.8000001907349</ele>
        <time>2021-08-26T06:55:39.000Z</time>
      </trkpt>
      <trkpt lat="47.26283" lon="-2.32824">
        <ele>-6.1999998092651</ele>
        <time>2021-08-26T06:55:40.000Z</time>
      </trkpt>
      <trkpt lat="47.2629" lon="-2.32856">
        <ele>-6.5999999046326</ele>
        <time>2021-08-26T06:55:44.000Z</time>
      </trkpt>
      <trkpt lat="47.26294" lon="-2.32862">
        <ele>-7</ele>
        <time>2021-08-26T06:55:45.000Z</time>
      </trkpt>
      <trkpt lat="47.26297" lon="-2.32867">
        <ele>-8</ele>
        <time>2021-08-26T06:55:46.000Z</time>
      </trkpt>
      <trkpt lat="47.26301" lon="-2.32871">
        <ele>-8.3999996185303</ele>
        <time>2021-08-26T06:55:47.000Z</time>
      </trkpt>
      <trkpt lat="47.26306" lon="-2.32875">
        <ele>-8.3999996185303</ele>
        <time>2021-08-26T06:55:48.000Z</time>
      </trkpt>
      <trkpt lat="47.26315" lon="-2.32882">
        <ele>-8.3999996185303</ele>
        <time>2021-08-26T06:55:50.000Z</time>
      </trkpt>
      <trkpt lat="47.26319" lon="-2.32887">
        <ele>-8.3999996185303</ele>
        <time>2021-08-26T06:55:51.000Z</time>
      </trkpt>
      <trkpt lat="47.26329" lon="-2.32916">
        <ele>-8.3999996185303</ele>
        <time>2021-08-26T06:55:55.000Z</time>
      </trkpt>
      <trkpt lat="47.26351" lon="-2.32981">
        <ele>-8.3999996185303</ele>
        <time>2021-08-26T06:56:04.000Z</time>
      </trkpt>
      <trkpt lat="47.26362" lon="-2.32997">
        <ele>-8.3999996185303</ele>
        <time>2021-08-26T06:56:07.000Z</time>
      </trkpt>
      <trkpt lat="47.26365" lon="-2.3301">
        <ele>-8.3999996185303</ele>
        <time>2021-08-26T06:56:09.000Z</time>
      </trkpt>
      <trkpt lat="47.26366" lon="-2.33024">
        <ele>-8.3999996185303</ele>
        <time>2021-08-26T06:56:11.000Z</time>
      </trkpt>
      <trkpt lat="47.26368" lon="-2.33046">
        <ele>-8.3999996185303</ele>
        <time>2021-08-26T06:56:14.000Z</time>
      </trkpt>
      <trkpt lat="47.26374" lon="-2.33123">
        <ele>-8.3999996185303</ele>
        <time>2021-08-26T06:56:24.000Z</time>
      </trkpt>
      <trkpt lat="47.26374" lon="-2.33131">
        <ele>-8.8000001907349</ele>
        <time>2021-08-26T06:56:25.000Z</time>
      </trkpt>
      <trkpt lat="47.26375" lon="-2.33139">
        <ele>-9.1999998092651</ele>
        <time>2021-08-26T06:56:26.000Z</time>
      </trkpt>
      <trkpt lat="47.26375" lon="-2.33146">
        <ele>-9.6000003814697</ele>
        <time>2021-08-26T06:56:27.000Z</time>
      </trkpt>
      <trkpt lat="47.26375" lon="-2.33154">
        <ele>-10.199999809265</ele>
        <time>2021-08-26T06:56:28.000Z</time>
      </trkpt>
      <trkpt lat="47.26376" lon="-2.33162">
        <ele>-10.60000038147</ele>
        <time>2021-08-26T06:56:29.000Z</time>
      </trkpt>
      <trkpt lat="47.26377" lon="-2.33194">
        <ele>-10.60000038147</ele>
        <time>2021-08-26T06:56:33.000Z</time>
      </trkpt>
      <trkpt lat="47.2638" lon="-2.33241">
        <ele>-10.60000038147</ele>
        <time>2021-08-26T06:56:39.000Z</time>
      </trkpt>
      <trkpt lat="47.26384" lon="-2.33256">
        <ele>-10.60000038147</ele>
        <time>2021-08-26T06:56:41.000Z</time>
      </trkpt>
      <trkpt lat="47.26395" lon="-2.3327">
        <ele>-10.60000038147</ele>
        <time>2021-08-26T06:56:44.000Z</time>
      </trkpt>
      <trkpt lat="47.26417" lon="-2.33272">
        <ele>-10.60000038147</ele>
        <time>2021-08-26T06:56:48.000Z</time>
      </trkpt>
      <trkpt lat="47.26423" lon="-2.33273">
        <ele>-10.60000038147</ele>
        <time>2021-08-26T06:56:49.000Z</time>
      </trkpt>
      <trkpt lat="47.26461" lon="-2.33274">
        <ele>-10.60000038147</ele>
        <time>2021-08-26T06:56:56.000Z</time>
      </trkpt>
      <trkpt lat="47.26466" lon="-2.33274">
        <ele>-10.60000038147</ele>
        <time>2021-08-26T06:56:57.000Z</time>
      </trkpt>
      <trkpt lat="47.26496" lon="-2.33278">
        <ele>-10.60000038147</ele>
        <time>2021-08-26T06:57:03.000Z</time>
      </trkpt>
      <trkpt lat="47.26501" lon="-2.33279">
        <ele>-10.60000038147</ele>
        <time>2021-08-26T06:57:04.000Z</time>
      </trkpt>
      <trkpt lat="47.26514" lon="-2.33286">
        <ele>-10.60000038147</ele>
        <time>2021-08-26T06:57:07.000Z</time>
      </trkpt>
      <trkpt lat="47.26533" lon="-2.33289">
        <ele>-10.60000038147</ele>
        <time>2021-08-26T06:57:11.000Z</time>
      </trkpt>
      <trkpt lat="47.26539" lon="-2.33296">
        <ele>-10.60000038147</ele>
        <time>2021-08-26T06:57:13.000Z</time>
      </trkpt>
      <trkpt lat="47.26542" lon="-2.33297">
        <ele>-10.60000038147</ele>
        <time>2021-08-26T06:57:14.000Z</time>
      </trkpt>
      <trkpt lat="47.26545" lon="-2.33296">
        <ele>-10.60000038147</ele>
        <time>2021-08-26T06:57:15.000Z</time>
      </trkpt>
      <trkpt lat="47.26555" lon="-2.33281">
        <ele>-10.60000038147</ele>
        <time>2021-08-26T06:57:19.000Z</time>
      </trkpt>
      <trkpt lat="47.26559" lon="-2.33278">
        <ele>-10.60000038147</ele>
        <time>2021-08-26T06:57:20.000Z</time>
      </trkpt>
      <trkpt lat="47.26578" lon="-2.33257">
        <ele>-10.60000038147</ele>
        <time>2021-08-26T06:57:25.000Z</time>
      </trkpt>
      <trkpt lat="47.26608" lon="-2.33228">
        <ele>-10.60000038147</ele>
        <time>2021-08-26T06:57:32.000Z</time>
      </trkpt>
      <trkpt lat="47.26638" lon="-2.33198">
        <ele>-10.60000038147</ele>
        <time>2021-08-26T06:57:39.000Z</time>
      </trkpt>
      <trkpt lat="47.2667" lon="-2.33166">
        <ele>-10.60000038147</ele>
        <time>2021-08-26T06:57:47.000Z</time>
      </trkpt>
      <trkpt lat="47.26678" lon="-2.33158">
        <ele>-11.39999961853</ele>
        <time>2021-08-26T06:57:49.000Z</time>
      </trkpt>
      <trkpt lat="47.26682" lon="-2.33153">
        <ele>-11.800000190735</ele>
        <time>2021-08-26T06:57:50.000Z</time>
      </trkpt>
      <trkpt lat="47.26686" lon="-2.33149">
        <ele>-12.199999809265</ele>
        <time>2021-08-26T06:57:51.000Z</time>
      </trkpt>
      <trkpt lat="47.2669" lon="-2.33145">
        <ele>-12.60000038147</ele>
        <time>2021-08-26T06:57:52.000Z</time>
      </trkpt>
      <trkpt lat="47.26699" lon="-2.33137">
        <ele>-12.60000038147</ele>
        <time>2021-08-26T06:57:54.000Z</time>
      </trkpt>
      <trkpt lat="47.26727" lon="-2.33108">
        <ele>-12.60000038147</ele>
        <time>2021-08-26T06:58:01.000Z</time>
      </trkpt>
      <trkpt lat="47.26749" lon="-2.33086">
        <ele>-12.60000038147</ele>
        <time>2021-08-26T06:58:07.000Z</time>
      </trkpt>
      <trkpt lat="47.26753" lon="-2.33086">
        <ele>-12.60000038147</ele>
        <time>2021-08-26T06:58:08.000Z</time>
      </trkpt>
      <trkpt lat="47.26762" lon="-2.33093">
        <ele>-12.60000038147</ele>
        <time>2021-08-26T06:58:10.000Z</time>
      </trkpt>
      <trkpt lat="47.26766" lon="-2.33098">
        <ele>-13</ele>
        <time>2021-08-26T06:58:11.000Z</time>
      </trkpt>
      <trkpt lat="47.26769" lon="-2.33104">
        <ele>-13.39999961853</ele>
        <time>2021-08-26T06:58:12.000Z</time>
      </trkpt>
      <trkpt lat="47.26771" lon="-2.3311">
        <ele>-13.800000190735</ele>
        <time>2021-08-26T06:58:13.000Z</time>
      </trkpt>
      <trkpt lat="47.26772" lon="-2.33117">
        <ele>-14.60000038147</ele>
        <time>2021-08-26T06:58:14.000Z</time>
      </trkpt>
      <trkpt lat="47.26768" lon="-2.3314">
        <ele>-14.60000038147</ele>
        <time>2021-08-26T06:58:17.000Z</time>
      </trkpt>
      <trkpt lat="47.26765" lon="-2.33149">
        <ele>-14.60000038147</ele>
        <time>2021-08-26T06:58:18.000Z</time>
      </trkpt>
      <trkpt lat="47.2676" lon="-2.33166">
        <ele>-14.60000038147</ele>
        <time>2021-08-26T06:58:20.000Z</time>
      </trkpt>
      <trkpt lat="47.26756" lon="-2.3318">
        <ele>-14.60000038147</ele>
        <time>2021-08-26T06:58:22.000Z</time>
      </trkpt>
      <trkpt lat="47.26741" lon="-2.33233">
        <ele>-14.60000038147</ele>
        <time>2021-08-26T06:58:29.000Z</time>
      </trkpt>
      <trkpt lat="47.26736" lon="-2.33257">
        <ele>-14.60000038147</ele>
        <time>2021-08-26T06:58:32.000Z</time>
      </trkpt>
      <trkpt lat="47.26737" lon="-2.33276">
        <ele>-14.60000038147</ele>
        <time>2021-08-26T06:58:34.000Z</time>
      </trkpt>
      <trkpt lat="47.26744" lon="-2.3331">
        <ele>-14.60000038147</ele>
        <time>2021-08-26T06:58:38.000Z</time>
      </trkpt>
      <trkpt lat="47.26746" lon="-2.33318">
        <ele>-14.60000038147</ele>
        <time>2021-08-26T06:58:39.000Z</time>
      </trkpt>
      <trkpt lat="47.2675" lon="-2.33336">
        <ele>-14.60000038147</ele>
        <time>2021-08-26T06:58:41.000Z</time>
      </trkpt>
      <trkpt lat="47.26754" lon="-2.3337">
        <ele>-14.60000038147</ele>
        <time>2021-08-26T06:58:45.000Z</time>
      </trkpt>
      <trkpt lat="47.26755" lon="-2.33378">
        <ele>-15</ele>
        <time>2021-08-26T06:58:46.000Z</time>
      </trkpt>
      <trkpt lat="47.26756" lon="-2.33387">
        <ele>-15.60000038147</ele>
        <time>2021-08-26T06:58:47.000Z</time>
      </trkpt>
      <trkpt lat="47.26757" lon="-2.33395">
        <ele>-16</ele>
        <time>2021-08-26T06:58:48.000Z</time>
      </trkpt>
      <trkpt lat="47.26758" lon="-2.33404">
        <ele>-16.39999961853</ele>
        <time>2021-08-26T06:58:49.000Z</time>
      </trkpt>
      <trkpt lat="47.26759" lon="-2.33412">
        <ele>-16.799999237061</ele>
        <time>2021-08-26T06:58:50.000Z</time>
      </trkpt>
      <trkpt lat="47.26762" lon="-2.33438">
        <ele>-16.799999237061</ele>
        <time>2021-08-26T06:58:53.000Z</time>
      </trkpt>
      <trkpt lat="47.2677" lon="-2.335">
        <ele>-16.799999237061</ele>
        <time>2021-08-26T06:59:00.000Z</time>
      </trkpt>
      <trkpt lat="47.26779" lon="-2.33568">
        <ele>-16.799999237061</ele>
        <time>2021-08-26T06:59:08.000Z</time>
      </trkpt>
      <trkpt lat="47.26779" lon="-2.33618">
        <ele>-16.799999237061</ele>
        <time>2021-08-26T06:59:14.000Z</time>
      </trkpt>
      <trkpt lat="47.26778" lon="-2.33642">
        <ele>-16.799999237061</ele>
        <time>2021-08-26T06:59:17.000Z</time>
      </trkpt>
      <trkpt lat="47.26778" lon="-2.33665">
        <ele>-16.799999237061</ele>
        <time>2021-08-26T06:59:20.000Z</time>
      </trkpt>
      <trkpt lat="47.26781" lon="-2.33698">
        <ele>-16.799999237061</ele>
        <time>2021-08-26T06:59:25.000Z</time>
      </trkpt>
      <trkpt lat="47.26782" lon="-2.33704">
        <ele>-16.799999237061</ele>
        <time>2021-08-26T06:59:26.000Z</time>
      </trkpt>
      <trkpt lat="47.26797" lon="-2.33723">
        <ele>-16.799999237061</ele>
        <time>2021-08-26T06:59:30.000Z</time>
      </trkpt>
      <trkpt lat="47.26801" lon="-2.33728">
        <ele>-16.799999237061</ele>
        <time>2021-08-26T06:59:31.000Z</time>
      </trkpt>
      <trkpt lat="47.26823" lon="-2.33752">
        <ele>-16.39999961853</ele>
        <time>2021-08-26T06:59:36.000Z</time>
      </trkpt>
      <trkpt lat="47.26827" lon="-2.33756">
        <ele>-16</ele>
        <time>2021-08-26T06:59:37.000Z</time>
      </trkpt>
      <trkpt lat="47.26831" lon="-2.33761">
        <ele>-15.60000038147</ele>
        <time>2021-08-26T06:59:38.000Z</time>
      </trkpt>
      <trkpt lat="47.26835" lon="-2.33766">
        <ele>-15.199999809265</ele>
        <time>2021-08-26T06:59:39.000Z</time>
      </trkpt>
      <trkpt lat="47.26839" lon="-2.33772">
        <ele>-14.60000038147</ele>
        <time>2021-08-26T06:59:40.000Z</time>
      </trkpt>
      <trkpt lat="47.26844" lon="-2.33776">
        <ele>-14.60000038147</ele>
        <time>2021-08-26T06:59:41.000Z</time>
      </trkpt>
      <trkpt lat="47.26859" lon="-2.33785">
        <ele>-14.60000038147</ele>
        <time>2021-08-26T06:59:44.000Z</time>
      </trkpt>
      <trkpt lat="47.26864" lon="-2.33786">
        <ele>-14.60000038147</ele>
        <time>2021-08-26T06:59:45.000Z</time>
      </trkpt>
      <trkpt lat="47.26893" lon="-2.33799">
        <ele>-14.60000038147</ele>
        <time>2021-08-26T06:59:51.000Z</time>
      </trkpt>
      <trkpt lat="47.26901" lon="-2.33817">
        <ele>-14.60000038147</ele>
        <time>2021-08-26T06:59:54.000Z</time>
      </trkpt>
      <trkpt lat="47.26902" lon="-2.33824">
        <ele>-14.60000038147</ele>
        <time>2021-08-26T06:59:55.000Z</time>
      </trkpt>
      <trkpt lat="47.26912" lon="-2.33868">
        <ele>-14.60000038147</ele>
        <time>2021-08-26T07:00:01.000Z</time>
      </trkpt>
      <trkpt lat="47.26921" lon="-2.33906">
        <ele>-15</ele>
        <time>2021-08-26T07:00:06.000Z</time>
      </trkpt>
      <trkpt lat="47.26923" lon="-2.33914">
        <ele>-15.60000038147</ele>
        <time>2021-08-26T07:00:07.000Z</time>
      </trkpt>
      <trkpt lat="47.26924" lon="-2.33921">
        <ele>-16</ele>
        <time>2021-08-26T07:00:08.000Z</time>
      </trkpt>
      <trkpt lat="47.26926" lon="-2.33928">
        <ele>-16.39999961853</ele>
        <time>2021-08-26T07:00:09.000Z</time>
      </trkpt>
      <trkpt lat="47.26927" lon="-2.33936">
        <ele>-16.799999237061</ele>
        <time>2021-08-26T07:00:10.000Z</time>
      </trkpt>
      <trkpt lat="47.26929" lon="-2.33943">
        <ele>-16.799999237061</ele>
        <time>2021-08-26T07:00:11.000Z</time>
      </trkpt>
      <trkpt lat="47.26941" lon="-2.33999">
        <ele>-16.799999237061</ele>
        <time>2021-08-26T07:00:19.000Z</time>
      </trkpt>
      <trkpt lat="47.26953" lon="-2.34049">
        <ele>-16.799999237061</ele>
        <time>2021-08-26T07:00:26.000Z</time>
      </trkpt>
      <trkpt lat="47.26968" lon="-2.34115">
        <ele>-16.799999237061</ele>
        <time>2021-08-26T07:00:35.000Z</time>
      </trkpt>
      <trkpt lat="47.26982" lon="-2.34175">
        <ele>-16.799999237061</ele>
        <time>2021-08-26T07:00:43.000Z</time>
      </trkpt>
      <trkpt lat="47.26996" lon="-2.34234">
        <ele>-16.799999237061</ele>
        <time>2021-08-26T07:00:51.000Z</time>
      </trkpt>
      <trkpt lat="47.27006" lon="-2.34285">
        <ele>-16.799999237061</ele>
        <time>2021-08-26T07:00:58.000Z</time>
      </trkpt>
      <trkpt lat="47.27006" lon="-2.34309">
        <ele>-16.799999237061</ele>
        <time>2021-08-26T07:01:02.000Z</time>
      </trkpt>
      <trkpt lat="47.27013" lon="-2.34322">
        <ele>-16.799999237061</ele>
        <time>2021-08-26T07:01:06.000Z</time>
      </trkpt>
      <trkpt lat="47.27019" lon="-2.34323">
        <ele>-16.799999237061</ele>
        <time>2021-08-26T07:01:08.000Z</time>
      </trkpt>
      <trkpt lat="47.27027" lon="-2.34323">
        <ele>-16.799999237061</ele>
        <time>2021-08-26T07:01:10.000Z</time>
      </trkpt>
      <trkpt lat="47.27032" lon="-2.34325">
        <ele>-16.799999237061</ele>
        <time>2021-08-26T07:01:11.000Z</time>
      </trkpt>
      <trkpt lat="47.27042" lon="-2.34338">
        <ele>-16.799999237061</ele>
        <time>2021-08-26T07:01:14.000Z</time>
      </trkpt>
      <trkpt lat="47.27046" lon="-2.34353">
        <ele>-16.799999237061</ele>
        <time>2021-08-26T07:01:16.000Z</time>
      </trkpt>
      <trkpt lat="47.27049" lon="-2.34369">
        <ele>-16.799999237061</ele>
        <time>2021-08-26T07:01:18.000Z</time>
      </trkpt>
      <trkpt lat="47.27061" lon="-2.34418">
        <ele>-16.799999237061</ele>
        <time>2021-08-26T07:01:24.000Z</time>
      </trkpt>
      <trkpt lat="47.27075" lon="-2.34478">
        <ele>-16.799999237061</ele>
        <time>2021-08-26T07:01:31.000Z</time>
      </trkpt>
      <trkpt lat="47.27092" lon="-2.34556">
        <ele>-16.799999237061</ele>
        <time>2021-08-26T07:01:40.000Z</time>
      </trkpt>
      <trkpt lat="47.27096" lon="-2.34574">
        <ele>-16.799999237061</ele>
        <time>2021-08-26T07:01:42.000Z</time>
      </trkpt>
      <trkpt lat="47.27103" lon="-2.34599">
        <ele>-16.799999237061</ele>
        <time>2021-08-26T07:01:45.000Z</time>
      </trkpt>
      <trkpt lat="47.27116" lon="-2.34656">
        <ele>-16.799999237061</ele>
        <time>2021-08-26T07:01:51.000Z</time>
      </trkpt>
      <trkpt lat="47.27117" lon="-2.34665">
        <ele>-16.799999237061</ele>
        <time>2021-08-26T07:01:52.000Z</time>
      </trkpt>
      <trkpt lat="47.2713" lon="-2.34723">
        <ele>-17.200000762939</ele>
        <time>2021-08-26T07:01:58.000Z</time>
      </trkpt>
      <trkpt lat="47.27132" lon="-2.34732">
        <ele>-17.60000038147</ele>
        <time>2021-08-26T07:01:59.000Z</time>
      </trkpt>
      <trkpt lat="47.27134" lon="-2.34741">
        <ele>-18</ele>
        <time>2021-08-26T07:02:00.000Z</time>
      </trkpt>
      <trkpt lat="47.27135" lon="-2.3475">
        <ele>-18.39999961853</ele>
        <time>2021-08-26T07:02:01.000Z</time>
      </trkpt>
      <trkpt lat="47.27137" lon="-2.34759">
        <ele>-18.799999237061</ele>
        <time>2021-08-26T07:02:02.000Z</time>
      </trkpt>
      <trkpt lat="47.27144" lon="-2.34795">
        <ele>-18.799999237061</ele>
        <time>2021-08-26T07:02:06.000Z</time>
      </trkpt>
      <trkpt lat="47.2716" lon="-2.34866">
        <ele>-18.799999237061</ele>
        <time>2021-08-26T07:02:14.000Z</time>
      </trkpt>
      <trkpt lat="47.27177" lon="-2.34925">
        <ele>-18.799999237061</ele>
        <time>2021-08-26T07:02:21.000Z</time>
      </trkpt>
      <trkpt lat="47.27186" lon="-2.34957">
        <ele>-18.799999237061</ele>
        <time>2021-08-26T07:02:25.000Z</time>
      </trkpt>
      <trkpt lat="47.27195" lon="-2.34981">
        <ele>-18.799999237061</ele>
        <time>2021-08-26T07:02:28.000Z</time>
      </trkpt>
      <trkpt lat="47.27215" lon="-2.35036">
        <ele>-18.799999237061</ele>
        <time>2021-08-26T07:02:35.000Z</time>
      </trkpt>
      <trkpt lat="47.27237" lon="-2.35096">
        <ele>-18.799999237061</ele>
        <time>2021-08-26T07:02:42.000Z</time>
      </trkpt>
      <trkpt lat="47.27251" lon="-2.35125">
        <ele>-18.799999237061</ele>
        <time>2021-08-26T07:02:46.000Z</time>
      </trkpt>
      <trkpt lat="47.27255" lon="-2.35128">
        <ele>-18.799999237061</ele>
        <time>2021-08-26T07:02:47.000Z</time>
      </trkpt>
      <trkpt lat="47.27269" lon="-2.35123">
        <ele>-18.799999237061</ele>
        <time>2021-08-26T07:02:50.000Z</time>
      </trkpt>
      <trkpt lat="47.27274" lon="-2.3512">
        <ele>-18.799999237061</ele>
        <time>2021-08-26T07:02:51.000Z</time>
      </trkpt>
      <trkpt lat="47.27293" lon="-2.35107">
        <ele>-18.799999237061</ele>
        <time>2021-08-26T07:02:56.000Z</time>
      </trkpt>
      <trkpt lat="47.27299" lon="-2.35109">
        <ele>-18.799999237061</ele>
        <time>2021-08-26T07:02:58.000Z</time>
      </trkpt>
      <trkpt lat="47.27302" lon="-2.35112">
        <ele>-18.799999237061</ele>
        <time>2021-08-26T07:02:59.000Z</time>
      </trkpt>
      <trkpt lat="47.2731" lon="-2.35133">
        <ele>-18.799999237061</ele>
        <time>2021-08-26T07:03:03.000Z</time>
      </trkpt>
      <trkpt lat="47.27315" lon="-2.35146">
        <ele>-18.799999237061</ele>
        <time>2021-08-26T07:03:05.000Z</time>
      </trkpt>
      <trkpt lat="47.27319" lon="-2.3516">
        <ele>-18.799999237061</ele>
        <time>2021-08-26T07:03:07.000Z</time>
      </trkpt>
      <trkpt lat="47.27325" lon="-2.35182">
        <ele>-18.799999237061</ele>
        <time>2021-08-26T07:03:10.000Z</time>
      </trkpt>
      <trkpt lat="47.27342" lon="-2.35256">
        <ele>-18.799999237061</ele>
        <time>2021-08-26T07:03:19.000Z</time>
      </trkpt>
      <trkpt lat="47.27353" lon="-2.35306">
        <ele>-18.799999237061</ele>
        <time>2021-08-26T07:03:25.000Z</time>
      </trkpt>
      <trkpt lat="47.27363" lon="-2.35351">
        <ele>-19.200000762939</ele>
        <time>2021-08-26T07:03:30.000Z</time>
      </trkpt>
      <trkpt lat="47.27365" lon="-2.35361">
        <ele>-19.60000038147</ele>
        <time>2021-08-26T07:03:31.000Z</time>
      </trkpt>
      <trkpt lat="47.27367" lon="-2.3537">
        <ele>-20</ele>
        <time>2021-08-26T07:03:32.000Z</time>
      </trkpt>
      <trkpt lat="47.27369" lon="-2.3538">
        <ele>-20.60000038147</ele>
        <time>2021-08-26T07:03:33.000Z</time>
      </trkpt>
      <trkpt lat="47.27371" lon="-2.3539">
        <ele>-21</ele>
        <time>2021-08-26T07:03:34.000Z</time>
      </trkpt>
      <trkpt lat="47.27377" lon="-2.3542">
        <ele>-21.39999961853</ele>
        <time>2021-08-26T07:03:37.000Z</time>
      </trkpt>
      <trkpt lat="47.27379" lon="-2.3543">
        <ele>-21.799999237061</ele>
        <time>2021-08-26T07:03:38.000Z</time>
      </trkpt>
      <trkpt lat="47.27382" lon="-2.35441">
        <ele>-22.200000762939</ele>
        <time>2021-08-26T07:03:39.000Z</time>
      </trkpt>
      <trkpt lat="47.27384" lon="-2.35452">
        <ele>-22.60000038147</ele>
        <time>2021-08-26T07:03:40.000Z</time>
      </trkpt>
      <trkpt lat="47.27386" lon="-2.35462">
        <ele>-23.200000762939</ele>
        <time>2021-08-26T07:03:41.000Z</time>
      </trkpt>
      <trkpt lat="47.27399" lon="-2.35524">
        <ele>-23.200000762939</ele>
        <time>2021-08-26T07:03:47.000Z</time>
      </trkpt>
      <trkpt lat="47.27401" lon="-2.35535">
        <ele>-23.60000038147</ele>
        <time>2021-08-26T07:03:48.000Z</time>
      </trkpt>
      <trkpt lat="47.27403" lon="-2.35546">
        <ele>-24</ele>
        <time>2021-08-26T07:03:49.000Z</time>
      </trkpt>
      <trkpt lat="47.27405" lon="-2.35557">
        <ele>-24.39999961853</ele>
        <time>2021-08-26T07:03:50.000Z</time>
      </trkpt>
      <trkpt lat="47.27406" lon="-2.35568">
        <ele>-24.799999237061</ele>
        <time>2021-08-26T07:03:51.000Z</time>
      </trkpt>
      <trkpt lat="47.27407" lon="-2.35579">
        <ele>-25.200000762939</ele>
        <time>2021-08-26T07:03:52.000Z</time>
      </trkpt>
      <trkpt lat="47.27409" lon="-2.3559">
        <ele>-25.200000762939</ele>
        <time>2021-08-26T07:03:53.000Z</time>
      </trkpt>
      <trkpt lat="47.27417" lon="-2.35645">
        <ele>-26</ele>
        <time>2021-08-26T07:03:58.000Z</time>
      </trkpt>
      <trkpt lat="47.2742" lon="-2.35655">
        <ele>-26.39999961853</ele>
        <time>2021-08-26T07:03:59.000Z</time>
      </trkpt>
      <trkpt lat="47.27425" lon="-2.35663">
        <ele>-26.799999237061</ele>
        <time>2021-08-26T07:04:00.000Z</time>
      </trkpt>
      <trkpt lat="47.27429" lon="-2.35668">
        <ele>-27.200000762939</ele>
        <time>2021-08-26T07:04:01.000Z</time>
      </trkpt>
      <trkpt lat="47.27434" lon="-2.35673">
        <ele>-27.200000762939</ele>
        <time>2021-08-26T07:04:02.000Z</time>
      </trkpt>
      <trkpt lat="47.2745" lon="-2.3568">
        <ele>-27.200000762939</ele>
        <time>2021-08-26T07:04:05.000Z</time>
      </trkpt>
      <trkpt lat="47.27465" lon="-2.3568">
        <ele>-27.200000762939</ele>
        <time>2021-08-26T07:04:07.000Z</time>
      </trkpt>
      <trkpt lat="47.27511" lon="-2.35685">
        <ele>-27.200000762939</ele>
        <time>2021-08-26T07:04:14.000Z</time>
      </trkpt>
      <trkpt lat="47.27551" lon="-2.35693">
        <ele>-27.200000762939</ele>
        <time>2021-08-26T07:04:21.000Z</time>
      </trkpt>
      <trkpt lat="47.2759" lon="-2.35701">
        <ele>-27.200000762939</ele>
        <time>2021-08-26T07:04:28.000Z</time>
      </trkpt>
      <trkpt lat="47.27631" lon="-2.35711">
        <ele>-27.200000762939</ele>
        <time>2021-08-26T07:04:35.000Z</time>
      </trkpt>
      <trkpt lat="47.27662" lon="-2.3572">
        <ele>-27.200000762939</ele>
        <time>2021-08-26T07:04:41.000Z</time>
      </trkpt>
      <trkpt lat="47.27691" lon="-2.35727">
        <ele>-27.200000762939</ele>
        <time>2021-08-26T07:04:47.000Z</time>
      </trkpt>
      <trkpt lat="47.27695" lon="-2.35725">
        <ele>-27.200000762939</ele>
        <time>2021-08-26T07:04:48.000Z</time>
      </trkpt>
      <trkpt lat="47.27708" lon="-2.35714">
        <ele>-26.799999237061</ele>
        <time>2021-08-26T07:04:51.000Z</time>
      </trkpt>
      <trkpt lat="47.27712" lon="-2.3571">
        <ele>-26.39999961853</ele>
        <time>2021-08-26T07:04:52.000Z</time>
      </trkpt>
      <trkpt lat="47.27716" lon="-2.35705">
        <ele>-26</ele>
        <time>2021-08-26T07:04:53.000Z</time>
      </trkpt>
      <trkpt lat="47.2772" lon="-2.357">
        <ele>-25.60000038147</ele>
        <time>2021-08-26T07:04:54.000Z</time>
      </trkpt>
      <trkpt lat="47.27723" lon="-2.35695">
        <ele>-25.200000762939</ele>
        <time>2021-08-26T07:04:55.000Z</time>
      </trkpt>
      <trkpt lat="47.27727" lon="-2.3569">
        <ele>-25.200000762939</ele>
        <time>2021-08-26T07:04:56.000Z</time>
      </trkpt>
      <trkpt lat="47.27734" lon="-2.35678">
        <ele>-24.799999237061</ele>
        <time>2021-08-26T07:04:58.000Z</time>
      </trkpt>
      <trkpt lat="47.27738" lon="-2.35672">
        <ele>-24.39999961853</ele>
        <time>2021-08-26T07:04:59.000Z</time>
      </trkpt>
      <trkpt lat="47.27741" lon="-2.35666">
        <ele>-24</ele>
        <time>2021-08-26T07:05:00.000Z</time>
      </trkpt>
      <trkpt lat="47.27745" lon="-2.35661">
        <ele>-23.60000038147</ele>
        <time>2021-08-26T07:05:01.000Z</time>
      </trkpt>
      <trkpt lat="47.27748" lon="-2.35656">
        <ele>-23</ele>
        <time>2021-08-26T07:05:02.000Z</time>
      </trkpt>
      <trkpt lat="47.2776" lon="-2.35641">
        <ele>-23</ele>
        <time>2021-08-26T07:05:05.000Z</time>
      </trkpt>
      <trkpt lat="47.27764" lon="-2.35636">
        <ele>-23</ele>
        <time>2021-08-26T07:05:06.000Z</time>
      </trkpt>
      <trkpt lat="47.27769" lon="-2.35633">
        <ele>-23</ele>
        <time>2021-08-26T07:05:07.000Z</time>
      </trkpt>
      <trkpt lat="47.27787" lon="-2.35619">
        <ele>-23</ele>
        <time>2021-08-26T07:05:11.000Z</time>
      </trkpt>
      <trkpt lat="47.27792" lon="-2.35616">
        <ele>-23</ele>
        <time>2021-08-26T07:05:12.000Z</time>
      </trkpt>
      <trkpt lat="47.27828" lon="-2.35602">
        <ele>-23</ele>
        <time>2021-08-26T07:05:19.000Z</time>
      </trkpt>
      <trkpt lat="47.27861" lon="-2.35593">
        <ele>-22.60000038147</ele>
        <time>2021-08-26T07:05:26.000Z</time>
      </trkpt>
      <trkpt lat="47.27866" lon="-2.35591">
        <ele>-22.200000762939</ele>
        <time>2021-08-26T07:05:27.000Z</time>
      </trkpt>
      <trkpt lat="47.27871" lon="-2.3559">
        <ele>-21.799999237061</ele>
        <time>2021-08-26T07:05:28.000Z</time>
      </trkpt>
      <trkpt lat="47.27876" lon="-2.35589">
        <ele>-21.39999961853</ele>
        <time>2021-08-26T07:05:29.000Z</time>
      </trkpt>
      <trkpt lat="47.27881" lon="-2.35587">
        <ele>-21</ele>
        <time>2021-08-26T07:05:30.000Z</time>
      </trkpt>
      <trkpt lat="47.27902" lon="-2.35581">
        <ele>-21</ele>
        <time>2021-08-26T07:05:35.000Z</time>
      </trkpt>
      <trkpt lat="47.27931" lon="-2.35573">
        <ele>-21</ele>
        <time>2021-08-26T07:05:42.000Z</time>
      </trkpt>
      <trkpt lat="47.27944" lon="-2.35571">
        <ele>-21</ele>
        <time>2021-08-26T07:05:45.000Z</time>
      </trkpt>
      <trkpt lat="47.27959" lon="-2.35572">
        <ele>-21</ele>
        <time>2021-08-26T07:05:48.000Z</time>
      </trkpt>
      <trkpt lat="47.2798" lon="-2.35576">
        <ele>-21</ele>
        <time>2021-08-26T07:05:53.000Z</time>
      </trkpt>
      <trkpt lat="47.27994" lon="-2.35575">
        <ele>-21</ele>
        <time>2021-08-26T07:05:57.000Z</time>
      </trkpt>
      <trkpt lat="47.28024" lon="-2.35569">
        <ele>-21</ele>
        <time>2021-08-26T07:06:04.000Z</time>
      </trkpt>
      <trkpt lat="47.28045" lon="-2.35568">
        <ele>-21</ele>
        <time>2021-08-26T07:06:11.000Z</time>
      </trkpt>
      <trkpt lat="47.28055" lon="-2.3557">
        <ele>-21</ele>
        <time>2021-08-26T07:06:17.000Z</time>
      </trkpt>
      <trkpt lat="47.2805" lon="-2.35573">
        <ele>-29.200000762939</ele>
        <time>2021-08-26T07:12:34.000Z</time>
      </trkpt>
      <trkpt lat="47.28047" lon="-2.35575">
        <ele>-29.200000762939</ele>
        <time>2021-08-26T07:12:36.000Z</time>
      </trkpt>
      <trkpt lat="47.28038" lon="-2.35568">
        <ele>-29.200000762939</ele>
        <time>2021-08-26T07:12:40.000Z</time>
      </trkpt>
      <trkpt lat="47.2804" lon="-2.35554">
        <ele>-29.200000762939</ele>
        <time>2021-08-26T07:12:43.000Z</time>
      </trkpt>
      <trkpt lat="47.2805" lon="-2.35549">
        <ele>-29.200000762939</ele>
        <time>2021-08-26T07:12:46.000Z</time>
      </trkpt>
      <trkpt lat="47.28054" lon="-2.35549">
        <ele>-29.200000762939</ele>
        <time>2021-08-26T07:12:48.000Z</time>
      </trkpt>
      <trkpt lat="47.28061" lon="-2.35549">
        <ele>-29.200000762939</ele>
        <time>2021-08-26T07:12:51.000Z</time>
      </trkpt>
      <trkpt lat="47.28079" lon="-2.35554">
        <ele>-29.200000762939</ele>
        <time>2021-08-26T07:12:57.000Z</time>
      </trkpt>
      <trkpt lat="47.28103" lon="-2.35557">
        <ele>-29.200000762939</ele>
        <time>2021-08-26T07:13:04.000Z</time>
      </trkpt>
      <trkpt lat="47.28112" lon="-2.35558">
        <ele>-29.200000762939</ele>
        <time>2021-08-26T07:13:09.000Z</time>
      </trkpt>
      <trkpt lat="47.28128" lon="-2.35557">
        <ele>-29.200000762939</ele>
        <time>2021-08-26T07:13:16.000Z</time>
      </trkpt>
      <trkpt lat="47.28137" lon="-2.35552">
        <ele>-29.200000762939</ele>
        <time>2021-08-26T07:13:19.000Z</time>
      </trkpt>
      <trkpt lat="47.28143" lon="-2.35542">
        <ele>-29.200000762939</ele>
        <time>2021-08-26T07:13:21.000Z</time>
      </trkpt>
      <trkpt lat="47.28163" lon="-2.35511">
        <ele>-29.200000762939</ele>
        <time>2021-08-26T07:13:28.000Z</time>
      </trkpt>
      <trkpt lat="47.28179" lon="-2.35482">
        <ele>-29.200000762939</ele>
        <time>2021-08-26T07:13:34.000Z</time>
      </trkpt>
      <trkpt lat="47.28198" lon="-2.35453">
        <ele>-29.200000762939</ele>
        <time>2021-08-26T07:13:41.000Z</time>
      </trkpt>
      <trkpt lat="47.28219" lon="-2.35428">
        <ele>-29.200000762939</ele>
        <time>2021-08-26T07:13:47.000Z</time>
      </trkpt>
      <trkpt lat="47.28241" lon="-2.35405">
        <ele>-29.200000762939</ele>
        <time>2021-08-26T07:13:54.000Z</time>
      </trkpt>
      <trkpt lat="47.28246" lon="-2.35399">
        <ele>-29.200000762939</ele>
        <time>2021-08-26T07:13:59.000Z</time>
      </trkpt>
      <trkpt lat="47.28249" lon="-2.35399">
        <ele>-29.60000038147</ele>
        <time>2021-08-26T07:14:01.000Z</time>
      </trkpt>
      <trkpt lat="47.28251" lon="-2.35399">
        <ele>-30</ele>
        <time>2021-08-26T07:14:02.000Z</time>
      </trkpt>
      <trkpt lat="47.28252" lon="-2.354">
        <ele>-30.39999961853</ele>
        <time>2021-08-26T07:14:03.000Z</time>
      </trkpt>
      <trkpt lat="47.28253" lon="-2.35401">
        <ele>-30.799999237061</ele>
        <time>2021-08-26T07:14:04.000Z</time>
      </trkpt>
      <trkpt lat="47.28254" lon="-2.35403">
        <ele>-31.200000762939</ele>
        <time>2021-08-26T07:14:05.000Z</time>
      </trkpt>
      <trkpt lat="47.28258" lon="-2.35407">
        <ele>-31.200000762939</ele>
        <time>2021-08-26T07:14:10.000Z</time>
      </trkpt>
      <trkpt lat="47.28261" lon="-2.35408">
        <ele>-31.200000762939</ele>
        <time>2021-08-26T07:14:13.000Z</time>
      </trkpt>
      <trkpt lat="47.28268" lon="-2.35408">
        <ele>-31.200000762939</ele>
        <time>2021-08-26T07:14:17.000Z</time>
      </trkpt>
      <trkpt lat="47.28276" lon="-2.35405">
        <ele>-31.200000762939</ele>
        <time>2021-08-26T07:14:21.000Z</time>
      </trkpt>
      <trkpt lat="47.28279" lon="-2.35402">
        <ele>-31.200000762939</ele>
        <time>2021-08-26T07:14:23.000Z</time>
      </trkpt>
      <trkpt lat="47.28284" lon="-2.35388">
        <ele>-31.200000762939</ele>
        <time>2021-08-26T07:14:27.000Z</time>
      </trkpt>
      <trkpt lat="47.28292" lon="-2.35378">
        <ele>-31.200000762939</ele>
        <time>2021-08-26T07:14:30.000Z</time>
      </trkpt>
      <trkpt lat="47.28299" lon="-2.35371">
        <ele>-31.200000762939</ele>
        <time>2021-08-26T07:14:32.000Z</time>
      </trkpt>
      <trkpt lat="47.28321" lon="-2.35356">
        <ele>-31.200000762939</ele>
        <time>2021-08-26T07:14:39.000Z</time>
      </trkpt>
      <trkpt lat="47.28337" lon="-2.35347">
        <ele>-31.200000762939</ele>
        <time>2021-08-26T07:14:45.000Z</time>
      </trkpt>
      <trkpt lat="47.28352" lon="-2.35337">
        <ele>-31.200000762939</ele>
        <time>2021-08-26T07:14:51.000Z</time>
      </trkpt>
      <trkpt lat="47.28357" lon="-2.35336">
        <ele>-31.200000762939</ele>
        <time>2021-08-26T07:14:53.000Z</time>
      </trkpt>
      <trkpt lat="47.2836" lon="-2.35342">
        <ele>-31.200000762939</ele>
        <time>2021-08-26T07:14:55.000Z</time>
      </trkpt>
      <trkpt lat="47.28363" lon="-2.35352">
        <ele>-31.200000762939</ele>
        <time>2021-08-26T07:14:58.000Z</time>
      </trkpt>
      <trkpt lat="47.28365" lon="-2.35359">
        <ele>-31.200000762939</ele>
        <time>2021-08-26T07:15:01.000Z</time>
      </trkpt>
      <trkpt lat="47.28371" lon="-2.35371">
        <ele>-31.200000762939</ele>
        <time>2021-08-26T07:15:07.000Z</time>
      </trkpt>
      <trkpt lat="47.28372" lon="-2.35375">
        <ele>-30.799999237061</ele>
        <time>2021-08-26T07:15:09.000Z</time>
      </trkpt>
      <trkpt lat="47.28373" lon="-2.35377">
        <ele>-30.39999961853</ele>
        <time>2021-08-26T07:15:10.000Z</time>
      </trkpt>
      <trkpt lat="47.28374" lon="-2.35379">
        <ele>-30</ele>
        <time>2021-08-26T07:15:11.000Z</time>
      </trkpt>
      <trkpt lat="47.28374" lon="-2.35382">
        <ele>-29.60000038147</ele>
        <time>2021-08-26T07:15:12.000Z</time>
      </trkpt>
      <trkpt lat="47.28374" lon="-2.35384">
        <ele>-29.200000762939</ele>
        <time>2021-08-26T07:15:13.000Z</time>
      </trkpt>
      <trkpt lat="47.28374" lon="-2.35387">
        <ele>-29.200000762939</ele>
        <time>2021-08-26T07:15:14.000Z</time>
      </trkpt>
      <trkpt lat="47.28374" lon="-2.3539">
        <ele>-28.799999237061</ele>
        <time>2021-08-26T07:15:15.000Z</time>
      </trkpt>
      <trkpt lat="47.28374" lon="-2.35392">
        <ele>-28.39999961853</ele>
        <time>2021-08-26T07:15:16.000Z</time>
      </trkpt>
      <trkpt lat="47.28374" lon="-2.35393">
        <ele>-28</ele>
        <time>2021-08-26T07:15:17.000Z</time>
      </trkpt>
      <trkpt lat="47.28375" lon="-2.35394">
        <ele>-27.39999961853</ele>
        <time>2021-08-26T07:15:18.000Z</time>
      </trkpt>
      <trkpt lat="47.28376" lon="-2.35396">
        <ele>-27</ele>
        <time>2021-08-26T07:15:19.000Z</time>
      </trkpt>
      <trkpt lat="47.28379" lon="-2.35402">
        <ele>-26.60000038147</ele>
        <time>2021-08-26T07:15:22.000Z</time>
      </trkpt>
      <trkpt lat="47.2838" lon="-2.35405">
        <ele>-26.200000762939</ele>
        <time>2021-08-26T07:15:23.000Z</time>
      </trkpt>
      <trkpt lat="47.28381" lon="-2.35406">
        <ele>-25.799999237061</ele>
        <time>2021-08-26T07:15:24.000Z</time>
      </trkpt>
      <trkpt lat="47.28382" lon="-2.35407">
        <ele>-25.200000762939</ele>
        <time>2021-08-26T07:15:25.000Z</time>
      </trkpt>
      <trkpt lat="47.28383" lon="-2.35409">
        <ele>-24.799999237061</ele>
        <time>2021-08-26T07:15:26.000Z</time>
      </trkpt>
      <trkpt lat="47.28393" lon="-2.35425">
        <ele>-24.799999237061</ele>
        <time>2021-08-26T07:15:34.000Z</time>
      </trkpt>
      <trkpt lat="47.28405" lon="-2.35432">
        <ele>-24.799999237061</ele>
        <time>2021-08-26T07:15:40.000Z</time>
      </trkpt>
      <trkpt lat="47.28426" lon="-2.35435">
        <ele>-24.799999237061</ele>
        <time>2021-08-26T07:15:46.000Z</time>
      </trkpt>
      <trkpt lat="47.28441" lon="-2.3543">
        <ele>-24.799999237061</ele>
        <time>2021-08-26T07:15:52.000Z</time>
      </trkpt>
      <trkpt lat="47.28449" lon="-2.35431">
        <ele>-24.799999237061</ele>
        <time>2021-08-26T07:15:56.000Z</time>
      </trkpt>
      <trkpt lat="47.28451" lon="-2.35433">
        <ele>-24.799999237061</ele>
        <time>2021-08-26T07:15:57.000Z</time>
      </trkpt>
      <trkpt lat="47.2847" lon="-2.35441">
        <ele>-25.39999961853</ele>
        <time>2021-08-26T07:16:04.000Z</time>
      </trkpt>
      <trkpt lat="47.28473" lon="-2.3544">
        <ele>-25.799999237061</ele>
        <time>2021-08-26T07:16:05.000Z</time>
      </trkpt>
      <trkpt lat="47.28477" lon="-2.35438">
        <ele>-26.39999961853</ele>
        <time>2021-08-26T07:16:06.000Z</time>
      </trkpt>
      <trkpt lat="47.28485" lon="-2.35434">
        <ele>-28</ele>
        <time>2021-08-26T07:16:07.000Z</time>
      </trkpt>
      <trkpt lat="47.28488" lon="-2.35433">
        <ele>-28.39999961853</ele>
        <time>2021-08-26T07:16:10.000Z</time>
      </trkpt>
      <trkpt lat="47.28492" lon="-2.35433">
        <ele>-29</ele>
        <time>2021-08-26T07:16:11.000Z</time>
      </trkpt>
      <trkpt lat="47.28496" lon="-2.35432">
        <ele>-29.60000038147</ele>
        <time>2021-08-26T07:16:12.000Z</time>
      </trkpt>
      <trkpt lat="47.28524" lon="-2.35437">
        <ele>-30</ele>
        <time>2021-08-26T07:16:17.000Z</time>
      </trkpt>
      <trkpt lat="47.28528" lon="-2.35438">
        <ele>-30.799999237061</ele>
        <time>2021-08-26T07:16:18.000Z</time>
      </trkpt>
      <trkpt lat="47.28532" lon="-2.35437">
        <ele>-31.39999961853</ele>
        <time>2021-08-26T07:16:19.000Z</time>
      </trkpt>
      <trkpt lat="47.28535" lon="-2.35435">
        <ele>-31.799999237061</ele>
        <time>2021-08-26T07:16:20.000Z</time>
      </trkpt>
      <trkpt lat="47.28537" lon="-2.35433">
        <ele>-31.799999237061</ele>
        <time>2021-08-26T07:16:21.000Z</time>
      </trkpt>
      <trkpt lat="47.28544" lon="-2.35429">
        <ele>-31.799999237061</ele>
        <time>2021-08-26T07:16:25.000Z</time>
      </trkpt>
      <trkpt lat="47.28553" lon="-2.35424">
        <ele>-31.799999237061</ele>
        <time>2021-08-26T07:16:32.000Z</time>
      </trkpt>
      <trkpt lat="47.28562" lon="-2.35422">
        <ele>-31.799999237061</ele>
        <time>2021-08-26T07:16:39.000Z</time>
      </trkpt>
      <trkpt lat="47.28564" lon="-2.35425">
        <ele>-31.799999237061</ele>
        <time>2021-08-26T07:16:40.000Z</time>
      </trkpt>
      <trkpt lat="47.28566" lon="-2.35439">
        <ele>-31.799999237061</ele>
        <time>2021-08-26T07:16:43.000Z</time>
      </trkpt>
      <trkpt lat="47.28569" lon="-2.35459">
        <ele>-31.799999237061</ele>
        <time>2021-08-26T07:16:47.000Z</time>
      </trkpt>
      <trkpt lat="47.28571" lon="-2.35469">
        <ele>-31.799999237061</ele>
        <time>2021-08-26T07:16:49.000Z</time>
      </trkpt>
      <trkpt lat="47.28579" lon="-2.35505">
        <ele>-31.799999237061</ele>
        <time>2021-08-26T07:16:56.000Z</time>
      </trkpt>
      <trkpt lat="47.28584" lon="-2.35532">
        <ele>-31.799999237061</ele>
        <time>2021-08-26T07:17:00.000Z</time>
      </trkpt>
      <trkpt lat="47.28586" lon="-2.35546">
        <ele>-31.799999237061</ele>
        <time>2021-08-26T07:17:02.000Z</time>
      </trkpt>
      <trkpt lat="47.28591" lon="-2.35572">
        <ele>-31.799999237061</ele>
        <time>2021-08-26T07:17:06.000Z</time>
      </trkpt>
      <trkpt lat="47.28593" lon="-2.35591">
        <ele>-31.799999237061</ele>
        <time>2021-08-26T07:17:09.000Z</time>
      </trkpt>
      <trkpt lat="47.286" lon="-2.35647">
        <ele>-31.799999237061</ele>
        <time>2021-08-26T07:17:18.000Z</time>
      </trkpt>
      <trkpt lat="47.28605" lon="-2.35683">
        <ele>-31.799999237061</ele>
        <time>2021-08-26T07:17:24.000Z</time>
      </trkpt>
      <trkpt lat="47.28608" lon="-2.35702">
        <ele>-31.799999237061</ele>
        <time>2021-08-26T07:17:27.000Z</time>
      </trkpt>
      <trkpt lat="47.28614" lon="-2.35734">
        <ele>-31.799999237061</ele>
        <time>2021-08-26T07:17:32.000Z</time>
      </trkpt>
      <trkpt lat="47.28619" lon="-2.35743">
        <ele>-31.799999237061</ele>
        <time>2021-08-26T07:17:34.000Z</time>
      </trkpt>
      <trkpt lat="47.28626" lon="-2.35752">
        <ele>-31.799999237061</ele>
        <time>2021-08-26T07:17:36.000Z</time>
      </trkpt>
      <trkpt lat="47.28629" lon="-2.35757">
        <ele>-31.799999237061</ele>
        <time>2021-08-26T07:17:37.000Z</time>
      </trkpt>
      <trkpt lat="47.28632" lon="-2.35768">
        <ele>-31.799999237061</ele>
        <time>2021-08-26T07:17:39.000Z</time>
      </trkpt>
      <trkpt lat="47.28633" lon="-2.35774">
        <ele>-31.799999237061</ele>
        <time>2021-08-26T07:17:40.000Z</time>
      </trkpt>
      <trkpt lat="47.2864" lon="-2.35799">
        <ele>-31.799999237061</ele>
        <time>2021-08-26T07:17:45.000Z</time>
      </trkpt>
      <trkpt lat="47.28645" lon="-2.35827">
        <ele>-31.799999237061</ele>
        <time>2021-08-26T07:17:51.000Z</time>
      </trkpt>
      <trkpt lat="47.28649" lon="-2.35857">
        <ele>-31.799999237061</ele>
        <time>2021-08-26T07:17:57.000Z</time>
      </trkpt>
      <trkpt lat="47.28661" lon="-2.35886">
        <ele>-31.799999237061</ele>
        <time>2021-08-26T07:18:03.000Z</time>
      </trkpt>
      <trkpt lat="47.28669" lon="-2.35911">
        <ele>-31.39999961853</ele>
        <time>2021-08-26T07:18:08.000Z</time>
      </trkpt>
      <trkpt lat="47.2867" lon="-2.35916">
        <ele>-31</ele>
        <time>2021-08-26T07:18:09.000Z</time>
      </trkpt>
      <trkpt lat="47.28672" lon="-2.3592">
        <ele>-30.60000038147</ele>
        <time>2021-08-26T07:18:10.000Z</time>
      </trkpt>
      <trkpt lat="47.28674" lon="-2.35922">
        <ele>-30.200000762939</ele>
        <time>2021-08-26T07:18:11.000Z</time>
      </trkpt>
      <trkpt lat="47.28676" lon="-2.35921">
        <ele>-29.799999237061</ele>
        <time>2021-08-26T07:18:12.000Z</time>
      </trkpt>
      <trkpt lat="47.28683" lon="-2.35911">
        <ele>-29.799999237061</ele>
        <time>2021-08-26T07:18:14.000Z</time>
      </trkpt>
      <trkpt lat="47.28704" lon="-2.35884">
        <ele>-29.799999237061</ele>
        <time>2021-08-26T07:18:21.000Z</time>
      </trkpt>
      <trkpt lat="47.28724" lon="-2.3585">
        <ele>-29.799999237061</ele>
        <time>2021-08-26T07:18:28.000Z</time>
      </trkpt>
      <trkpt lat="47.28747" lon="-2.35807">
        <ele>-29.39999961853</ele>
        <time>2021-08-26T07:18:36.000Z</time>
      </trkpt>
      <trkpt lat="47.2875" lon="-2.35801">
        <ele>-29</ele>
        <time>2021-08-26T07:18:37.000Z</time>
      </trkpt>
      <trkpt lat="47.28753" lon="-2.35795">
        <ele>-28.60000038147</ele>
        <time>2021-08-26T07:18:38.000Z</time>
      </trkpt>
      <trkpt lat="47.28756" lon="-2.3579">
        <ele>-28.200000762939</ele>
        <time>2021-08-26T07:18:39.000Z</time>
      </trkpt>
      <trkpt lat="47.28759" lon="-2.35784">
        <ele>-27.799999237061</ele>
        <time>2021-08-26T07:18:40.000Z</time>
      </trkpt>
      <trkpt lat="47.28775" lon="-2.35754">
        <ele>-27.799999237061</ele>
        <time>2021-08-26T07:18:45.000Z</time>
      </trkpt>
      <trkpt lat="47.28799" lon="-2.35706">
        <ele>-27.799999237061</ele>
        <time>2021-08-26T07:18:53.000Z</time>
      </trkpt>
      <trkpt lat="47.28821" lon="-2.3567">
        <ele>-27.799999237061</ele>
        <time>2021-08-26T07:18:59.000Z</time>
      </trkpt>
      <trkpt lat="47.28825" lon="-2.35665">
        <ele>-27.799999237061</ele>
        <time>2021-08-26T07:19:00.000Z</time>
      </trkpt>
      <trkpt lat="47.28847" lon="-2.35639">
        <ele>-27.799999237061</ele>
        <time>2021-08-26T07:19:05.000Z</time>
      </trkpt>
      <trkpt lat="47.28877" lon="-2.35605">
        <ele>-27.799999237061</ele>
        <time>2021-08-26T07:19:12.000Z</time>
      </trkpt>
      <trkpt lat="47.28896" lon="-2.35584">
        <ele>-28.200000762939</ele>
        <time>2021-08-26T07:19:16.000Z</time>
      </trkpt>
      <trkpt lat="47.289" lon="-2.3558">
        <ele>-28.60000038147</ele>
        <time>2021-08-26T07:19:17.000Z</time>
      </trkpt>
      <trkpt lat="47.28904" lon="-2.35577">
        <ele>-29</ele>
        <time>2021-08-26T07:19:18.000Z</time>
      </trkpt>
      <trkpt lat="47.28907" lon="-2.35574">
        <ele>-29.39999961853</ele>
        <time>2021-08-26T07:19:19.000Z</time>
      </trkpt>
      <trkpt lat="47.28911" lon="-2.35571">
        <ele>-29.799999237061</ele>
        <time>2021-08-26T07:19:20.000Z</time>
      </trkpt>
      <trkpt lat="47.28919" lon="-2.35562">
        <ele>-29.799999237061</ele>
        <time>2021-08-26T07:19:24.000Z</time>
      </trkpt>
      <trkpt lat="47.28926" lon="-2.35557">
        <ele>-30.200000762939</ele>
        <time>2021-08-26T07:19:28.000Z</time>
      </trkpt>
      <trkpt lat="47.28927" lon="-2.35558">
        <ele>-30.60000038147</ele>
        <time>2021-08-26T07:19:29.000Z</time>
      </trkpt>
      <trkpt lat="47.28929" lon="-2.35559">
        <ele>-31</ele>
        <time>2021-08-26T07:19:30.000Z</time>
      </trkpt>
      <trkpt lat="47.2893" lon="-2.35562">
        <ele>-31.39999961853</ele>
        <time>2021-08-26T07:19:31.000Z</time>
      </trkpt>
      <trkpt lat="47.28931" lon="-2.35565">
        <ele>-31.799999237061</ele>
        <time>2021-08-26T07:19:32.000Z</time>
      </trkpt>
      <trkpt lat="47.28933" lon="-2.35569">
        <ele>-31.799999237061</ele>
        <time>2021-08-26T07:19:33.000Z</time>
      </trkpt>
      <trkpt lat="47.28934" lon="-2.35573">
        <ele>-31.799999237061</ele>
        <time>2021-08-26T07:19:34.000Z</time>
      </trkpt>
      <trkpt lat="47.28944" lon="-2.35597">
        <ele>-31.799999237061</ele>
        <time>2021-08-26T07:19:39.000Z</time>
      </trkpt>
      <trkpt lat="47.28963" lon="-2.35646">
        <ele>-31.799999237061</ele>
        <time>2021-08-26T07:19:48.000Z</time>
      </trkpt>
      <trkpt lat="47.28987" lon="-2.35694">
        <ele>-31.799999237061</ele>
        <time>2021-08-26T07:19:57.000Z</time>
      </trkpt>
      <trkpt lat="47.29006" lon="-2.35705">
        <ele>-31.799999237061</ele>
        <time>2021-08-26T07:20:01.000Z</time>
      </trkpt>
      <trkpt lat="47.29011" lon="-2.35705">
        <ele>-31.39999961853</ele>
        <time>2021-08-26T07:20:02.000Z</time>
      </trkpt>
      <trkpt lat="47.29016" lon="-2.35705">
        <ele>-31</ele>
        <time>2021-08-26T07:20:03.000Z</time>
      </trkpt>
      <trkpt lat="47.2902" lon="-2.35702">
        <ele>-30.39999961853</ele>
        <time>2021-08-26T07:20:04.000Z</time>
      </trkpt>
      <trkpt lat="47.29025" lon="-2.357">
        <ele>-30</ele>
        <time>2021-08-26T07:20:05.000Z</time>
      </trkpt>
      <trkpt lat="47.29029" lon="-2.35696">
        <ele>-29.60000038147</ele>
        <time>2021-08-26T07:20:06.000Z</time>
      </trkpt>
      <trkpt lat="47.29034" lon="-2.35693">
        <ele>-29.60000038147</ele>
        <time>2021-08-26T07:20:07.000Z</time>
      </trkpt>
      <trkpt lat="47.2905" lon="-2.35676">
        <ele>-29.60000038147</ele>
        <time>2021-08-26T07:20:11.000Z</time>
      </trkpt>
      <trkpt lat="47.29079" lon="-2.35646">
        <ele>-29.60000038147</ele>
        <time>2021-08-26T07:20:19.000Z</time>
      </trkpt>
      <trkpt lat="47.29095" lon="-2.35636">
        <ele>-29.60000038147</ele>
        <time>2021-08-26T07:20:24.000Z</time>
      </trkpt>
      <trkpt lat="47.2911" lon="-2.35618">
        <ele>-29.60000038147</ele>
        <time>2021-08-26T07:20:29.000Z</time>
      </trkpt>
      <trkpt lat="47.29115" lon="-2.35616">
        <ele>-29.60000038147</ele>
        <time>2021-08-26T07:20:30.000Z</time>
      </trkpt>
      <trkpt lat="47.2913" lon="-2.35612">
        <ele>-29.60000038147</ele>
        <time>2021-08-26T07:20:33.000Z</time>
      </trkpt>
      <trkpt lat="47.29151" lon="-2.35624">
        <ele>-29.60000038147</ele>
        <time>2021-08-26T07:20:37.000Z</time>
      </trkpt>
      <trkpt lat="47.29159" lon="-2.35634">
        <ele>-29.60000038147</ele>
        <time>2021-08-26T07:20:39.000Z</time>
      </trkpt>
      <trkpt lat="47.29168" lon="-2.35641">
        <ele>-29.60000038147</ele>
        <time>2021-08-26T07:20:41.000Z</time>
      </trkpt>
      <trkpt lat="47.29173" lon="-2.35643">
        <ele>-29.60000038147</ele>
        <time>2021-08-26T07:20:42.000Z</time>
      </trkpt>
      <trkpt lat="47.29187" lon="-2.35653">
        <ele>-29.60000038147</ele>
        <time>2021-08-26T07:20:45.000Z</time>
      </trkpt>
      <trkpt lat="47.29199" lon="-2.35667">
        <ele>-29.60000038147</ele>
        <time>2021-08-26T07:20:48.000Z</time>
      </trkpt>
      <trkpt lat="47.29222" lon="-2.35689">
        <ele>-29.60000038147</ele>
        <time>2021-08-26T07:20:54.000Z</time>
      </trkpt>
      <trkpt lat="47.29228" lon="-2.35686">
        <ele>-29.60000038147</ele>
        <time>2021-08-26T07:20:55.000Z</time>
      </trkpt>
      <trkpt lat="47.29246" lon="-2.35671">
        <ele>-29.60000038147</ele>
        <time>2021-08-26T07:20:59.000Z</time>
      </trkpt>
      <trkpt lat="47.29272" lon="-2.35658">
        <ele>-30</ele>
        <time>2021-08-26T07:21:04.000Z</time>
      </trkpt>
      <trkpt lat="47.29277" lon="-2.35656">
        <ele>-30.39999961853</ele>
        <time>2021-08-26T07:21:05.000Z</time>
      </trkpt>
      <trkpt lat="47.29282" lon="-2.35654">
        <ele>-31</ele>
        <time>2021-08-26T07:21:06.000Z</time>
      </trkpt>
      <trkpt lat="47.29288" lon="-2.35651">
        <ele>-31.39999961853</ele>
        <time>2021-08-26T07:21:07.000Z</time>
      </trkpt>
      <trkpt lat="47.29293" lon="-2.3565">
        <ele>-31.799999237061</ele>
        <time>2021-08-26T07:21:08.000Z</time>
      </trkpt>
      <trkpt lat="47.29324" lon="-2.35641">
        <ele>-31.799999237061</ele>
        <time>2021-08-26T07:21:14.000Z</time>
      </trkpt>
      <trkpt lat="47.29377" lon="-2.35625">
        <ele>-31.799999237061</ele>
        <time>2021-08-26T07:21:24.000Z</time>
      </trkpt>
      <trkpt lat="47.29426" lon="-2.35613">
        <ele>-31.799999237061</ele>
        <time>2021-08-26T07:21:33.000Z</time>
      </trkpt>
      <trkpt lat="47.29464" lon="-2.35606">
        <ele>-31.799999237061</ele>
        <time>2021-08-26T07:21:40.000Z</time>
      </trkpt>
      <trkpt lat="47.2947" lon="-2.35606">
        <ele>-32.200000762939</ele>
        <time>2021-08-26T07:21:41.000Z</time>
      </trkpt>
      <trkpt lat="47.29476" lon="-2.35607">
        <ele>-32.599998474121</ele>
        <time>2021-08-26T07:21:42.000Z</time>
      </trkpt>
      <trkpt lat="47.29482" lon="-2.35608">
        <ele>-33.200000762939</ele>
        <time>2021-08-26T07:21:43.000Z</time>
      </trkpt>
      <trkpt lat="47.29488" lon="-2.3561">
        <ele>-33.599998474121</ele>
        <time>2021-08-26T07:21:44.000Z</time>
      </trkpt>
      <trkpt lat="47.29494" lon="-2.35611">
        <ele>-34</ele>
        <time>2021-08-26T07:21:45.000Z</time>
      </trkpt>
      <trkpt lat="47.29498" lon="-2.35613">
        <ele>-34</ele>
        <time>2021-08-26T07:21:46.000Z</time>
      </trkpt>
      <trkpt lat="47.2953" lon="-2.35624">
        <ele>-34</ele>
        <time>2021-08-26T07:21:52.000Z</time>
      </trkpt>
      <trkpt lat="47.2954" lon="-2.35623">
        <ele>-34</ele>
        <time>2021-08-26T07:21:54.000Z</time>
      </trkpt>
      <trkpt lat="47.29559" lon="-2.35614">
        <ele>-34</ele>
        <time>2021-08-26T07:21:58.000Z</time>
      </trkpt>
      <trkpt lat="47.29579" lon="-2.35619">
        <ele>-34</ele>
        <time>2021-08-26T07:22:02.000Z</time>
      </trkpt>
      <trkpt lat="47.29589" lon="-2.35636">
        <ele>-34</ele>
        <time>2021-08-26T07:22:05.000Z</time>
      </trkpt>
      <trkpt lat="47.29593" lon="-2.35651">
        <ele>-34</ele>
        <time>2021-08-26T07:22:07.000Z</time>
      </trkpt>
      <trkpt lat="47.29602" lon="-2.35679">
        <ele>-34</ele>
        <time>2021-08-26T07:22:11.000Z</time>
      </trkpt>
      <trkpt lat="47.29623" lon="-2.35735">
        <ele>-34</ele>
        <time>2021-08-26T07:22:19.000Z</time>
      </trkpt>
      <trkpt lat="47.29632" lon="-2.35773">
        <ele>-34</ele>
        <time>2021-08-26T07:22:24.000Z</time>
      </trkpt>
      <trkpt lat="47.29635" lon="-2.35788">
        <ele>-34</ele>
        <time>2021-08-26T07:22:26.000Z</time>
      </trkpt>
      <trkpt lat="47.29637" lon="-2.35795">
        <ele>-34</ele>
        <time>2021-08-26T07:22:27.000Z</time>
      </trkpt>
      <trkpt lat="47.29648" lon="-2.35812">
        <ele>-34</ele>
        <time>2021-08-26T07:22:30.000Z</time>
      </trkpt>
      <trkpt lat="47.2965" lon="-2.35817">
        <ele>-34</ele>
        <time>2021-08-26T07:22:31.000Z</time>
      </trkpt>
      <trkpt lat="47.29661" lon="-2.35834">
        <ele>-34</ele>
        <time>2021-08-26T07:22:34.000Z</time>
      </trkpt>
      <trkpt lat="47.29671" lon="-2.35838">
        <ele>-34</ele>
        <time>2021-08-26T07:22:36.000Z</time>
      </trkpt>
      <trkpt lat="47.29682" lon="-2.35842">
        <ele>-34</ele>
        <time>2021-08-26T07:22:38.000Z</time>
      </trkpt>
      <trkpt lat="47.29688" lon="-2.35842">
        <ele>-34</ele>
        <time>2021-08-26T07:22:39.000Z</time>
      </trkpt>
      <trkpt lat="47.297" lon="-2.3584">
        <ele>-34</ele>
        <time>2021-08-26T07:22:41.000Z</time>
      </trkpt>
      <trkpt lat="47.29706" lon="-2.35837">
        <ele>-34</ele>
        <time>2021-08-26T07:22:42.000Z</time>
      </trkpt>
      <trkpt lat="47.29728" lon="-2.35824">
        <ele>-34</ele>
        <time>2021-08-26T07:22:46.000Z</time>
      </trkpt>
      <trkpt lat="47.29755" lon="-2.35808">
        <ele>-33.200000762939</ele>
        <time>2021-08-26T07:22:52.000Z</time>
      </trkpt>
      <trkpt lat="47.29759" lon="-2.35806">
        <ele>-32.799999237061</ele>
        <time>2021-08-26T07:22:53.000Z</time>
      </trkpt>
      <trkpt lat="47.29764" lon="-2.35805">
        <ele>-32.400001525879</ele>
        <time>2021-08-26T07:22:54.000Z</time>
      </trkpt>
      <trkpt lat="47.29768" lon="-2.35803">
        <ele>-32</ele>
        <time>2021-08-26T07:22:55.000Z</time>
      </trkpt>
      <trkpt lat="47.29808" lon="-2.35789">
        <ele>-32</ele>
        <time>2021-08-26T07:23:03.000Z</time>
      </trkpt>
      <trkpt lat="47.29849" lon="-2.35775">
        <ele>-32</ele>
        <time>2021-08-26T07:23:10.000Z</time>
      </trkpt>
      <trkpt lat="47.29902" lon="-2.35751">
        <ele>-32</ele>
        <time>2021-08-26T07:23:18.000Z</time>
      </trkpt>
      <trkpt lat="47.29934" lon="-2.35727">
        <ele>-32</ele>
        <time>2021-08-26T07:23:24.000Z</time>
      </trkpt>
      <trkpt lat="47.29975" lon="-2.35698">
        <ele>-32</ele>
        <time>2021-08-26T07:23:32.000Z</time>
      </trkpt>
      <trkpt lat="47.30019" lon="-2.35671">
        <ele>-32</ele>
        <time>2021-08-26T07:23:41.000Z</time>
      </trkpt>
      <trkpt lat="47.30057" lon="-2.35648">
        <ele>-32</ele>
        <time>2021-08-26T07:23:49.000Z</time>
      </trkpt>
      <trkpt lat="47.30093" lon="-2.35626">
        <ele>-32</ele>
        <time>2021-08-26T07:23:57.000Z</time>
      </trkpt>
      <trkpt lat="47.30113" lon="-2.35614">
        <ele>-32</ele>
        <time>2021-08-26T07:24:02.000Z</time>
      </trkpt>
      <trkpt lat="47.3012" lon="-2.35607">
        <ele>-32</ele>
        <time>2021-08-26T07:24:04.000Z</time>
      </trkpt>
      <trkpt lat="47.30128" lon="-2.35599">
        <ele>-32</ele>
        <time>2021-08-26T07:24:06.000Z</time>
      </trkpt>
      <trkpt lat="47.30138" lon="-2.35595">
        <ele>-32</ele>
        <time>2021-08-26T07:24:08.000Z</time>
      </trkpt>
      <trkpt lat="47.30149" lon="-2.35593">
        <ele>-32</ele>
        <time>2021-08-26T07:24:10.000Z</time>
      </trkpt>
      <trkpt lat="47.30164" lon="-2.35584">
        <ele>-32</ele>
        <time>2021-08-26T07:24:13.000Z</time>
      </trkpt>
      <trkpt lat="47.30197" lon="-2.35572">
        <ele>-32</ele>
        <time>2021-08-26T07:24:19.000Z</time>
      </trkpt>
      <trkpt lat="47.30209" lon="-2.3557">
        <ele>-32</ele>
        <time>2021-08-26T07:24:21.000Z</time>
      </trkpt>
      <trkpt lat="47.30232" lon="-2.35573">
        <ele>-32</ele>
        <time>2021-08-26T07:24:25.000Z</time>
      </trkpt>
      <trkpt lat="47.3025" lon="-2.35576">
        <ele>-32</ele>
        <time>2021-08-26T07:24:28.000Z</time>
      </trkpt>
      <trkpt lat="47.30269" lon="-2.35577">
        <ele>-32</ele>
        <time>2021-08-26T07:24:31.000Z</time>
      </trkpt>
      <trkpt lat="47.30313" lon="-2.35586">
        <ele>-32</ele>
        <time>2021-08-26T07:24:38.000Z</time>
      </trkpt>
      <trkpt lat="47.30333" lon="-2.35589">
        <ele>-32.400001525879</ele>
        <time>2021-08-26T07:24:41.000Z</time>
      </trkpt>
      <trkpt lat="47.30339" lon="-2.3559">
        <ele>-32.799999237061</ele>
        <time>2021-08-26T07:24:42.000Z</time>
      </trkpt>
      <trkpt lat="47.30345" lon="-2.35591">
        <ele>-33.200000762939</ele>
        <time>2021-08-26T07:24:43.000Z</time>
      </trkpt>
      <trkpt lat="47.30351" lon="-2.35592">
        <ele>-33.599998474121</ele>
        <time>2021-08-26T07:24:44.000Z</time>
      </trkpt>
      <trkpt lat="47.30357" lon="-2.35593">
        <ele>-34</ele>
        <time>2021-08-26T07:24:45.000Z</time>
      </trkpt>
      <trkpt lat="47.30372" lon="-2.35592">
        <ele>-34</ele>
        <time>2021-08-26T07:24:48.000Z</time>
      </trkpt>
      <trkpt lat="47.30381" lon="-2.35588">
        <ele>-34</ele>
        <time>2021-08-26T07:24:50.000Z</time>
      </trkpt>
      <trkpt lat="47.30386" lon="-2.35587">
        <ele>-34</ele>
        <time>2021-08-26T07:24:51.000Z</time>
      </trkpt>
      <trkpt lat="47.30395" lon="-2.35592">
        <ele>-34</ele>
        <time>2021-08-26T07:24:53.000Z</time>
      </trkpt>
      <trkpt lat="47.30405" lon="-2.35608">
        <ele>-34</ele>
        <time>2021-08-26T07:24:56.000Z</time>
      </trkpt>
      <trkpt lat="47.30408" lon="-2.35614">
        <ele>-34</ele>
        <time>2021-08-26T07:24:57.000Z</time>
      </trkpt>
      <trkpt lat="47.30436" lon="-2.35654">
        <ele>-34</ele>
        <time>2021-08-26T07:25:04.000Z</time>
      </trkpt>
      <trkpt lat="47.30467" lon="-2.35679">
        <ele>-34</ele>
        <time>2021-08-26T07:25:10.000Z</time>
      </trkpt>
      <trkpt lat="47.30497" lon="-2.35711">
        <ele>-34</ele>
        <time>2021-08-26T07:25:16.000Z</time>
      </trkpt>
      <trkpt lat="47.30538" lon="-2.35765">
        <ele>-34</ele>
        <time>2021-08-26T07:25:24.000Z</time>
      </trkpt>
      <trkpt lat="47.30563" lon="-2.35799">
        <ele>-34</ele>
        <time>2021-08-26T07:25:29.000Z</time>
      </trkpt>
      <trkpt lat="47.30573" lon="-2.35812">
        <ele>-34</ele>
        <time>2021-08-26T07:25:31.000Z</time>
      </trkpt>
      <trkpt lat="47.30617" lon="-2.35866">
        <ele>-34</ele>
        <time>2021-08-26T07:25:40.000Z</time>
      </trkpt>
      <trkpt lat="47.30652" lon="-2.35898">
        <ele>-34</ele>
        <time>2021-08-26T07:25:47.000Z</time>
      </trkpt>
      <trkpt lat="47.30669" lon="-2.35894">
        <ele>-34</ele>
        <time>2021-08-26T07:25:50.000Z</time>
      </trkpt>
      <trkpt lat="47.3068" lon="-2.35883">
        <ele>-34</ele>
        <time>2021-08-26T07:25:52.000Z</time>
      </trkpt>
      <trkpt lat="47.30698" lon="-2.35862">
        <ele>-34</ele>
        <time>2021-08-26T07:25:56.000Z</time>
      </trkpt>
      <trkpt lat="47.30729" lon="-2.35824">
        <ele>-34</ele>
        <time>2021-08-26T07:26:03.000Z</time>
      </trkpt>
      <trkpt lat="47.30751" lon="-2.35801">
        <ele>-34</ele>
        <time>2021-08-26T07:26:08.000Z</time>
      </trkpt>
      <trkpt lat="47.30756" lon="-2.35798">
        <ele>-34</ele>
        <time>2021-08-26T07:26:09.000Z</time>
      </trkpt>
      <trkpt lat="47.30781" lon="-2.35801">
        <ele>-34</ele>
        <time>2021-08-26T07:26:13.000Z</time>
      </trkpt>
      <trkpt lat="47.30792" lon="-2.35808">
        <ele>-34</ele>
        <time>2021-08-26T07:26:15.000Z</time>
      </trkpt>
      <trkpt lat="47.30815" lon="-2.35824">
        <ele>-34</ele>
        <time>2021-08-26T07:26:19.000Z</time>
      </trkpt>
      <trkpt lat="47.30857" lon="-2.35852">
        <ele>-34</ele>
        <time>2021-08-26T07:26:26.000Z</time>
      </trkpt>
      <trkpt lat="47.30893" lon="-2.35866">
        <ele>-34</ele>
        <time>2021-08-26T07:26:32.000Z</time>
      </trkpt>
      <trkpt lat="47.3092" lon="-2.35858">
        <ele>-34</ele>
        <time>2021-08-26T07:26:36.000Z</time>
      </trkpt>
      <trkpt lat="47.30959" lon="-2.35838">
        <ele>-34</ele>
        <time>2021-08-26T07:26:42.000Z</time>
      </trkpt>
      <trkpt lat="47.3101" lon="-2.35811">
        <ele>-34</ele>
        <time>2021-08-26T07:26:50.000Z</time>
      </trkpt>
      <trkpt lat="47.31066" lon="-2.35794">
        <ele>-34</ele>
        <time>2021-08-26T07:26:58.000Z</time>
      </trkpt>
      <trkpt lat="47.31095" lon="-2.35786">
        <ele>-34.400001525879</ele>
        <time>2021-08-26T07:27:02.000Z</time>
      </trkpt>
      <trkpt lat="47.31102" lon="-2.35784">
        <ele>-34.799999237061</ele>
        <time>2021-08-26T07:27:03.000Z</time>
      </trkpt>
      <trkpt lat="47.3111" lon="-2.35782">
        <ele>-35.400001525879</ele>
        <time>2021-08-26T07:27:04.000Z</time>
      </trkpt>
      <trkpt lat="47.31117" lon="-2.35781">
        <ele>-35.799999237061</ele>
        <time>2021-08-26T07:27:05.000Z</time>
      </trkpt>
      <trkpt lat="47.31124" lon="-2.35779">
        <ele>-36.200000762939</ele>
        <time>2021-08-26T07:27:06.000Z</time>
      </trkpt>
      <trkpt lat="47.31151" lon="-2.35773">
        <ele>-36.200000762939</ele>
        <time>2021-08-26T07:27:10.000Z</time>
      </trkpt>
      <trkpt lat="47.31158" lon="-2.35768">
        <ele>-36.200000762939</ele>
        <time>2021-08-26T07:27:11.000Z</time>
      </trkpt>
      <trkpt lat="47.31172" lon="-2.35746">
        <ele>-36.200000762939</ele>
        <time>2021-08-26T07:27:14.000Z</time>
      </trkpt>
      <trkpt lat="47.31177" lon="-2.35728">
        <ele>-36.200000762939</ele>
        <time>2021-08-26T07:27:16.000Z</time>
      </trkpt>
      <trkpt lat="47.31184" lon="-2.357">
        <ele>-36.200000762939</ele>
        <time>2021-08-26T07:27:19.000Z</time>
      </trkpt>
      <trkpt lat="47.31189" lon="-2.35683">
        <ele>-36.200000762939</ele>
        <time>2021-08-26T07:27:21.000Z</time>
      </trkpt>
      <trkpt lat="47.31196" lon="-2.35669">
        <ele>-36.200000762939</ele>
        <time>2021-08-26T07:27:23.000Z</time>
      </trkpt>
      <trkpt lat="47.31205" lon="-2.35657">
        <ele>-36.200000762939</ele>
        <time>2021-08-26T07:27:25.000Z</time>
      </trkpt>
      <trkpt lat="47.31221" lon="-2.35641">
        <ele>-36.200000762939</ele>
        <time>2021-08-26T07:27:28.000Z</time>
      </trkpt>
      <trkpt lat="47.31227" lon="-2.35636">
        <ele>-36.599998474121</ele>
        <time>2021-08-26T07:27:29.000Z</time>
      </trkpt>
      <trkpt lat="47.31232" lon="-2.3563">
        <ele>-37</ele>
        <time>2021-08-26T07:27:30.000Z</time>
      </trkpt>
      <trkpt lat="47.31238" lon="-2.35625">
        <ele>-37.400001525879</ele>
        <time>2021-08-26T07:27:31.000Z</time>
      </trkpt>
      <trkpt lat="47.31244" lon="-2.3562">
        <ele>-37.799999237061</ele>
        <time>2021-08-26T07:27:32.000Z</time>
      </trkpt>
      <trkpt lat="47.3125" lon="-2.35615">
        <ele>-38.200000762939</ele>
        <time>2021-08-26T07:27:33.000Z</time>
      </trkpt>
      <trkpt lat="47.31269" lon="-2.35599">
        <ele>-38.200000762939</ele>
        <time>2021-08-26T07:27:36.000Z</time>
      </trkpt>
      <trkpt lat="47.3131" lon="-2.35568">
        <ele>-38.200000762939</ele>
        <time>2021-08-26T07:27:43.000Z</time>
      </trkpt>
      <trkpt lat="47.31322" lon="-2.35561">
        <ele>-38.799999237061</ele>
        <time>2021-08-26T07:27:46.000Z</time>
      </trkpt>
      <trkpt lat="47.31324" lon="-2.35561">
        <ele>-39.200000762939</ele>
        <time>2021-08-26T07:27:47.000Z</time>
      </trkpt>
      <trkpt lat="47.31327" lon="-2.35563">
        <ele>-39.599998474121</ele>
        <time>2021-08-26T07:27:48.000Z</time>
      </trkpt>
      <trkpt lat="47.31329" lon="-2.35566">
        <ele>-40.400001525879</ele>
        <time>2021-08-26T07:27:49.000Z</time>
      </trkpt>
      <trkpt lat="47.3133" lon="-2.3557">
        <ele>-40.400001525879</ele>
        <time>2021-08-26T07:27:50.000Z</time>
      </trkpt>
      <trkpt lat="47.31331" lon="-2.3558">
        <ele>-40.400001525879</ele>
        <time>2021-08-26T07:27:52.000Z</time>
      </trkpt>
      <trkpt lat="47.31332" lon="-2.35592">
        <ele>-40.400001525879</ele>
        <time>2021-08-26T07:27:54.000Z</time>
      </trkpt>
      <trkpt lat="47.31333" lon="-2.35639">
        <ele>-40.400001525879</ele>
        <time>2021-08-26T07:28:01.000Z</time>
      </trkpt>
      <trkpt lat="47.31334" lon="-2.35684">
        <ele>-40.400001525879</ele>
        <time>2021-08-26T07:28:08.000Z</time>
      </trkpt>
      <trkpt lat="47.31334" lon="-2.35727">
        <ele>-40.400001525879</ele>
        <time>2021-08-26T07:28:14.000Z</time>
      </trkpt>
      <trkpt lat="47.31335" lon="-2.35771">
        <ele>-40.400001525879</ele>
        <time>2021-08-26T07:28:20.000Z</time>
      </trkpt>
      <trkpt lat="47.31335" lon="-2.35778">
        <ele>-40.400001525879</ele>
        <time>2021-08-26T07:28:21.000Z</time>
      </trkpt>
      <trkpt lat="47.31339" lon="-2.3582">
        <ele>-40.400001525879</ele>
        <time>2021-08-26T07:28:27.000Z</time>
      </trkpt>
      <trkpt lat="47.31341" lon="-2.35841">
        <ele>-40.400001525879</ele>
        <time>2021-08-26T07:28:30.000Z</time>
      </trkpt>
      <trkpt lat="47.31344" lon="-2.35855">
        <ele>-40.400001525879</ele>
        <time>2021-08-26T07:28:32.000Z</time>
      </trkpt>
      <trkpt lat="47.31352" lon="-2.35878">
        <ele>-40.400001525879</ele>
        <time>2021-08-26T07:28:35.000Z</time>
      </trkpt>
      <trkpt lat="47.31359" lon="-2.35894">
        <ele>-40.400001525879</ele>
        <time>2021-08-26T07:28:37.000Z</time>
      </trkpt>
      <trkpt lat="47.31362" lon="-2.35901">
        <ele>-40.799999237061</ele>
        <time>2021-08-26T07:28:38.000Z</time>
      </trkpt>
      <trkpt lat="47.31366" lon="-2.35908">
        <ele>-41.599998474121</ele>
        <time>2021-08-26T07:28:39.000Z</time>
      </trkpt>
      <trkpt lat="47.31369" lon="-2.35916">
        <ele>-42</ele>
        <time>2021-08-26T07:28:40.000Z</time>
      </trkpt>
      <trkpt lat="47.31373" lon="-2.35924">
        <ele>-42.599998474121</ele>
        <time>2021-08-26T07:28:41.000Z</time>
      </trkpt>
      <trkpt lat="47.31385" lon="-2.35943">
        <ele>-42.599998474121</ele>
        <time>2021-08-26T07:28:44.000Z</time>
      </trkpt>
      <trkpt lat="47.31394" lon="-2.35963">
        <ele>-42.599998474121</ele>
        <time>2021-08-26T07:28:47.000Z</time>
      </trkpt>
      <trkpt lat="47.31399" lon="-2.35976">
        <ele>-42.599998474121</ele>
        <time>2021-08-26T07:28:49.000Z</time>
      </trkpt>
      <trkpt lat="47.31414" lon="-2.36023">
        <ele>-42.599998474121</ele>
        <time>2021-08-26T07:28:56.000Z</time>
      </trkpt>
      <trkpt lat="47.31424" lon="-2.36054">
        <ele>-42</ele>
        <time>2021-08-26T07:29:01.000Z</time>
      </trkpt>
      <trkpt lat="47.31427" lon="-2.36061">
        <ele>-41.599998474121</ele>
        <time>2021-08-26T07:29:02.000Z</time>
      </trkpt>
      <trkpt lat="47.31429" lon="-2.36067">
        <ele>-40.799999237061</ele>
        <time>2021-08-26T07:29:03.000Z</time>
      </trkpt>
      <trkpt lat="47.31431" lon="-2.36073">
        <ele>-40.400001525879</ele>
        <time>2021-08-26T07:29:04.000Z</time>
      </trkpt>
      <trkpt lat="47.31437" lon="-2.36092">
        <ele>-40.400001525879</ele>
        <time>2021-08-26T07:29:07.000Z</time>
      </trkpt>
      <trkpt lat="47.31441" lon="-2.36105">
        <ele>-40.400001525879</ele>
        <time>2021-08-26T07:29:09.000Z</time>
      </trkpt>
      <trkpt lat="47.31458" lon="-2.36155">
        <ele>-40.400001525879</ele>
        <time>2021-08-26T07:29:17.000Z</time>
      </trkpt>
      <trkpt lat="47.3147" lon="-2.36168">
        <ele>-40.400001525879</ele>
        <time>2021-08-26T07:29:21.000Z</time>
      </trkpt>
      <trkpt lat="47.31479" lon="-2.36159">
        <ele>-40.400001525879</ele>
        <time>2021-08-26T07:29:24.000Z</time>
      </trkpt>
      <trkpt lat="47.31483" lon="-2.36155">
        <ele>-40.400001525879</ele>
        <time>2021-08-26T07:29:25.000Z</time>
      </trkpt>
      <trkpt lat="47.31505" lon="-2.3613">
        <ele>-40.400001525879</ele>
        <time>2021-08-26T07:29:31.000Z</time>
      </trkpt>
      <trkpt lat="47.31539" lon="-2.36093">
        <ele>-40.400001525879</ele>
        <time>2021-08-26T07:29:39.000Z</time>
      </trkpt>
      <trkpt lat="47.3157" lon="-2.36061">
        <ele>-40.400001525879</ele>
        <time>2021-08-26T07:29:46.000Z</time>
      </trkpt>
      <trkpt lat="47.31598" lon="-2.36034">
        <ele>-40.400001525879</ele>
        <time>2021-08-26T07:29:52.000Z</time>
      </trkpt>
      <trkpt lat="47.31623" lon="-2.36007">
        <ele>-40.400001525879</ele>
        <time>2021-08-26T07:29:57.000Z</time>
      </trkpt>
      <trkpt lat="47.31647" lon="-2.3598">
        <ele>-40.400001525879</ele>
        <time>2021-08-26T07:30:02.000Z</time>
      </trkpt>
      <trkpt lat="47.31653" lon="-2.35975">
        <ele>-40.400001525879</ele>
        <time>2021-08-26T07:30:03.000Z</time>
      </trkpt>
      <trkpt lat="47.31701" lon="-2.35947">
        <ele>-40.400001525879</ele>
        <time>2021-08-26T07:30:11.000Z</time>
      </trkpt>
      <trkpt lat="47.31707" lon="-2.35945">
        <ele>-41</ele>
        <time>2021-08-26T07:30:12.000Z</time>
      </trkpt>
      <trkpt lat="47.31713" lon="-2.35942">
        <ele>-41.400001525879</ele>
        <time>2021-08-26T07:30:13.000Z</time>
      </trkpt>
      <trkpt lat="47.31719" lon="-2.35938">
        <ele>-41.799999237061</ele>
        <time>2021-08-26T07:30:14.000Z</time>
      </trkpt>
      <trkpt lat="47.31725" lon="-2.35935">
        <ele>-42.200000762939</ele>
        <time>2021-08-26T07:30:15.000Z</time>
      </trkpt>
      <trkpt lat="47.31731" lon="-2.35931">
        <ele>-42.799999237061</ele>
        <time>2021-08-26T07:30:16.000Z</time>
      </trkpt>
      <trkpt lat="47.31755" lon="-2.35917">
        <ele>-42.799999237061</ele>
        <time>2021-08-26T07:30:20.000Z</time>
      </trkpt>
      <trkpt lat="47.31761" lon="-2.35914">
        <ele>-43.200000762939</ele>
        <time>2021-08-26T07:30:21.000Z</time>
      </trkpt>
      <trkpt lat="47.31768" lon="-2.35911">
        <ele>-43.599998474121</ele>
        <time>2021-08-26T07:30:22.000Z</time>
      </trkpt>
      <trkpt lat="47.31774" lon="-2.35907">
        <ele>-44</ele>
        <time>2021-08-26T07:30:23.000Z</time>
      </trkpt>
      <trkpt lat="47.3178" lon="-2.35904">
        <ele>-44.400001525879</ele>
        <time>2021-08-26T07:30:24.000Z</time>
      </trkpt>
      <trkpt lat="47.31785" lon="-2.35901">
        <ele>-44.799999237061</ele>
        <time>2021-08-26T07:30:25.000Z</time>
      </trkpt>
      <trkpt lat="47.31796" lon="-2.35895">
        <ele>-44.799999237061</ele>
        <time>2021-08-26T07:30:27.000Z</time>
      </trkpt>
      <trkpt lat="47.31806" lon="-2.35888">
        <ele>-45.400001525879</ele>
        <time>2021-08-26T07:30:30.000Z</time>
      </trkpt>
      <trkpt lat="47.31808" lon="-2.35887">
        <ele>-45.799999237061</ele>
        <time>2021-08-26T07:30:31.000Z</time>
      </trkpt>
      <trkpt lat="47.31809" lon="-2.35887">
        <ele>-46.200000762939</ele>
        <time>2021-08-26T07:30:32.000Z</time>
      </trkpt>
      <trkpt lat="47.31809" lon="-2.35888">
        <ele>-46.599998474121</ele>
        <time>2021-08-26T07:30:33.000Z</time>
      </trkpt>
      <trkpt lat="47.3181" lon="-2.35888">
        <ele>-47</ele>
        <time>2021-08-26T07:30:34.000Z</time>
      </trkpt>
      <trkpt lat="47.31814" lon="-2.35887">
        <ele>-47</ele>
        <time>2021-08-26T07:31:01.000Z</time>
      </trkpt>
      <trkpt lat="47.31823" lon="-2.35875">
        <ele>-47</ele>
        <time>2021-08-26T07:31:06.000Z</time>
      </trkpt>
      <trkpt lat="47.31824" lon="-2.35856">
        <ele>-47</ele>
        <time>2021-08-26T07:31:10.000Z</time>
      </trkpt>
      <trkpt lat="47.31815" lon="-2.35837">
        <ele>-47</ele>
        <time>2021-08-26T07:31:15.000Z</time>
      </trkpt>
      <trkpt lat="47.31801" lon="-2.35817">
        <ele>-47</ele>
        <time>2021-08-26T07:31:20.000Z</time>
      </trkpt>
      <trkpt lat="47.31798" lon="-2.35812">
        <ele>-47</ele>
        <time>2021-08-26T07:31:21.000Z</time>
      </trkpt>
      <trkpt lat="47.31791" lon="-2.35804">
        <ele>-47</ele>
        <time>2021-08-26T07:31:23.000Z</time>
      </trkpt>
      <trkpt lat="47.31785" lon="-2.35785">
        <ele>-47</ele>
        <time>2021-08-26T07:31:26.000Z</time>
      </trkpt>
      <trkpt lat="47.31783" lon="-2.35778">
        <ele>-47</ele>
        <time>2021-08-26T07:31:27.000Z</time>
      </trkpt>
      <trkpt lat="47.31782" lon="-2.35763">
        <ele>-47</ele>
        <time>2021-08-26T07:31:29.000Z</time>
      </trkpt>
      <trkpt lat="47.31781" lon="-2.35748">
        <ele>-47</ele>
        <time>2021-08-26T07:31:31.000Z</time>
      </trkpt>
      <trkpt lat="47.31782" lon="-2.35724">
        <ele>-47.599998474121</ele>
        <time>2021-08-26T07:31:34.000Z</time>
      </trkpt>
      <trkpt lat="47.31783" lon="-2.35715">
        <ele>-48</ele>
        <time>2021-08-26T07:31:35.000Z</time>
      </trkpt>
      <trkpt lat="47.31783" lon="-2.35705">
        <ele>-48.400001525879</ele>
        <time>2021-08-26T07:31:36.000Z</time>
      </trkpt>
      <trkpt lat="47.31784" lon="-2.35696">
        <ele>-48.799999237061</ele>
        <time>2021-08-26T07:31:37.000Z</time>
      </trkpt>
      <trkpt lat="47.31784" lon="-2.35688">
        <ele>-49.200000762939</ele>
        <time>2021-08-26T07:31:38.000Z</time>
      </trkpt>
      <trkpt lat="47.31787" lon="-2.35651">
        <ele>-49.200000762939</ele>
        <time>2021-08-26T07:31:42.000Z</time>
      </trkpt>
      <trkpt lat="47.31789" lon="-2.35643">
        <ele>-49.200000762939</ele>
        <time>2021-08-26T07:31:43.000Z</time>
      </trkpt>
      <trkpt lat="47.31793" lon="-2.35626">
        <ele>-49.200000762939</ele>
        <time>2021-08-26T07:31:45.000Z</time>
      </trkpt>
      <trkpt lat="47.31796" lon="-2.35619">
        <ele>-49.799999237061</ele>
        <time>2021-08-26T07:31:46.000Z</time>
      </trkpt>
      <trkpt lat="47.31799" lon="-2.35613">
        <ele>-50.200000762939</ele>
        <time>2021-08-26T07:31:47.000Z</time>
      </trkpt>
      <trkpt lat="47.31803" lon="-2.35607">
        <ele>-50.599998474121</ele>
        <time>2021-08-26T07:31:48.000Z</time>
      </trkpt>
      <trkpt lat="47.31806" lon="-2.35601">
        <ele>-51.200000762939</ele>
        <time>2021-08-26T07:31:49.000Z</time>
      </trkpt>
      <trkpt lat="47.31809" lon="-2.35596">
        <ele>-51.599998474121</ele>
        <time>2021-08-26T07:31:50.000Z</time>
      </trkpt>
      <trkpt lat="47.31811" lon="-2.35589">
        <ele>-51.599998474121</ele>
        <time>2021-08-26T07:31:51.000Z</time>
      </trkpt>
      <trkpt lat="47.31814" lon="-2.35583">
        <ele>-52</ele>
        <time>2021-08-26T07:31:52.000Z</time>
      </trkpt>
      <trkpt lat="47.31816" lon="-2.35579">
        <ele>-52.400001525879</ele>
        <time>2021-08-26T07:31:53.000Z</time>
      </trkpt>
      <trkpt lat="47.3182" lon="-2.35575">
        <ele>-52.799999237061</ele>
        <time>2021-08-26T07:31:54.000Z</time>
      </trkpt>
      <trkpt lat="47.31823" lon="-2.35571">
        <ele>-53.200000762939</ele>
        <time>2021-08-26T07:31:55.000Z</time>
      </trkpt>
      <trkpt lat="47.31826" lon="-2.35569">
        <ele>-53.599998474121</ele>
        <time>2021-08-26T07:31:56.000Z</time>
      </trkpt>
      <trkpt lat="47.31832" lon="-2.35563">
        <ele>-53.599998474121</ele>
        <time>2021-08-26T07:31:58.000Z</time>
      </trkpt>
      <trkpt lat="47.31835" lon="-2.35557">
        <ele>-53.599998474121</ele>
        <time>2021-08-26T07:32:00.000Z</time>
      </trkpt>
      <trkpt lat="47.31835" lon="-2.35549">
        <ele>-53.599998474121</ele>
        <time>2021-08-26T07:32:02.000Z</time>
      </trkpt>
      <trkpt lat="47.31829" lon="-2.3553">
        <ele>-53.599998474121</ele>
        <time>2021-08-26T07:32:06.000Z</time>
      </trkpt>
      <trkpt lat="47.31825" lon="-2.35519">
        <ele>-53.599998474121</ele>
        <time>2021-08-26T07:32:08.000Z</time>
      </trkpt>
      <trkpt lat="47.31812" lon="-2.35486">
        <ele>-53.599998474121</ele>
        <time>2021-08-26T07:32:15.000Z</time>
      </trkpt>
      <trkpt lat="47.31804" lon="-2.35471">
        <ele>-53.599998474121</ele>
        <time>2021-08-26T07:32:20.000Z</time>
      </trkpt>
      <trkpt lat="47.3179" lon="-2.35451">
        <ele>-53.599998474121</ele>
        <time>2021-08-26T07:32:26.000Z</time>
      </trkpt>
      <trkpt lat="47.31772" lon="-2.35424">
        <ele>-53.599998474121</ele>
        <time>2021-08-26T07:32:32.000Z</time>
      </trkpt>
      <trkpt lat="47.31761" lon="-2.35404">
        <ele>-53.200000762939</ele>
        <time>2021-08-26T07:32:36.000Z</time>
      </trkpt>
      <trkpt lat="47.31759" lon="-2.35399">
        <ele>-52.799999237061</ele>
        <time>2021-08-26T07:32:37.000Z</time>
      </trkpt>
      <trkpt lat="47.31757" lon="-2.35395">
        <ele>-52.400001525879</ele>
        <time>2021-08-26T07:32:38.000Z</time>
      </trkpt>
      <trkpt lat="47.31754" lon="-2.3539">
        <ele>-52</ele>
        <time>2021-08-26T07:32:39.000Z</time>
      </trkpt>
      <trkpt lat="47.31752" lon="-2.35387">
        <ele>-51.599998474121</ele>
        <time>2021-08-26T07:32:40.000Z</time>
      </trkpt>
      <trkpt lat="47.31746" lon="-2.35376">
        <ele>-51.599998474121</ele>
        <time>2021-08-26T07:32:43.000Z</time>
      </trkpt>
      <trkpt lat="47.31743" lon="-2.35373">
        <ele>-51.599998474121</ele>
        <time>2021-08-26T07:32:45.000Z</time>
      </trkpt>
      <trkpt lat="47.31739" lon="-2.35374">
        <ele>-51.599998474121</ele>
        <time>2021-08-26T07:32:47.000Z</time>
      </trkpt>
      <trkpt lat="47.31734" lon="-2.35374">
        <ele>-51.599998474121</ele>
        <time>2021-08-26T07:32:49.000Z</time>
      </trkpt>
      <trkpt lat="47.31724" lon="-2.35373">
        <ele>-51.599998474121</ele>
        <time>2021-08-26T07:32:52.000Z</time>
      </trkpt>
      <trkpt lat="47.31714" lon="-2.35374">
        <ele>-51.200000762939</ele>
        <time>2021-08-26T07:32:55.000Z</time>
      </trkpt>
      <trkpt lat="47.3171" lon="-2.35374">
        <ele>-50.799999237061</ele>
        <time>2021-08-26T07:32:56.000Z</time>
      </trkpt>
      <trkpt lat="47.31706" lon="-2.35374">
        <ele>-50.400001525879</ele>
        <time>2021-08-26T07:32:57.000Z</time>
      </trkpt>
      <trkpt lat="47.31703" lon="-2.35374">
        <ele>-49.799999237061</ele>
        <time>2021-08-26T07:32:58.000Z</time>
      </trkpt>
      <trkpt lat="47.31699" lon="-2.35373">
        <ele>-49.400001525879</ele>
        <time>2021-08-26T07:32:59.000Z</time>
      </trkpt>
      <trkpt lat="47.3168" lon="-2.35373">
        <ele>-49.400001525879</ele>
        <time>2021-08-26T07:33:04.000Z</time>
      </trkpt>
      <trkpt lat="47.31652" lon="-2.35371">
        <ele>-49.400001525879</ele>
        <time>2021-08-26T07:33:10.000Z</time>
      </trkpt>
      <trkpt lat="47.31647" lon="-2.35369">
        <ele>-49.400001525879</ele>
        <time>2021-08-26T07:33:11.000Z</time>
      </trkpt>
      <trkpt lat="47.31629" lon="-2.35363">
        <ele>-49.400001525879</ele>
        <time>2021-08-26T07:33:15.000Z</time>
      </trkpt>
      <trkpt lat="47.31625" lon="-2.35362">
        <ele>-49.400001525879</ele>
        <time>2021-08-26T07:33:16.000Z</time>
      </trkpt>
      <trkpt lat="47.31611" lon="-2.35363">
        <ele>-49.400001525879</ele>
        <time>2021-08-26T07:33:19.000Z</time>
      </trkpt>
      <trkpt lat="47.31598" lon="-2.35366">
        <ele>-49.400001525879</ele>
        <time>2021-08-26T07:33:22.000Z</time>
      </trkpt>
      <trkpt lat="47.31567" lon="-2.35381">
        <ele>-49.400001525879</ele>
        <time>2021-08-26T07:33:29.000Z</time>
      </trkpt>
      <trkpt lat="47.31544" lon="-2.35395">
        <ele>-49.400001525879</ele>
        <time>2021-08-26T07:33:35.000Z</time>
      </trkpt>
      <trkpt lat="47.31518" lon="-2.35415">
        <ele>-49.400001525879</ele>
        <time>2021-08-26T07:33:42.000Z</time>
      </trkpt>
      <trkpt lat="47.31501" lon="-2.35435">
        <ele>-49.400001525879</ele>
        <time>2021-08-26T07:33:48.000Z</time>
      </trkpt>
      <trkpt lat="47.31492" lon="-2.35462">
        <ele>-49.400001525879</ele>
        <time>2021-08-26T07:33:53.000Z</time>
      </trkpt>
      <trkpt lat="47.31487" lon="-2.35487">
        <ele>-49.400001525879</ele>
        <time>2021-08-26T07:33:57.000Z</time>
      </trkpt>
      <trkpt lat="47.31485" lon="-2.35494">
        <ele>-49.400001525879</ele>
        <time>2021-08-26T07:33:58.000Z</time>
      </trkpt>
      <trkpt lat="47.31476" lon="-2.35516">
        <ele>-49.400001525879</ele>
        <time>2021-08-26T07:34:02.000Z</time>
      </trkpt>
      <trkpt lat="47.31472" lon="-2.35519">
        <ele>-49.400001525879</ele>
        <time>2021-08-26T07:34:03.000Z</time>
      </trkpt>
      <trkpt lat="47.31457" lon="-2.35524">
        <ele>-49.400001525879</ele>
        <time>2021-08-26T07:34:07.000Z</time>
      </trkpt>
      <trkpt lat="47.31453" lon="-2.35525">
        <ele>-49.400001525879</ele>
        <time>2021-08-26T07:34:08.000Z</time>
      </trkpt>
      <trkpt lat="47.31423" lon="-2.35525">
        <ele>-49.400001525879</ele>
        <time>2021-08-26T07:34:15.000Z</time>
      </trkpt>
      <trkpt lat="47.31401" lon="-2.35525">
        <ele>-49</ele>
        <time>2021-08-26T07:34:20.000Z</time>
      </trkpt>
      <trkpt lat="47.31396" lon="-2.35526">
        <ele>-48.599998474121</ele>
        <time>2021-08-26T07:34:21.000Z</time>
      </trkpt>
      <trkpt lat="47.31393" lon="-2.35526">
        <ele>-48.200000762939</ele>
        <time>2021-08-26T07:34:22.000Z</time>
      </trkpt>
      <trkpt lat="47.31389" lon="-2.35527">
        <ele>-47.799999237061</ele>
        <time>2021-08-26T07:34:23.000Z</time>
      </trkpt>
      <trkpt lat="47.31385" lon="-2.35527">
        <ele>-47.400001525879</ele>
        <time>2021-08-26T07:34:24.000Z</time>
      </trkpt>
      <trkpt lat="47.31373" lon="-2.35529">
        <ele>-47.400001525879</ele>
        <time>2021-08-26T07:34:27.000Z</time>
      </trkpt>
      <trkpt lat="47.31353" lon="-2.35541">
        <ele>-47.400001525879</ele>
        <time>2021-08-26T07:34:33.000Z</time>
      </trkpt>
      <trkpt lat="47.31335" lon="-2.3555">
        <ele>-47.400001525879</ele>
        <time>2021-08-26T07:34:39.000Z</time>
      </trkpt>
      <trkpt lat="47.31333" lon="-2.35551">
        <ele>-47.400001525879</ele>
        <time>2021-08-26T07:34:40.000Z</time>
      </trkpt>
      <trkpt lat="47.31331" lon="-2.35558">
        <ele>-47.400001525879</ele>
        <time>2021-08-26T07:34:43.000Z</time>
      </trkpt>
      <trkpt lat="47.31329" lon="-2.35563">
        <ele>-47.400001525879</ele>
        <time>2021-08-26T07:34:48.000Z</time>
      </trkpt>
      <trkpt lat="47.31331" lon="-2.3556">
        <ele>-47.400001525879</ele>
        <time>2021-08-26T07:36:32.000Z</time>
      </trkpt>
      <trkpt lat="47.31336" lon="-2.35557">
        <ele>-47.400001525879</ele>
        <time>2021-08-26T07:36:35.000Z</time>
      </trkpt>
      <trkpt lat="47.31347" lon="-2.35545">
        <ele>-47.400001525879</ele>
        <time>2021-08-26T07:36:40.000Z</time>
      </trkpt>
      <trkpt lat="47.3137" lon="-2.35531">
        <ele>-47.400001525879</ele>
        <time>2021-08-26T07:36:47.000Z</time>
      </trkpt>
      <trkpt lat="47.31382" lon="-2.35526">
        <ele>-47.799999237061</ele>
        <time>2021-08-26T07:36:50.000Z</time>
      </trkpt>
      <trkpt lat="47.31386" lon="-2.35526">
        <ele>-48.799999237061</ele>
        <time>2021-08-26T07:36:51.000Z</time>
      </trkpt>
      <trkpt lat="47.31391" lon="-2.35526">
        <ele>-49.200000762939</ele>
        <time>2021-08-26T07:36:52.000Z</time>
      </trkpt>
      <trkpt lat="47.31395" lon="-2.35526">
        <ele>-49.599998474121</ele>
        <time>2021-08-26T07:36:53.000Z</time>
      </trkpt>
      <trkpt lat="47.31426" lon="-2.35526">
        <ele>-49.599998474121</ele>
        <time>2021-08-26T07:36:59.000Z</time>
      </trkpt>
      <trkpt lat="47.31442" lon="-2.35526">
        <ele>-49.599998474121</ele>
        <time>2021-08-26T07:37:02.000Z</time>
      </trkpt>
      <trkpt lat="47.31451" lon="-2.35525">
        <ele>-49.599998474121</ele>
        <time>2021-08-26T07:37:04.000Z</time>
      </trkpt>
      <trkpt lat="47.31472" lon="-2.35521">
        <ele>-49.599998474121</ele>
        <time>2021-08-26T07:37:09.000Z</time>
      </trkpt>
      <trkpt lat="47.31476" lon="-2.35518">
        <ele>-49.599998474121</ele>
        <time>2021-08-26T07:37:10.000Z</time>
      </trkpt>
      <trkpt lat="47.31484" lon="-2.35494">
        <ele>-49.599998474121</ele>
        <time>2021-08-26T07:37:14.000Z</time>
      </trkpt>
      <trkpt lat="47.31491" lon="-2.35459">
        <ele>-49.599998474121</ele>
        <time>2021-08-26T07:37:19.000Z</time>
      </trkpt>
      <trkpt lat="47.31495" lon="-2.35446">
        <ele>-49.599998474121</ele>
        <time>2021-08-26T07:37:21.000Z</time>
      </trkpt>
      <trkpt lat="47.315" lon="-2.35434">
        <ele>-50</ele>
        <time>2021-08-26T07:37:23.000Z</time>
      </trkpt>
      <trkpt lat="47.31503" lon="-2.35428">
        <ele>-50.400001525879</ele>
        <time>2021-08-26T07:37:24.000Z</time>
      </trkpt>
      <trkpt lat="47.31507" lon="-2.35424">
        <ele>-50.799999237061</ele>
        <time>2021-08-26T07:37:25.000Z</time>
      </trkpt>
      <trkpt lat="47.3151" lon="-2.3542">
        <ele>-51.200000762939</ele>
        <time>2021-08-26T07:37:26.000Z</time>
      </trkpt>
      <trkpt lat="47.31514" lon="-2.35416">
        <ele>-51.599998474121</ele>
        <time>2021-08-26T07:37:27.000Z</time>
      </trkpt>
      <trkpt lat="47.31519" lon="-2.35412">
        <ele>-51.599998474121</ele>
        <time>2021-08-26T07:37:28.000Z</time>
      </trkpt>
      <trkpt lat="47.31524" lon="-2.35409">
        <ele>-51.599998474121</ele>
        <time>2021-08-26T07:37:29.000Z</time>
      </trkpt>
      <trkpt lat="47.31539" lon="-2.35398">
        <ele>-51.599998474121</ele>
        <time>2021-08-26T07:37:32.000Z</time>
      </trkpt>
      <trkpt lat="47.31544" lon="-2.35394">
        <ele>-51.599998474121</ele>
        <time>2021-08-26T07:37:33.000Z</time>
      </trkpt>
      <trkpt lat="47.31582" lon="-2.3537">
        <ele>-51.599998474121</ele>
        <time>2021-08-26T07:37:41.000Z</time>
      </trkpt>
      <trkpt lat="47.31587" lon="-2.35368">
        <ele>-51.599998474121</ele>
        <time>2021-08-26T07:37:42.000Z</time>
      </trkpt>
      <trkpt lat="47.31606" lon="-2.35361">
        <ele>-51.599998474121</ele>
        <time>2021-08-26T07:37:46.000Z</time>
      </trkpt>
      <trkpt lat="47.31616" lon="-2.3536">
        <ele>-51.599998474121</ele>
        <time>2021-08-26T07:37:48.000Z</time>
      </trkpt>
      <trkpt lat="47.31636" lon="-2.35366">
        <ele>-51.599998474121</ele>
        <time>2021-08-26T07:37:52.000Z</time>
      </trkpt>
      <trkpt lat="47.31642" lon="-2.35367">
        <ele>-51.599998474121</ele>
        <time>2021-08-26T07:37:53.000Z</time>
      </trkpt>
      <trkpt lat="47.31675" lon="-2.3537">
        <ele>-51.599998474121</ele>
        <time>2021-08-26T07:37:59.000Z</time>
      </trkpt>
      <trkpt lat="47.3169" lon="-2.3537">
        <ele>-51.599998474121</ele>
        <time>2021-08-26T07:38:02.000Z</time>
      </trkpt>
      <trkpt lat="47.31706" lon="-2.35367">
        <ele>-51.599998474121</ele>
        <time>2021-08-26T07:38:05.000Z</time>
      </trkpt>
      <trkpt lat="47.31717" lon="-2.35366">
        <ele>-52.200000762939</ele>
        <time>2021-08-26T07:38:07.000Z</time>
      </trkpt>
      <trkpt lat="47.31722" lon="-2.35365">
        <ele>-52.599998474121</ele>
        <time>2021-08-26T07:38:08.000Z</time>
      </trkpt>
      <trkpt lat="47.31728" lon="-2.35363">
        <ele>-53</ele>
        <time>2021-08-26T07:38:09.000Z</time>
      </trkpt>
      <trkpt lat="47.31734" lon="-2.35361">
        <ele>-53.400001525879</ele>
        <time>2021-08-26T07:38:10.000Z</time>
      </trkpt>
      <trkpt lat="47.31741" lon="-2.35359">
        <ele>-53.799999237061</ele>
        <time>2021-08-26T07:38:11.000Z</time>
      </trkpt>
      <trkpt lat="47.31764" lon="-2.3535">
        <ele>-53.799999237061</ele>
        <time>2021-08-26T07:38:15.000Z</time>
      </trkpt>
      <trkpt lat="47.3177" lon="-2.35346">
        <ele>-53.799999237061</ele>
        <time>2021-08-26T07:38:16.000Z</time>
      </trkpt>
      <trkpt lat="47.31781" lon="-2.35339">
        <ele>-54.200000762939</ele>
        <time>2021-08-26T07:38:18.000Z</time>
      </trkpt>
      <trkpt lat="47.31785" lon="-2.35335">
        <ele>-54.599998474121</ele>
        <time>2021-08-26T07:38:19.000Z</time>
      </trkpt>
      <trkpt lat="47.31788" lon="-2.35332">
        <ele>-55</ele>
        <time>2021-08-26T07:38:20.000Z</time>
      </trkpt>
      <trkpt lat="47.31791" lon="-2.3533">
        <ele>-55.599998474121</ele>
        <time>2021-08-26T07:38:21.000Z</time>
      </trkpt>
      <trkpt lat="47.31793" lon="-2.35329">
        <ele>-56</ele>
        <time>2021-08-26T07:38:22.000Z</time>
      </trkpt>
      <trkpt lat="47.31797" lon="-2.35328">
        <ele>-56.400001525879</ele>
        <time>2021-08-26T07:38:24.000Z</time>
      </trkpt>
      <trkpt lat="47.31799" lon="-2.35327">
        <ele>-56.799999237061</ele>
        <time>2021-08-26T07:38:25.000Z</time>
      </trkpt>
      <trkpt lat="47.31803" lon="-2.35325">
        <ele>-57.200000762939</ele>
        <time>2021-08-26T07:38:26.000Z</time>
      </trkpt>
      <trkpt lat="47.31806" lon="-2.35323">
        <ele>-57.599998474121</ele>
        <time>2021-08-26T07:38:27.000Z</time>
      </trkpt>
      <trkpt lat="47.31811" lon="-2.35321">
        <ele>-58</ele>
        <time>2021-08-26T07:38:28.000Z</time>
      </trkpt>
      <trkpt lat="47.3182" lon="-2.35315">
        <ele>-58</ele>
        <time>2021-08-26T07:38:30.000Z</time>
      </trkpt>
      <trkpt lat="47.31828" lon="-2.35309">
        <ele>-58</ele>
        <time>2021-08-26T07:38:32.000Z</time>
      </trkpt>
      <trkpt lat="47.31843" lon="-2.35298">
        <ele>-58</ele>
        <time>2021-08-26T07:38:35.000Z</time>
      </trkpt>
      <trkpt lat="47.31874" lon="-2.35274">
        <ele>-58</ele>
        <time>2021-08-26T07:38:41.000Z</time>
      </trkpt>
      <trkpt lat="47.31878" lon="-2.35269">
        <ele>-58</ele>
        <time>2021-08-26T07:38:42.000Z</time>
      </trkpt>
      <trkpt lat="47.31891" lon="-2.35254">
        <ele>-58.400001525879</ele>
        <time>2021-08-26T07:38:45.000Z</time>
      </trkpt>
      <trkpt lat="47.31896" lon="-2.3525">
        <ele>-58.799999237061</ele>
        <time>2021-08-26T07:38:46.000Z</time>
      </trkpt>
      <trkpt lat="47.31901" lon="-2.35245">
        <ele>-59.400001525879</ele>
        <time>2021-08-26T07:38:47.000Z</time>
      </trkpt>
      <trkpt lat="47.31907" lon="-2.3524">
        <ele>-59.799999237061</ele>
        <time>2021-08-26T07:38:48.000Z</time>
      </trkpt>
      <trkpt lat="47.31911" lon="-2.35235">
        <ele>-60.200000762939</ele>
        <time>2021-08-26T07:38:49.000Z</time>
      </trkpt>
      <trkpt lat="47.31937" lon="-2.35212">
        <ele>-60.200000762939</ele>
        <time>2021-08-26T07:38:54.000Z</time>
      </trkpt>
      <trkpt lat="47.31948" lon="-2.35202">
        <ele>-60.200000762939</ele>
        <time>2021-08-26T07:38:56.000Z</time>
      </trkpt>
      <trkpt lat="47.31966" lon="-2.35183">
        <ele>-60.200000762939</ele>
        <time>2021-08-26T07:39:00.000Z</time>
      </trkpt>
      <trkpt lat="47.31997" lon="-2.35152">
        <ele>-60.200000762939</ele>
        <time>2021-08-26T07:39:06.000Z</time>
      </trkpt>
      <trkpt lat="47.32015" lon="-2.35134">
        <ele>-60.599998474121</ele>
        <time>2021-08-26T07:39:09.000Z</time>
      </trkpt>
      <trkpt lat="47.3202" lon="-2.35128">
        <ele>-61</ele>
        <time>2021-08-26T07:39:10.000Z</time>
      </trkpt>
      <trkpt lat="47.32024" lon="-2.35121">
        <ele>-61.400001525879</ele>
        <time>2021-08-26T07:39:11.000Z</time>
      </trkpt>
      <trkpt lat="47.32026" lon="-2.35113">
        <ele>-61.799999237061</ele>
        <time>2021-08-26T07:39:12.000Z</time>
      </trkpt>
      <trkpt lat="47.32027" lon="-2.35105">
        <ele>-62.200000762939</ele>
        <time>2021-08-26T07:39:13.000Z</time>
      </trkpt>
      <trkpt lat="47.32027" lon="-2.3509">
        <ele>-62.200000762939</ele>
        <time>2021-08-26T07:39:15.000Z</time>
      </trkpt>
      <trkpt lat="47.32034" lon="-2.35062">
        <ele>-62.200000762939</ele>
        <time>2021-08-26T07:39:19.000Z</time>
      </trkpt>
      <trkpt lat="47.32045" lon="-2.35061">
        <ele>-62.200000762939</ele>
        <time>2021-08-26T07:39:22.000Z</time>
      </trkpt>
      <trkpt lat="47.32049" lon="-2.35062">
        <ele>-62.200000762939</ele>
        <time>2021-08-26T07:39:23.000Z</time>
      </trkpt>
      <trkpt lat="47.32076" lon="-2.35064">
        <ele>-62.200000762939</ele>
        <time>2021-08-26T07:39:28.000Z</time>
      </trkpt>
      <trkpt lat="47.32115" lon="-2.35064">
        <ele>-62.200000762939</ele>
        <time>2021-08-26T07:39:35.000Z</time>
      </trkpt>
      <trkpt lat="47.32156" lon="-2.3506">
        <ele>-62.200000762939</ele>
        <time>2021-08-26T07:39:42.000Z</time>
      </trkpt>
      <trkpt lat="47.32193" lon="-2.35058">
        <ele>-62.200000762939</ele>
        <time>2021-08-26T07:39:48.000Z</time>
      </trkpt>
      <trkpt lat="47.32235" lon="-2.3505">
        <ele>-62.200000762939</ele>
        <time>2021-08-26T07:39:55.000Z</time>
      </trkpt>
      <trkpt lat="47.32271" lon="-2.35048">
        <ele>-62.200000762939</ele>
        <time>2021-08-26T07:40:02.000Z</time>
      </trkpt>
      <trkpt lat="47.32293" lon="-2.35048">
        <ele>-61.799999237061</ele>
        <time>2021-08-26T07:40:06.000Z</time>
      </trkpt>
      <trkpt lat="47.32298" lon="-2.35048">
        <ele>-61.400001525879</ele>
        <time>2021-08-26T07:40:07.000Z</time>
      </trkpt>
      <trkpt lat="47.32303" lon="-2.35048">
        <ele>-61</ele>
        <time>2021-08-26T07:40:08.000Z</time>
      </trkpt>
      <trkpt lat="47.32309" lon="-2.35047">
        <ele>-60.200000762939</ele>
        <time>2021-08-26T07:40:09.000Z</time>
      </trkpt>
      <trkpt lat="47.32336" lon="-2.35047">
        <ele>-60.200000762939</ele>
        <time>2021-08-26T07:40:14.000Z</time>
      </trkpt>
      <trkpt lat="47.32364" lon="-2.35049">
        <ele>-60.200000762939</ele>
        <time>2021-08-26T07:40:20.000Z</time>
      </trkpt>
      <trkpt lat="47.32398" lon="-2.35047">
        <ele>-60.200000762939</ele>
        <time>2021-08-26T07:40:27.000Z</time>
      </trkpt>
      <trkpt lat="47.32412" lon="-2.35046">
        <ele>-59.799999237061</ele>
        <time>2021-08-26T07:40:29.000Z</time>
      </trkpt>
      <trkpt lat="47.32417" lon="-2.35046">
        <ele>-59.400001525879</ele>
        <time>2021-08-26T07:40:30.000Z</time>
      </trkpt>
      <trkpt lat="47.32424" lon="-2.35047">
        <ele>-58.799999237061</ele>
        <time>2021-08-26T07:40:31.000Z</time>
      </trkpt>
      <trkpt lat="47.32429" lon="-2.35046">
        <ele>-58.400001525879</ele>
        <time>2021-08-26T07:40:32.000Z</time>
      </trkpt>
      <trkpt lat="47.32435" lon="-2.35044">
        <ele>-58</ele>
        <time>2021-08-26T07:40:33.000Z</time>
      </trkpt>
      <trkpt lat="47.32473" lon="-2.35033">
        <ele>-58</ele>
        <time>2021-08-26T07:40:40.000Z</time>
      </trkpt>
      <trkpt lat="47.32514" lon="-2.35026">
        <ele>-58</ele>
        <time>2021-08-26T07:40:47.000Z</time>
      </trkpt>
      <trkpt lat="47.32544" lon="-2.35018">
        <ele>-58.400001525879</ele>
        <time>2021-08-26T07:40:52.000Z</time>
      </trkpt>
      <trkpt lat="47.32549" lon="-2.35015">
        <ele>-58.799999237061</ele>
        <time>2021-08-26T07:40:53.000Z</time>
      </trkpt>
      <trkpt lat="47.32555" lon="-2.35012">
        <ele>-59.200000762939</ele>
        <time>2021-08-26T07:40:54.000Z</time>
      </trkpt>
      <trkpt lat="47.3256" lon="-2.35009">
        <ele>-59.799999237061</ele>
        <time>2021-08-26T07:40:55.000Z</time>
      </trkpt>
      <trkpt lat="47.32566" lon="-2.35007">
        <ele>-60.200000762939</ele>
        <time>2021-08-26T07:40:56.000Z</time>
      </trkpt>
      <trkpt lat="47.32583" lon="-2.34999">
        <ele>-60.200000762939</ele>
        <time>2021-08-26T07:40:59.000Z</time>
      </trkpt>
      <trkpt lat="47.32617" lon="-2.3498">
        <ele>-60.200000762939</ele>
        <time>2021-08-26T07:41:05.000Z</time>
      </trkpt>
      <trkpt lat="47.32642" lon="-2.34968">
        <ele>-60.599998474121</ele>
        <time>2021-08-26T07:41:09.000Z</time>
      </trkpt>
      <trkpt lat="47.32647" lon="-2.34964">
        <ele>-61</ele>
        <time>2021-08-26T07:41:10.000Z</time>
      </trkpt>
      <trkpt lat="47.32652" lon="-2.34959">
        <ele>-61.400001525879</ele>
        <time>2021-08-26T07:41:11.000Z</time>
      </trkpt>
      <trkpt lat="47.32657" lon="-2.34954">
        <ele>-61.799999237061</ele>
        <time>2021-08-26T07:41:12.000Z</time>
      </trkpt>
      <trkpt lat="47.32663" lon="-2.3495">
        <ele>-62.200000762939</ele>
        <time>2021-08-26T07:41:13.000Z</time>
      </trkpt>
      <trkpt lat="47.32672" lon="-2.34943">
        <ele>-62.200000762939</ele>
        <time>2021-08-26T07:41:15.000Z</time>
      </trkpt>
      <trkpt lat="47.32708" lon="-2.34916">
        <ele>-62.200000762939</ele>
        <time>2021-08-26T07:41:22.000Z</time>
      </trkpt>
      <trkpt lat="47.3275" lon="-2.34885">
        <ele>-62.200000762939</ele>
        <time>2021-08-26T07:41:29.000Z</time>
      </trkpt>
      <trkpt lat="47.32769" lon="-2.34871">
        <ele>-62.599998474121</ele>
        <time>2021-08-26T07:41:32.000Z</time>
      </trkpt>
      <trkpt lat="47.32775" lon="-2.34866">
        <ele>-63</ele>
        <time>2021-08-26T07:41:33.000Z</time>
      </trkpt>
      <trkpt lat="47.32782" lon="-2.34861">
        <ele>-63.400001525879</ele>
        <time>2021-08-26T07:41:34.000Z</time>
      </trkpt>
      <trkpt lat="47.32787" lon="-2.34857">
        <ele>-63.799999237061</ele>
        <time>2021-08-26T07:41:35.000Z</time>
      </trkpt>
      <trkpt lat="47.32793" lon="-2.34853">
        <ele>-64.199996948242</ele>
        <time>2021-08-26T07:41:36.000Z</time>
      </trkpt>
      <trkpt lat="47.32805" lon="-2.34844">
        <ele>-64.199996948242</ele>
        <time>2021-08-26T07:41:38.000Z</time>
      </trkpt>
      <trkpt lat="47.32841" lon="-2.34818">
        <ele>-64.199996948242</ele>
        <time>2021-08-26T07:41:44.000Z</time>
      </trkpt>
      <trkpt lat="47.32881" lon="-2.34792">
        <ele>-64.599998474121</ele>
        <time>2021-08-26T07:41:51.000Z</time>
      </trkpt>
      <trkpt lat="47.32886" lon="-2.34788">
        <ele>-65</ele>
        <time>2021-08-26T07:41:52.000Z</time>
      </trkpt>
      <trkpt lat="47.32891" lon="-2.34785">
        <ele>-65.400001525879</ele>
        <time>2021-08-26T07:41:53.000Z</time>
      </trkpt>
      <trkpt lat="47.32895" lon="-2.34783">
        <ele>-66</ele>
        <time>2021-08-26T07:41:54.000Z</time>
      </trkpt>
      <trkpt lat="47.32898" lon="-2.34781">
        <ele>-66.400001525879</ele>
        <time>2021-08-26T07:41:55.000Z</time>
      </trkpt>
      <trkpt lat="47.329" lon="-2.3478">
        <ele>-66.400001525879</ele>
        <time>2021-08-26T07:41:56.000Z</time>
      </trkpt>
      <trkpt lat="47.32901" lon="-2.34779">
        <ele>-66.800003051758</ele>
        <time>2021-08-26T07:41:57.000Z</time>
      </trkpt>
      <trkpt lat="47.32902" lon="-2.3478">
        <ele>-67.199996948242</ele>
        <time>2021-08-26T07:41:58.000Z</time>
      </trkpt>
      <trkpt lat="47.32902" lon="-2.3478">
        <ele>-67.599998474121</ele>
        <time>2021-08-26T07:41:59.000Z</time>
      </trkpt>
      <trkpt lat="47.32909" lon="-2.34786">
        <ele>-68.400001525879</ele>
        <time>2021-08-26T07:42:51.000Z</time>
      </trkpt>
      <trkpt lat="47.32918" lon="-2.34804">
        <ele>-68.400001525879</ele>
        <time>2021-08-26T07:42:57.000Z</time>
      </trkpt>
      <trkpt lat="47.32919" lon="-2.34808">
        <ele>-68.400001525879</ele>
        <time>2021-08-26T07:42:58.000Z</time>
      </trkpt>
      <trkpt lat="47.32932" lon="-2.34838">
        <ele>-68.400001525879</ele>
        <time>2021-08-26T07:43:04.000Z</time>
      </trkpt>
      <trkpt lat="47.32948" lon="-2.34879">
        <ele>-68.400001525879</ele>
        <time>2021-08-26T07:43:11.000Z</time>
      </trkpt>
      <trkpt lat="47.32957" lon="-2.34908">
        <ele>-68.400001525879</ele>
        <time>2021-08-26T07:43:15.000Z</time>
      </trkpt>
      <trkpt lat="47.32962" lon="-2.34921">
        <ele>-68.400001525879</ele>
        <time>2021-08-26T07:43:17.000Z</time>
      </trkpt>
      <trkpt lat="47.32974" lon="-2.34952">
        <ele>-68.400001525879</ele>
        <time>2021-08-26T07:43:22.000Z</time>
      </trkpt>
      <trkpt lat="47.32977" lon="-2.34963">
        <ele>-68.400001525879</ele>
        <time>2021-08-26T07:43:24.000Z</time>
      </trkpt>
      <trkpt lat="47.32984" lon="-2.34978">
        <ele>-68.400001525879</ele>
        <time>2021-08-26T07:43:27.000Z</time>
      </trkpt>
      <trkpt lat="47.32989" lon="-2.34986">
        <ele>-68.400001525879</ele>
        <time>2021-08-26T07:43:29.000Z</time>
      </trkpt>
      <trkpt lat="47.32997" lon="-2.35009">
        <ele>-68.400001525879</ele>
        <time>2021-08-26T07:43:34.000Z</time>
      </trkpt>
      <trkpt lat="47.32998" lon="-2.35014">
        <ele>-68</ele>
        <time>2021-08-26T07:43:35.000Z</time>
      </trkpt>
      <trkpt lat="47.33" lon="-2.35019">
        <ele>-67.599998474121</ele>
        <time>2021-08-26T07:43:36.000Z</time>
      </trkpt>
      <trkpt lat="47.33001" lon="-2.35024">
        <ele>-67.199996948242</ele>
        <time>2021-08-26T07:43:37.000Z</time>
      </trkpt>
      <trkpt lat="47.33003" lon="-2.3503">
        <ele>-66.800003051758</ele>
        <time>2021-08-26T07:43:38.000Z</time>
      </trkpt>
      <trkpt lat="47.33004" lon="-2.35036">
        <ele>-66.400001525879</ele>
        <time>2021-08-26T07:43:39.000Z</time>
      </trkpt>
      <trkpt lat="47.33004" lon="-2.35041">
        <ele>-66.400001525879</ele>
        <time>2021-08-26T07:43:40.000Z</time>
      </trkpt>
      <trkpt lat="47.3301" lon="-2.35061">
        <ele>-66.400001525879</ele>
        <time>2021-08-26T07:43:44.000Z</time>
      </trkpt>
      <trkpt lat="47.33017" lon="-2.35096">
        <ele>-66.400001525879</ele>
        <time>2021-08-26T07:43:51.000Z</time>
      </trkpt>
      <trkpt lat="47.33022" lon="-2.35129">
        <ele>-66.400001525879</ele>
        <time>2021-08-26T07:43:57.000Z</time>
      </trkpt>
      <trkpt lat="47.33023" lon="-2.3514">
        <ele>-66</ele>
        <time>2021-08-26T07:43:58.000Z</time>
      </trkpt>
      <trkpt lat="47.33024" lon="-2.35149">
        <ele>-65.599998474121</ele>
        <time>2021-08-26T07:43:59.000Z</time>
      </trkpt>
      <trkpt lat="47.33025" lon="-2.35157">
        <ele>-65.199996948242</ele>
        <time>2021-08-26T07:44:00.000Z</time>
      </trkpt>
      <trkpt lat="47.33026" lon="-2.35166">
        <ele>-64.800003051758</ele>
        <time>2021-08-26T07:44:01.000Z</time>
      </trkpt>
      <trkpt lat="47.33026" lon="-2.35174">
        <ele>-64.400001525879</ele>
        <time>2021-08-26T07:44:02.000Z</time>
      </trkpt>
      <trkpt lat="47.33026" lon="-2.35181">
        <ele>-64.400001525879</ele>
        <time>2021-08-26T07:44:03.000Z</time>
      </trkpt>
      <trkpt lat="47.33024" lon="-2.35222">
        <ele>-64.400001525879</ele>
        <time>2021-08-26T07:44:09.000Z</time>
      </trkpt>
      <trkpt lat="47.33025" lon="-2.35228">
        <ele>-64.400001525879</ele>
        <time>2021-08-26T07:44:10.000Z</time>
      </trkpt>
      <trkpt lat="47.33028" lon="-2.35245">
        <ele>-64.400001525879</ele>
        <time>2021-08-26T07:44:13.000Z</time>
      </trkpt>
      <trkpt lat="47.33025" lon="-2.35265">
        <ele>-64.400001525879</ele>
        <time>2021-08-26T07:44:16.000Z</time>
      </trkpt>
      <trkpt lat="47.33025" lon="-2.35278">
        <ele>-64.400001525879</ele>
        <time>2021-08-26T07:44:18.000Z</time>
      </trkpt>
      <trkpt lat="47.33024" lon="-2.35337">
        <ele>-64.400001525879</ele>
        <time>2021-08-26T07:44:26.000Z</time>
      </trkpt>
      <trkpt lat="47.33025" lon="-2.35363">
        <ele>-64.400001525879</ele>
        <time>2021-08-26T07:44:29.000Z</time>
      </trkpt>
      <trkpt lat="47.33027" lon="-2.3538">
        <ele>-64.400001525879</ele>
        <time>2021-08-26T07:44:31.000Z</time>
      </trkpt>
      <trkpt lat="47.3303" lon="-2.35426">
        <ele>-64.400001525879</ele>
        <time>2021-08-26T07:44:37.000Z</time>
      </trkpt>
      <trkpt lat="47.3303" lon="-2.35441">
        <ele>-64.400001525879</ele>
        <time>2021-08-26T07:44:39.000Z</time>
      </trkpt>
      <trkpt lat="47.33032" lon="-2.35453">
        <ele>-64.400001525879</ele>
        <time>2021-08-26T07:44:41.000Z</time>
      </trkpt>
      <trkpt lat="47.33032" lon="-2.35461">
        <ele>-64.800003051758</ele>
        <time>2021-08-26T07:44:42.000Z</time>
      </trkpt>
      <trkpt lat="47.33032" lon="-2.35468">
        <ele>-65.199996948242</ele>
        <time>2021-08-26T07:44:43.000Z</time>
      </trkpt>
      <trkpt lat="47.33032" lon="-2.35476">
        <ele>-65.599998474121</ele>
        <time>2021-08-26T07:44:44.000Z</time>
      </trkpt>
      <trkpt lat="47.33031" lon="-2.35483">
        <ele>-66</ele>
        <time>2021-08-26T07:44:45.000Z</time>
      </trkpt>
      <trkpt lat="47.33031" lon="-2.3549">
        <ele>-66.599998474121</ele>
        <time>2021-08-26T07:44:46.000Z</time>
      </trkpt>
      <trkpt lat="47.3303" lon="-2.35497">
        <ele>-66.599998474121</ele>
        <time>2021-08-26T07:44:47.000Z</time>
      </trkpt>
      <trkpt lat="47.33029" lon="-2.35513">
        <ele>-66.599998474121</ele>
        <time>2021-08-26T07:44:49.000Z</time>
      </trkpt>
      <trkpt lat="47.33028" lon="-2.35536">
        <ele>-66.599998474121</ele>
        <time>2021-08-26T07:44:52.000Z</time>
      </trkpt>
      <trkpt lat="47.33029" lon="-2.35566">
        <ele>-66.599998474121</ele>
        <time>2021-08-26T07:44:56.000Z</time>
      </trkpt>
      <trkpt lat="47.33028" lon="-2.35582">
        <ele>-66.599998474121</ele>
        <time>2021-08-26T07:44:58.000Z</time>
      </trkpt>
      <trkpt lat="47.33027" lon="-2.3559">
        <ele>-67</ele>
        <time>2021-08-26T07:44:59.000Z</time>
      </trkpt>
      <trkpt lat="47.33026" lon="-2.35599">
        <ele>-67.400001525879</ele>
        <time>2021-08-26T07:45:00.000Z</time>
      </trkpt>
      <trkpt lat="47.33025" lon="-2.35608">
        <ele>-67.800003051758</ele>
        <time>2021-08-26T07:45:01.000Z</time>
      </trkpt>
      <trkpt lat="47.33024" lon="-2.35617">
        <ele>-68.199996948242</ele>
        <time>2021-08-26T07:45:02.000Z</time>
      </trkpt>
      <trkpt lat="47.33023" lon="-2.35625">
        <ele>-68.599998474121</ele>
        <time>2021-08-26T07:45:03.000Z</time>
      </trkpt>
      <trkpt lat="47.33019" lon="-2.35653">
        <ele>-68.599998474121</ele>
        <time>2021-08-26T07:45:06.000Z</time>
      </trkpt>
      <trkpt lat="47.33018" lon="-2.35663">
        <ele>-69</ele>
        <time>2021-08-26T07:45:07.000Z</time>
      </trkpt>
      <trkpt lat="47.33016" lon="-2.35672">
        <ele>-69.599998474121</ele>
        <time>2021-08-26T07:45:08.000Z</time>
      </trkpt>
      <trkpt lat="47.33015" lon="-2.35682">
        <ele>-70</ele>
        <time>2021-08-26T07:45:09.000Z</time>
      </trkpt>
      <trkpt lat="47.33014" lon="-2.35692">
        <ele>-70.400001525879</ele>
        <time>2021-08-26T07:45:10.000Z</time>
      </trkpt>
      <trkpt lat="47.33013" lon="-2.35701">
        <ele>-70.800003051758</ele>
        <time>2021-08-26T07:45:11.000Z</time>
      </trkpt>
      <trkpt lat="47.33011" lon="-2.3571">
        <ele>-70.800003051758</ele>
        <time>2021-08-26T07:45:12.000Z</time>
      </trkpt>
      <trkpt lat="47.33008" lon="-2.35754">
        <ele>-70.800003051758</ele>
        <time>2021-08-26T07:45:17.000Z</time>
      </trkpt>
      <trkpt lat="47.33009" lon="-2.35762">
        <ele>-70.800003051758</ele>
        <time>2021-08-26T07:45:18.000Z</time>
      </trkpt>
      <trkpt lat="47.33016" lon="-2.35785">
        <ele>-70.800003051758</ele>
        <time>2021-08-26T07:45:21.000Z</time>
      </trkpt>
      <trkpt lat="47.33032" lon="-2.35804">
        <ele>-70.800003051758</ele>
        <time>2021-08-26T07:45:25.000Z</time>
      </trkpt>
      <trkpt lat="47.33053" lon="-2.35808">
        <ele>-70.800003051758</ele>
        <time>2021-08-26T07:45:29.000Z</time>
      </trkpt>
      <trkpt lat="47.33062" lon="-2.35809">
        <ele>-70.800003051758</ele>
        <time>2021-08-26T07:45:31.000Z</time>
      </trkpt>
      <trkpt lat="47.33082" lon="-2.35809">
        <ele>-70.400001525879</ele>
        <time>2021-08-26T07:45:35.000Z</time>
      </trkpt>
      <trkpt lat="47.33088" lon="-2.35808">
        <ele>-69.800003051758</ele>
        <time>2021-08-26T07:45:36.000Z</time>
      </trkpt>
      <trkpt lat="47.33093" lon="-2.35807">
        <ele>-69.400001525879</ele>
        <time>2021-08-26T07:45:37.000Z</time>
      </trkpt>
      <trkpt lat="47.33098" lon="-2.35807">
        <ele>-69</ele>
        <time>2021-08-26T07:45:38.000Z</time>
      </trkpt>
      <trkpt lat="47.33103" lon="-2.35807">
        <ele>-68.599998474121</ele>
        <time>2021-08-26T07:45:39.000Z</time>
      </trkpt>
      <trkpt lat="47.33114" lon="-2.35808">
        <ele>-68.599998474121</ele>
        <time>2021-08-26T07:45:41.000Z</time>
      </trkpt>
      <trkpt lat="47.33125" lon="-2.35807">
        <ele>-68.599998474121</ele>
        <time>2021-08-26T07:45:43.000Z</time>
      </trkpt>
      <trkpt lat="47.33145" lon="-2.35809">
        <ele>-68.599998474121</ele>
        <time>2021-08-26T07:45:47.000Z</time>
      </trkpt>
      <trkpt lat="47.33176" lon="-2.35815">
        <ele>-68.599998474121</ele>
        <time>2021-08-26T07:45:53.000Z</time>
      </trkpt>
      <trkpt lat="47.33214" lon="-2.35822">
        <ele>-68.599998474121</ele>
        <time>2021-08-26T07:46:00.000Z</time>
      </trkpt>
      <trkpt lat="47.33223" lon="-2.35826">
        <ele>-68.199996948242</ele>
        <time>2021-08-26T07:46:02.000Z</time>
      </trkpt>
      <trkpt lat="47.33228" lon="-2.35828">
        <ele>-67.800003051758</ele>
        <time>2021-08-26T07:46:03.000Z</time>
      </trkpt>
      <trkpt lat="47.33232" lon="-2.3583">
        <ele>-67.400001525879</ele>
        <time>2021-08-26T07:46:04.000Z</time>
      </trkpt>
      <trkpt lat="47.33236" lon="-2.35832">
        <ele>-67</ele>
        <time>2021-08-26T07:46:05.000Z</time>
      </trkpt>
      <trkpt lat="47.33241" lon="-2.35835">
        <ele>-66.599998474121</ele>
        <time>2021-08-26T07:46:06.000Z</time>
      </trkpt>
      <trkpt lat="47.33245" lon="-2.35838">
        <ele>-66.599998474121</ele>
        <time>2021-08-26T07:46:07.000Z</time>
      </trkpt>
      <trkpt lat="47.33256" lon="-2.35848">
        <ele>-66.199996948242</ele>
        <time>2021-08-26T07:46:10.000Z</time>
      </trkpt>
      <trkpt lat="47.3326" lon="-2.35851">
        <ele>-65.800003051758</ele>
        <time>2021-08-26T07:46:11.000Z</time>
      </trkpt>
      <trkpt lat="47.33263" lon="-2.35855">
        <ele>-65.400001525879</ele>
        <time>2021-08-26T07:46:12.000Z</time>
      </trkpt>
      <trkpt lat="47.33266" lon="-2.35859">
        <ele>-65</ele>
        <time>2021-08-26T07:46:13.000Z</time>
      </trkpt>
      <trkpt lat="47.33269" lon="-2.35862">
        <ele>-64.599998474121</ele>
        <time>2021-08-26T07:46:14.000Z</time>
      </trkpt>
      <trkpt lat="47.33289" lon="-2.35882">
        <ele>-64.199996948242</ele>
        <time>2021-08-26T07:46:20.000Z</time>
      </trkpt>
      <trkpt lat="47.33293" lon="-2.35885">
        <ele>-63.599998474121</ele>
        <time>2021-08-26T07:46:21.000Z</time>
      </trkpt>
      <trkpt lat="47.33297" lon="-2.35887">
        <ele>-63.200000762939</ele>
        <time>2021-08-26T07:46:22.000Z</time>
      </trkpt>
      <trkpt lat="47.33301" lon="-2.3589">
        <ele>-62.799999237061</ele>
        <time>2021-08-26T07:46:23.000Z</time>
      </trkpt>
      <trkpt lat="47.33304" lon="-2.35892">
        <ele>-62.400001525879</ele>
        <time>2021-08-26T07:46:24.000Z</time>
      </trkpt>
      <trkpt lat="47.3331" lon="-2.35899">
        <ele>-62.400001525879</ele>
        <time>2021-08-26T07:46:26.000Z</time>
      </trkpt>
      <trkpt lat="47.33316" lon="-2.35917">
        <ele>-62.400001525879</ele>
        <time>2021-08-26T07:46:30.000Z</time>
      </trkpt>
      <trkpt lat="47.33323" lon="-2.35951">
        <ele>-62.400001525879</ele>
        <time>2021-08-26T07:46:36.000Z</time>
      </trkpt>
      <trkpt lat="47.33323" lon="-2.35963">
        <ele>-62.400001525879</ele>
        <time>2021-08-26T07:46:38.000Z</time>
      </trkpt>
      <trkpt lat="47.33322" lon="-2.3597">
        <ele>-62</ele>
        <time>2021-08-26T07:46:39.000Z</time>
      </trkpt>
      <trkpt lat="47.33321" lon="-2.35977">
        <ele>-61.599998474121</ele>
        <time>2021-08-26T07:46:40.000Z</time>
      </trkpt>
      <trkpt lat="47.3332" lon="-2.35983">
        <ele>-61.200000762939</ele>
        <time>2021-08-26T07:46:41.000Z</time>
      </trkpt>
      <trkpt lat="47.33319" lon="-2.3599">
        <ele>-60.799999237061</ele>
        <time>2021-08-26T07:46:42.000Z</time>
      </trkpt>
      <trkpt lat="47.33318" lon="-2.35996">
        <ele>-60.400001525879</ele>
        <time>2021-08-26T07:46:43.000Z</time>
      </trkpt>
      <trkpt lat="47.33314" lon="-2.36025">
        <ele>-60.400001525879</ele>
        <time>2021-08-26T07:46:47.000Z</time>
      </trkpt>
      <trkpt lat="47.33313" lon="-2.36033">
        <ele>-60.400001525879</ele>
        <time>2021-08-26T07:46:48.000Z</time>
      </trkpt>
      <trkpt lat="47.33311" lon="-2.36062">
        <ele>-60.400001525879</ele>
        <time>2021-08-26T07:46:52.000Z</time>
      </trkpt>
      <trkpt lat="47.3331" lon="-2.36084">
        <ele>-60.400001525879</ele>
        <time>2021-08-26T07:46:55.000Z</time>
      </trkpt>
      <trkpt lat="47.3331" lon="-2.36107">
        <ele>-60.400001525879</ele>
        <time>2021-08-26T07:46:58.000Z</time>
      </trkpt>
      <trkpt lat="47.33311" lon="-2.36174">
        <ele>-60.400001525879</ele>
        <time>2021-08-26T07:47:06.000Z</time>
      </trkpt>
      <trkpt lat="47.33311" lon="-2.36213">
        <ele>-60.400001525879</ele>
        <time>2021-08-26T07:47:11.000Z</time>
      </trkpt>
      <trkpt lat="47.33313" lon="-2.36218">
        <ele>-60.400001525879</ele>
        <time>2021-08-26T07:47:12.000Z</time>
      </trkpt>
      <trkpt lat="47.33321" lon="-2.36218">
        <ele>-60.400001525879</ele>
        <time>2021-08-26T07:47:14.000Z</time>
      </trkpt>
      <trkpt lat="47.33334" lon="-2.36208">
        <ele>-60.400001525879</ele>
        <time>2021-08-26T07:47:17.000Z</time>
      </trkpt>
      <trkpt lat="47.33338" lon="-2.36205">
        <ele>-60.400001525879</ele>
        <time>2021-08-26T07:47:18.000Z</time>
      </trkpt>
      <trkpt lat="47.33368" lon="-2.36184">
        <ele>-60.400001525879</ele>
        <time>2021-08-26T07:47:25.000Z</time>
      </trkpt>
      <trkpt lat="47.334" lon="-2.36163">
        <ele>-60.400001525879</ele>
        <time>2021-08-26T07:47:33.000Z</time>
      </trkpt>
      <trkpt lat="47.3341" lon="-2.36161">
        <ele>-60.400001525879</ele>
        <time>2021-08-26T07:47:36.000Z</time>
      </trkpt>
      <trkpt lat="47.33412" lon="-2.36164">
        <ele>-60.400001525879</ele>
        <time>2021-08-26T07:47:37.000Z</time>
      </trkpt>
      <trkpt lat="47.33416" lon="-2.36184">
        <ele>-60.400001525879</ele>
        <time>2021-08-26T07:47:41.000Z</time>
      </trkpt>
      <trkpt lat="47.33416" lon="-2.3619">
        <ele>-60.400001525879</ele>
        <time>2021-08-26T07:47:42.000Z</time>
      </trkpt>
      <trkpt lat="47.33417" lon="-2.36203">
        <ele>-60.400001525879</ele>
        <time>2021-08-26T07:47:44.000Z</time>
      </trkpt>
      <trkpt lat="47.33414" lon="-2.36218">
        <ele>-60.400001525879</ele>
        <time>2021-08-26T07:47:46.000Z</time>
      </trkpt>
      <trkpt lat="47.33411" lon="-2.36234">
        <ele>-60.799999237061</ele>
        <time>2021-08-26T07:47:48.000Z</time>
      </trkpt>
      <trkpt lat="47.33411" lon="-2.36242">
        <ele>-61.200000762939</ele>
        <time>2021-08-26T07:47:49.000Z</time>
      </trkpt>
      <trkpt lat="47.33411" lon="-2.3625">
        <ele>-61.599998474121</ele>
        <time>2021-08-26T07:47:50.000Z</time>
      </trkpt>
      <trkpt lat="47.33411" lon="-2.36258">
        <ele>-62</ele>
        <time>2021-08-26T07:47:51.000Z</time>
      </trkpt>
      <trkpt lat="47.33412" lon="-2.36266">
        <ele>-62.400001525879</ele>
        <time>2021-08-26T07:47:52.000Z</time>
      </trkpt>
      <trkpt lat="47.33413" lon="-2.36275">
        <ele>-62.400001525879</ele>
        <time>2021-08-26T07:47:53.000Z</time>
      </trkpt>
      <trkpt lat="47.33414" lon="-2.36283">
        <ele>-62.400001525879</ele>
        <time>2021-08-26T07:47:54.000Z</time>
      </trkpt>
      <trkpt lat="47.33419" lon="-2.36305">
        <ele>-62.400001525879</ele>
        <time>2021-08-26T07:47:57.000Z</time>
      </trkpt>
      <trkpt lat="47.33431" lon="-2.36351">
        <ele>-62.799999237061</ele>
        <time>2021-08-26T07:48:03.000Z</time>
      </trkpt>
      <trkpt lat="47.33433" lon="-2.36358">
        <ele>-63.400001525879</ele>
        <time>2021-08-26T07:48:04.000Z</time>
      </trkpt>
      <trkpt lat="47.33436" lon="-2.36364">
        <ele>-63.799999237061</ele>
        <time>2021-08-26T07:48:05.000Z</time>
      </trkpt>
      <trkpt lat="47.33438" lon="-2.3637">
        <ele>-64.199996948242</ele>
        <time>2021-08-26T07:48:06.000Z</time>
      </trkpt>
      <trkpt lat="47.3344" lon="-2.36377">
        <ele>-64.599998474121</ele>
        <time>2021-08-26T07:48:07.000Z</time>
      </trkpt>
      <trkpt lat="47.33445" lon="-2.36389">
        <ele>-64.599998474121</ele>
        <time>2021-08-26T07:48:09.000Z</time>
      </trkpt>
      <trkpt lat="47.33446" lon="-2.36394">
        <ele>-64.599998474121</ele>
        <time>2021-08-26T07:48:10.000Z</time>
      </trkpt>
      <trkpt lat="47.33452" lon="-2.36407">
        <ele>-65</ele>
        <time>2021-08-26T07:48:13.000Z</time>
      </trkpt>
      <trkpt lat="47.33455" lon="-2.36411">
        <ele>-65.400001525879</ele>
        <time>2021-08-26T07:48:14.000Z</time>
      </trkpt>
      <trkpt lat="47.33458" lon="-2.36413">
        <ele>-65.800003051758</ele>
        <time>2021-08-26T07:48:15.000Z</time>
      </trkpt>
      <trkpt lat="47.33462" lon="-2.36414">
        <ele>-66.199996948242</ele>
        <time>2021-08-26T07:48:16.000Z</time>
      </trkpt>
      <trkpt lat="47.33466" lon="-2.36414">
        <ele>-66.599998474121</ele>
        <time>2021-08-26T07:48:17.000Z</time>
      </trkpt>
      <trkpt lat="47.33477" lon="-2.36421">
        <ele>-66.599998474121</ele>
        <time>2021-08-26T07:48:21.000Z</time>
      </trkpt>
      <trkpt lat="47.33478" lon="-2.36427">
        <ele>-66.599998474121</ele>
        <time>2021-08-26T07:48:23.000Z</time>
      </trkpt>
      <trkpt lat="47.33478" lon="-2.36435">
        <ele>-66.599998474121</ele>
        <time>2021-08-26T07:48:25.000Z</time>
      </trkpt>
      <trkpt lat="47.33478" lon="-2.36468">
        <ele>-66.599998474121</ele>
        <time>2021-08-26T07:48:31.000Z</time>
      </trkpt>
      <trkpt lat="47.33477" lon="-2.36515">
        <ele>-67</ele>
        <time>2021-08-26T07:48:37.000Z</time>
      </trkpt>
      <trkpt lat="47.33476" lon="-2.36524">
        <ele>-67.400001525879</ele>
        <time>2021-08-26T07:48:38.000Z</time>
      </trkpt>
      <trkpt lat="47.33476" lon="-2.36532">
        <ele>-67.800003051758</ele>
        <time>2021-08-26T07:48:39.000Z</time>
      </trkpt>
      <trkpt lat="47.33476" lon="-2.3654">
        <ele>-68.199996948242</ele>
        <time>2021-08-26T07:48:40.000Z</time>
      </trkpt>
      <trkpt lat="47.33476" lon="-2.36549">
        <ele>-68.599998474121</ele>
        <time>2021-08-26T07:48:41.000Z</time>
      </trkpt>
      <trkpt lat="47.33474" lon="-2.36572">
        <ele>-68.599998474121</ele>
        <time>2021-08-26T07:48:44.000Z</time>
      </trkpt>
      <trkpt lat="47.33475" lon="-2.36578">
        <ele>-68.599998474121</ele>
        <time>2021-08-26T07:48:45.000Z</time>
      </trkpt>
      <trkpt lat="47.33481" lon="-2.36584">
        <ele>-68.599998474121</ele>
        <time>2021-08-26T07:48:47.000Z</time>
      </trkpt>
      <trkpt lat="47.33492" lon="-2.3659">
        <ele>-68.599998474121</ele>
        <time>2021-08-26T07:48:50.000Z</time>
      </trkpt>
      <trkpt lat="47.33498" lon="-2.36593">
        <ele>-68.599998474121</ele>
        <time>2021-08-26T07:48:52.000Z</time>
      </trkpt>
      <trkpt lat="47.33516" lon="-2.36609">
        <ele>-68.599998474121</ele>
        <time>2021-08-26T07:48:57.000Z</time>
      </trkpt>
      <trkpt lat="47.33521" lon="-2.36611">
        <ele>-69</ele>
        <time>2021-08-26T07:48:58.000Z</time>
      </trkpt>
      <trkpt lat="47.33524" lon="-2.36613">
        <ele>-69.400001525879</ele>
        <time>2021-08-26T07:48:59.000Z</time>
      </trkpt>
      <trkpt lat="47.33527" lon="-2.36616">
        <ele>-69.800003051758</ele>
        <time>2021-08-26T07:49:00.000Z</time>
      </trkpt>
      <trkpt lat="47.3353" lon="-2.36619">
        <ele>-70.199996948242</ele>
        <time>2021-08-26T07:49:01.000Z</time>
      </trkpt>
      <trkpt lat="47.33532" lon="-2.36622">
        <ele>-70.599998474121</ele>
        <time>2021-08-26T07:49:02.000Z</time>
      </trkpt>
      <trkpt lat="47.33534" lon="-2.36625">
        <ele>-71.199996948242</ele>
        <time>2021-08-26T07:49:03.000Z</time>
      </trkpt>
      <trkpt lat="47.33536" lon="-2.36628">
        <ele>-71.599998474121</ele>
        <time>2021-08-26T07:49:04.000Z</time>
      </trkpt>
      <trkpt lat="47.33538" lon="-2.36631">
        <ele>-72</ele>
        <time>2021-08-26T07:49:05.000Z</time>
      </trkpt>
      <trkpt lat="47.3354" lon="-2.36634">
        <ele>-72.400001525879</ele>
        <time>2021-08-26T07:49:06.000Z</time>
      </trkpt>
      <trkpt lat="47.3354" lon="-2.36638">
        <ele>-73</ele>
        <time>2021-08-26T07:49:07.000Z</time>
      </trkpt>
      <trkpt lat="47.3354" lon="-2.36643">
        <ele>-73.599998474121</ele>
        <time>2021-08-26T07:49:08.000Z</time>
      </trkpt>
      <trkpt lat="47.33538" lon="-2.36647">
        <ele>-74.400001525879</ele>
        <time>2021-08-26T07:49:09.000Z</time>
      </trkpt>
      <trkpt lat="47.33535" lon="-2.36652">
        <ele>-75</ele>
        <time>2021-08-26T07:49:10.000Z</time>
      </trkpt>
      <trkpt lat="47.33532" lon="-2.36656">
        <ele>-75.599998474121</ele>
        <time>2021-08-26T07:49:11.000Z</time>
      </trkpt>
      <trkpt lat="47.33528" lon="-2.36659">
        <ele>-76</ele>
        <time>2021-08-26T07:49:12.000Z</time>
      </trkpt>
      <trkpt lat="47.33525" lon="-2.36663">
        <ele>-76.400001525879</ele>
        <time>2021-08-26T07:49:13.000Z</time>
      </trkpt>
      <trkpt lat="47.33522" lon="-2.36667">
        <ele>-76.800003051758</ele>
        <time>2021-08-26T07:49:14.000Z</time>
      </trkpt>
      <trkpt lat="47.33519" lon="-2.36673">
        <ele>-77.199996948242</ele>
        <time>2021-08-26T07:49:15.000Z</time>
      </trkpt>
      <trkpt lat="47.33516" lon="-2.36677">
        <ele>-77.599998474121</ele>
        <time>2021-08-26T07:49:16.000Z</time>
      </trkpt>
      <trkpt lat="47.3351" lon="-2.36687">
        <ele>-77.599998474121</ele>
        <time>2021-08-26T07:49:18.000Z</time>
      </trkpt>
      <trkpt lat="47.33505" lon="-2.36699">
        <ele>-77.599998474121</ele>
        <time>2021-08-26T07:49:21.000Z</time>
      </trkpt>
      <trkpt lat="47.33495" lon="-2.36716">
        <ele>-77.599998474121</ele>
        <time>2021-08-26T07:49:26.000Z</time>
      </trkpt>
      <trkpt lat="47.33486" lon="-2.36732">
        <ele>-77.599998474121</ele>
        <time>2021-08-26T07:49:32.000Z</time>
      </trkpt>
      <trkpt lat="47.33477" lon="-2.36759">
        <ele>-77.599998474121</ele>
        <time>2021-08-26T07:49:37.000Z</time>
      </trkpt>
      <trkpt lat="47.33472" lon="-2.36777">
        <ele>-77.599998474121</ele>
        <time>2021-08-26T07:49:40.000Z</time>
      </trkpt>
      <trkpt lat="47.33471" lon="-2.36789">
        <ele>-77.599998474121</ele>
        <time>2021-08-26T07:49:42.000Z</time>
      </trkpt>
      <trkpt lat="47.33467" lon="-2.36824">
        <ele>-77.599998474121</ele>
        <time>2021-08-26T07:49:49.000Z</time>
      </trkpt>
      <trkpt lat="47.33465" lon="-2.36828">
        <ele>-77.599998474121</ele>
        <time>2021-08-26T07:49:50.000Z</time>
      </trkpt>
      <trkpt lat="47.33461" lon="-2.36842">
        <ele>-77.599998474121</ele>
        <time>2021-08-26T07:49:53.000Z</time>
      </trkpt>
      <trkpt lat="47.33462" lon="-2.36863">
        <ele>-77.599998474121</ele>
        <time>2021-08-26T07:49:57.000Z</time>
      </trkpt>
      <trkpt lat="47.33462" lon="-2.36895">
        <ele>-77.599998474121</ele>
        <time>2021-08-26T07:50:03.000Z</time>
      </trkpt>
      <trkpt lat="47.33464" lon="-2.36926">
        <ele>-77.599998474121</ele>
        <time>2021-08-26T07:50:08.000Z</time>
      </trkpt>
      <trkpt lat="47.33462" lon="-2.36973">
        <ele>-77.599998474121</ele>
        <time>2021-08-26T07:50:15.000Z</time>
      </trkpt>
      <trkpt lat="47.33464" lon="-2.36981">
        <ele>-77.599998474121</ele>
        <time>2021-08-26T07:50:17.000Z</time>
      </trkpt>
      <trkpt lat="47.33466" lon="-2.36984">
        <ele>-77.599998474121</ele>
        <time>2021-08-26T07:50:18.000Z</time>
      </trkpt>
      <trkpt lat="47.33471" lon="-2.3699">
        <ele>-77.599998474121</ele>
        <time>2021-08-26T07:50:21.000Z</time>
      </trkpt>
      <trkpt lat="47.33474" lon="-2.36996">
        <ele>-77.599998474121</ele>
        <time>2021-08-26T07:50:24.000Z</time>
      </trkpt>
      <trkpt lat="47.33476" lon="-2.37003">
        <ele>-77.199996948242</ele>
        <time>2021-08-26T07:50:26.000Z</time>
      </trkpt>
      <trkpt lat="47.33476" lon="-2.37007">
        <ele>-76.800003051758</ele>
        <time>2021-08-26T07:50:27.000Z</time>
      </trkpt>
      <trkpt lat="47.33476" lon="-2.37012">
        <ele>-76.400001525879</ele>
        <time>2021-08-26T07:50:28.000Z</time>
      </trkpt>
      <trkpt lat="47.33475" lon="-2.37017">
        <ele>-76</ele>
        <time>2021-08-26T07:50:29.000Z</time>
      </trkpt>
      <trkpt lat="47.33475" lon="-2.37023">
        <ele>-75.599998474121</ele>
        <time>2021-08-26T07:50:30.000Z</time>
      </trkpt>
      <trkpt lat="47.33474" lon="-2.37035">
        <ele>-75.599998474121</ele>
        <time>2021-08-26T07:50:32.000Z</time>
      </trkpt>
      <trkpt lat="47.33474" lon="-2.37047">
        <ele>-75.599998474121</ele>
        <time>2021-08-26T07:50:34.000Z</time>
      </trkpt>
      <trkpt lat="47.33475" lon="-2.37091">
        <ele>-75.599998474121</ele>
        <time>2021-08-26T07:50:41.000Z</time>
      </trkpt>
      <trkpt lat="47.3348" lon="-2.37123">
        <ele>-75</ele>
        <time>2021-08-26T07:50:46.000Z</time>
      </trkpt>
      <trkpt lat="47.3348" lon="-2.3713">
        <ele>-74.599998474121</ele>
        <time>2021-08-26T07:50:47.000Z</time>
      </trkpt>
      <trkpt lat="47.33481" lon="-2.37136">
        <ele>-74.199996948242</ele>
        <time>2021-08-26T07:50:48.000Z</time>
      </trkpt>
      <trkpt lat="47.33481" lon="-2.37142">
        <ele>-73.800003051758</ele>
        <time>2021-08-26T07:50:49.000Z</time>
      </trkpt>
      <trkpt lat="47.33481" lon="-2.37148">
        <ele>-73.400001525879</ele>
        <time>2021-08-26T07:50:50.000Z</time>
      </trkpt>
      <trkpt lat="47.33485" lon="-2.37175">
        <ele>-73.400001525879</ele>
        <time>2021-08-26T07:50:55.000Z</time>
      </trkpt>
      <trkpt lat="47.33489" lon="-2.372">
        <ele>-73</ele>
        <time>2021-08-26T07:50:59.000Z</time>
      </trkpt>
      <trkpt lat="47.33491" lon="-2.37207">
        <ele>-72.599998474121</ele>
        <time>2021-08-26T07:51:00.000Z</time>
      </trkpt>
      <trkpt lat="47.33493" lon="-2.37213">
        <ele>-72.199996948242</ele>
        <time>2021-08-26T07:51:01.000Z</time>
      </trkpt>
      <trkpt lat="47.33495" lon="-2.37219">
        <ele>-71.800003051758</ele>
        <time>2021-08-26T07:51:02.000Z</time>
      </trkpt>
      <trkpt lat="47.33497" lon="-2.37224">
        <ele>-71.400001525879</ele>
        <time>2021-08-26T07:51:03.000Z</time>
      </trkpt>
      <trkpt lat="47.33506" lon="-2.37232">
        <ele>-71.400001525879</ele>
        <time>2021-08-26T07:51:06.000Z</time>
      </trkpt>
      <trkpt lat="47.33524" lon="-2.37234">
        <ele>-71.400001525879</ele>
        <time>2021-08-26T07:51:11.000Z</time>
      </trkpt>
      <trkpt lat="47.33535" lon="-2.37234">
        <ele>-70.800003051758</ele>
        <time>2021-08-26T07:51:14.000Z</time>
      </trkpt>
      <trkpt lat="47.33539" lon="-2.37234">
        <ele>-70.400001525879</ele>
        <time>2021-08-26T07:51:15.000Z</time>
      </trkpt>
      <trkpt lat="47.33543" lon="-2.37234">
        <ele>-69.599998474121</ele>
        <time>2021-08-26T07:51:16.000Z</time>
      </trkpt>
      <trkpt lat="47.33547" lon="-2.37234">
        <ele>-69.199996948242</ele>
        <time>2021-08-26T07:51:17.000Z</time>
      </trkpt>
      <trkpt lat="47.33552" lon="-2.37233">
        <ele>-69.199996948242</ele>
        <time>2021-08-26T07:51:18.000Z</time>
      </trkpt>
      <trkpt lat="47.33569" lon="-2.37233">
        <ele>-69.199996948242</ele>
        <time>2021-08-26T07:51:23.000Z</time>
      </trkpt>
      <trkpt lat="47.33576" lon="-2.37234">
        <ele>-68.800003051758</ele>
        <time>2021-08-26T07:51:25.000Z</time>
      </trkpt>
      <trkpt lat="47.33579" lon="-2.37234">
        <ele>-68.400001525879</ele>
        <time>2021-08-26T07:51:26.000Z</time>
      </trkpt>
      <trkpt lat="47.33583" lon="-2.37233">
        <ele>-68</ele>
        <time>2021-08-26T07:51:27.000Z</time>
      </trkpt>
      <trkpt lat="47.33587" lon="-2.37233">
        <ele>-67.599998474121</ele>
        <time>2021-08-26T07:51:28.000Z</time>
      </trkpt>
      <trkpt lat="47.3359" lon="-2.37234">
        <ele>-67.199996948242</ele>
        <time>2021-08-26T07:51:29.000Z</time>
      </trkpt>
      <trkpt lat="47.33597" lon="-2.37232">
        <ele>-67.199996948242</ele>
        <time>2021-08-26T07:51:31.000Z</time>
      </trkpt>
      <trkpt lat="47.33599" lon="-2.37222">
        <ele>-67.199996948242</ele>
        <time>2021-08-26T07:51:33.000Z</time>
      </trkpt>
      <trkpt lat="47.33597" lon="-2.3721">
        <ele>-67.199996948242</ele>
        <time>2021-08-26T07:51:35.000Z</time>
      </trkpt>
      <trkpt lat="47.33597" lon="-2.37203">
        <ele>-67.199996948242</ele>
        <time>2021-08-26T07:51:36.000Z</time>
      </trkpt>
      <trkpt lat="47.33598" lon="-2.37196">
        <ele>-67.199996948242</ele>
        <time>2021-08-26T07:51:37.000Z</time>
      </trkpt>
      <trkpt lat="47.33601" lon="-2.37166">
        <ele>-67.199996948242</ele>
        <time>2021-08-26T07:51:41.000Z</time>
      </trkpt>
      <trkpt lat="47.33603" lon="-2.3712">
        <ele>-67.199996948242</ele>
        <time>2021-08-26T07:51:47.000Z</time>
      </trkpt>
      <trkpt lat="47.33603" lon="-2.37051">
        <ele>-67.199996948242</ele>
        <time>2021-08-26T07:51:56.000Z</time>
      </trkpt>
      <trkpt lat="47.33602" lon="-2.36996">
        <ele>-67.199996948242</ele>
        <time>2021-08-26T07:52:03.000Z</time>
      </trkpt>
      <trkpt lat="47.33606" lon="-2.36955">
        <ele>-67.199996948242</ele>
        <time>2021-08-26T07:52:09.000Z</time>
      </trkpt>
      <trkpt lat="47.33609" lon="-2.36948">
        <ele>-67.599998474121</ele>
        <time>2021-08-26T07:52:11.000Z</time>
      </trkpt>
      <trkpt lat="47.3361" lon="-2.36945">
        <ele>-68</ele>
        <time>2021-08-26T07:52:12.000Z</time>
      </trkpt>
      <trkpt lat="47.33611" lon="-2.36941">
        <ele>-68.400001525879</ele>
        <time>2021-08-26T07:52:13.000Z</time>
      </trkpt>
      <trkpt lat="47.33612" lon="-2.36939">
        <ele>-68.800003051758</ele>
        <time>2021-08-26T07:52:14.000Z</time>
      </trkpt>
      <trkpt lat="47.33613" lon="-2.36936">
        <ele>-69.199996948242</ele>
        <time>2021-08-26T07:52:15.000Z</time>
      </trkpt>
      <trkpt lat="47.33621" lon="-2.36924">
        <ele>-69.199996948242</ele>
        <time>2021-08-26T07:52:20.000Z</time>
      </trkpt>
      <trkpt lat="47.33635" lon="-2.36906">
        <ele>-69.199996948242</ele>
        <time>2021-08-26T07:52:26.000Z</time>
      </trkpt>
      <trkpt lat="47.3365" lon="-2.36888">
        <ele>-69.199996948242</ele>
        <time>2021-08-26T07:52:32.000Z</time>
      </trkpt>
      <trkpt lat="47.33667" lon="-2.36867">
        <ele>-69.199996948242</ele>
        <time>2021-08-26T07:52:38.000Z</time>
      </trkpt>
      <trkpt lat="47.33689" lon="-2.36841">
        <ele>-69.199996948242</ele>
        <time>2021-08-26T07:52:45.000Z</time>
      </trkpt>
      <trkpt lat="47.33709" lon="-2.36824">
        <ele>-68.800003051758</ele>
        <time>2021-08-26T07:52:51.000Z</time>
      </trkpt>
      <trkpt lat="47.33712" lon="-2.36822">
        <ele>-68.400001525879</ele>
        <time>2021-08-26T07:52:52.000Z</time>
      </trkpt>
      <trkpt lat="47.33715" lon="-2.3682">
        <ele>-68</ele>
        <time>2021-08-26T07:52:53.000Z</time>
      </trkpt>
      <trkpt lat="47.33718" lon="-2.36819">
        <ele>-67.599998474121</ele>
        <time>2021-08-26T07:52:54.000Z</time>
      </trkpt>
      <trkpt lat="47.33721" lon="-2.36817">
        <ele>-67.199996948242</ele>
        <time>2021-08-26T07:52:55.000Z</time>
      </trkpt>
      <trkpt lat="47.33728" lon="-2.36814">
        <ele>-67.199996948242</ele>
        <time>2021-08-26T07:52:57.000Z</time>
      </trkpt>
      <trkpt lat="47.33744" lon="-2.36808">
        <ele>-67.199996948242</ele>
        <time>2021-08-26T07:53:00.000Z</time>
      </trkpt>
      <trkpt lat="47.33749" lon="-2.36807">
        <ele>-67.199996948242</ele>
        <time>2021-08-26T07:53:01.000Z</time>
      </trkpt>
      <trkpt lat="47.33782" lon="-2.36793">
        <ele>-67.199996948242</ele>
        <time>2021-08-26T07:53:08.000Z</time>
      </trkpt>
      <trkpt lat="47.33825" lon="-2.36778">
        <ele>-67.199996948242</ele>
        <time>2021-08-26T07:53:16.000Z</time>
      </trkpt>
      <trkpt lat="47.3383" lon="-2.36777">
        <ele>-67.599998474121</ele>
        <time>2021-08-26T07:53:17.000Z</time>
      </trkpt>
      <trkpt lat="47.33835" lon="-2.36776">
        <ele>-68</ele>
        <time>2021-08-26T07:53:18.000Z</time>
      </trkpt>
      <trkpt lat="47.33841" lon="-2.36774">
        <ele>-68.400001525879</ele>
        <time>2021-08-26T07:53:19.000Z</time>
      </trkpt>
      <trkpt lat="47.33846" lon="-2.36773">
        <ele>-69.199996948242</ele>
        <time>2021-08-26T07:53:20.000Z</time>
      </trkpt>
      <trkpt lat="47.33865" lon="-2.36768">
        <ele>-69.199996948242</ele>
        <time>2021-08-26T07:53:24.000Z</time>
      </trkpt>
      <trkpt lat="47.33898" lon="-2.3676">
        <ele>-69.199996948242</ele>
        <time>2021-08-26T07:53:31.000Z</time>
      </trkpt>
      <trkpt lat="47.33913" lon="-2.36752">
        <ele>-69.199996948242</ele>
        <time>2021-08-26T07:53:36.000Z</time>
      </trkpt>
      <trkpt lat="47.33917" lon="-2.36748">
        <ele>-69.199996948242</ele>
        <time>2021-08-26T07:53:38.000Z</time>
      </trkpt>
      <trkpt lat="47.33923" lon="-2.36752">
        <ele>-69.199996948242</ele>
        <time>2021-08-26T07:53:40.000Z</time>
      </trkpt>
      <trkpt lat="47.3394" lon="-2.36756">
        <ele>-69.199996948242</ele>
        <time>2021-08-26T07:53:45.000Z</time>
      </trkpt>
      <trkpt lat="47.33945" lon="-2.36755">
        <ele>-69.199996948242</ele>
        <time>2021-08-26T07:53:46.000Z</time>
      </trkpt>
      <trkpt lat="47.33966" lon="-2.3675">
        <ele>-69.199996948242</ele>
        <time>2021-08-26T07:53:50.000Z</time>
      </trkpt>
      <trkpt lat="47.33971" lon="-2.36748">
        <ele>-69.199996948242</ele>
        <time>2021-08-26T07:53:51.000Z</time>
      </trkpt>
      <trkpt lat="47.34003" lon="-2.36737">
        <ele>-69.599998474121</ele>
        <time>2021-08-26T07:53:57.000Z</time>
      </trkpt>
      <trkpt lat="47.3401" lon="-2.36735">
        <ele>-70.199996948242</ele>
        <time>2021-08-26T07:53:58.000Z</time>
      </trkpt>
      <trkpt lat="47.34016" lon="-2.36734">
        <ele>-70.599998474121</ele>
        <time>2021-08-26T07:53:59.000Z</time>
      </trkpt>
      <trkpt lat="47.34022" lon="-2.36732">
        <ele>-71</ele>
        <time>2021-08-26T07:54:00.000Z</time>
      </trkpt>
      <trkpt lat="47.34027" lon="-2.36729">
        <ele>-71.599998474121</ele>
        <time>2021-08-26T07:54:01.000Z</time>
      </trkpt>
      <trkpt lat="47.34044" lon="-2.36719">
        <ele>-71.599998474121</ele>
        <time>2021-08-26T07:54:04.000Z</time>
      </trkpt>
      <trkpt lat="47.3407" lon="-2.36704">
        <ele>-72.400001525879</ele>
        <time>2021-08-26T07:54:09.000Z</time>
      </trkpt>
      <trkpt lat="47.34075" lon="-2.36702">
        <ele>-72.800003051758</ele>
        <time>2021-08-26T07:54:10.000Z</time>
      </trkpt>
      <trkpt lat="47.34079" lon="-2.36701">
        <ele>-73.199996948242</ele>
        <time>2021-08-26T07:54:11.000Z</time>
      </trkpt>
      <trkpt lat="47.34084" lon="-2.36703">
        <ele>-73.800003051758</ele>
        <time>2021-08-26T07:54:12.000Z</time>
      </trkpt>
      <trkpt lat="47.34087" lon="-2.36714">
        <ele>-73.800003051758</ele>
        <time>2021-08-26T07:54:14.000Z</time>
      </trkpt>
      <trkpt lat="47.34092" lon="-2.36743">
        <ele>-73.800003051758</ele>
        <time>2021-08-26T07:54:18.000Z</time>
      </trkpt>
      <trkpt lat="47.341" lon="-2.36789">
        <ele>-74.199996948242</ele>
        <time>2021-08-26T07:54:24.000Z</time>
      </trkpt>
      <trkpt lat="47.34101" lon="-2.36796">
        <ele>-74.599998474121</ele>
        <time>2021-08-26T07:54:25.000Z</time>
      </trkpt>
      <trkpt lat="47.34103" lon="-2.36804">
        <ele>-75</ele>
        <time>2021-08-26T07:54:26.000Z</time>
      </trkpt>
      <trkpt lat="47.34104" lon="-2.36812">
        <ele>-75.400001525879</ele>
        <time>2021-08-26T07:54:27.000Z</time>
      </trkpt>
      <trkpt lat="47.34106" lon="-2.36821">
        <ele>-75.800003051758</ele>
        <time>2021-08-26T07:54:28.000Z</time>
      </trkpt>
      <trkpt lat="47.34119" lon="-2.3687">
        <ele>-75.800003051758</ele>
        <time>2021-08-26T07:54:34.000Z</time>
      </trkpt>
      <trkpt lat="47.34135" lon="-2.36897">
        <ele>-75.800003051758</ele>
        <time>2021-08-26T07:54:38.000Z</time>
      </trkpt>
      <trkpt lat="47.34154" lon="-2.36935">
        <ele>-75.800003051758</ele>
        <time>2021-08-26T07:54:44.000Z</time>
      </trkpt>
      <trkpt lat="47.34177" lon="-2.36973">
        <ele>-75.800003051758</ele>
        <time>2021-08-26T07:54:51.000Z</time>
      </trkpt>
      <trkpt lat="47.34204" lon="-2.37011">
        <ele>-75.800003051758</ele>
        <time>2021-08-26T07:54:59.000Z</time>
      </trkpt>
      <trkpt lat="47.34206" lon="-2.37015">
        <ele>-75.199996948242</ele>
        <time>2021-08-26T07:55:00.000Z</time>
      </trkpt>
      <trkpt lat="47.34208" lon="-2.3702">
        <ele>-74.800003051758</ele>
        <time>2021-08-26T07:55:01.000Z</time>
      </trkpt>
      <trkpt lat="47.34211" lon="-2.37025">
        <ele>-74.400001525879</ele>
        <time>2021-08-26T07:55:02.000Z</time>
      </trkpt>
      <trkpt lat="47.34213" lon="-2.3703">
        <ele>-74</ele>
        <time>2021-08-26T07:55:03.000Z</time>
      </trkpt>
      <trkpt lat="47.34216" lon="-2.37035">
        <ele>-73.599998474121</ele>
        <time>2021-08-26T07:55:04.000Z</time>
      </trkpt>
      <trkpt lat="47.34234" lon="-2.37066">
        <ele>-73.199996948242</ele>
        <time>2021-08-26T07:55:11.000Z</time>
      </trkpt>
      <trkpt lat="47.34237" lon="-2.37069">
        <ele>-72.599998474121</ele>
        <time>2021-08-26T07:55:12.000Z</time>
      </trkpt>
      <trkpt lat="47.34241" lon="-2.37069">
        <ele>-72.199996948242</ele>
        <time>2021-08-26T07:55:13.000Z</time>
      </trkpt>
      <trkpt lat="47.34244" lon="-2.37066">
        <ele>-71.800003051758</ele>
        <time>2021-08-26T07:55:14.000Z</time>
      </trkpt>
      <trkpt lat="47.34248" lon="-2.37063">
        <ele>-71.400001525879</ele>
        <time>2021-08-26T07:55:15.000Z</time>
      </trkpt>
      <trkpt lat="47.34255" lon="-2.37056">
        <ele>-71.400001525879</ele>
        <time>2021-08-26T07:55:17.000Z</time>
      </trkpt>
      <trkpt lat="47.34272" lon="-2.3704">
        <ele>-71.400001525879</ele>
        <time>2021-08-26T07:55:21.000Z</time>
      </trkpt>
      <trkpt lat="47.34296" lon="-2.37012">
        <ele>-71.400001525879</ele>
        <time>2021-08-26T07:55:27.000Z</time>
      </trkpt>
      <trkpt lat="47.34323" lon="-2.36977">
        <ele>-71.400001525879</ele>
        <time>2021-08-26T07:55:33.000Z</time>
      </trkpt>
      <trkpt lat="47.34343" lon="-2.36947">
        <ele>-71.400001525879</ele>
        <time>2021-08-26T07:55:38.000Z</time>
      </trkpt>
      <trkpt lat="47.34374" lon="-2.36897">
        <ele>-71.400001525879</ele>
        <time>2021-08-26T07:55:46.000Z</time>
      </trkpt>
      <trkpt lat="47.34404" lon="-2.36847">
        <ele>-71.400001525879</ele>
        <time>2021-08-26T07:55:54.000Z</time>
      </trkpt>
      <trkpt lat="47.34433" lon="-2.36801">
        <ele>-71.400001525879</ele>
        <time>2021-08-26T07:56:01.000Z</time>
      </trkpt>
      <trkpt lat="47.3447" lon="-2.3674">
        <ele>-71.400001525879</ele>
        <time>2021-08-26T07:56:10.000Z</time>
      </trkpt>
      <trkpt lat="47.34482" lon="-2.36717">
        <ele>-72.199996948242</ele>
        <time>2021-08-26T07:56:13.000Z</time>
      </trkpt>
      <trkpt lat="47.34486" lon="-2.3671">
        <ele>-72.800003051758</ele>
        <time>2021-08-26T07:56:14.000Z</time>
      </trkpt>
      <trkpt lat="47.3449" lon="-2.36702">
        <ele>-73.199996948242</ele>
        <time>2021-08-26T07:56:15.000Z</time>
      </trkpt>
      <trkpt lat="47.34494" lon="-2.36693">
        <ele>-73.599998474121</ele>
        <time>2021-08-26T07:56:16.000Z</time>
      </trkpt>
      <trkpt lat="47.34498" lon="-2.36685">
        <ele>-73.599998474121</ele>
        <time>2021-08-26T07:56:17.000Z</time>
      </trkpt>
      <trkpt lat="47.34514" lon="-2.36652">
        <ele>-74</ele>
        <time>2021-08-26T07:56:21.000Z</time>
      </trkpt>
      <trkpt lat="47.34517" lon="-2.36643">
        <ele>-74.400001525879</ele>
        <time>2021-08-26T07:56:22.000Z</time>
      </trkpt>
      <trkpt lat="47.34521" lon="-2.36635">
        <ele>-74.800003051758</ele>
        <time>2021-08-26T07:56:23.000Z</time>
      </trkpt>
      <trkpt lat="47.34525" lon="-2.36626">
        <ele>-75.199996948242</ele>
        <time>2021-08-26T07:56:24.000Z</time>
      </trkpt>
      <trkpt lat="47.34528" lon="-2.36618">
        <ele>-75.599998474121</ele>
        <time>2021-08-26T07:56:25.000Z</time>
      </trkpt>
      <trkpt lat="47.34539" lon="-2.36592">
        <ele>-75.599998474121</ele>
        <time>2021-08-26T07:56:28.000Z</time>
      </trkpt>
      <trkpt lat="47.34542" lon="-2.36584">
        <ele>-76</ele>
        <time>2021-08-26T07:56:29.000Z</time>
      </trkpt>
      <trkpt lat="47.34545" lon="-2.36574">
        <ele>-76.400001525879</ele>
        <time>2021-08-26T07:56:30.000Z</time>
      </trkpt>
      <trkpt lat="47.34549" lon="-2.36566">
        <ele>-77</ele>
        <time>2021-08-26T07:56:31.000Z</time>
      </trkpt>
      <trkpt lat="47.34552" lon="-2.36558">
        <ele>-77.400001525879</ele>
        <time>2021-08-26T07:56:32.000Z</time>
      </trkpt>
      <trkpt lat="47.34556" lon="-2.36549">
        <ele>-77.800003051758</ele>
        <time>2021-08-26T07:56:33.000Z</time>
      </trkpt>
      <trkpt lat="47.34572" lon="-2.36506">
        <ele>-77.800003051758</ele>
        <time>2021-08-26T07:56:38.000Z</time>
      </trkpt>
      <trkpt lat="47.34592" lon="-2.36454">
        <ele>-77.800003051758</ele>
        <time>2021-08-26T07:56:44.000Z</time>
      </trkpt>
      <trkpt lat="47.34597" lon="-2.36446">
        <ele>-77.800003051758</ele>
        <time>2021-08-26T07:56:45.000Z</time>
      </trkpt>
      <trkpt lat="47.34608" lon="-2.3644">
        <ele>-77.800003051758</ele>
        <time>2021-08-26T07:56:47.000Z</time>
      </trkpt>
      <trkpt lat="47.34619" lon="-2.36435">
        <ele>-77.800003051758</ele>
        <time>2021-08-26T07:56:49.000Z</time>
      </trkpt>
      <trkpt lat="47.34636" lon="-2.36425">
        <ele>-77.800003051758</ele>
        <time>2021-08-26T07:56:52.000Z</time>
      </trkpt>
      <trkpt lat="47.34665" lon="-2.36409">
        <ele>-77.800003051758</ele>
        <time>2021-08-26T07:56:58.000Z</time>
      </trkpt>
      <trkpt lat="47.3467" lon="-2.36407">
        <ele>-77.800003051758</ele>
        <time>2021-08-26T07:56:59.000Z</time>
      </trkpt>
      <trkpt lat="47.34691" lon="-2.36399">
        <ele>-77.800003051758</ele>
        <time>2021-08-26T07:57:03.000Z</time>
      </trkpt>
      <trkpt lat="47.34727" lon="-2.36383">
        <ele>-77.400001525879</ele>
        <time>2021-08-26T07:57:10.000Z</time>
      </trkpt>
      <trkpt lat="47.34732" lon="-2.3638">
        <ele>-77</ele>
        <time>2021-08-26T07:57:11.000Z</time>
      </trkpt>
      <trkpt lat="47.34738" lon="-2.36377">
        <ele>-76.400001525879</ele>
        <time>2021-08-26T07:57:12.000Z</time>
      </trkpt>
      <trkpt lat="47.34743" lon="-2.36374">
        <ele>-76</ele>
        <time>2021-08-26T07:57:13.000Z</time>
      </trkpt>
      <trkpt lat="47.34748" lon="-2.36371">
        <ele>-75.599998474121</ele>
        <time>2021-08-26T07:57:14.000Z</time>
      </trkpt>
      <trkpt lat="47.34769" lon="-2.36358">
        <ele>-75.599998474121</ele>
        <time>2021-08-26T07:57:18.000Z</time>
      </trkpt>
      <trkpt lat="47.34811" lon="-2.3633">
        <ele>-75.599998474121</ele>
        <time>2021-08-26T07:57:26.000Z</time>
      </trkpt>
      <trkpt lat="47.34832" lon="-2.3632">
        <ele>-75.599998474121</ele>
        <time>2021-08-26T07:57:30.000Z</time>
      </trkpt>
      <trkpt lat="47.34836" lon="-2.36321">
        <ele>-75.599998474121</ele>
        <time>2021-08-26T07:57:31.000Z</time>
      </trkpt>
      <trkpt lat="47.34842" lon="-2.36323">
        <ele>-75.599998474121</ele>
        <time>2021-08-26T07:57:32.000Z</time>
      </trkpt>
      <trkpt lat="47.34857" lon="-2.36333">
        <ele>-75.599998474121</ele>
        <time>2021-08-26T07:57:35.000Z</time>
      </trkpt>
      <trkpt lat="47.34894" lon="-2.36357">
        <ele>-75.599998474121</ele>
        <time>2021-08-26T07:57:42.000Z</time>
      </trkpt>
      <trkpt lat="47.34942" lon="-2.36386">
        <ele>-75.599998474121</ele>
        <time>2021-08-26T07:57:50.000Z</time>
      </trkpt>
      <trkpt lat="47.34948" lon="-2.36391">
        <ele>-76</ele>
        <time>2021-08-26T07:57:51.000Z</time>
      </trkpt>
      <trkpt lat="47.34954" lon="-2.36395">
        <ele>-76.599998474121</ele>
        <time>2021-08-26T07:57:52.000Z</time>
      </trkpt>
      <trkpt lat="47.34962" lon="-2.36401">
        <ele>-77</ele>
        <time>2021-08-26T07:57:53.000Z</time>
      </trkpt>
      <trkpt lat="47.34969" lon="-2.36406">
        <ele>-77.400001525879</ele>
        <time>2021-08-26T07:57:54.000Z</time>
      </trkpt>
      <trkpt lat="47.34975" lon="-2.36411">
        <ele>-77.800003051758</ele>
        <time>2021-08-26T07:57:55.000Z</time>
      </trkpt>
      <trkpt lat="47.34982" lon="-2.36416">
        <ele>-77.800003051758</ele>
        <time>2021-08-26T07:57:56.000Z</time>
      </trkpt>
      <trkpt lat="47.34989" lon="-2.36421">
        <ele>-78.199996948242</ele>
        <time>2021-08-26T07:57:57.000Z</time>
      </trkpt>
      <trkpt lat="47.34996" lon="-2.36426">
        <ele>-78.599998474121</ele>
        <time>2021-08-26T07:57:58.000Z</time>
      </trkpt>
      <trkpt lat="47.35003" lon="-2.36432">
        <ele>-79.199996948242</ele>
        <time>2021-08-26T07:57:59.000Z</time>
      </trkpt>
      <trkpt lat="47.35008" lon="-2.36442">
        <ele>-79.599998474121</ele>
        <time>2021-08-26T07:58:00.000Z</time>
      </trkpt>
      <trkpt lat="47.35012" lon="-2.36451">
        <ele>-80</ele>
        <time>2021-08-26T07:58:01.000Z</time>
      </trkpt>
      <trkpt lat="47.35014" lon="-2.36461">
        <ele>-80</ele>
        <time>2021-08-26T07:58:02.000Z</time>
      </trkpt>
      <trkpt lat="47.35023" lon="-2.36488">
        <ele>-80</ele>
        <time>2021-08-26T07:58:05.000Z</time>
      </trkpt>
      <trkpt lat="47.35026" lon="-2.36496">
        <ele>-80.400001525879</ele>
        <time>2021-08-26T07:58:06.000Z</time>
      </trkpt>
      <trkpt lat="47.35032" lon="-2.36501">
        <ele>-80.800003051758</ele>
        <time>2021-08-26T07:58:07.000Z</time>
      </trkpt>
      <trkpt lat="47.35036" lon="-2.36507">
        <ele>-81.199996948242</ele>
        <time>2021-08-26T07:58:08.000Z</time>
      </trkpt>
      <trkpt lat="47.3504" lon="-2.36514">
        <ele>-81.599998474121</ele>
        <time>2021-08-26T07:58:09.000Z</time>
      </trkpt>
      <trkpt lat="47.35043" lon="-2.36521">
        <ele>-82</ele>
        <time>2021-08-26T07:58:10.000Z</time>
      </trkpt>
      <trkpt lat="47.35059" lon="-2.36553">
        <ele>-82</ele>
        <time>2021-08-26T07:58:15.000Z</time>
      </trkpt>
      <trkpt lat="47.35072" lon="-2.36588">
        <ele>-82</ele>
        <time>2021-08-26T07:58:20.000Z</time>
      </trkpt>
      <trkpt lat="47.35077" lon="-2.36602">
        <ele>-81.599998474121</ele>
        <time>2021-08-26T07:58:22.000Z</time>
      </trkpt>
      <trkpt lat="47.35079" lon="-2.36609">
        <ele>-81.199996948242</ele>
        <time>2021-08-26T07:58:23.000Z</time>
      </trkpt>
      <trkpt lat="47.35082" lon="-2.36616">
        <ele>-80.800003051758</ele>
        <time>2021-08-26T07:58:24.000Z</time>
      </trkpt>
      <trkpt lat="47.35084" lon="-2.36624">
        <ele>-80.400001525879</ele>
        <time>2021-08-26T07:58:25.000Z</time>
      </trkpt>
      <trkpt lat="47.35086" lon="-2.3663">
        <ele>-80</ele>
        <time>2021-08-26T07:58:26.000Z</time>
      </trkpt>
      <trkpt lat="47.35096" lon="-2.36658">
        <ele>-80</ele>
        <time>2021-08-26T07:58:30.000Z</time>
      </trkpt>
      <trkpt lat="47.35114" lon="-2.36723">
        <ele>-80</ele>
        <time>2021-08-26T07:58:39.000Z</time>
      </trkpt>
      <trkpt lat="47.35116" lon="-2.3673">
        <ele>-79.599998474121</ele>
        <time>2021-08-26T07:58:40.000Z</time>
      </trkpt>
      <trkpt lat="47.35118" lon="-2.36738">
        <ele>-79</ele>
        <time>2021-08-26T07:58:41.000Z</time>
      </trkpt>
      <trkpt lat="47.3512" lon="-2.36744">
        <ele>-78.599998474121</ele>
        <time>2021-08-26T07:58:42.000Z</time>
      </trkpt>
      <trkpt lat="47.35121" lon="-2.36751">
        <ele>-78.199996948242</ele>
        <time>2021-08-26T07:58:43.000Z</time>
      </trkpt>
      <trkpt lat="47.35123" lon="-2.36758">
        <ele>-77.800003051758</ele>
        <time>2021-08-26T07:58:44.000Z</time>
      </trkpt>
      <trkpt lat="47.35129" lon="-2.3678">
        <ele>-77.800003051758</ele>
        <time>2021-08-26T07:58:47.000Z</time>
      </trkpt>
      <trkpt lat="47.35143" lon="-2.36845">
        <ele>-77.800003051758</ele>
        <time>2021-08-26T07:58:55.000Z</time>
      </trkpt>
      <trkpt lat="47.3516" lon="-2.3691">
        <ele>-77.800003051758</ele>
        <time>2021-08-26T07:59:03.000Z</time>
      </trkpt>
      <trkpt lat="47.35178" lon="-2.3695">
        <ele>-77.800003051758</ele>
        <time>2021-08-26T07:59:09.000Z</time>
      </trkpt>
      <trkpt lat="47.35205" lon="-2.37005">
        <ele>-77.800003051758</ele>
        <time>2021-08-26T07:59:18.000Z</time>
      </trkpt>
      <trkpt lat="47.35215" lon="-2.37034">
        <ele>-77.800003051758</ele>
        <time>2021-08-26T07:59:22.000Z</time>
      </trkpt>
      <trkpt lat="47.35221" lon="-2.37059">
        <ele>-77.800003051758</ele>
        <time>2021-08-26T07:59:25.000Z</time>
      </trkpt>
      <trkpt lat="47.35232" lon="-2.37114">
        <ele>-77.800003051758</ele>
        <time>2021-08-26T07:59:32.000Z</time>
      </trkpt>
      <trkpt lat="47.35244" lon="-2.3716">
        <ele>-77.800003051758</ele>
        <time>2021-08-26T07:59:38.000Z</time>
      </trkpt>
      <trkpt lat="47.35247" lon="-2.37168">
        <ele>-77.800003051758</ele>
        <time>2021-08-26T07:59:39.000Z</time>
      </trkpt>
      <trkpt lat="47.35257" lon="-2.37186">
        <ele>-77.800003051758</ele>
        <time>2021-08-26T07:59:42.000Z</time>
      </trkpt>
      <trkpt lat="47.35271" lon="-2.37208">
        <ele>-77.800003051758</ele>
        <time>2021-08-26T07:59:46.000Z</time>
      </trkpt>
      <trkpt lat="47.35277" lon="-2.37212">
        <ele>-77.800003051758</ele>
        <time>2021-08-26T07:59:48.000Z</time>
      </trkpt>
      <trkpt lat="47.35279" lon="-2.37206">
        <ele>-77.800003051758</ele>
        <time>2021-08-26T07:59:51.000Z</time>
      </trkpt>
      <trkpt lat="47.35282" lon="-2.37185">
        <ele>-77.800003051758</ele>
        <time>2021-08-26T07:59:56.000Z</time>
      </trkpt>
      <trkpt lat="47.35283" lon="-2.37179">
        <ele>-77.800003051758</ele>
        <time>2021-08-26T07:59:57.000Z</time>
      </trkpt>
      <trkpt lat="47.35287" lon="-2.37161">
        <ele>-77.800003051758</ele>
        <time>2021-08-26T08:00:00.000Z</time>
      </trkpt>
      <trkpt lat="47.35301" lon="-2.37123">
        <ele>-77.800003051758</ele>
        <time>2021-08-26T08:00:06.000Z</time>
      </trkpt>
      <trkpt lat="47.35323" lon="-2.3708">
        <ele>-77.800003051758</ele>
        <time>2021-08-26T08:00:12.000Z</time>
      </trkpt>
      <trkpt lat="47.35326" lon="-2.37073">
        <ele>-77.800003051758</ele>
        <time>2021-08-26T08:00:13.000Z</time>
      </trkpt>
      <trkpt lat="47.35346" lon="-2.3704">
        <ele>-77.800003051758</ele>
        <time>2021-08-26T08:00:18.000Z</time>
      </trkpt>
      <trkpt lat="47.3537" lon="-2.37011">
        <ele>-77.800003051758</ele>
        <time>2021-08-26T08:00:23.000Z</time>
      </trkpt>
      <trkpt lat="47.35384" lon="-2.36993">
        <ele>-78.199996948242</ele>
        <time>2021-08-26T08:00:26.000Z</time>
      </trkpt>
      <trkpt lat="47.35389" lon="-2.36987">
        <ele>-78.599998474121</ele>
        <time>2021-08-26T08:00:27.000Z</time>
      </trkpt>
      <trkpt lat="47.35393" lon="-2.36981">
        <ele>-79</ele>
        <time>2021-08-26T08:00:28.000Z</time>
      </trkpt>
      <trkpt lat="47.35398" lon="-2.36976">
        <ele>-79.400001525879</ele>
        <time>2021-08-26T08:00:29.000Z</time>
      </trkpt>
      <trkpt lat="47.35402" lon="-2.36971">
        <ele>-80</ele>
        <time>2021-08-26T08:00:30.000Z</time>
      </trkpt>
      <trkpt lat="47.35425" lon="-2.36947">
        <ele>-80</ele>
        <time>2021-08-26T08:00:35.000Z</time>
      </trkpt>
      <trkpt lat="47.35429" lon="-2.36944">
        <ele>-80</ele>
        <time>2021-08-26T08:00:36.000Z</time>
      </trkpt>
      <trkpt lat="47.35442" lon="-2.36936">
        <ele>-80</ele>
        <time>2021-08-26T08:00:39.000Z</time>
      </trkpt>
      <trkpt lat="47.35451" lon="-2.36933">
        <ele>-80</ele>
        <time>2021-08-26T08:00:41.000Z</time>
      </trkpt>
      <trkpt lat="47.3547" lon="-2.3693">
        <ele>-80</ele>
        <time>2021-08-26T08:00:45.000Z</time>
      </trkpt>
      <trkpt lat="47.35485" lon="-2.36932">
        <ele>-80</ele>
        <time>2021-08-26T08:00:48.000Z</time>
      </trkpt>
      <trkpt lat="47.35507" lon="-2.36934">
        <ele>-80.400001525879</ele>
        <time>2021-08-26T08:00:52.000Z</time>
      </trkpt>
      <trkpt lat="47.35512" lon="-2.36933">
        <ele>-80.800003051758</ele>
        <time>2021-08-26T08:00:53.000Z</time>
      </trkpt>
      <trkpt lat="47.35518" lon="-2.36933">
        <ele>-81.199996948242</ele>
        <time>2021-08-26T08:00:54.000Z</time>
      </trkpt>
      <trkpt lat="47.35524" lon="-2.36933">
        <ele>-81.599998474121</ele>
        <time>2021-08-26T08:00:55.000Z</time>
      </trkpt>
      <trkpt lat="47.3553" lon="-2.36932">
        <ele>-82</ele>
        <time>2021-08-26T08:00:56.000Z</time>
      </trkpt>
      <trkpt lat="47.35563" lon="-2.36929">
        <ele>-82</ele>
        <time>2021-08-26T08:01:02.000Z</time>
      </trkpt>
      <trkpt lat="47.35593" lon="-2.36927">
        <ele>-82</ele>
        <time>2021-08-26T08:01:08.000Z</time>
      </trkpt>
      <trkpt lat="47.35605" lon="-2.36927">
        <ele>-82</ele>
        <time>2021-08-26T08:01:11.000Z</time>
      </trkpt>
      <trkpt lat="47.35619" lon="-2.36924">
        <ele>-82</ele>
        <time>2021-08-26T08:01:15.000Z</time>
      </trkpt>
      <trkpt lat="47.35642" lon="-2.36917">
        <ele>-82</ele>
        <time>2021-08-26T08:01:22.000Z</time>
      </trkpt>
      <trkpt lat="47.35655" lon="-2.36911">
        <ele>-82</ele>
        <time>2021-08-26T08:01:27.000Z</time>
      </trkpt>
      <trkpt lat="47.35657" lon="-2.36906">
        <ele>-82</ele>
        <time>2021-08-26T08:01:28.000Z</time>
      </trkpt>
      <trkpt lat="47.35657" lon="-2.36895">
        <ele>-82</ele>
        <time>2021-08-26T08:01:30.000Z</time>
      </trkpt>
      <trkpt lat="47.35652" lon="-2.36877">
        <ele>-82</ele>
        <time>2021-08-26T08:01:33.000Z</time>
      </trkpt>
      <trkpt lat="47.35647" lon="-2.36864">
        <ele>-82</ele>
        <time>2021-08-26T08:01:35.000Z</time>
      </trkpt>
      <trkpt lat="47.35631" lon="-2.36814">
        <ele>-82.400001525879</ele>
        <time>2021-08-26T08:01:42.000Z</time>
      </trkpt>
      <trkpt lat="47.35629" lon="-2.36806">
        <ele>-82.800003051758</ele>
        <time>2021-08-26T08:01:43.000Z</time>
      </trkpt>
      <trkpt lat="47.35626" lon="-2.36799">
        <ele>-83.400001525879</ele>
        <time>2021-08-26T08:01:44.000Z</time>
      </trkpt>
      <trkpt lat="47.35624" lon="-2.36791">
        <ele>-83.800003051758</ele>
        <time>2021-08-26T08:01:45.000Z</time>
      </trkpt>
      <trkpt lat="47.35622" lon="-2.36784">
        <ele>-84.199996948242</ele>
        <time>2021-08-26T08:01:46.000Z</time>
      </trkpt>
      <trkpt lat="47.35613" lon="-2.36756">
        <ele>-84.199996948242</ele>
        <time>2021-08-26T08:01:50.000Z</time>
      </trkpt>
      <trkpt lat="47.35612" lon="-2.3675">
        <ele>-84.199996948242</ele>
        <time>2021-08-26T08:01:51.000Z</time>
      </trkpt>
      <trkpt lat="47.35612" lon="-2.36733">
        <ele>-84.199996948242</ele>
        <time>2021-08-26T08:01:54.000Z</time>
      </trkpt>
      <trkpt lat="47.35622" lon="-2.36721">
        <ele>-84.199996948242</ele>
        <time>2021-08-26T08:01:57.000Z</time>
      </trkpt>
      <trkpt lat="47.35652" lon="-2.36699">
        <ele>-84.199996948242</ele>
        <time>2021-08-26T08:02:03.000Z</time>
      </trkpt>
      <trkpt lat="47.3569" lon="-2.36671">
        <ele>-84.199996948242</ele>
        <time>2021-08-26T08:02:10.000Z</time>
      </trkpt>
      <trkpt lat="47.35695" lon="-2.36666">
        <ele>-84.599998474121</ele>
        <time>2021-08-26T08:02:11.000Z</time>
      </trkpt>
      <trkpt lat="47.357" lon="-2.36661">
        <ele>-85</ele>
        <time>2021-08-26T08:02:12.000Z</time>
      </trkpt>
      <trkpt lat="47.35705" lon="-2.36654">
        <ele>-85.599998474121</ele>
        <time>2021-08-26T08:02:13.000Z</time>
      </trkpt>
      <trkpt lat="47.3571" lon="-2.36647">
        <ele>-86</ele>
        <time>2021-08-26T08:02:14.000Z</time>
      </trkpt>
      <trkpt lat="47.35714" lon="-2.36639">
        <ele>-86.400001525879</ele>
        <time>2021-08-26T08:02:15.000Z</time>
      </trkpt>
      <trkpt lat="47.35718" lon="-2.3663">
        <ele>-86.400001525879</ele>
        <time>2021-08-26T08:02:16.000Z</time>
      </trkpt>
      <trkpt lat="47.35731" lon="-2.36603">
        <ele>-86.400001525879</ele>
        <time>2021-08-26T08:02:19.000Z</time>
      </trkpt>
      <trkpt lat="47.35759" lon="-2.36554">
        <ele>-86.800003051758</ele>
        <time>2021-08-26T08:02:25.000Z</time>
      </trkpt>
      <trkpt lat="47.35764" lon="-2.36546">
        <ele>-87.199996948242</ele>
        <time>2021-08-26T08:02:26.000Z</time>
      </trkpt>
      <trkpt lat="47.35769" lon="-2.36538">
        <ele>-87.800003051758</ele>
        <time>2021-08-26T08:02:27.000Z</time>
      </trkpt>
      <trkpt lat="47.35774" lon="-2.3653">
        <ele>-88.199996948242</ele>
        <time>2021-08-26T08:02:28.000Z</time>
      </trkpt>
      <trkpt lat="47.35779" lon="-2.36522">
        <ele>-88.599998474121</ele>
        <time>2021-08-26T08:02:29.000Z</time>
      </trkpt>
      <trkpt lat="47.35796" lon="-2.36488">
        <ele>-88.599998474121</ele>
        <time>2021-08-26T08:02:33.000Z</time>
      </trkpt>
      <trkpt lat="47.35813" lon="-2.36429">
        <ele>-88.599998474121</ele>
        <time>2021-08-26T08:02:39.000Z</time>
      </trkpt>
      <trkpt lat="47.35821" lon="-2.36374">
        <ele>-88.599998474121</ele>
        <time>2021-08-26T08:02:45.000Z</time>
      </trkpt>
      <trkpt lat="47.35822" lon="-2.36348">
        <ele>-88.599998474121</ele>
        <time>2021-08-26T08:02:48.000Z</time>
      </trkpt>
      <trkpt lat="47.35821" lon="-2.3633">
        <ele>-88.599998474121</ele>
        <time>2021-08-26T08:02:50.000Z</time>
      </trkpt>
      <trkpt lat="47.35815" lon="-2.36268">
        <ele>-88.599998474121</ele>
        <time>2021-08-26T08:02:57.000Z</time>
      </trkpt>
      <trkpt lat="47.35814" lon="-2.36214">
        <ele>-88.599998474121</ele>
        <time>2021-08-26T08:03:03.000Z</time>
      </trkpt>
      <trkpt lat="47.3582" lon="-2.36169">
        <ele>-88.599998474121</ele>
        <time>2021-08-26T08:03:08.000Z</time>
      </trkpt>
      <trkpt lat="47.35835" lon="-2.36108">
        <ele>-88.599998474121</ele>
        <time>2021-08-26T08:03:15.000Z</time>
      </trkpt>
      <trkpt lat="47.3585" lon="-2.36039">
        <ele>-88.599998474121</ele>
        <time>2021-08-26T08:03:23.000Z</time>
      </trkpt>
      <trkpt lat="47.35857" lon="-2.35978">
        <ele>-88.599998474121</ele>
        <time>2021-08-26T08:03:30.000Z</time>
      </trkpt>
      <trkpt lat="47.35859" lon="-2.35918">
        <ele>-88.599998474121</ele>
        <time>2021-08-26T08:03:37.000Z</time>
      </trkpt>
      <trkpt lat="47.35859" lon="-2.35857">
        <ele>-88.599998474121</ele>
        <time>2021-08-26T08:03:44.000Z</time>
      </trkpt>
      <trkpt lat="47.35864" lon="-2.35807">
        <ele>-88.599998474121</ele>
        <time>2021-08-26T08:03:50.000Z</time>
      </trkpt>
      <trkpt lat="47.35878" lon="-2.35749">
        <ele>-88.599998474121</ele>
        <time>2021-08-26T08:03:57.000Z</time>
      </trkpt>
      <trkpt lat="47.35894" lon="-2.35692">
        <ele>-88.599998474121</ele>
        <time>2021-08-26T08:04:04.000Z</time>
      </trkpt>
      <trkpt lat="47.35909" lon="-2.35634">
        <ele>-88.599998474121</ele>
        <time>2021-08-26T08:04:11.000Z</time>
      </trkpt>
      <trkpt lat="47.35918" lon="-2.35573">
        <ele>-88.599998474121</ele>
        <time>2021-08-26T08:04:18.000Z</time>
      </trkpt>
      <trkpt lat="47.35918" lon="-2.35522">
        <ele>-88.599998474121</ele>
        <time>2021-08-26T08:04:24.000Z</time>
      </trkpt>
      <trkpt lat="47.35919" lon="-2.35479">
        <ele>-88.599998474121</ele>
        <time>2021-08-26T08:04:29.000Z</time>
      </trkpt>
      <trkpt lat="47.35921" lon="-2.35462">
        <ele>-88.599998474121</ele>
        <time>2021-08-26T08:04:31.000Z</time>
      </trkpt>
      <trkpt lat="47.35927" lon="-2.35427">
        <ele>-88.599998474121</ele>
        <time>2021-08-26T08:04:35.000Z</time>
      </trkpt>
      <trkpt lat="47.35945" lon="-2.35379">
        <ele>-88.599998474121</ele>
        <time>2021-08-26T08:04:41.000Z</time>
      </trkpt>
      <trkpt lat="47.35971" lon="-2.3534">
        <ele>-88.599998474121</ele>
        <time>2021-08-26T08:04:47.000Z</time>
      </trkpt>
      <trkpt lat="47.36015" lon="-2.35283">
        <ele>-88.599998474121</ele>
        <time>2021-08-26T08:04:56.000Z</time>
      </trkpt>
      <trkpt lat="47.36052" lon="-2.35235">
        <ele>-88.599998474121</ele>
        <time>2021-08-26T08:05:04.000Z</time>
      </trkpt>
      <trkpt lat="47.36084" lon="-2.35193">
        <ele>-88.599998474121</ele>
        <time>2021-08-26T08:05:11.000Z</time>
      </trkpt>
      <trkpt lat="47.36108" lon="-2.35163">
        <ele>-88.599998474121</ele>
        <time>2021-08-26T08:05:16.000Z</time>
      </trkpt>
      <trkpt lat="47.36148" lon="-2.35114">
        <ele>-88.599998474121</ele>
        <time>2021-08-26T08:05:24.000Z</time>
      </trkpt>
      <trkpt lat="47.36191" lon="-2.35071">
        <ele>-88.599998474121</ele>
        <time>2021-08-26T08:05:32.000Z</time>
      </trkpt>
      <trkpt lat="47.36212" lon="-2.35045">
        <ele>-88.599998474121</ele>
        <time>2021-08-26T08:05:37.000Z</time>
      </trkpt>
      <trkpt lat="47.36238" lon="-2.34999">
        <ele>-88.599998474121</ele>
        <time>2021-08-26T08:05:44.000Z</time>
      </trkpt>
      <trkpt lat="47.36264" lon="-2.34946">
        <ele>-88.599998474121</ele>
        <time>2021-08-26T08:05:52.000Z</time>
      </trkpt>
      <trkpt lat="47.36274" lon="-2.34929">
        <ele>-88.599998474121</ele>
        <time>2021-08-26T08:05:55.000Z</time>
      </trkpt>
      <trkpt lat="47.36282" lon="-2.34928">
        <ele>-88.599998474121</ele>
        <time>2021-08-26T08:05:57.000Z</time>
      </trkpt>
      <trkpt lat="47.36288" lon="-2.34946">
        <ele>-88.599998474121</ele>
        <time>2021-08-26T08:06:00.000Z</time>
      </trkpt>
      <trkpt lat="47.36289" lon="-2.34953">
        <ele>-88.599998474121</ele>
        <time>2021-08-26T08:06:01.000Z</time>
      </trkpt>
      <trkpt lat="47.3629" lon="-2.34961">
        <ele>-89</ele>
        <time>2021-08-26T08:06:02.000Z</time>
      </trkpt>
      <trkpt lat="47.36291" lon="-2.34969">
        <ele>-89.400001525879</ele>
        <time>2021-08-26T08:06:03.000Z</time>
      </trkpt>
      <trkpt lat="47.36292" lon="-2.34978">
        <ele>-90.199996948242</ele>
        <time>2021-08-26T08:06:04.000Z</time>
      </trkpt>
      <trkpt lat="47.36294" lon="-2.34985">
        <ele>-90.599998474121</ele>
        <time>2021-08-26T08:06:05.000Z</time>
      </trkpt>
      <trkpt lat="47.36296" lon="-2.35">
        <ele>-90.599998474121</ele>
        <time>2021-08-26T08:06:07.000Z</time>
      </trkpt>
      <trkpt lat="47.363" lon="-2.3501">
        <ele>-90.599998474121</ele>
        <time>2021-08-26T08:06:09.000Z</time>
      </trkpt>
      <trkpt lat="47.36306" lon="-2.35012">
        <ele>-90.599998474121</ele>
        <time>2021-08-26T08:06:11.000Z</time>
      </trkpt>
      <trkpt lat="47.3632" lon="-2.35004">
        <ele>-90.599998474121</ele>
        <time>2021-08-26T08:06:16.000Z</time>
      </trkpt>
      <trkpt lat="47.36323" lon="-2.35001">
        <ele>-90.599998474121</ele>
        <time>2021-08-26T08:06:17.000Z</time>
      </trkpt>
      <trkpt lat="47.36339" lon="-2.34983">
        <ele>-90.599998474121</ele>
        <time>2021-08-26T08:06:24.000Z</time>
      </trkpt>
      <trkpt lat="47.36353" lon="-2.34968">
        <ele>-90.599998474121</ele>
        <time>2021-08-26T08:06:30.000Z</time>
      </trkpt>
      <trkpt lat="47.3636" lon="-2.34961">
        <ele>-90.599998474121</ele>
        <time>2021-08-26T08:06:35.000Z</time>
      </trkpt>
      <trkpt lat="47.36367" lon="-2.34953">
        <ele>-92.800003051758</ele>
        <time>2021-08-26T08:08:40.000Z</time>
      </trkpt>
      <trkpt lat="47.36372" lon="-2.34947">
        <ele>-92.800003051758</ele>
        <time>2021-08-26T08:08:43.000Z</time>
      </trkpt>
      <trkpt lat="47.36388" lon="-2.34929">
        <ele>-92.800003051758</ele>
        <time>2021-08-26T08:08:49.000Z</time>
      </trkpt>
      <trkpt lat="47.36402" lon="-2.34921">
        <ele>-92.800003051758</ele>
        <time>2021-08-26T08:08:54.000Z</time>
      </trkpt>
      <trkpt lat="47.36415" lon="-2.34916">
        <ele>-92.800003051758</ele>
        <time>2021-08-26T08:09:00.000Z</time>
      </trkpt>
      <trkpt lat="47.36423" lon="-2.34912">
        <ele>-92.800003051758</ele>
        <time>2021-08-26T08:09:05.000Z</time>
      </trkpt>
      <trkpt lat="47.36434" lon="-2.34904">
        <ele>-92.800003051758</ele>
        <time>2021-08-26T08:09:11.000Z</time>
      </trkpt>
      <trkpt lat="47.36435" lon="-2.34905">
        <ele>-92.800003051758</ele>
        <time>2021-08-26T08:09:12.000Z</time>
      </trkpt>
      <trkpt lat="47.3644" lon="-2.3491">
        <ele>-92.800003051758</ele>
        <time>2021-08-26T08:09:15.000Z</time>
      </trkpt>
      <trkpt lat="47.36442" lon="-2.34912">
        <ele>-92.800003051758</ele>
        <time>2021-08-26T08:09:16.000Z</time>
      </trkpt>
      <trkpt lat="47.36455" lon="-2.34928">
        <ele>-92.800003051758</ele>
        <time>2021-08-26T08:09:21.000Z</time>
      </trkpt>
      <trkpt lat="47.36471" lon="-2.34952">
        <ele>-92.800003051758</ele>
        <time>2021-08-26T08:09:27.000Z</time>
      </trkpt>
      <trkpt lat="47.36484" lon="-2.34972">
        <ele>-92.800003051758</ele>
        <time>2021-08-26T08:09:32.000Z</time>
      </trkpt>
      <trkpt lat="47.36488" lon="-2.34977">
        <ele>-92.800003051758</ele>
        <time>2021-08-26T08:09:35.000Z</time>
      </trkpt>
      <trkpt lat="47.36496" lon="-2.34985">
        <ele>-92.800003051758</ele>
        <time>2021-08-26T08:09:41.000Z</time>
      </trkpt>
      <trkpt lat="47.36506" lon="-2.34998">
        <ele>-92.800003051758</ele>
        <time>2021-08-26T08:09:48.000Z</time>
      </trkpt>
      <trkpt lat="47.36518" lon="-2.35015">
        <ele>-92.800003051758</ele>
        <time>2021-08-26T08:09:56.000Z</time>
      </trkpt>
      <trkpt lat="47.3653" lon="-2.35034">
        <ele>-92.800003051758</ele>
        <time>2021-08-26T08:10:04.000Z</time>
      </trkpt>
      <trkpt lat="47.36538" lon="-2.35047">
        <ele>-92.800003051758</ele>
        <time>2021-08-26T08:10:10.000Z</time>
      </trkpt>
      <trkpt lat="47.36548" lon="-2.35065">
        <ele>-92.800003051758</ele>
        <time>2021-08-26T08:10:17.000Z</time>
      </trkpt>
      <trkpt lat="47.36552" lon="-2.35071">
        <ele>-93.199996948242</ele>
        <time>2021-08-26T08:10:19.000Z</time>
      </trkpt>
      <trkpt lat="47.36553" lon="-2.35075">
        <ele>-93.599998474121</ele>
        <time>2021-08-26T08:10:20.000Z</time>
      </trkpt>
      <trkpt lat="47.36555" lon="-2.35078">
        <ele>-94</ele>
        <time>2021-08-26T08:10:21.000Z</time>
      </trkpt>
      <trkpt lat="47.36557" lon="-2.35082">
        <ele>-94.400001525879</ele>
        <time>2021-08-26T08:10:22.000Z</time>
      </trkpt>
      <trkpt lat="47.36559" lon="-2.35086">
        <ele>-94.800003051758</ele>
        <time>2021-08-26T08:10:23.000Z</time>
      </trkpt>
      <trkpt lat="47.36562" lon="-2.35093">
        <ele>-94.800003051758</ele>
        <time>2021-08-26T08:10:25.000Z</time>
      </trkpt>
      <trkpt lat="47.36575" lon="-2.35112">
        <ele>-94.800003051758</ele>
        <time>2021-08-26T08:10:30.000Z</time>
      </trkpt>
      <trkpt lat="47.36594" lon="-2.35146">
        <ele>-94.800003051758</ele>
        <time>2021-08-26T08:10:38.000Z</time>
      </trkpt>
      <trkpt lat="47.36612" lon="-2.35178">
        <ele>-94.800003051758</ele>
        <time>2021-08-26T08:10:46.000Z</time>
      </trkpt>
      <trkpt lat="47.36627" lon="-2.35207">
        <ele>-94.800003051758</ele>
        <time>2021-08-26T08:10:54.000Z</time>
      </trkpt>
      <trkpt lat="47.36638" lon="-2.35234">
        <ele>-94.800003051758</ele>
        <time>2021-08-26T08:11:01.000Z</time>
      </trkpt>
      <trkpt lat="47.36633" lon="-2.35249">
        <ele>-94.800003051758</ele>
        <time>2021-08-26T08:11:05.000Z</time>
      </trkpt>
      <trkpt lat="47.36616" lon="-2.35279">
        <ele>-94.800003051758</ele>
        <time>2021-08-26T08:11:13.000Z</time>
      </trkpt>
      <trkpt lat="47.36605" lon="-2.35301">
        <ele>-94.800003051758</ele>
        <time>2021-08-26T08:11:20.000Z</time>
      </trkpt>
      <trkpt lat="47.36592" lon="-2.35321">
        <ele>-94.800003051758</ele>
        <time>2021-08-26T08:11:26.000Z</time>
      </trkpt>
      <trkpt lat="47.36582" lon="-2.35338">
        <ele>-94.800003051758</ele>
        <time>2021-08-26T08:11:32.000Z</time>
      </trkpt>
      <trkpt lat="47.36573" lon="-2.35352">
        <ele>-94.800003051758</ele>
        <time>2021-08-26T08:11:39.000Z</time>
      </trkpt>
      <trkpt lat="47.36565" lon="-2.35364">
        <ele>-94.800003051758</ele>
        <time>2021-08-26T08:11:46.000Z</time>
      </trkpt>
      <trkpt lat="47.36556" lon="-2.35381">
        <ele>-94.800003051758</ele>
        <time>2021-08-26T08:11:52.000Z</time>
      </trkpt>
      <trkpt lat="47.36546" lon="-2.35401">
        <ele>-94.800003051758</ele>
        <time>2021-08-26T08:11:57.000Z</time>
      </trkpt>
      <trkpt lat="47.36539" lon="-2.35415">
        <ele>-94.800003051758</ele>
        <time>2021-08-26T08:12:00.000Z</time>
      </trkpt>
      <trkpt lat="47.36531" lon="-2.35429">
        <ele>-94.800003051758</ele>
        <time>2021-08-26T08:12:03.000Z</time>
      </trkpt>
      <trkpt lat="47.3652" lon="-2.35446">
        <ele>-94.800003051758</ele>
        <time>2021-08-26T08:12:07.000Z</time>
      </trkpt>
      <trkpt lat="47.36515" lon="-2.35455">
        <ele>-94.800003051758</ele>
        <time>2021-08-26T08:12:09.000Z</time>
      </trkpt>
      <trkpt lat="47.36494" lon="-2.35491">
        <ele>-94.800003051758</ele>
        <time>2021-08-26T08:12:17.000Z</time>
      </trkpt>
      <trkpt lat="47.36478" lon="-2.35515">
        <ele>-94.800003051758</ele>
        <time>2021-08-26T08:12:23.000Z</time>
      </trkpt>
      <trkpt lat="47.36477" lon="-2.35518">
        <ele>-94.800003051758</ele>
        <time>2021-08-26T08:12:24.000Z</time>
      </trkpt>
      <trkpt lat="47.36478" lon="-2.35523">
        <ele>-94.800003051758</ele>
        <time>2021-08-26T08:12:26.000Z</time>
      </trkpt>
      <trkpt lat="47.36483" lon="-2.35534">
        <ele>-94.800003051758</ele>
        <time>2021-08-26T08:12:30.000Z</time>
      </trkpt>
      <trkpt lat="47.36486" lon="-2.35542">
        <ele>-94.800003051758</ele>
        <time>2021-08-26T08:12:32.000Z</time>
      </trkpt>
      <trkpt lat="47.36497" lon="-2.35575">
        <ele>-94.800003051758</ele>
        <time>2021-08-26T08:12:39.000Z</time>
      </trkpt>
      <trkpt lat="47.36509" lon="-2.3561">
        <ele>-94.800003051758</ele>
        <time>2021-08-26T08:12:45.000Z</time>
      </trkpt>
      <trkpt lat="47.36525" lon="-2.3566">
        <ele>-94.800003051758</ele>
        <time>2021-08-26T08:12:53.000Z</time>
      </trkpt>
      <trkpt lat="47.36544" lon="-2.35715">
        <ele>-94.800003051758</ele>
        <time>2021-08-26T08:13:02.000Z</time>
      </trkpt>
      <trkpt lat="47.36562" lon="-2.35769">
        <ele>-94.800003051758</ele>
        <time>2021-08-26T08:13:10.000Z</time>
      </trkpt>
      <trkpt lat="47.36572" lon="-2.35803">
        <ele>-94.800003051758</ele>
        <time>2021-08-26T08:13:15.000Z</time>
      </trkpt>
      <trkpt lat="47.36582" lon="-2.35851">
        <ele>-94.800003051758</ele>
        <time>2021-08-26T08:13:22.000Z</time>
      </trkpt>
      <trkpt lat="47.36585" lon="-2.35872">
        <ele>-94.800003051758</ele>
        <time>2021-08-26T08:13:25.000Z</time>
      </trkpt>
      <trkpt lat="47.36583" lon="-2.3589">
        <ele>-94.800003051758</ele>
        <time>2021-08-26T08:13:28.000Z</time>
      </trkpt>
      <trkpt lat="47.36577" lon="-2.35901">
        <ele>-94.800003051758</ele>
        <time>2021-08-26T08:13:30.000Z</time>
      </trkpt>
      <trkpt lat="47.36566" lon="-2.35919">
        <ele>-94.800003051758</ele>
        <time>2021-08-26T08:13:33.000Z</time>
      </trkpt>
      <trkpt lat="47.36558" lon="-2.3593">
        <ele>-94.400001525879</ele>
        <time>2021-08-26T08:13:35.000Z</time>
      </trkpt>
      <trkpt lat="47.36554" lon="-2.35935">
        <ele>-94</ele>
        <time>2021-08-26T08:13:36.000Z</time>
      </trkpt>
      <trkpt lat="47.3655" lon="-2.35941">
        <ele>-93.599998474121</ele>
        <time>2021-08-26T08:13:37.000Z</time>
      </trkpt>
      <trkpt lat="47.36546" lon="-2.35946">
        <ele>-93.199996948242</ele>
        <time>2021-08-26T08:13:38.000Z</time>
      </trkpt>
      <trkpt lat="47.36543" lon="-2.35952">
        <ele>-92.800003051758</ele>
        <time>2021-08-26T08:13:39.000Z</time>
      </trkpt>
      <trkpt lat="47.36524" lon="-2.35977">
        <ele>-92.800003051758</ele>
        <time>2021-08-26T08:13:44.000Z</time>
      </trkpt>
      <trkpt lat="47.36496" lon="-2.3601">
        <ele>-92.800003051758</ele>
        <time>2021-08-26T08:13:51.000Z</time>
      </trkpt>
      <trkpt lat="47.36493" lon="-2.36015">
        <ele>-92.400001525879</ele>
        <time>2021-08-26T08:13:52.000Z</time>
      </trkpt>
      <trkpt lat="47.36489" lon="-2.36019">
        <ele>-92</ele>
        <time>2021-08-26T08:13:53.000Z</time>
      </trkpt>
      <trkpt lat="47.36485" lon="-2.36023">
        <ele>-91.199996948242</ele>
        <time>2021-08-26T08:13:54.000Z</time>
      </trkpt>
      <trkpt lat="47.36482" lon="-2.36027">
        <ele>-90.800003051758</ele>
        <time>2021-08-26T08:13:55.000Z</time>
      </trkpt>
      <trkpt lat="47.36475" lon="-2.36035">
        <ele>-90.800003051758</ele>
        <time>2021-08-26T08:13:57.000Z</time>
      </trkpt>
      <trkpt lat="47.36472" lon="-2.3604">
        <ele>-90.800003051758</ele>
        <time>2021-08-26T08:13:58.000Z</time>
      </trkpt>
      <trkpt lat="47.36465" lon="-2.36056">
        <ele>-90.800003051758</ele>
        <time>2021-08-26T08:14:01.000Z</time>
      </trkpt>
      <trkpt lat="47.3646" lon="-2.36066">
        <ele>-90.800003051758</ele>
        <time>2021-08-26T08:14:03.000Z</time>
      </trkpt>
      <trkpt lat="47.36457" lon="-2.3607">
        <ele>-90.400001525879</ele>
        <time>2021-08-26T08:14:04.000Z</time>
      </trkpt>
      <trkpt lat="47.36455" lon="-2.36075">
        <ele>-90</ele>
        <time>2021-08-26T08:14:05.000Z</time>
      </trkpt>
      <trkpt lat="47.36452" lon="-2.3608">
        <ele>-89.400001525879</ele>
        <time>2021-08-26T08:14:06.000Z</time>
      </trkpt>
      <trkpt lat="47.3645" lon="-2.36085">
        <ele>-89</ele>
        <time>2021-08-26T08:14:07.000Z</time>
      </trkpt>
      <trkpt lat="47.36447" lon="-2.3609">
        <ele>-88.599998474121</ele>
        <time>2021-08-26T08:14:08.000Z</time>
      </trkpt>
      <trkpt lat="47.36445" lon="-2.36095">
        <ele>-88.599998474121</ele>
        <time>2021-08-26T08:14:09.000Z</time>
      </trkpt>
      <trkpt lat="47.36443" lon="-2.36106">
        <ele>-88.599998474121</ele>
        <time>2021-08-26T08:14:11.000Z</time>
      </trkpt>
      <trkpt lat="47.36447" lon="-2.36128">
        <ele>-88.599998474121</ele>
        <time>2021-08-26T08:14:15.000Z</time>
      </trkpt>
      <trkpt lat="47.36448" lon="-2.36133">
        <ele>-88.199996948242</ele>
        <time>2021-08-26T08:14:16.000Z</time>
      </trkpt>
      <trkpt lat="47.3645" lon="-2.36138">
        <ele>-87.800003051758</ele>
        <time>2021-08-26T08:14:17.000Z</time>
      </trkpt>
      <trkpt lat="47.36451" lon="-2.36143">
        <ele>-87.400001525879</ele>
        <time>2021-08-26T08:14:18.000Z</time>
      </trkpt>
      <trkpt lat="47.36453" lon="-2.36148">
        <ele>-86.599998474121</ele>
        <time>2021-08-26T08:14:19.000Z</time>
      </trkpt>
      <trkpt lat="47.36458" lon="-2.36164">
        <ele>-86.599998474121</ele>
        <time>2021-08-26T08:14:22.000Z</time>
      </trkpt>
      <trkpt lat="47.3647" lon="-2.362">
        <ele>-86.599998474121</ele>
        <time>2021-08-26T08:14:29.000Z</time>
      </trkpt>
      <trkpt lat="47.36476" lon="-2.36224">
        <ele>-86.599998474121</ele>
        <time>2021-08-26T08:14:35.000Z</time>
      </trkpt>
      <trkpt lat="47.36479" lon="-2.36236">
        <ele>-86.599998474121</ele>
        <time>2021-08-26T08:14:37.000Z</time>
      </trkpt>
      <trkpt lat="47.36488" lon="-2.36263">
        <ele>-86.599998474121</ele>
        <time>2021-08-26T08:14:41.000Z</time>
      </trkpt>
      <trkpt lat="47.36494" lon="-2.36286">
        <ele>-87.400001525879</ele>
        <time>2021-08-26T08:14:44.000Z</time>
      </trkpt>
      <trkpt lat="47.36497" lon="-2.36294">
        <ele>-87.800003051758</ele>
        <time>2021-08-26T08:14:45.000Z</time>
      </trkpt>
      <trkpt lat="47.365" lon="-2.36302">
        <ele>-88.199996948242</ele>
        <time>2021-08-26T08:14:46.000Z</time>
      </trkpt>
      <trkpt lat="47.36502" lon="-2.3631">
        <ele>-88.599998474121</ele>
        <time>2021-08-26T08:14:47.000Z</time>
      </trkpt>
      <trkpt lat="47.36519" lon="-2.36366">
        <ele>-88.599998474121</ele>
        <time>2021-08-26T08:14:54.000Z</time>
      </trkpt>
      <trkpt lat="47.36535" lon="-2.36419">
        <ele>-88.599998474121</ele>
        <time>2021-08-26T08:15:01.000Z</time>
      </trkpt>
      <trkpt lat="47.36552" lon="-2.3646">
        <ele>-88.599998474121</ele>
        <time>2021-08-26T08:15:07.000Z</time>
      </trkpt>
      <trkpt lat="47.36568" lon="-2.36504">
        <ele>-88.599998474121</ele>
        <time>2021-08-26T08:15:14.000Z</time>
      </trkpt>
      <trkpt lat="47.36574" lon="-2.36514">
        <ele>-88.599998474121</ele>
        <time>2021-08-26T08:15:16.000Z</time>
      </trkpt>
      <trkpt lat="47.36583" lon="-2.36516">
        <ele>-88.599998474121</ele>
        <time>2021-08-26T08:15:18.000Z</time>
      </trkpt>
      <trkpt lat="47.36597" lon="-2.36509">
        <ele>-88.599998474121</ele>
        <time>2021-08-26T08:15:21.000Z</time>
      </trkpt>
      <trkpt lat="47.36602" lon="-2.36505">
        <ele>-88.599998474121</ele>
        <time>2021-08-26T08:15:22.000Z</time>
      </trkpt>
      <trkpt lat="47.36645" lon="-2.36477">
        <ele>-88.599998474121</ele>
        <time>2021-08-26T08:15:30.000Z</time>
      </trkpt>
      <trkpt lat="47.36657" lon="-2.3647">
        <ele>-89</ele>
        <time>2021-08-26T08:15:32.000Z</time>
      </trkpt>
      <trkpt lat="47.36663" lon="-2.36466">
        <ele>-89.800003051758</ele>
        <time>2021-08-26T08:15:33.000Z</time>
      </trkpt>
      <trkpt lat="47.36669" lon="-2.36462">
        <ele>-90.199996948242</ele>
        <time>2021-08-26T08:15:34.000Z</time>
      </trkpt>
      <trkpt lat="47.36674" lon="-2.36458">
        <ele>-90.599998474121</ele>
        <time>2021-08-26T08:15:35.000Z</time>
      </trkpt>
      <trkpt lat="47.36686" lon="-2.36449">
        <ele>-90.599998474121</ele>
        <time>2021-08-26T08:15:37.000Z</time>
      </trkpt>
      <trkpt lat="47.36703" lon="-2.36434">
        <ele>-91.199996948242</ele>
        <time>2021-08-26T08:15:40.000Z</time>
      </trkpt>
      <trkpt lat="47.36708" lon="-2.36428">
        <ele>-91.599998474121</ele>
        <time>2021-08-26T08:15:41.000Z</time>
      </trkpt>
      <trkpt lat="47.36713" lon="-2.36423">
        <ele>-92</ele>
        <time>2021-08-26T08:15:42.000Z</time>
      </trkpt>
      <trkpt lat="47.36717" lon="-2.36417">
        <ele>-92.400001525879</ele>
        <time>2021-08-26T08:15:43.000Z</time>
      </trkpt>
      <trkpt lat="47.36722" lon="-2.36411">
        <ele>-93</ele>
        <time>2021-08-26T08:15:44.000Z</time>
      </trkpt>
      <trkpt lat="47.36734" lon="-2.36391">
        <ele>-93</ele>
        <time>2021-08-26T08:15:48.000Z</time>
      </trkpt>
      <trkpt lat="47.36753" lon="-2.36374">
        <ele>-93</ele>
        <time>2021-08-26T08:15:54.000Z</time>
      </trkpt>
      <trkpt lat="47.36763" lon="-2.36372">
        <ele>-93.400001525879</ele>
        <time>2021-08-26T08:15:56.000Z</time>
      </trkpt>
      <trkpt lat="47.36768" lon="-2.36372">
        <ele>-93.800003051758</ele>
        <time>2021-08-26T08:15:57.000Z</time>
      </trkpt>
      <trkpt lat="47.36773" lon="-2.36371">
        <ele>-94.599998474121</ele>
        <time>2021-08-26T08:15:58.000Z</time>
      </trkpt>
      <trkpt lat="47.36778" lon="-2.36371">
        <ele>-95</ele>
        <time>2021-08-26T08:15:59.000Z</time>
      </trkpt>
      <trkpt lat="47.36831" lon="-2.36371">
        <ele>-95</ele>
        <time>2021-08-26T08:16:09.000Z</time>
      </trkpt>
      <trkpt lat="47.36877" lon="-2.36369">
        <ele>-95</ele>
        <time>2021-08-26T08:16:17.000Z</time>
      </trkpt>
      <trkpt lat="47.36906" lon="-2.36369">
        <ele>-95</ele>
        <time>2021-08-26T08:16:22.000Z</time>
      </trkpt>
      <trkpt lat="47.36912" lon="-2.36368">
        <ele>-95</ele>
        <time>2021-08-26T08:16:23.000Z</time>
      </trkpt>
      <trkpt lat="47.36958" lon="-2.36367">
        <ele>-95</ele>
        <time>2021-08-26T08:16:31.000Z</time>
      </trkpt>
      <trkpt lat="47.36988" lon="-2.36367">
        <ele>-95</ele>
        <time>2021-08-26T08:16:36.000Z</time>
      </trkpt>
      <trkpt lat="47.37005" lon="-2.36366">
        <ele>-95</ele>
        <time>2021-08-26T08:16:39.000Z</time>
      </trkpt>
      <trkpt lat="47.37044" lon="-2.36366">
        <ele>-95</ele>
        <time>2021-08-26T08:16:46.000Z</time>
      </trkpt>
      <trkpt lat="47.3706" lon="-2.36366">
        <ele>-95</ele>
        <time>2021-08-26T08:16:49.000Z</time>
      </trkpt>
      <trkpt lat="47.3707" lon="-2.36362">
        <ele>-95</ele>
        <time>2021-08-26T08:16:51.000Z</time>
      </trkpt>
      <trkpt lat="47.37087" lon="-2.36341">
        <ele>-95</ele>
        <time>2021-08-26T08:16:55.000Z</time>
      </trkpt>
      <trkpt lat="47.37092" lon="-2.36328">
        <ele>-95</ele>
        <time>2021-08-26T08:16:57.000Z</time>
      </trkpt>
      <trkpt lat="47.37105" lon="-2.363">
        <ele>-95</ele>
        <time>2021-08-26T08:17:01.000Z</time>
      </trkpt>
      <trkpt lat="47.37127" lon="-2.36252">
        <ele>-95</ele>
        <time>2021-08-26T08:17:08.000Z</time>
      </trkpt>
      <trkpt lat="47.37141" lon="-2.36224">
        <ele>-95.400001525879</ele>
        <time>2021-08-26T08:17:12.000Z</time>
      </trkpt>
      <trkpt lat="47.37144" lon="-2.36217">
        <ele>-95.800003051758</ele>
        <time>2021-08-26T08:17:13.000Z</time>
      </trkpt>
      <trkpt lat="47.37147" lon="-2.3621">
        <ele>-96.199996948242</ele>
        <time>2021-08-26T08:17:14.000Z</time>
      </trkpt>
      <trkpt lat="47.3715" lon="-2.36203">
        <ele>-96.599998474121</ele>
        <time>2021-08-26T08:17:15.000Z</time>
      </trkpt>
      <trkpt lat="47.37153" lon="-2.36196">
        <ele>-97</ele>
        <time>2021-08-26T08:17:16.000Z</time>
      </trkpt>
      <trkpt lat="47.37156" lon="-2.36189">
        <ele>-97</ele>
        <time>2021-08-26T08:17:17.000Z</time>
      </trkpt>
      <trkpt lat="47.3718" lon="-2.36137">
        <ele>-97</ele>
        <time>2021-08-26T08:17:24.000Z</time>
      </trkpt>
      <trkpt lat="47.37184" lon="-2.3613">
        <ele>-97.599998474121</ele>
        <time>2021-08-26T08:17:25.000Z</time>
      </trkpt>
      <trkpt lat="47.37187" lon="-2.36123">
        <ele>-98</ele>
        <time>2021-08-26T08:17:26.000Z</time>
      </trkpt>
      <trkpt lat="47.3719" lon="-2.36117">
        <ele>-98.400001525879</ele>
        <time>2021-08-26T08:17:27.000Z</time>
      </trkpt>
      <trkpt lat="47.37193" lon="-2.36112">
        <ele>-98.800003051758</ele>
        <time>2021-08-26T08:17:28.000Z</time>
      </trkpt>
      <trkpt lat="47.37196" lon="-2.36106">
        <ele>-99.199996948242</ele>
        <time>2021-08-26T08:17:29.000Z</time>
      </trkpt>
      <trkpt lat="47.37199" lon="-2.36101">
        <ele>-99.199996948242</ele>
        <time>2021-08-26T08:17:30.000Z</time>
      </trkpt>
      <trkpt lat="47.37204" lon="-2.3609">
        <ele>-99.199996948242</ele>
        <time>2021-08-26T08:17:32.000Z</time>
      </trkpt>
      <trkpt lat="47.37211" lon="-2.36088">
        <ele>-99.199996948242</ele>
        <time>2021-08-26T08:17:34.000Z</time>
      </trkpt>
      <trkpt lat="47.37222" lon="-2.36095">
        <ele>-99.199996948242</ele>
        <time>2021-08-26T08:17:38.000Z</time>
      </trkpt>
      <trkpt lat="47.3723" lon="-2.36095">
        <ele>-99.199996948242</ele>
        <time>2021-08-26T08:17:40.000Z</time>
      </trkpt>
      <trkpt lat="47.37236" lon="-2.36098">
        <ele>-99.599998474121</ele>
        <time>2021-08-26T08:17:42.000Z</time>
      </trkpt>
      <trkpt lat="47.37238" lon="-2.36099">
        <ele>-100</ele>
        <time>2021-08-26T08:17:43.000Z</time>
      </trkpt>
      <trkpt lat="47.37241" lon="-2.36101">
        <ele>-100.40000152588</ele>
        <time>2021-08-26T08:17:44.000Z</time>
      </trkpt>
      <trkpt lat="47.37242" lon="-2.36101">
        <ele>-100.80000305176</ele>
        <time>2021-08-26T08:17:45.000Z</time>
      </trkpt>
      <trkpt lat="47.37243" lon="-2.36102">
        <ele>-101.19999694824</ele>
        <time>2021-08-26T08:17:46.000Z</time>
      </trkpt>
      <trkpt lat="47.37244" lon="-2.36102">
        <ele>-101.19999694824</ele>
        <time>2021-08-26T08:17:47.000Z</time>
      </trkpt>
      <trkpt lat="47.37244" lon="-2.36102">
        <ele>-101.19999694824</ele>
        <time>2021-08-26T08:17:48.000Z</time>
      </trkpt>
      <trkpt lat="47.37266" lon="-2.36122">
        <ele>-103.19999694824</ele>
        <time>2021-08-26T08:20:25.000Z</time>
      </trkpt>
      <trkpt lat="47.3727" lon="-2.36126">
        <ele>-103.19999694824</ele>
        <time>2021-08-26T08:20:27.000Z</time>
      </trkpt>
      <trkpt lat="47.37283" lon="-2.36133">
        <ele>-103.19999694824</ele>
        <time>2021-08-26T08:20:34.000Z</time>
      </trkpt>
      <trkpt lat="47.37293" lon="-2.36123">
        <ele>-103.19999694824</ele>
        <time>2021-08-26T08:20:39.000Z</time>
      </trkpt>
      <trkpt lat="47.3731" lon="-2.36118">
        <ele>-103.19999694824</ele>
        <time>2021-08-26T08:20:45.000Z</time>
      </trkpt>
      <trkpt lat="47.37333" lon="-2.36121">
        <ele>-103.19999694824</ele>
        <time>2021-08-26T08:20:52.000Z</time>
      </trkpt>
      <trkpt lat="47.37354" lon="-2.36128">
        <ele>-103.19999694824</ele>
        <time>2021-08-26T08:20:58.000Z</time>
      </trkpt>
      <trkpt lat="47.37357" lon="-2.36125">
        <ele>-103.19999694824</ele>
        <time>2021-08-26T08:20:59.000Z</time>
      </trkpt>
      <trkpt lat="47.37378" lon="-2.3611">
        <ele>-103.19999694824</ele>
        <time>2021-08-26T08:21:04.000Z</time>
      </trkpt>
      <trkpt lat="47.37382" lon="-2.36108">
        <ele>-103.19999694824</ele>
        <time>2021-08-26T08:21:05.000Z</time>
      </trkpt>
      <trkpt lat="47.3739" lon="-2.36112">
        <ele>-103.19999694824</ele>
        <time>2021-08-26T08:21:07.000Z</time>
      </trkpt>
      <trkpt lat="47.37397" lon="-2.36121">
        <ele>-103.19999694824</ele>
        <time>2021-08-26T08:21:09.000Z</time>
      </trkpt>
      <trkpt lat="47.37412" lon="-2.36141">
        <ele>-103.19999694824</ele>
        <time>2021-08-26T08:21:14.000Z</time>
      </trkpt>
      <trkpt lat="47.37417" lon="-2.36143">
        <ele>-103.19999694824</ele>
        <time>2021-08-26T08:21:16.000Z</time>
      </trkpt>
      <trkpt lat="47.37421" lon="-2.3614">
        <ele>-103.19999694824</ele>
        <time>2021-08-26T08:21:17.000Z</time>
      </trkpt>
      <trkpt lat="47.37438" lon="-2.36127">
        <ele>-103.19999694824</ele>
        <time>2021-08-26T08:21:22.000Z</time>
      </trkpt>
      <trkpt lat="47.37442" lon="-2.36125">
        <ele>-102.80000305176</ele>
        <time>2021-08-26T08:21:23.000Z</time>
      </trkpt>
      <trkpt lat="47.37445" lon="-2.36123">
        <ele>-102.40000152588</ele>
        <time>2021-08-26T08:21:24.000Z</time>
      </trkpt>
      <trkpt lat="47.37448" lon="-2.3612">
        <ele>-102</ele>
        <time>2021-08-26T08:21:25.000Z</time>
      </trkpt>
      <trkpt lat="47.37452" lon="-2.36118">
        <ele>-101.59999847412</ele>
        <time>2021-08-26T08:21:26.000Z</time>
      </trkpt>
      <trkpt lat="47.37455" lon="-2.36115">
        <ele>-101.19999694824</ele>
        <time>2021-08-26T08:21:27.000Z</time>
      </trkpt>
      <trkpt lat="47.37459" lon="-2.36113">
        <ele>-101.19999694824</ele>
        <time>2021-08-26T08:21:28.000Z</time>
      </trkpt>
      <trkpt lat="47.37475" lon="-2.36103">
        <ele>-100.80000305176</ele>
        <time>2021-08-26T08:21:34.000Z</time>
      </trkpt>
      <trkpt lat="47.37478" lon="-2.36101">
        <ele>-100.19999694824</ele>
        <time>2021-08-26T08:21:35.000Z</time>
      </trkpt>
      <trkpt lat="47.37481" lon="-2.36099">
        <ele>-99.800003051758</ele>
        <time>2021-08-26T08:21:36.000Z</time>
      </trkpt>
      <trkpt lat="47.37485" lon="-2.36097">
        <ele>-99.400001525879</ele>
        <time>2021-08-26T08:21:37.000Z</time>
      </trkpt>
      <trkpt lat="47.37488" lon="-2.36095">
        <ele>-99</ele>
        <time>2021-08-26T08:21:38.000Z</time>
      </trkpt>
      <trkpt lat="47.37498" lon="-2.3609">
        <ele>-99</ele>
        <time>2021-08-26T08:21:41.000Z</time>
      </trkpt>
      <trkpt lat="47.37525" lon="-2.36077">
        <ele>-99</ele>
        <time>2021-08-26T08:21:48.000Z</time>
      </trkpt>
      <trkpt lat="47.3755" lon="-2.36068">
        <ele>-98.599998474121</ele>
        <time>2021-08-26T08:21:54.000Z</time>
      </trkpt>
      <trkpt lat="47.37554" lon="-2.36067">
        <ele>-98.199996948242</ele>
        <time>2021-08-26T08:21:55.000Z</time>
      </trkpt>
      <trkpt lat="47.37558" lon="-2.36065">
        <ele>-97.800003051758</ele>
        <time>2021-08-26T08:21:56.000Z</time>
      </trkpt>
      <trkpt lat="47.37562" lon="-2.36063">
        <ele>-97.400001525879</ele>
        <time>2021-08-26T08:21:57.000Z</time>
      </trkpt>
      <trkpt lat="47.37566" lon="-2.36062">
        <ele>-97</ele>
        <time>2021-08-26T08:21:58.000Z</time>
      </trkpt>
      <trkpt lat="47.37582" lon="-2.36056">
        <ele>-97</ele>
        <time>2021-08-26T08:22:02.000Z</time>
      </trkpt>
      <trkpt lat="47.37611" lon="-2.36049">
        <ele>-97</ele>
        <time>2021-08-26T08:22:10.000Z</time>
      </trkpt>
      <trkpt lat="47.37632" lon="-2.36045">
        <ele>-97</ele>
        <time>2021-08-26T08:22:15.000Z</time>
      </trkpt>
      <trkpt lat="47.37636" lon="-2.36043">
        <ele>-97</ele>
        <time>2021-08-26T08:22:16.000Z</time>
      </trkpt>
      <trkpt lat="47.37639" lon="-2.36037">
        <ele>-97</ele>
        <time>2021-08-26T08:22:18.000Z</time>
      </trkpt>
      <trkpt lat="47.37641" lon="-2.36024">
        <ele>-97</ele>
        <time>2021-08-26T08:22:21.000Z</time>
      </trkpt>
      <trkpt lat="47.37643" lon="-2.36013">
        <ele>-97</ele>
        <time>2021-08-26T08:22:23.000Z</time>
      </trkpt>
      <trkpt lat="47.37648" lon="-2.36005">
        <ele>-97</ele>
        <time>2021-08-26T08:22:25.000Z</time>
      </trkpt>
      <trkpt lat="47.37652" lon="-2.36005">
        <ele>-97</ele>
        <time>2021-08-26T08:22:26.000Z</time>
      </trkpt>
      <trkpt lat="47.37664" lon="-2.36009">
        <ele>-97</ele>
        <time>2021-08-26T08:22:29.000Z</time>
      </trkpt>
      <trkpt lat="47.37669" lon="-2.3601">
        <ele>-97</ele>
        <time>2021-08-26T08:22:30.000Z</time>
      </trkpt>
      <trkpt lat="47.37706" lon="-2.36028">
        <ele>-97</ele>
        <time>2021-08-26T08:22:38.000Z</time>
      </trkpt>
      <trkpt lat="47.37738" lon="-2.36046">
        <ele>-97</ele>
        <time>2021-08-26T08:22:45.000Z</time>
      </trkpt>
      <trkpt lat="47.37769" lon="-2.36066">
        <ele>-97</ele>
        <time>2021-08-26T08:22:52.000Z</time>
      </trkpt>
      <trkpt lat="47.37792" lon="-2.36079">
        <ele>-97</ele>
        <time>2021-08-26T08:22:58.000Z</time>
      </trkpt>
      <trkpt lat="47.37818" lon="-2.36093">
        <ele>-97</ele>
        <time>2021-08-26T08:23:05.000Z</time>
      </trkpt>
      <trkpt lat="47.37852" lon="-2.3611">
        <ele>-97</ele>
        <time>2021-08-26T08:23:13.000Z</time>
      </trkpt>
      <trkpt lat="47.37878" lon="-2.36123">
        <ele>-97</ele>
        <time>2021-08-26T08:23:19.000Z</time>
      </trkpt>
      <trkpt lat="47.37882" lon="-2.36125">
        <ele>-97</ele>
        <time>2021-08-26T08:23:20.000Z</time>
      </trkpt>
      <trkpt lat="47.37897" lon="-2.3613">
        <ele>-97</ele>
        <time>2021-08-26T08:23:25.000Z</time>
      </trkpt>
      <trkpt lat="47.37915" lon="-2.36121">
        <ele>-97</ele>
        <time>2021-08-26T08:23:31.000Z</time>
      </trkpt>
      <trkpt lat="47.37939" lon="-2.36108">
        <ele>-97</ele>
        <time>2021-08-26T08:23:37.000Z</time>
      </trkpt>
      <trkpt lat="47.37969" lon="-2.36091">
        <ele>-97</ele>
        <time>2021-08-26T08:23:44.000Z</time>
      </trkpt>
      <trkpt lat="47.38006" lon="-2.36076">
        <ele>-97</ele>
        <time>2021-08-26T08:23:51.000Z</time>
      </trkpt>
      <trkpt lat="47.38033" lon="-2.36065">
        <ele>-97</ele>
        <time>2021-08-26T08:23:56.000Z</time>
      </trkpt>
      <trkpt lat="47.3806" lon="-2.36056">
        <ele>-97.400001525879</ele>
        <time>2021-08-26T08:24:01.000Z</time>
      </trkpt>
      <trkpt lat="47.38065" lon="-2.36055">
        <ele>-97.800003051758</ele>
        <time>2021-08-26T08:24:02.000Z</time>
      </trkpt>
      <trkpt lat="47.38071" lon="-2.36053">
        <ele>-98.199996948242</ele>
        <time>2021-08-26T08:24:03.000Z</time>
      </trkpt>
      <trkpt lat="47.38075" lon="-2.36051">
        <ele>-98.599998474121</ele>
        <time>2021-08-26T08:24:04.000Z</time>
      </trkpt>
      <trkpt lat="47.3808" lon="-2.36049">
        <ele>-99.199996948242</ele>
        <time>2021-08-26T08:24:05.000Z</time>
      </trkpt>
      <trkpt lat="47.38122" lon="-2.36035">
        <ele>-99.199996948242</ele>
        <time>2021-08-26T08:24:13.000Z</time>
      </trkpt>
      <trkpt lat="47.38152" lon="-2.36016">
        <ele>-99.199996948242</ele>
        <time>2021-08-26T08:24:19.000Z</time>
      </trkpt>
      <trkpt lat="47.38183" lon="-2.35994">
        <ele>-99.199996948242</ele>
        <time>2021-08-26T08:24:25.000Z</time>
      </trkpt>
      <trkpt lat="47.38219" lon="-2.35968">
        <ele>-99.199996948242</ele>
        <time>2021-08-26T08:24:32.000Z</time>
      </trkpt>
      <trkpt lat="47.38257" lon="-2.35942">
        <ele>-99.199996948242</ele>
        <time>2021-08-26T08:24:39.000Z</time>
      </trkpt>
      <trkpt lat="47.38273" lon="-2.3593">
        <ele>-99.199996948242</ele>
        <time>2021-08-26T08:24:42.000Z</time>
      </trkpt>
      <trkpt lat="47.38282" lon="-2.35925">
        <ele>-99.599998474121</ele>
        <time>2021-08-26T08:24:44.000Z</time>
      </trkpt>
      <trkpt lat="47.38287" lon="-2.35926">
        <ele>-100</ele>
        <time>2021-08-26T08:24:45.000Z</time>
      </trkpt>
      <trkpt lat="47.38292" lon="-2.35929">
        <ele>-100.40000152588</ele>
        <time>2021-08-26T08:24:46.000Z</time>
      </trkpt>
      <trkpt lat="47.38294" lon="-2.35934">
        <ele>-100.80000305176</ele>
        <time>2021-08-26T08:24:47.000Z</time>
      </trkpt>
      <trkpt lat="47.38296" lon="-2.3594">
        <ele>-101.19999694824</ele>
        <time>2021-08-26T08:24:48.000Z</time>
      </trkpt>
      <trkpt lat="47.38301" lon="-2.35959">
        <ele>-101.19999694824</ele>
        <time>2021-08-26T08:24:51.000Z</time>
      </trkpt>
      <trkpt lat="47.38303" lon="-2.35965">
        <ele>-101.19999694824</ele>
        <time>2021-08-26T08:24:52.000Z</time>
      </trkpt>
      <trkpt lat="47.38311" lon="-2.3599">
        <ele>-101.19999694824</ele>
        <time>2021-08-26T08:24:56.000Z</time>
      </trkpt>
      <trkpt lat="47.38319" lon="-2.36031">
        <ele>-101.19999694824</ele>
        <time>2021-08-26T08:25:02.000Z</time>
      </trkpt>
      <trkpt lat="47.38326" lon="-2.36058">
        <ele>-101.19999694824</ele>
        <time>2021-08-26T08:25:06.000Z</time>
      </trkpt>
      <trkpt lat="47.38333" lon="-2.36072">
        <ele>-101.19999694824</ele>
        <time>2021-08-26T08:25:08.000Z</time>
      </trkpt>
      <trkpt lat="47.38349" lon="-2.36114">
        <ele>-101.19999694824</ele>
        <time>2021-08-26T08:25:14.000Z</time>
      </trkpt>
      <trkpt lat="47.38362" lon="-2.36148">
        <ele>-101.19999694824</ele>
        <time>2021-08-26T08:25:19.000Z</time>
      </trkpt>
      <trkpt lat="47.38363" lon="-2.36156">
        <ele>-101.19999694824</ele>
        <time>2021-08-26T08:25:20.000Z</time>
      </trkpt>
      <trkpt lat="47.38367" lon="-2.36169">
        <ele>-101.19999694824</ele>
        <time>2021-08-26T08:25:22.000Z</time>
      </trkpt>
      <trkpt lat="47.38374" lon="-2.36181">
        <ele>-101.59999847412</ele>
        <time>2021-08-26T08:25:24.000Z</time>
      </trkpt>
      <trkpt lat="47.38378" lon="-2.36186">
        <ele>-102.59999847412</ele>
        <time>2021-08-26T08:25:25.000Z</time>
      </trkpt>
      <trkpt lat="47.38382" lon="-2.3619">
        <ele>-103</ele>
        <time>2021-08-26T08:25:26.000Z</time>
      </trkpt>
      <trkpt lat="47.38385" lon="-2.36193">
        <ele>-103.40000152588</ele>
        <time>2021-08-26T08:25:27.000Z</time>
      </trkpt>
      <trkpt lat="47.38389" lon="-2.36193">
        <ele>-103.40000152588</ele>
        <time>2021-08-26T08:25:28.000Z</time>
      </trkpt>
      <trkpt lat="47.38393" lon="-2.3619">
        <ele>-103.40000152588</ele>
        <time>2021-08-26T08:25:29.000Z</time>
      </trkpt>
      <trkpt lat="47.38405" lon="-2.36187">
        <ele>-103.40000152588</ele>
        <time>2021-08-26T08:25:32.000Z</time>
      </trkpt>
      <trkpt lat="47.38407" lon="-2.36187">
        <ele>-103.40000152588</ele>
        <time>2021-08-26T08:25:33.000Z</time>
      </trkpt>
      <trkpt lat="47.38412" lon="-2.36198">
        <ele>-103.40000152588</ele>
        <time>2021-08-26T08:25:37.000Z</time>
      </trkpt>
      <trkpt lat="47.3842" lon="-2.36206">
        <ele>-103.40000152588</ele>
        <time>2021-08-26T08:25:44.000Z</time>
      </trkpt>
      <trkpt lat="47.3842" lon="-2.36225">
        <ele>-103.40000152588</ele>
        <time>2021-08-26T08:25:49.000Z</time>
      </trkpt>
      <trkpt lat="47.38429" lon="-2.36243">
        <ele>-103.40000152588</ele>
        <time>2021-08-26T08:25:55.000Z</time>
      </trkpt>
      <trkpt lat="47.38442" lon="-2.3625">
        <ele>-103.40000152588</ele>
        <time>2021-08-26T08:26:00.000Z</time>
      </trkpt>
      <trkpt lat="47.38456" lon="-2.36247">
        <ele>-103.40000152588</ele>
        <time>2021-08-26T08:26:05.000Z</time>
      </trkpt>
      <trkpt lat="47.38478" lon="-2.36247">
        <ele>-103.40000152588</ele>
        <time>2021-08-26T08:26:10.000Z</time>
      </trkpt>
      <trkpt lat="47.38483" lon="-2.3625">
        <ele>-103.40000152588</ele>
        <time>2021-08-26T08:26:11.000Z</time>
      </trkpt>
      <trkpt lat="47.38492" lon="-2.36253">
        <ele>-103.40000152588</ele>
        <time>2021-08-26T08:26:13.000Z</time>
      </trkpt>
      <trkpt lat="47.38505" lon="-2.36257">
        <ele>-103.40000152588</ele>
        <time>2021-08-26T08:26:16.000Z</time>
      </trkpt>
      <trkpt lat="47.38515" lon="-2.36258">
        <ele>-103.40000152588</ele>
        <time>2021-08-26T08:26:18.000Z</time>
      </trkpt>
      <trkpt lat="47.38535" lon="-2.36261">
        <ele>-103.40000152588</ele>
        <time>2021-08-26T08:26:22.000Z</time>
      </trkpt>
      <trkpt lat="47.3854" lon="-2.3626">
        <ele>-103.40000152588</ele>
        <time>2021-08-26T08:26:23.000Z</time>
      </trkpt>
      <trkpt lat="47.3856" lon="-2.36256">
        <ele>-103.40000152588</ele>
        <time>2021-08-26T08:26:27.000Z</time>
      </trkpt>
      <trkpt lat="47.38581" lon="-2.3626">
        <ele>-103.40000152588</ele>
        <time>2021-08-26T08:26:31.000Z</time>
      </trkpt>
      <trkpt lat="47.38586" lon="-2.36261">
        <ele>-103.40000152588</ele>
        <time>2021-08-26T08:26:32.000Z</time>
      </trkpt>
      <trkpt lat="47.38592" lon="-2.36263">
        <ele>-103.40000152588</ele>
        <time>2021-08-26T08:26:33.000Z</time>
      </trkpt>
      <trkpt lat="47.38602" lon="-2.36272">
        <ele>-103.40000152588</ele>
        <time>2021-08-26T08:26:35.000Z</time>
      </trkpt>
      <trkpt lat="47.38615" lon="-2.363">
        <ele>-103.40000152588</ele>
        <time>2021-08-26T08:26:39.000Z</time>
      </trkpt>
      <trkpt lat="47.38614" lon="-2.36333">
        <ele>-103.40000152588</ele>
        <time>2021-08-26T08:26:43.000Z</time>
      </trkpt>
      <trkpt lat="47.38611" lon="-2.36347">
        <ele>-103.40000152588</ele>
        <time>2021-08-26T08:26:45.000Z</time>
      </trkpt>
      <trkpt lat="47.38609" lon="-2.36363">
        <ele>-103.40000152588</ele>
        <time>2021-08-26T08:26:47.000Z</time>
      </trkpt>
      <trkpt lat="47.38605" lon="-2.36376">
        <ele>-103.40000152588</ele>
        <time>2021-08-26T08:26:49.000Z</time>
      </trkpt>
      <trkpt lat="47.38596" lon="-2.36396">
        <ele>-103.40000152588</ele>
        <time>2021-08-26T08:26:52.000Z</time>
      </trkpt>
      <trkpt lat="47.3859" lon="-2.3641">
        <ele>-103.40000152588</ele>
        <time>2021-08-26T08:26:54.000Z</time>
      </trkpt>
      <trkpt lat="47.3858" lon="-2.36428">
        <ele>-103.40000152588</ele>
        <time>2021-08-26T08:26:57.000Z</time>
      </trkpt>
      <trkpt lat="47.38572" lon="-2.3645">
        <ele>-103.40000152588</ele>
        <time>2021-08-26T08:27:00.000Z</time>
      </trkpt>
      <trkpt lat="47.38552" lon="-2.36494">
        <ele>-103.40000152588</ele>
        <time>2021-08-26T08:27:06.000Z</time>
      </trkpt>
      <trkpt lat="47.38548" lon="-2.36501">
        <ele>-103.40000152588</ele>
        <time>2021-08-26T08:27:07.000Z</time>
      </trkpt>
      <trkpt lat="47.38543" lon="-2.36508">
        <ele>-103.40000152588</ele>
        <time>2021-08-26T08:27:08.000Z</time>
      </trkpt>
      <trkpt lat="47.38521" lon="-2.36533">
        <ele>-103.40000152588</ele>
        <time>2021-08-26T08:27:12.000Z</time>
      </trkpt>
      <trkpt lat="47.38505" lon="-2.36549">
        <ele>-103.40000152588</ele>
        <time>2021-08-26T08:27:15.000Z</time>
      </trkpt>
      <trkpt lat="47.38495" lon="-2.36557">
        <ele>-103.40000152588</ele>
        <time>2021-08-26T08:27:17.000Z</time>
      </trkpt>
      <trkpt lat="47.3846" lon="-2.36576">
        <ele>-103.40000152588</ele>
        <time>2021-08-26T08:27:23.000Z</time>
      </trkpt>
      <trkpt lat="47.38439" lon="-2.36589">
        <ele>-103.40000152588</ele>
        <time>2021-08-26T08:27:27.000Z</time>
      </trkpt>
      <trkpt lat="47.38431" lon="-2.36599">
        <ele>-103.40000152588</ele>
        <time>2021-08-26T08:27:29.000Z</time>
      </trkpt>
      <trkpt lat="47.38415" lon="-2.36622">
        <ele>-103.40000152588</ele>
        <time>2021-08-26T08:27:33.000Z</time>
      </trkpt>
      <trkpt lat="47.38413" lon="-2.36628">
        <ele>-103.40000152588</ele>
        <time>2021-08-26T08:27:34.000Z</time>
      </trkpt>
      <trkpt lat="47.38406" lon="-2.36649">
        <ele>-103.40000152588</ele>
        <time>2021-08-26T08:27:37.000Z</time>
      </trkpt>
      <trkpt lat="47.38401" lon="-2.36671">
        <ele>-103.40000152588</ele>
        <time>2021-08-26T08:27:40.000Z</time>
      </trkpt>
      <trkpt lat="47.38391" lon="-2.36706">
        <ele>-103.40000152588</ele>
        <time>2021-08-26T08:27:45.000Z</time>
      </trkpt>
      <trkpt lat="47.38377" lon="-2.36751">
        <ele>-103.40000152588</ele>
        <time>2021-08-26T08:27:51.000Z</time>
      </trkpt>
      <trkpt lat="47.38359" lon="-2.36777">
        <ele>-103.40000152588</ele>
        <time>2021-08-26T08:27:55.000Z</time>
      </trkpt>
      <trkpt lat="47.38355" lon="-2.36781">
        <ele>-103.40000152588</ele>
        <time>2021-08-26T08:27:56.000Z</time>
      </trkpt>
      <trkpt lat="47.38338" lon="-2.3679">
        <ele>-103.40000152588</ele>
        <time>2021-08-26T08:27:59.000Z</time>
      </trkpt>
      <trkpt lat="47.38326" lon="-2.36795">
        <ele>-103.40000152588</ele>
        <time>2021-08-26T08:28:01.000Z</time>
      </trkpt>
      <trkpt lat="47.38309" lon="-2.368">
        <ele>-103.40000152588</ele>
        <time>2021-08-26T08:28:04.000Z</time>
      </trkpt>
      <trkpt lat="47.38293" lon="-2.36802">
        <ele>-103.40000152588</ele>
        <time>2021-08-26T08:28:07.000Z</time>
      </trkpt>
      <trkpt lat="47.38278" lon="-2.36808">
        <ele>-103.40000152588</ele>
        <time>2021-08-26T08:28:10.000Z</time>
      </trkpt>
      <trkpt lat="47.38264" lon="-2.36818">
        <ele>-103.40000152588</ele>
        <time>2021-08-26T08:28:13.000Z</time>
      </trkpt>
      <trkpt lat="47.38259" lon="-2.36819">
        <ele>-103.40000152588</ele>
        <time>2021-08-26T08:28:14.000Z</time>
      </trkpt>
      <trkpt lat="47.38246" lon="-2.36828">
        <ele>-103.40000152588</ele>
        <time>2021-08-26T08:28:17.000Z</time>
      </trkpt>
      <trkpt lat="47.38214" lon="-2.36849">
        <ele>-103.40000152588</ele>
        <time>2021-08-26T08:28:24.000Z</time>
      </trkpt>
      <trkpt lat="47.38205" lon="-2.36855">
        <ele>-103.40000152588</ele>
        <time>2021-08-26T08:28:26.000Z</time>
      </trkpt>
      <trkpt lat="47.38201" lon="-2.36858">
        <ele>-103</ele>
        <time>2021-08-26T08:28:27.000Z</time>
      </trkpt>
      <trkpt lat="47.38196" lon="-2.36861">
        <ele>-102.59999847412</ele>
        <time>2021-08-26T08:28:28.000Z</time>
      </trkpt>
      <trkpt lat="47.38191" lon="-2.36863">
        <ele>-102.19999694824</ele>
        <time>2021-08-26T08:28:29.000Z</time>
      </trkpt>
      <trkpt lat="47.38187" lon="-2.36865">
        <ele>-101.80000305176</ele>
        <time>2021-08-26T08:28:30.000Z</time>
      </trkpt>
      <trkpt lat="47.38183" lon="-2.36868">
        <ele>-101.40000152588</ele>
        <time>2021-08-26T08:28:31.000Z</time>
      </trkpt>
      <trkpt lat="47.38162" lon="-2.3688">
        <ele>-101.40000152588</ele>
        <time>2021-08-26T08:28:36.000Z</time>
      </trkpt>
      <trkpt lat="47.38158" lon="-2.36882">
        <ele>-101</ele>
        <time>2021-08-26T08:28:37.000Z</time>
      </trkpt>
      <trkpt lat="47.38155" lon="-2.36884">
        <ele>-100.59999847412</ele>
        <time>2021-08-26T08:28:38.000Z</time>
      </trkpt>
      <trkpt lat="47.3815" lon="-2.36887">
        <ele>-100.19999694824</ele>
        <time>2021-08-26T08:28:39.000Z</time>
      </trkpt>
      <trkpt lat="47.38146" lon="-2.36889">
        <ele>-99.800003051758</ele>
        <time>2021-08-26T08:28:40.000Z</time>
      </trkpt>
      <trkpt lat="47.38142" lon="-2.36892">
        <ele>-99.400001525879</ele>
        <time>2021-08-26T08:28:41.000Z</time>
      </trkpt>
      <trkpt lat="47.38138" lon="-2.36894">
        <ele>-99.400001525879</ele>
        <time>2021-08-26T08:28:42.000Z</time>
      </trkpt>
      <trkpt lat="47.38115" lon="-2.36908">
        <ele>-99.400001525879</ele>
        <time>2021-08-26T08:28:48.000Z</time>
      </trkpt>
      <trkpt lat="47.38113" lon="-2.36914">
        <ele>-99.400001525879</ele>
        <time>2021-08-26T08:28:49.000Z</time>
      </trkpt>
      <trkpt lat="47.38113" lon="-2.36923">
        <ele>-99.400001525879</ele>
        <time>2021-08-26T08:28:51.000Z</time>
      </trkpt>
      <trkpt lat="47.38116" lon="-2.36931">
        <ele>-99.400001525879</ele>
        <time>2021-08-26T08:28:53.000Z</time>
      </trkpt>
      <trkpt lat="47.3812" lon="-2.36942">
        <ele>-99.400001525879</ele>
        <time>2021-08-26T08:28:55.000Z</time>
      </trkpt>
      <trkpt lat="47.38135" lon="-2.36977">
        <ele>-99.400001525879</ele>
        <time>2021-08-26T08:29:01.000Z</time>
      </trkpt>
      <trkpt lat="47.38152" lon="-2.37019">
        <ele>-99.400001525879</ele>
        <time>2021-08-26T08:29:08.000Z</time>
      </trkpt>
      <trkpt lat="47.38155" lon="-2.37025">
        <ele>-99.400001525879</ele>
        <time>2021-08-26T08:29:09.000Z</time>
      </trkpt>
      <trkpt lat="47.38167" lon="-2.3705">
        <ele>-99.400001525879</ele>
        <time>2021-08-26T08:29:13.000Z</time>
      </trkpt>
      <trkpt lat="47.3819" lon="-2.3709">
        <ele>-99.400001525879</ele>
        <time>2021-08-26T08:29:19.000Z</time>
      </trkpt>
      <trkpt lat="47.38209" lon="-2.37131">
        <ele>-99.400001525879</ele>
        <time>2021-08-26T08:29:24.000Z</time>
      </trkpt>
      <trkpt lat="47.38233" lon="-2.37181">
        <ele>-99.800003051758</ele>
        <time>2021-08-26T08:29:30.000Z</time>
      </trkpt>
      <trkpt lat="47.38237" lon="-2.37189">
        <ele>-100.19999694824</ele>
        <time>2021-08-26T08:29:31.000Z</time>
      </trkpt>
      <trkpt lat="47.38241" lon="-2.37196">
        <ele>-101</ele>
        <time>2021-08-26T08:29:32.000Z</time>
      </trkpt>
      <trkpt lat="47.38244" lon="-2.37203">
        <ele>-101.59999847412</ele>
        <time>2021-08-26T08:29:33.000Z</time>
      </trkpt>
      <trkpt lat="47.38246" lon="-2.37209">
        <ele>-102</ele>
        <time>2021-08-26T08:29:34.000Z</time>
      </trkpt>
      <trkpt lat="47.38249" lon="-2.37214">
        <ele>-102.59999847412</ele>
        <time>2021-08-26T08:29:35.000Z</time>
      </trkpt>
      <trkpt lat="47.38251" lon="-2.37218">
        <ele>-103.19999694824</ele>
        <time>2021-08-26T08:29:36.000Z</time>
      </trkpt>
      <trkpt lat="47.38253" lon="-2.37221">
        <ele>-103.59999847412</ele>
        <time>2021-08-26T08:29:37.000Z</time>
      </trkpt>
      <trkpt lat="47.38255" lon="-2.3722">
        <ele>-103.59999847412</ele>
        <time>2021-08-26T08:29:38.000Z</time>
      </trkpt>
      <trkpt lat="47.38257" lon="-2.37219">
        <ele>-103.59999847412</ele>
        <time>2021-08-26T08:29:39.000Z</time>
      </trkpt>
      <trkpt lat="47.38273" lon="-2.37219">
        <ele>-103.59999847412</ele>
        <time>2021-08-26T08:29:45.000Z</time>
      </trkpt>
      <trkpt lat="47.38282" lon="-2.37219">
        <ele>-103.59999847412</ele>
        <time>2021-08-26T08:29:50.000Z</time>
      </trkpt>
      <trkpt lat="47.38283" lon="-2.37219">
        <ele>-103.59999847412</ele>
        <time>2021-08-26T08:29:52.000Z</time>
      </trkpt>
      <trkpt lat="47.38287" lon="-2.37225">
        <ele>-103.59999847412</ele>
        <time>2021-08-26T08:29:56.000Z</time>
      </trkpt>
      <trkpt lat="47.3829" lon="-2.37228">
        <ele>-103.59999847412</ele>
        <time>2021-08-26T08:29:58.000Z</time>
      </trkpt>
      <trkpt lat="47.38303" lon="-2.37236">
        <ele>-103.59999847412</ele>
        <time>2021-08-26T08:30:02.000Z</time>
      </trkpt>
      <trkpt lat="47.38305" lon="-2.37243">
        <ele>-103.59999847412</ele>
        <time>2021-08-26T08:30:04.000Z</time>
      </trkpt>
      <trkpt lat="47.38309" lon="-2.37248">
        <ele>-103.59999847412</ele>
        <time>2021-08-26T08:30:06.000Z</time>
      </trkpt>
      <trkpt lat="47.38315" lon="-2.37256">
        <ele>-103.59999847412</ele>
        <time>2021-08-26T08:30:09.000Z</time>
      </trkpt>
      <trkpt lat="47.38318" lon="-2.37265">
        <ele>-103.59999847412</ele>
        <time>2021-08-26T08:30:11.000Z</time>
      </trkpt>
      <trkpt lat="47.38327" lon="-2.37275">
        <ele>-103.59999847412</ele>
        <time>2021-08-26T08:30:16.000Z</time>
      </trkpt>
      <trkpt lat="47.38334" lon="-2.37275">
        <ele>-103.59999847412</ele>
        <time>2021-08-26T08:30:20.000Z</time>
      </trkpt>
      <trkpt lat="47.38336" lon="-2.37277">
        <ele>-103.59999847412</ele>
        <time>2021-08-26T08:30:21.000Z</time>
      </trkpt>
      <trkpt lat="47.38343" lon="-2.37279">
        <ele>-103.59999847412</ele>
        <time>2021-08-26T08:30:24.000Z</time>
      </trkpt>
      <trkpt lat="47.38351" lon="-2.37284">
        <ele>-103.59999847412</ele>
        <time>2021-08-26T08:30:26.000Z</time>
      </trkpt>
      <trkpt lat="47.38363" lon="-2.37289">
        <ele>-103.59999847412</ele>
        <time>2021-08-26T08:30:31.000Z</time>
      </trkpt>
      <trkpt lat="47.38365" lon="-2.3729">
        <ele>-103.59999847412</ele>
        <time>2021-08-26T08:30:32.000Z</time>
      </trkpt>
      <trkpt lat="47.3837" lon="-2.37292">
        <ele>-103.59999847412</ele>
        <time>2021-08-26T08:30:37.000Z</time>
      </trkpt>
      <trkpt lat="47.38367" lon="-2.37296">
        <ele>-105.80000305176</ele>
        <time>2021-08-26T08:31:59.000Z</time>
      </trkpt>
      <trkpt lat="47.38365" lon="-2.37293">
        <ele>-105.80000305176</ele>
        <time>2021-08-26T08:32:01.000Z</time>
      </trkpt>
      <trkpt lat="47.38353" lon="-2.37288">
        <ele>-105.80000305176</ele>
        <time>2021-08-26T08:32:06.000Z</time>
      </trkpt>
      <trkpt lat="47.38347" lon="-2.37294">
        <ele>-105.80000305176</ele>
        <time>2021-08-26T08:32:09.000Z</time>
      </trkpt>
      <trkpt lat="47.38341" lon="-2.37297">
        <ele>-105.80000305176</ele>
        <time>2021-08-26T08:32:12.000Z</time>
      </trkpt>
      <trkpt lat="47.38338" lon="-2.37301">
        <ele>-105.80000305176</ele>
        <time>2021-08-26T08:32:14.000Z</time>
      </trkpt>
      <trkpt lat="47.38338" lon="-2.37306">
        <ele>-105.80000305176</ele>
        <time>2021-08-26T08:32:16.000Z</time>
      </trkpt>
      <trkpt lat="47.38338" lon="-2.37318">
        <ele>-105.80000305176</ele>
        <time>2021-08-26T08:32:21.000Z</time>
      </trkpt>
      <trkpt lat="47.38339" lon="-2.37322">
        <ele>-105.80000305176</ele>
        <time>2021-08-26T08:32:22.000Z</time>
      </trkpt>
      <trkpt lat="47.38338" lon="-2.37337">
        <ele>-105.80000305176</ele>
        <time>2021-08-26T08:32:27.000Z</time>
      </trkpt>
      <trkpt lat="47.38338" lon="-2.37344">
        <ele>-105.80000305176</ele>
        <time>2021-08-26T08:32:32.000Z</time>
      </trkpt>
      <trkpt lat="47.3834" lon="-2.37355">
        <ele>-105.80000305176</ele>
        <time>2021-08-26T08:32:37.000Z</time>
      </trkpt>
      <trkpt lat="47.38341" lon="-2.37358">
        <ele>-105.80000305176</ele>
        <time>2021-08-26T08:32:38.000Z</time>
      </trkpt>
      <trkpt lat="47.38344" lon="-2.37381">
        <ele>-105.80000305176</ele>
        <time>2021-08-26T08:32:43.000Z</time>
      </trkpt>
      <trkpt lat="47.38351" lon="-2.37409">
        <ele>-105.80000305176</ele>
        <time>2021-08-26T08:32:49.000Z</time>
      </trkpt>
      <trkpt lat="47.38354" lon="-2.37451">
        <ele>-105.80000305176</ele>
        <time>2021-08-26T08:32:55.000Z</time>
      </trkpt>
      <trkpt lat="47.38359" lon="-2.37477">
        <ele>-105.80000305176</ele>
        <time>2021-08-26T08:33:00.000Z</time>
      </trkpt>
      <trkpt lat="47.38363" lon="-2.37517">
        <ele>-105.80000305176</ele>
        <time>2021-08-26T08:33:06.000Z</time>
      </trkpt>
      <trkpt lat="47.38364" lon="-2.37524">
        <ele>-105.80000305176</ele>
        <time>2021-08-26T08:33:07.000Z</time>
      </trkpt>
      <trkpt lat="47.38364" lon="-2.37531">
        <ele>-105.40000152588</ele>
        <time>2021-08-26T08:33:08.000Z</time>
      </trkpt>
      <trkpt lat="47.38365" lon="-2.37538">
        <ele>-104.80000305176</ele>
        <time>2021-08-26T08:33:09.000Z</time>
      </trkpt>
      <trkpt lat="47.38365" lon="-2.37546">
        <ele>-104.40000152588</ele>
        <time>2021-08-26T08:33:10.000Z</time>
      </trkpt>
      <trkpt lat="47.38364" lon="-2.37553">
        <ele>-104</ele>
        <time>2021-08-26T08:33:11.000Z</time>
      </trkpt>
      <trkpt lat="47.38364" lon="-2.37562">
        <ele>-103.59999847412</ele>
        <time>2021-08-26T08:33:12.000Z</time>
      </trkpt>
      <trkpt lat="47.38363" lon="-2.3757">
        <ele>-103.59999847412</ele>
        <time>2021-08-26T08:33:13.000Z</time>
      </trkpt>
      <trkpt lat="47.3836" lon="-2.3758">
        <ele>-103.59999847412</ele>
        <time>2021-08-26T08:33:15.000Z</time>
      </trkpt>
      <trkpt lat="47.38355" lon="-2.37584">
        <ele>-103.59999847412</ele>
        <time>2021-08-26T08:33:17.000Z</time>
      </trkpt>
      <trkpt lat="47.38337" lon="-2.37594">
        <ele>-103.59999847412</ele>
        <time>2021-08-26T08:33:23.000Z</time>
      </trkpt>
      <trkpt lat="47.38322" lon="-2.376">
        <ele>-103.19999694824</ele>
        <time>2021-08-26T08:33:26.000Z</time>
      </trkpt>
      <trkpt lat="47.38314" lon="-2.37602">
        <ele>-102.80000305176</ele>
        <time>2021-08-26T08:33:27.000Z</time>
      </trkpt>
      <trkpt lat="47.3831" lon="-2.37603">
        <ele>-102.40000152588</ele>
        <time>2021-08-26T08:33:28.000Z</time>
      </trkpt>
      <trkpt lat="47.38305" lon="-2.37606">
        <ele>-102</ele>
        <time>2021-08-26T08:33:29.000Z</time>
      </trkpt>
      <trkpt lat="47.38299" lon="-2.37608">
        <ele>-101.59999847412</ele>
        <time>2021-08-26T08:33:30.000Z</time>
      </trkpt>
      <trkpt lat="47.38276" lon="-2.37617">
        <ele>-101.59999847412</ele>
        <time>2021-08-26T08:33:37.000Z</time>
      </trkpt>
      <trkpt lat="47.38268" lon="-2.37612">
        <ele>-101.59999847412</ele>
        <time>2021-08-26T08:33:45.000Z</time>
      </trkpt>
      <trkpt lat="47.38263" lon="-2.37619">
        <ele>-101.59999847412</ele>
        <time>2021-08-26T08:33:50.000Z</time>
      </trkpt>
      <trkpt lat="47.38248" lon="-2.37627">
        <ele>-101.59999847412</ele>
        <time>2021-08-26T08:33:55.000Z</time>
      </trkpt>
      <trkpt lat="47.3824" lon="-2.37632">
        <ele>-101.59999847412</ele>
        <time>2021-08-26T08:34:00.000Z</time>
      </trkpt>
      <trkpt lat="47.38238" lon="-2.37633">
        <ele>-101.59999847412</ele>
        <time>2021-08-26T08:34:04.000Z</time>
      </trkpt>
      <trkpt lat="47.38234" lon="-2.37636">
        <ele>-101.59999847412</ele>
        <time>2021-08-26T08:35:01.000Z</time>
      </trkpt>
      <trkpt lat="47.38232" lon="-2.37639">
        <ele>-101.59999847412</ele>
        <time>2021-08-26T08:35:02.000Z</time>
      </trkpt>
      <trkpt lat="47.38229" lon="-2.37641">
        <ele>-101.19999694824</ele>
        <time>2021-08-26T08:35:03.000Z</time>
      </trkpt>
      <trkpt lat="47.38227" lon="-2.37644">
        <ele>-100.80000305176</ele>
        <time>2021-08-26T08:35:04.000Z</time>
      </trkpt>
      <trkpt lat="47.38223" lon="-2.37647">
        <ele>-100.40000152588</ele>
        <time>2021-08-26T08:35:05.000Z</time>
      </trkpt>
      <trkpt lat="47.38221" lon="-2.37649">
        <ele>-100</ele>
        <time>2021-08-26T08:35:06.000Z</time>
      </trkpt>
      <trkpt lat="47.38215" lon="-2.37651">
        <ele>-99.599998474121</ele>
        <time>2021-08-26T08:35:07.000Z</time>
      </trkpt>
      <trkpt lat="47.38211" lon="-2.37654">
        <ele>-99.599998474121</ele>
        <time>2021-08-26T08:35:08.000Z</time>
      </trkpt>
      <trkpt lat="47.38192" lon="-2.3767">
        <ele>-99.599998474121</ele>
        <time>2021-08-26T08:35:13.000Z</time>
      </trkpt>
      <trkpt lat="47.38165" lon="-2.37692">
        <ele>-99.599998474121</ele>
        <time>2021-08-26T08:35:20.000Z</time>
      </trkpt>
      <trkpt lat="47.38137" lon="-2.37717">
        <ele>-99</ele>
        <time>2021-08-26T08:35:27.000Z</time>
      </trkpt>
      <trkpt lat="47.38133" lon="-2.3772">
        <ele>-98.599998474121</ele>
        <time>2021-08-26T08:35:28.000Z</time>
      </trkpt>
      <trkpt lat="47.38129" lon="-2.37724">
        <ele>-98.199996948242</ele>
        <time>2021-08-26T08:35:29.000Z</time>
      </trkpt>
      <trkpt lat="47.38125" lon="-2.37728">
        <ele>-97.800003051758</ele>
        <time>2021-08-26T08:35:30.000Z</time>
      </trkpt>
      <trkpt lat="47.38122" lon="-2.37731">
        <ele>-97.400001525879</ele>
        <time>2021-08-26T08:35:31.000Z</time>
      </trkpt>
      <trkpt lat="47.38104" lon="-2.37746">
        <ele>-97.400001525879</ele>
        <time>2021-08-26T08:35:36.000Z</time>
      </trkpt>
      <trkpt lat="47.38082" lon="-2.37766">
        <ele>-97.400001525879</ele>
        <time>2021-08-26T08:35:43.000Z</time>
      </trkpt>
      <trkpt lat="47.38072" lon="-2.37775">
        <ele>-97</ele>
        <time>2021-08-26T08:35:46.000Z</time>
      </trkpt>
      <trkpt lat="47.38069" lon="-2.37777">
        <ele>-96.599998474121</ele>
        <time>2021-08-26T08:35:47.000Z</time>
      </trkpt>
      <trkpt lat="47.38066" lon="-2.3778">
        <ele>-96.199996948242</ele>
        <time>2021-08-26T08:35:48.000Z</time>
      </trkpt>
      <trkpt lat="47.38063" lon="-2.37782">
        <ele>-95.800003051758</ele>
        <time>2021-08-26T08:35:49.000Z</time>
      </trkpt>
      <trkpt lat="47.3806" lon="-2.37784">
        <ele>-95.400001525879</ele>
        <time>2021-08-26T08:35:50.000Z</time>
      </trkpt>
      <trkpt lat="47.38044" lon="-2.37798">
        <ele>-95.400001525879</ele>
        <time>2021-08-26T08:35:55.000Z</time>
      </trkpt>
      <trkpt lat="47.38023" lon="-2.37819">
        <ele>-95.400001525879</ele>
        <time>2021-08-26T08:36:02.000Z</time>
      </trkpt>
      <trkpt lat="47.3801" lon="-2.37827">
        <ele>-95</ele>
        <time>2021-08-26T08:36:05.000Z</time>
      </trkpt>
      <trkpt lat="47.38005" lon="-2.3783">
        <ele>-94.599998474121</ele>
        <time>2021-08-26T08:36:06.000Z</time>
      </trkpt>
      <trkpt lat="47.38001" lon="-2.37833">
        <ele>-93.599998474121</ele>
        <time>2021-08-26T08:36:07.000Z</time>
      </trkpt>
      <trkpt lat="47.37998" lon="-2.37837">
        <ele>-93.199996948242</ele>
        <time>2021-08-26T08:36:08.000Z</time>
      </trkpt>
      <trkpt lat="47.37994" lon="-2.3784">
        <ele>-93.199996948242</ele>
        <time>2021-08-26T08:36:09.000Z</time>
      </trkpt>
      <trkpt lat="47.37964" lon="-2.37862">
        <ele>-93.199996948242</ele>
        <time>2021-08-26T08:36:16.000Z</time>
      </trkpt>
      <trkpt lat="47.37933" lon="-2.37885">
        <ele>-93.199996948242</ele>
        <time>2021-08-26T08:36:23.000Z</time>
      </trkpt>
      <trkpt lat="47.37901" lon="-2.37908">
        <ele>-93.199996948242</ele>
        <time>2021-08-26T08:36:30.000Z</time>
      </trkpt>
      <trkpt lat="47.3786" lon="-2.37936">
        <ele>-93.199996948242</ele>
        <time>2021-08-26T08:36:38.000Z</time>
      </trkpt>
      <trkpt lat="47.37815" lon="-2.37969">
        <ele>-93.199996948242</ele>
        <time>2021-08-26T08:36:47.000Z</time>
      </trkpt>
      <trkpt lat="47.3777" lon="-2.37999">
        <ele>-93.199996948242</ele>
        <time>2021-08-26T08:36:56.000Z</time>
      </trkpt>
      <trkpt lat="47.37734" lon="-2.38024">
        <ele>-93.199996948242</ele>
        <time>2021-08-26T08:37:03.000Z</time>
      </trkpt>
      <trkpt lat="47.37713" lon="-2.38039">
        <ele>-93.199996948242</ele>
        <time>2021-08-26T08:37:07.000Z</time>
      </trkpt>
      <trkpt lat="47.37703" lon="-2.3805">
        <ele>-93.199996948242</ele>
        <time>2021-08-26T08:37:09.000Z</time>
      </trkpt>
      <trkpt lat="47.37671" lon="-2.38085">
        <ele>-93.199996948242</ele>
        <time>2021-08-26T08:37:15.000Z</time>
      </trkpt>
      <trkpt lat="47.37659" lon="-2.38096">
        <ele>-93.599998474121</ele>
        <time>2021-08-26T08:37:17.000Z</time>
      </trkpt>
      <trkpt lat="47.37653" lon="-2.38101">
        <ele>-94</ele>
        <time>2021-08-26T08:37:18.000Z</time>
      </trkpt>
      <trkpt lat="47.37646" lon="-2.38106">
        <ele>-94.400001525879</ele>
        <time>2021-08-26T08:37:19.000Z</time>
      </trkpt>
      <trkpt lat="47.37639" lon="-2.3811">
        <ele>-95</ele>
        <time>2021-08-26T08:37:20.000Z</time>
      </trkpt>
      <trkpt lat="47.37632" lon="-2.38114">
        <ele>-95.400001525879</ele>
        <time>2021-08-26T08:37:21.000Z</time>
      </trkpt>
      <trkpt lat="47.37592" lon="-2.38137">
        <ele>-95.400001525879</ele>
        <time>2021-08-26T08:37:27.000Z</time>
      </trkpt>
      <trkpt lat="47.37562" lon="-2.38156">
        <ele>-95.400001525879</ele>
        <time>2021-08-26T08:37:32.000Z</time>
      </trkpt>
      <trkpt lat="47.37522" lon="-2.3818">
        <ele>-95.400001525879</ele>
        <time>2021-08-26T08:37:39.000Z</time>
      </trkpt>
      <trkpt lat="47.37489" lon="-2.382">
        <ele>-95.400001525879</ele>
        <time>2021-08-26T08:37:45.000Z</time>
      </trkpt>
      <trkpt lat="47.3745" lon="-2.38224">
        <ele>-95.400001525879</ele>
        <time>2021-08-26T08:37:52.000Z</time>
      </trkpt>
      <trkpt lat="47.37418" lon="-2.38245">
        <ele>-95.400001525879</ele>
        <time>2021-08-26T08:37:58.000Z</time>
      </trkpt>
      <trkpt lat="47.37383" lon="-2.38267">
        <ele>-95.400001525879</ele>
        <time>2021-08-26T08:38:05.000Z</time>
      </trkpt>
      <trkpt lat="47.37353" lon="-2.38286">
        <ele>-95.400001525879</ele>
        <time>2021-08-26T08:38:11.000Z</time>
      </trkpt>
      <trkpt lat="47.37324" lon="-2.38303">
        <ele>-95.400001525879</ele>
        <time>2021-08-26T08:38:16.000Z</time>
      </trkpt>
      <trkpt lat="47.37285" lon="-2.3833">
        <ele>-95.400001525879</ele>
        <time>2021-08-26T08:38:23.000Z</time>
      </trkpt>
      <trkpt lat="47.37237" lon="-2.38357">
        <ele>-95.400001525879</ele>
        <time>2021-08-26T08:38:31.000Z</time>
      </trkpt>
      <trkpt lat="47.37208" lon="-2.38362">
        <ele>-95.400001525879</ele>
        <time>2021-08-26T08:38:36.000Z</time>
      </trkpt>
      <trkpt lat="47.37164" lon="-2.38366">
        <ele>-95.400001525879</ele>
        <time>2021-08-26T08:38:43.000Z</time>
      </trkpt>
      <trkpt lat="47.37151" lon="-2.38369">
        <ele>-95.800003051758</ele>
        <time>2021-08-26T08:38:45.000Z</time>
      </trkpt>
      <trkpt lat="47.37145" lon="-2.38372">
        <ele>-96.199996948242</ele>
        <time>2021-08-26T08:38:46.000Z</time>
      </trkpt>
      <trkpt lat="47.37139" lon="-2.38374">
        <ele>-96.599998474121</ele>
        <time>2021-08-26T08:38:47.000Z</time>
      </trkpt>
      <trkpt lat="47.37133" lon="-2.38376">
        <ele>-97</ele>
        <time>2021-08-26T08:38:48.000Z</time>
      </trkpt>
      <trkpt lat="47.37128" lon="-2.38378">
        <ele>-97.400001525879</ele>
        <time>2021-08-26T08:38:49.000Z</time>
      </trkpt>
      <trkpt lat="47.37115" lon="-2.38384">
        <ele>-97.400001525879</ele>
        <time>2021-08-26T08:38:51.000Z</time>
      </trkpt>
      <trkpt lat="47.37103" lon="-2.38392">
        <ele>-97.400001525879</ele>
        <time>2021-08-26T08:38:53.000Z</time>
      </trkpt>
      <trkpt lat="47.37082" lon="-2.38407">
        <ele>-97.800003051758</ele>
        <time>2021-08-26T08:38:57.000Z</time>
      </trkpt>
      <trkpt lat="47.3708" lon="-2.38409">
        <ele>-98.400001525879</ele>
        <time>2021-08-26T08:38:58.000Z</time>
      </trkpt>
      <trkpt lat="47.37078" lon="-2.3841">
        <ele>-98.800003051758</ele>
        <time>2021-08-26T08:38:59.000Z</time>
      </trkpt>
      <trkpt lat="47.37077" lon="-2.38411">
        <ele>-99.199996948242</ele>
        <time>2021-08-26T08:39:00.000Z</time>
      </trkpt>
      <trkpt lat="47.37075" lon="-2.38413">
        <ele>-99.800003051758</ele>
        <time>2021-08-26T08:39:01.000Z</time>
      </trkpt>
      <trkpt lat="47.3707" lon="-2.38423">
        <ele>-99.800003051758</ele>
        <time>2021-08-26T08:39:04.000Z</time>
      </trkpt>
      <trkpt lat="47.37058" lon="-2.38453">
        <ele>-99.800003051758</ele>
        <time>2021-08-26T08:39:10.000Z</time>
      </trkpt>
      <trkpt lat="47.37057" lon="-2.38461">
        <ele>-99.800003051758</ele>
        <time>2021-08-26T08:39:12.000Z</time>
      </trkpt>
      <trkpt lat="47.37058" lon="-2.38467">
        <ele>-99.800003051758</ele>
        <time>2021-08-26T08:39:14.000Z</time>
      </trkpt>
      <trkpt lat="47.37067" lon="-2.38472">
        <ele>-99.800003051758</ele>
        <time>2021-08-26T08:39:18.000Z</time>
      </trkpt>
      <trkpt lat="47.37084" lon="-2.38483">
        <ele>-99.800003051758</ele>
        <time>2021-08-26T08:39:24.000Z</time>
      </trkpt>
      <trkpt lat="47.37107" lon="-2.38499">
        <ele>-99.400001525879</ele>
        <time>2021-08-26T08:39:30.000Z</time>
      </trkpt>
      <trkpt lat="47.37111" lon="-2.38502">
        <ele>-98.800003051758</ele>
        <time>2021-08-26T08:39:31.000Z</time>
      </trkpt>
      <trkpt lat="47.37115" lon="-2.38505">
        <ele>-98.400001525879</ele>
        <time>2021-08-26T08:39:32.000Z</time>
      </trkpt>
      <trkpt lat="47.37119" lon="-2.38507">
        <ele>-98</ele>
        <time>2021-08-26T08:39:33.000Z</time>
      </trkpt>
      <trkpt lat="47.37123" lon="-2.38511">
        <ele>-97.599998474121</ele>
        <time>2021-08-26T08:39:34.000Z</time>
      </trkpt>
      <trkpt lat="47.37145" lon="-2.38529">
        <ele>-97.599998474121</ele>
        <time>2021-08-26T08:39:40.000Z</time>
      </trkpt>
      <trkpt lat="47.37164" lon="-2.38558">
        <ele>-97.199996948242</ele>
        <time>2021-08-26T08:39:46.000Z</time>
      </trkpt>
      <trkpt lat="47.37167" lon="-2.38564">
        <ele>-96.800003051758</ele>
        <time>2021-08-26T08:39:47.000Z</time>
      </trkpt>
      <trkpt lat="47.3717" lon="-2.3857">
        <ele>-96.400001525879</ele>
        <time>2021-08-26T08:39:48.000Z</time>
      </trkpt>
      <trkpt lat="47.37173" lon="-2.38577">
        <ele>-95.800003051758</ele>
        <time>2021-08-26T08:39:49.000Z</time>
      </trkpt>
      <trkpt lat="47.37176" lon="-2.38583">
        <ele>-95.400001525879</ele>
        <time>2021-08-26T08:39:50.000Z</time>
      </trkpt>
      <trkpt lat="47.37186" lon="-2.38609">
        <ele>-95.400001525879</ele>
        <time>2021-08-26T08:39:54.000Z</time>
      </trkpt>
      <trkpt lat="47.37207" lon="-2.38664">
        <ele>-95.400001525879</ele>
        <time>2021-08-26T08:40:02.000Z</time>
      </trkpt>
      <trkpt lat="47.37227" lon="-2.3871">
        <ele>-95.400001525879</ele>
        <time>2021-08-26T08:40:09.000Z</time>
      </trkpt>
      <trkpt lat="47.37246" lon="-2.3876">
        <ele>-95.400001525879</ele>
        <time>2021-08-26T08:40:16.000Z</time>
      </trkpt>
      <trkpt lat="47.37267" lon="-2.38818">
        <ele>-95.400001525879</ele>
        <time>2021-08-26T08:40:24.000Z</time>
      </trkpt>
      <trkpt lat="47.37271" lon="-2.38833">
        <ele>-95</ele>
        <time>2021-08-26T08:40:26.000Z</time>
      </trkpt>
      <trkpt lat="47.37273" lon="-2.38841">
        <ele>-94.599998474121</ele>
        <time>2021-08-26T08:40:27.000Z</time>
      </trkpt>
      <trkpt lat="47.37275" lon="-2.38848">
        <ele>-94.199996948242</ele>
        <time>2021-08-26T08:40:28.000Z</time>
      </trkpt>
      <trkpt lat="47.37278" lon="-2.38855">
        <ele>-93.800003051758</ele>
        <time>2021-08-26T08:40:29.000Z</time>
      </trkpt>
      <trkpt lat="47.3728" lon="-2.38862">
        <ele>-93.400001525879</ele>
        <time>2021-08-26T08:40:30.000Z</time>
      </trkpt>
      <trkpt lat="47.37286" lon="-2.38884">
        <ele>-93.400001525879</ele>
        <time>2021-08-26T08:40:33.000Z</time>
      </trkpt>
      <trkpt lat="47.37303" lon="-2.38951">
        <ele>-93.400001525879</ele>
        <time>2021-08-26T08:40:42.000Z</time>
      </trkpt>
      <trkpt lat="47.3731" lon="-2.39001">
        <ele>-93.400001525879</ele>
        <time>2021-08-26T08:40:48.000Z</time>
      </trkpt>
      <trkpt lat="47.37315" lon="-2.39043">
        <ele>-93.400001525879</ele>
        <time>2021-08-26T08:40:53.000Z</time>
      </trkpt>
      <trkpt lat="47.37316" lon="-2.39059">
        <ele>-93.400001525879</ele>
        <time>2021-08-26T08:40:55.000Z</time>
      </trkpt>
      <trkpt lat="47.37317" lon="-2.39091">
        <ele>-93</ele>
        <time>2021-08-26T08:40:59.000Z</time>
      </trkpt>
      <trkpt lat="47.37318" lon="-2.39099">
        <ele>-92.599998474121</ele>
        <time>2021-08-26T08:41:00.000Z</time>
      </trkpt>
      <trkpt lat="47.37318" lon="-2.39106">
        <ele>-92</ele>
        <time>2021-08-26T08:41:01.000Z</time>
      </trkpt>
      <trkpt lat="47.37318" lon="-2.39114">
        <ele>-91.599998474121</ele>
        <time>2021-08-26T08:41:02.000Z</time>
      </trkpt>
      <trkpt lat="47.37318" lon="-2.3912">
        <ele>-91.199996948242</ele>
        <time>2021-08-26T08:41:03.000Z</time>
      </trkpt>
      <trkpt lat="47.3732" lon="-2.39145">
        <ele>-91.199996948242</ele>
        <time>2021-08-26T08:41:07.000Z</time>
      </trkpt>
      <trkpt lat="47.37318" lon="-2.39151">
        <ele>-91.199996948242</ele>
        <time>2021-08-26T08:41:10.000Z</time>
      </trkpt>
      <trkpt lat="47.37318" lon="-2.39147">
        <ele>-91.199996948242</ele>
        <time>2021-08-26T08:41:13.000Z</time>
      </trkpt>
      <trkpt lat="47.37319" lon="-2.39144">
        <ele>-91.199996948242</ele>
        <time>2021-08-26T08:41:14.000Z</time>
      </trkpt>
      <trkpt lat="47.37322" lon="-2.39142">
        <ele>-91.199996948242</ele>
        <time>2021-08-26T08:41:18.000Z</time>
      </trkpt>
      <trkpt lat="47.37319" lon="-2.39144">
        <ele>-91.199996948242</ele>
        <time>2021-08-26T08:41:52.000Z</time>
      </trkpt>
      <trkpt lat="47.37317" lon="-2.39151">
        <ele>-91.199996948242</ele>
        <time>2021-08-26T08:41:54.000Z</time>
      </trkpt>
      <trkpt lat="47.37306" lon="-2.39169">
        <ele>-91.199996948242</ele>
        <time>2021-08-26T08:41:58.000Z</time>
      </trkpt>
      <trkpt lat="47.37301" lon="-2.39173">
        <ele>-91.199996948242</ele>
        <time>2021-08-26T08:41:59.000Z</time>
      </trkpt>
      <trkpt lat="47.37276" lon="-2.39196">
        <ele>-91.199996948242</ele>
        <time>2021-08-26T08:42:04.000Z</time>
      </trkpt>
      <trkpt lat="47.37244" lon="-2.39226">
        <ele>-91.199996948242</ele>
        <time>2021-08-26T08:42:10.000Z</time>
      </trkpt>
      <trkpt lat="47.37239" lon="-2.3923">
        <ele>-91.199996948242</ele>
        <time>2021-08-26T08:42:11.000Z</time>
      </trkpt>
      <trkpt lat="47.37208" lon="-2.39257">
        <ele>-91.199996948242</ele>
        <time>2021-08-26T08:42:17.000Z</time>
      </trkpt>
      <trkpt lat="47.37197" lon="-2.39266">
        <ele>-91.199996948242</ele>
        <time>2021-08-26T08:42:19.000Z</time>
      </trkpt>
      <trkpt lat="47.37167" lon="-2.39295">
        <ele>-91.199996948242</ele>
        <time>2021-08-26T08:42:25.000Z</time>
      </trkpt>
      <trkpt lat="47.37134" lon="-2.39327">
        <ele>-91.199996948242</ele>
        <time>2021-08-26T08:42:32.000Z</time>
      </trkpt>
      <trkpt lat="47.37106" lon="-2.39353">
        <ele>-91.199996948242</ele>
        <time>2021-08-26T08:42:38.000Z</time>
      </trkpt>
      <trkpt lat="47.37084" lon="-2.39374">
        <ele>-91.199996948242</ele>
        <time>2021-08-26T08:42:43.000Z</time>
      </trkpt>
      <trkpt lat="47.3705" lon="-2.39406">
        <ele>-91.199996948242</ele>
        <time>2021-08-26T08:42:50.000Z</time>
      </trkpt>
      <trkpt lat="47.37032" lon="-2.39425">
        <ele>-91.199996948242</ele>
        <time>2021-08-26T08:42:54.000Z</time>
      </trkpt>
      <trkpt lat="47.37024" lon="-2.39436">
        <ele>-91.199996948242</ele>
        <time>2021-08-26T08:42:56.000Z</time>
      </trkpt>
      <trkpt lat="47.37001" lon="-2.39457">
        <ele>-91.199996948242</ele>
        <time>2021-08-26T08:43:01.000Z</time>
      </trkpt>
      <trkpt lat="47.36969" lon="-2.39486">
        <ele>-91.599998474121</ele>
        <time>2021-08-26T08:43:07.000Z</time>
      </trkpt>
      <trkpt lat="47.36963" lon="-2.39491">
        <ele>-92</ele>
        <time>2021-08-26T08:43:08.000Z</time>
      </trkpt>
      <trkpt lat="47.36958" lon="-2.39496">
        <ele>-92.400001525879</ele>
        <time>2021-08-26T08:43:09.000Z</time>
      </trkpt>
      <trkpt lat="47.36953" lon="-2.39501">
        <ele>-92.800003051758</ele>
        <time>2021-08-26T08:43:10.000Z</time>
      </trkpt>
      <trkpt lat="47.36948" lon="-2.39507">
        <ele>-93.199996948242</ele>
        <time>2021-08-26T08:43:11.000Z</time>
      </trkpt>
      <trkpt lat="47.36938" lon="-2.39519">
        <ele>-93.199996948242</ele>
        <time>2021-08-26T08:43:13.000Z</time>
      </trkpt>
      <trkpt lat="47.36913" lon="-2.39554">
        <ele>-93.599998474121</ele>
        <time>2021-08-26T08:43:18.000Z</time>
      </trkpt>
      <trkpt lat="47.36908" lon="-2.39561">
        <ele>-94.199996948242</ele>
        <time>2021-08-26T08:43:19.000Z</time>
      </trkpt>
      <trkpt lat="47.36904" lon="-2.39568">
        <ele>-94.599998474121</ele>
        <time>2021-08-26T08:43:20.000Z</time>
      </trkpt>
      <trkpt lat="47.36898" lon="-2.39574">
        <ele>-95</ele>
        <time>2021-08-26T08:43:21.000Z</time>
      </trkpt>
      <trkpt lat="47.36893" lon="-2.39581">
        <ele>-95.400001525879</ele>
        <time>2021-08-26T08:43:22.000Z</time>
      </trkpt>
      <trkpt lat="47.36888" lon="-2.39587">
        <ele>-95.400001525879</ele>
        <time>2021-08-26T08:43:23.000Z</time>
      </trkpt>
      <trkpt lat="47.36877" lon="-2.39598">
        <ele>-95.400001525879</ele>
        <time>2021-08-26T08:43:25.000Z</time>
      </trkpt>
      <trkpt lat="47.3685" lon="-2.39627">
        <ele>-95.400001525879</ele>
        <time>2021-08-26T08:43:30.000Z</time>
      </trkpt>
      <trkpt lat="47.36818" lon="-2.3966">
        <ele>-95.400001525879</ele>
        <time>2021-08-26T08:43:36.000Z</time>
      </trkpt>
      <trkpt lat="47.36786" lon="-2.39694">
        <ele>-95.400001525879</ele>
        <time>2021-08-26T08:43:42.000Z</time>
      </trkpt>
      <trkpt lat="47.36776" lon="-2.39703">
        <ele>-95.800003051758</ele>
        <time>2021-08-26T08:43:44.000Z</time>
      </trkpt>
      <trkpt lat="47.36771" lon="-2.39707">
        <ele>-96.199996948242</ele>
        <time>2021-08-26T08:43:45.000Z</time>
      </trkpt>
      <trkpt lat="47.36766" lon="-2.39712">
        <ele>-96.599998474121</ele>
        <time>2021-08-26T08:43:46.000Z</time>
      </trkpt>
      <trkpt lat="47.36762" lon="-2.39716">
        <ele>-97</ele>
        <time>2021-08-26T08:43:47.000Z</time>
      </trkpt>
      <trkpt lat="47.36757" lon="-2.3972">
        <ele>-97.400001525879</ele>
        <time>2021-08-26T08:43:48.000Z</time>
      </trkpt>
      <trkpt lat="47.36736" lon="-2.39735">
        <ele>-97.400001525879</ele>
        <time>2021-08-26T08:43:52.000Z</time>
      </trkpt>
      <trkpt lat="47.3673" lon="-2.39737">
        <ele>-97.400001525879</ele>
        <time>2021-08-26T08:43:53.000Z</time>
      </trkpt>
      <trkpt lat="47.36717" lon="-2.39748">
        <ele>-97.400001525879</ele>
        <time>2021-08-26T08:43:56.000Z</time>
      </trkpt>
      <trkpt lat="47.3671" lon="-2.39756">
        <ele>-97.800003051758</ele>
        <time>2021-08-26T08:43:58.000Z</time>
      </trkpt>
      <trkpt lat="47.36707" lon="-2.3976">
        <ele>-98.199996948242</ele>
        <time>2021-08-26T08:43:59.000Z</time>
      </trkpt>
      <trkpt lat="47.36705" lon="-2.39763">
        <ele>-98.599998474121</ele>
        <time>2021-08-26T08:44:00.000Z</time>
      </trkpt>
      <trkpt lat="47.36703" lon="-2.39766">
        <ele>-99</ele>
        <time>2021-08-26T08:44:01.000Z</time>
      </trkpt>
      <trkpt lat="47.36701" lon="-2.39769">
        <ele>-99.400001525879</ele>
        <time>2021-08-26T08:44:02.000Z</time>
      </trkpt>
      <trkpt lat="47.3669" lon="-2.39795">
        <ele>-99.400001525879</ele>
        <time>2021-08-26T08:44:08.000Z</time>
      </trkpt>
      <trkpt lat="47.36682" lon="-2.39815">
        <ele>-99.400001525879</ele>
        <time>2021-08-26T08:44:12.000Z</time>
      </trkpt>
      <trkpt lat="47.36675" lon="-2.39823">
        <ele>-99.400001525879</ele>
        <time>2021-08-26T08:44:14.000Z</time>
      </trkpt>
      <trkpt lat="47.36667" lon="-2.39829">
        <ele>-99.400001525879</ele>
        <time>2021-08-26T08:44:16.000Z</time>
      </trkpt>
      <trkpt lat="47.36648" lon="-2.39842">
        <ele>-99.400001525879</ele>
        <time>2021-08-26T08:44:20.000Z</time>
      </trkpt>
      <trkpt lat="47.36639" lon="-2.39848">
        <ele>-99</ele>
        <time>2021-08-26T08:44:22.000Z</time>
      </trkpt>
      <trkpt lat="47.36634" lon="-2.39852">
        <ele>-98.599998474121</ele>
        <time>2021-08-26T08:44:23.000Z</time>
      </trkpt>
      <trkpt lat="47.3663" lon="-2.39856">
        <ele>-98.199996948242</ele>
        <time>2021-08-26T08:44:24.000Z</time>
      </trkpt>
      <trkpt lat="47.36626" lon="-2.3986">
        <ele>-97.800003051758</ele>
        <time>2021-08-26T08:44:25.000Z</time>
      </trkpt>
      <trkpt lat="47.36622" lon="-2.39865">
        <ele>-97.400001525879</ele>
        <time>2021-08-26T08:44:26.000Z</time>
      </trkpt>
      <trkpt lat="47.36601" lon="-2.39894">
        <ele>-97.400001525879</ele>
        <time>2021-08-26T08:44:32.000Z</time>
      </trkpt>
      <trkpt lat="47.36594" lon="-2.39905">
        <ele>-97.400001525879</ele>
        <time>2021-08-26T08:44:34.000Z</time>
      </trkpt>
      <trkpt lat="47.36589" lon="-2.39916">
        <ele>-97.400001525879</ele>
        <time>2021-08-26T08:44:36.000Z</time>
      </trkpt>
      <trkpt lat="47.36586" lon="-2.39922">
        <ele>-97.400001525879</ele>
        <time>2021-08-26T08:44:37.000Z</time>
      </trkpt>
      <trkpt lat="47.36582" lon="-2.39926">
        <ele>-97.400001525879</ele>
        <time>2021-08-26T08:44:38.000Z</time>
      </trkpt>
      <trkpt lat="47.36566" lon="-2.39951">
        <ele>-97.400001525879</ele>
        <time>2021-08-26T08:44:43.000Z</time>
      </trkpt>
      <trkpt lat="47.36541" lon="-2.3998">
        <ele>-97.400001525879</ele>
        <time>2021-08-26T08:44:49.000Z</time>
      </trkpt>
      <trkpt lat="47.36506" lon="-2.40016">
        <ele>-97.400001525879</ele>
        <time>2021-08-26T08:44:57.000Z</time>
      </trkpt>
      <trkpt lat="47.3648" lon="-2.4004">
        <ele>-97.400001525879</ele>
        <time>2021-08-26T08:45:03.000Z</time>
      </trkpt>
      <trkpt lat="47.36461" lon="-2.40054">
        <ele>-97.400001525879</ele>
        <time>2021-08-26T08:45:07.000Z</time>
      </trkpt>
      <trkpt lat="47.36455" lon="-2.40056">
        <ele>-97.400001525879</ele>
        <time>2021-08-26T08:45:08.000Z</time>
      </trkpt>
      <trkpt lat="47.36423" lon="-2.40066">
        <ele>-97.400001525879</ele>
        <time>2021-08-26T08:45:14.000Z</time>
      </trkpt>
      <trkpt lat="47.36405" lon="-2.40073">
        <ele>-97</ele>
        <time>2021-08-26T08:45:17.000Z</time>
      </trkpt>
      <trkpt lat="47.364" lon="-2.40074">
        <ele>-96.599998474121</ele>
        <time>2021-08-26T08:45:18.000Z</time>
      </trkpt>
      <trkpt lat="47.36395" lon="-2.40076">
        <ele>-96.199996948242</ele>
        <time>2021-08-26T08:45:19.000Z</time>
      </trkpt>
      <trkpt lat="47.36389" lon="-2.40078">
        <ele>-95.599998474121</ele>
        <time>2021-08-26T08:45:20.000Z</time>
      </trkpt>
      <trkpt lat="47.36384" lon="-2.40079">
        <ele>-95.199996948242</ele>
        <time>2021-08-26T08:45:21.000Z</time>
      </trkpt>
      <trkpt lat="47.36348" lon="-2.40092">
        <ele>-95.199996948242</ele>
        <time>2021-08-26T08:45:28.000Z</time>
      </trkpt>
      <trkpt lat="47.36319" lon="-2.40106">
        <ele>-95.199996948242</ele>
        <time>2021-08-26T08:45:34.000Z</time>
      </trkpt>
      <trkpt lat="47.36279" lon="-2.40123">
        <ele>-95.199996948242</ele>
        <time>2021-08-26T08:45:42.000Z</time>
      </trkpt>
      <trkpt lat="47.36254" lon="-2.40134">
        <ele>-95.199996948242</ele>
        <time>2021-08-26T08:45:47.000Z</time>
      </trkpt>
      <trkpt lat="47.36249" lon="-2.40137">
        <ele>-95.199996948242</ele>
        <time>2021-08-26T08:45:48.000Z</time>
      </trkpt>
      <trkpt lat="47.3624" lon="-2.40143">
        <ele>-95.199996948242</ele>
        <time>2021-08-26T08:45:50.000Z</time>
      </trkpt>
      <trkpt lat="47.36231" lon="-2.4015">
        <ele>-95.199996948242</ele>
        <time>2021-08-26T08:45:52.000Z</time>
      </trkpt>
      <trkpt lat="47.36199" lon="-2.40181">
        <ele>-95.199996948242</ele>
        <time>2021-08-26T08:46:00.000Z</time>
      </trkpt>
      <trkpt lat="47.36179" lon="-2.40199">
        <ele>-95.199996948242</ele>
        <time>2021-08-26T08:46:06.000Z</time>
      </trkpt>
      <trkpt lat="47.36175" lon="-2.40201">
        <ele>-95.199996948242</ele>
        <time>2021-08-26T08:46:07.000Z</time>
      </trkpt>
      <trkpt lat="47.36171" lon="-2.40204">
        <ele>-95.199996948242</ele>
        <time>2021-08-26T08:46:08.000Z</time>
      </trkpt>
      <trkpt lat="47.36159" lon="-2.40215">
        <ele>-95.199996948242</ele>
        <time>2021-08-26T08:46:11.000Z</time>
      </trkpt>
      <trkpt lat="47.36154" lon="-2.40218">
        <ele>-95.199996948242</ele>
        <time>2021-08-26T08:46:12.000Z</time>
      </trkpt>
      <trkpt lat="47.36134" lon="-2.40235">
        <ele>-95.199996948242</ele>
        <time>2021-08-26T08:46:17.000Z</time>
      </trkpt>
      <trkpt lat="47.36098" lon="-2.40266">
        <ele>-95.199996948242</ele>
        <time>2021-08-26T08:46:25.000Z</time>
      </trkpt>
      <trkpt lat="47.36062" lon="-2.40295">
        <ele>-95.199996948242</ele>
        <time>2021-08-26T08:46:32.000Z</time>
      </trkpt>
      <trkpt lat="47.36048" lon="-2.40311">
        <ele>-95.199996948242</ele>
        <time>2021-08-26T08:46:35.000Z</time>
      </trkpt>
      <trkpt lat="47.3604" lon="-2.40322">
        <ele>-95.199996948242</ele>
        <time>2021-08-26T08:46:37.000Z</time>
      </trkpt>
      <trkpt lat="47.36037" lon="-2.40329">
        <ele>-95.199996948242</ele>
        <time>2021-08-26T08:46:38.000Z</time>
      </trkpt>
      <trkpt lat="47.36029" lon="-2.40353">
        <ele>-95.199996948242</ele>
        <time>2021-08-26T08:46:41.000Z</time>
      </trkpt>
      <trkpt lat="47.36027" lon="-2.40378">
        <ele>-95.199996948242</ele>
        <time>2021-08-26T08:46:44.000Z</time>
      </trkpt>
      <trkpt lat="47.36027" lon="-2.40387">
        <ele>-95.199996948242</ele>
        <time>2021-08-26T08:46:45.000Z</time>
      </trkpt>
      <trkpt lat="47.36026" lon="-2.4042">
        <ele>-95.199996948242</ele>
        <time>2021-08-26T08:46:49.000Z</time>
      </trkpt>
      <trkpt lat="47.36024" lon="-2.40428">
        <ele>-95.199996948242</ele>
        <time>2021-08-26T08:46:50.000Z</time>
      </trkpt>
      <trkpt lat="47.3601" lon="-2.40453">
        <ele>-95.199996948242</ele>
        <time>2021-08-26T08:46:54.000Z</time>
      </trkpt>
      <trkpt lat="47.36005" lon="-2.40458">
        <ele>-95.199996948242</ele>
        <time>2021-08-26T08:46:55.000Z</time>
      </trkpt>
      <trkpt lat="47.3598" lon="-2.40485">
        <ele>-95.199996948242</ele>
        <time>2021-08-26T08:47:01.000Z</time>
      </trkpt>
      <trkpt lat="47.35964" lon="-2.40507">
        <ele>-95.199996948242</ele>
        <time>2021-08-26T08:47:06.000Z</time>
      </trkpt>
      <trkpt lat="47.35941" lon="-2.40544">
        <ele>-95.199996948242</ele>
        <time>2021-08-26T08:47:13.000Z</time>
      </trkpt>
      <trkpt lat="47.35937" lon="-2.40548">
        <ele>-95.199996948242</ele>
        <time>2021-08-26T08:47:14.000Z</time>
      </trkpt>
      <trkpt lat="47.35915" lon="-2.40578">
        <ele>-95.199996948242</ele>
        <time>2021-08-26T08:47:21.000Z</time>
      </trkpt>
      <trkpt lat="47.35893" lon="-2.40616">
        <ele>-95.199996948242</ele>
        <time>2021-08-26T08:47:28.000Z</time>
      </trkpt>
      <trkpt lat="47.35872" lon="-2.40657">
        <ele>-95.199996948242</ele>
        <time>2021-08-26T08:47:35.000Z</time>
      </trkpt>
      <trkpt lat="47.3587" lon="-2.40662">
        <ele>-95.199996948242</ele>
        <time>2021-08-26T08:47:36.000Z</time>
      </trkpt>
      <trkpt lat="47.35859" lon="-2.40684">
        <ele>-95.199996948242</ele>
        <time>2021-08-26T08:47:40.000Z</time>
      </trkpt>
      <trkpt lat="47.35857" lon="-2.40694">
        <ele>-95.199996948242</ele>
        <time>2021-08-26T08:47:42.000Z</time>
      </trkpt>
      <trkpt lat="47.35856" lon="-2.40707">
        <ele>-95.199996948242</ele>
        <time>2021-08-26T08:47:46.000Z</time>
      </trkpt>
      <trkpt lat="47.35855" lon="-2.4073">
        <ele>-95.199996948242</ele>
        <time>2021-08-26T08:47:52.000Z</time>
      </trkpt>
      <trkpt lat="47.35846" lon="-2.40748">
        <ele>-95.199996948242</ele>
        <time>2021-08-26T08:47:56.000Z</time>
      </trkpt>
      <trkpt lat="47.3584" lon="-2.40757">
        <ele>-95.199996948242</ele>
        <time>2021-08-26T08:47:58.000Z</time>
      </trkpt>
      <trkpt lat="47.3583" lon="-2.40772">
        <ele>-95.199996948242</ele>
        <time>2021-08-26T08:48:01.000Z</time>
      </trkpt>
      <trkpt lat="47.3581" lon="-2.40804">
        <ele>-95.199996948242</ele>
        <time>2021-08-26T08:48:07.000Z</time>
      </trkpt>
      <trkpt lat="47.35802" lon="-2.40814">
        <ele>-95.199996948242</ele>
        <time>2021-08-26T08:48:09.000Z</time>
      </trkpt>
      <trkpt lat="47.35778" lon="-2.40849">
        <ele>-95.199996948242</ele>
        <time>2021-08-26T08:48:16.000Z</time>
      </trkpt>
      <trkpt lat="47.35753" lon="-2.40884">
        <ele>-95.199996948242</ele>
        <time>2021-08-26T08:48:23.000Z</time>
      </trkpt>
      <trkpt lat="47.35738" lon="-2.40904">
        <ele>-95.199996948242</ele>
        <time>2021-08-26T08:48:27.000Z</time>
      </trkpt>
      <trkpt lat="47.35732" lon="-2.40913">
        <ele>-95.199996948242</ele>
        <time>2021-08-26T08:48:29.000Z</time>
      </trkpt>
      <trkpt lat="47.35725" lon="-2.40921">
        <ele>-95.199996948242</ele>
        <time>2021-08-26T08:48:31.000Z</time>
      </trkpt>
      <trkpt lat="47.35718" lon="-2.40931">
        <ele>-95.199996948242</ele>
        <time>2021-08-26T08:48:33.000Z</time>
      </trkpt>
      <trkpt lat="47.35693" lon="-2.40971">
        <ele>-95.199996948242</ele>
        <time>2021-08-26T08:48:41.000Z</time>
      </trkpt>
      <trkpt lat="47.35689" lon="-2.40975">
        <ele>-95.199996948242</ele>
        <time>2021-08-26T08:48:42.000Z</time>
      </trkpt>
      <trkpt lat="47.35676" lon="-2.40993">
        <ele>-95.199996948242</ele>
        <time>2021-08-26T08:48:46.000Z</time>
      </trkpt>
      <trkpt lat="47.35647" lon="-2.41033">
        <ele>-95.199996948242</ele>
        <time>2021-08-26T08:48:54.000Z</time>
      </trkpt>
      <trkpt lat="47.35636" lon="-2.41047">
        <ele>-95.199996948242</ele>
        <time>2021-08-26T08:48:57.000Z</time>
      </trkpt>
      <trkpt lat="47.35624" lon="-2.4106">
        <ele>-95.199996948242</ele>
        <time>2021-08-26T08:49:00.000Z</time>
      </trkpt>
      <trkpt lat="47.35597" lon="-2.41089">
        <ele>-95.199996948242</ele>
        <time>2021-08-26T08:49:08.000Z</time>
      </trkpt>
      <trkpt lat="47.35587" lon="-2.41101">
        <ele>-95.199996948242</ele>
        <time>2021-08-26T08:49:14.000Z</time>
      </trkpt>
      <trkpt lat="47.35587" lon="-2.41101">
        <ele>-95.199996948242</ele>
        <time>2021-08-26T08:49:15.000Z</time>
      </trkpt>
      <trkpt lat="47.35577" lon="-2.4111">
        <ele>-95.199996948242</ele>
        <time>2021-08-26T09:02:15.000Z</time>
      </trkpt>
      <trkpt lat="47.35575" lon="-2.41114">
        <ele>-95.199996948242</ele>
        <time>2021-08-26T09:02:17.000Z</time>
      </trkpt>
      <trkpt lat="47.35565" lon="-2.41122">
        <ele>-95.199996948242</ele>
        <time>2021-08-26T09:02:22.000Z</time>
      </trkpt>
      <trkpt lat="47.3555" lon="-2.41135">
        <ele>-95.199996948242</ele>
        <time>2021-08-26T09:02:27.000Z</time>
      </trkpt>
      <trkpt lat="47.35526" lon="-2.41156">
        <ele>-95.199996948242</ele>
        <time>2021-08-26T09:02:32.000Z</time>
      </trkpt>
      <trkpt lat="47.35487" lon="-2.41188">
        <ele>-95.199996948242</ele>
        <time>2021-08-26T09:02:39.000Z</time>
      </trkpt>
      <trkpt lat="47.35462" lon="-2.41207">
        <ele>-95.199996948242</ele>
        <time>2021-08-26T09:02:43.000Z</time>
      </trkpt>
      <trkpt lat="47.35453" lon="-2.41218">
        <ele>-95.199996948242</ele>
        <time>2021-08-26T09:02:45.000Z</time>
      </trkpt>
      <trkpt lat="47.35424" lon="-2.41261">
        <ele>-95.199996948242</ele>
        <time>2021-08-26T09:02:51.000Z</time>
      </trkpt>
      <trkpt lat="47.35414" lon="-2.4127">
        <ele>-95.199996948242</ele>
        <time>2021-08-26T09:02:53.000Z</time>
      </trkpt>
      <trkpt lat="47.35391" lon="-2.41286">
        <ele>-95.199996948242</ele>
        <time>2021-08-26T09:02:57.000Z</time>
      </trkpt>
      <trkpt lat="47.35382" lon="-2.41297">
        <ele>-95.199996948242</ele>
        <time>2021-08-26T09:02:59.000Z</time>
      </trkpt>
      <trkpt lat="47.3537" lon="-2.41313">
        <ele>-95.199996948242</ele>
        <time>2021-08-26T09:03:02.000Z</time>
      </trkpt>
      <trkpt lat="47.35337" lon="-2.41357">
        <ele>-95.199996948242</ele>
        <time>2021-08-26T09:03:09.000Z</time>
      </trkpt>
      <trkpt lat="47.35312" lon="-2.41398">
        <ele>-95.199996948242</ele>
        <time>2021-08-26T09:03:15.000Z</time>
      </trkpt>
      <trkpt lat="47.353" lon="-2.41417">
        <ele>-95.199996948242</ele>
        <time>2021-08-26T09:03:18.000Z</time>
      </trkpt>
      <trkpt lat="47.35292" lon="-2.41428">
        <ele>-95.199996948242</ele>
        <time>2021-08-26T09:03:20.000Z</time>
      </trkpt>
      <trkpt lat="47.35282" lon="-2.41437">
        <ele>-95.199996948242</ele>
        <time>2021-08-26T09:03:22.000Z</time>
      </trkpt>
      <trkpt lat="47.35259" lon="-2.41447">
        <ele>-95.199996948242</ele>
        <time>2021-08-26T09:03:26.000Z</time>
      </trkpt>
      <trkpt lat="47.35253" lon="-2.41445">
        <ele>-95.199996948242</ele>
        <time>2021-08-26T09:03:27.000Z</time>
      </trkpt>
      <trkpt lat="47.3524" lon="-2.41432">
        <ele>-95.199996948242</ele>
        <time>2021-08-26T09:03:30.000Z</time>
      </trkpt>
      <trkpt lat="47.35232" lon="-2.41417">
        <ele>-95.199996948242</ele>
        <time>2021-08-26T09:03:32.000Z</time>
      </trkpt>
      <trkpt lat="47.35224" lon="-2.41403">
        <ele>-95.199996948242</ele>
        <time>2021-08-26T09:03:34.000Z</time>
      </trkpt>
      <trkpt lat="47.35198" lon="-2.41363">
        <ele>-95.199996948242</ele>
        <time>2021-08-26T09:03:40.000Z</time>
      </trkpt>
      <trkpt lat="47.35194" lon="-2.41358">
        <ele>-95.199996948242</ele>
        <time>2021-08-26T09:03:41.000Z</time>
      </trkpt>
      <trkpt lat="47.35189" lon="-2.41353">
        <ele>-95.199996948242</ele>
        <time>2021-08-26T09:03:42.000Z</time>
      </trkpt>
      <trkpt lat="47.35176" lon="-2.41353">
        <ele>-95.199996948242</ele>
        <time>2021-08-26T09:03:44.000Z</time>
      </trkpt>
      <trkpt lat="47.35165" lon="-2.41357">
        <ele>-95.199996948242</ele>
        <time>2021-08-26T09:03:46.000Z</time>
      </trkpt>
      <trkpt lat="47.35154" lon="-2.41362">
        <ele>-95.199996948242</ele>
        <time>2021-08-26T09:03:48.000Z</time>
      </trkpt>
      <trkpt lat="47.35149" lon="-2.41366">
        <ele>-95.199996948242</ele>
        <time>2021-08-26T09:03:49.000Z</time>
      </trkpt>
      <trkpt lat="47.35129" lon="-2.41382">
        <ele>-95.199996948242</ele>
        <time>2021-08-26T09:03:53.000Z</time>
      </trkpt>
      <trkpt lat="47.35119" lon="-2.41388">
        <ele>-95.199996948242</ele>
        <time>2021-08-26T09:03:55.000Z</time>
      </trkpt>
      <trkpt lat="47.3511" lon="-2.41394">
        <ele>-95.199996948242</ele>
        <time>2021-08-26T09:03:57.000Z</time>
      </trkpt>
      <trkpt lat="47.35105" lon="-2.41397">
        <ele>-95.199996948242</ele>
        <time>2021-08-26T09:03:58.000Z</time>
      </trkpt>
      <trkpt lat="47.35079" lon="-2.41413">
        <ele>-95.199996948242</ele>
        <time>2021-08-26T09:04:04.000Z</time>
      </trkpt>
      <trkpt lat="47.35069" lon="-2.41417">
        <ele>-95.199996948242</ele>
        <time>2021-08-26T09:04:08.000Z</time>
      </trkpt>
      <trkpt lat="47.35058" lon="-2.41423">
        <ele>-95.199996948242</ele>
        <time>2021-08-26T09:04:14.000Z</time>
      </trkpt>
      <trkpt lat="47.35045" lon="-2.41429">
        <ele>-95.199996948242</ele>
        <time>2021-08-26T09:04:20.000Z</time>
      </trkpt>
      <trkpt lat="47.35022" lon="-2.4144">
        <ele>-95.199996948242</ele>
        <time>2021-08-26T09:04:29.000Z</time>
      </trkpt>
      <trkpt lat="47.35003" lon="-2.41451">
        <ele>-95.199996948242</ele>
        <time>2021-08-26T09:04:36.000Z</time>
      </trkpt>
      <trkpt lat="47.34983" lon="-2.41458">
        <ele>-95.199996948242</ele>
        <time>2021-08-26T09:04:42.000Z</time>
      </trkpt>
      <trkpt lat="47.34966" lon="-2.41463">
        <ele>-95.199996948242</ele>
        <time>2021-08-26T09:04:47.000Z</time>
      </trkpt>
      <trkpt lat="47.34945" lon="-2.41471">
        <ele>-95.199996948242</ele>
        <time>2021-08-26T09:04:53.000Z</time>
      </trkpt>
      <trkpt lat="47.34922" lon="-2.41477">
        <ele>-95.199996948242</ele>
        <time>2021-08-26T09:04:59.000Z</time>
      </trkpt>
      <trkpt lat="47.34898" lon="-2.41484">
        <ele>-95.199996948242</ele>
        <time>2021-08-26T09:05:04.000Z</time>
      </trkpt>
      <trkpt lat="47.34856" lon="-2.41495">
        <ele>-95.199996948242</ele>
        <time>2021-08-26T09:05:12.000Z</time>
      </trkpt>
      <trkpt lat="47.34828" lon="-2.41502">
        <ele>-95.199996948242</ele>
        <time>2021-08-26T09:05:18.000Z</time>
      </trkpt>
      <trkpt lat="47.34791" lon="-2.41514">
        <ele>-95.199996948242</ele>
        <time>2021-08-26T09:05:25.000Z</time>
      </trkpt>
      <trkpt lat="47.3478" lon="-2.41517">
        <ele>-95.199996948242</ele>
        <time>2021-08-26T09:05:27.000Z</time>
      </trkpt>
      <trkpt lat="47.34757" lon="-2.41522">
        <ele>-95.199996948242</ele>
        <time>2021-08-26T09:05:31.000Z</time>
      </trkpt>
      <trkpt lat="47.34752" lon="-2.41523">
        <ele>-94.800003051758</ele>
        <time>2021-08-26T09:05:32.000Z</time>
      </trkpt>
      <trkpt lat="47.34747" lon="-2.41524">
        <ele>-94.199996948242</ele>
        <time>2021-08-26T09:05:33.000Z</time>
      </trkpt>
      <trkpt lat="47.34742" lon="-2.41526">
        <ele>-93.800003051758</ele>
        <time>2021-08-26T09:05:34.000Z</time>
      </trkpt>
      <trkpt lat="47.34738" lon="-2.41528">
        <ele>-93.400001525879</ele>
        <time>2021-08-26T09:05:35.000Z</time>
      </trkpt>
      <trkpt lat="47.34734" lon="-2.4153">
        <ele>-93</ele>
        <time>2021-08-26T09:05:36.000Z</time>
      </trkpt>
      <trkpt lat="47.34726" lon="-2.41532">
        <ele>-93</ele>
        <time>2021-08-26T09:05:38.000Z</time>
      </trkpt>
      <trkpt lat="47.34696" lon="-2.41541">
        <ele>-93</ele>
        <time>2021-08-26T09:05:45.000Z</time>
      </trkpt>
      <trkpt lat="47.3468" lon="-2.41547">
        <ele>-92.599998474121</ele>
        <time>2021-08-26T09:05:49.000Z</time>
      </trkpt>
      <trkpt lat="47.34675" lon="-2.41548">
        <ele>-92.199996948242</ele>
        <time>2021-08-26T09:05:50.000Z</time>
      </trkpt>
      <trkpt lat="47.3467" lon="-2.41549">
        <ele>-91.800003051758</ele>
        <time>2021-08-26T09:05:51.000Z</time>
      </trkpt>
      <trkpt lat="47.34665" lon="-2.41551">
        <ele>-91.400001525879</ele>
        <time>2021-08-26T09:05:52.000Z</time>
      </trkpt>
      <trkpt lat="47.3466" lon="-2.41552">
        <ele>-91</ele>
        <time>2021-08-26T09:05:53.000Z</time>
      </trkpt>
      <trkpt lat="47.34647" lon="-2.41557">
        <ele>-91</ele>
        <time>2021-08-26T09:05:56.000Z</time>
      </trkpt>
      <trkpt lat="47.34614" lon="-2.41569">
        <ele>-91</ele>
        <time>2021-08-26T09:06:02.000Z</time>
      </trkpt>
      <trkpt lat="47.34577" lon="-2.41586">
        <ele>-91</ele>
        <time>2021-08-26T09:06:09.000Z</time>
      </trkpt>
      <trkpt lat="47.34536" lon="-2.41601">
        <ele>-91</ele>
        <time>2021-08-26T09:06:17.000Z</time>
      </trkpt>
      <trkpt lat="47.34507" lon="-2.41611">
        <ele>-91</ele>
        <time>2021-08-26T09:06:23.000Z</time>
      </trkpt>
      <trkpt lat="47.34493" lon="-2.41617">
        <ele>-90.400001525879</ele>
        <time>2021-08-26T09:06:26.000Z</time>
      </trkpt>
      <trkpt lat="47.34488" lon="-2.41619">
        <ele>-89.599998474121</ele>
        <time>2021-08-26T09:06:27.000Z</time>
      </trkpt>
      <trkpt lat="47.34483" lon="-2.41622">
        <ele>-89.199996948242</ele>
        <time>2021-08-26T09:06:28.000Z</time>
      </trkpt>
      <trkpt lat="47.34479" lon="-2.41624">
        <ele>-88.800003051758</ele>
        <time>2021-08-26T09:06:29.000Z</time>
      </trkpt>
      <trkpt lat="47.34461" lon="-2.41635">
        <ele>-88.800003051758</ele>
        <time>2021-08-26T09:06:33.000Z</time>
      </trkpt>
      <trkpt lat="47.34457" lon="-2.41638">
        <ele>-88.800003051758</ele>
        <time>2021-08-26T09:06:34.000Z</time>
      </trkpt>
      <trkpt lat="47.34445" lon="-2.41651">
        <ele>-88.800003051758</ele>
        <time>2021-08-26T09:06:37.000Z</time>
      </trkpt>
      <trkpt lat="47.34437" lon="-2.4166">
        <ele>-88.800003051758</ele>
        <time>2021-08-26T09:06:39.000Z</time>
      </trkpt>
      <trkpt lat="47.34434" lon="-2.41665">
        <ele>-88.800003051758</ele>
        <time>2021-08-26T09:06:40.000Z</time>
      </trkpt>
      <trkpt lat="47.34417" lon="-2.41688">
        <ele>-88.800003051758</ele>
        <time>2021-08-26T09:06:45.000Z</time>
      </trkpt>
      <trkpt lat="47.34394" lon="-2.41704">
        <ele>-88.800003051758</ele>
        <time>2021-08-26T09:06:50.000Z</time>
      </trkpt>
      <trkpt lat="47.34389" lon="-2.41707">
        <ele>-88.400001525879</ele>
        <time>2021-08-26T09:06:51.000Z</time>
      </trkpt>
      <trkpt lat="47.34384" lon="-2.41709">
        <ele>-87.400001525879</ele>
        <time>2021-08-26T09:06:52.000Z</time>
      </trkpt>
      <trkpt lat="47.3438" lon="-2.41712">
        <ele>-87</ele>
        <time>2021-08-26T09:06:53.000Z</time>
      </trkpt>
      <trkpt lat="47.34375" lon="-2.41715">
        <ele>-86.599998474121</ele>
        <time>2021-08-26T09:06:54.000Z</time>
      </trkpt>
      <trkpt lat="47.34367" lon="-2.4172">
        <ele>-86.599998474121</ele>
        <time>2021-08-26T09:06:56.000Z</time>
      </trkpt>
      <trkpt lat="47.34349" lon="-2.41731">
        <ele>-86.599998474121</ele>
        <time>2021-08-26T09:07:01.000Z</time>
      </trkpt>
      <trkpt lat="47.3433" lon="-2.4174">
        <ele>-86.199996948242</ele>
        <time>2021-08-26T09:07:06.000Z</time>
      </trkpt>
      <trkpt lat="47.34326" lon="-2.41742">
        <ele>-85.800003051758</ele>
        <time>2021-08-26T09:07:07.000Z</time>
      </trkpt>
      <trkpt lat="47.34322" lon="-2.41743">
        <ele>-85.400001525879</ele>
        <time>2021-08-26T09:07:08.000Z</time>
      </trkpt>
      <trkpt lat="47.34318" lon="-2.41746">
        <ele>-84.800003051758</ele>
        <time>2021-08-26T09:07:09.000Z</time>
      </trkpt>
      <trkpt lat="47.34314" lon="-2.41748">
        <ele>-84.400001525879</ele>
        <time>2021-08-26T09:07:10.000Z</time>
      </trkpt>
      <trkpt lat="47.34311" lon="-2.4175">
        <ele>-84.400001525879</ele>
        <time>2021-08-26T09:07:11.000Z</time>
      </trkpt>
      <trkpt lat="47.34292" lon="-2.41764">
        <ele>-84.400001525879</ele>
        <time>2021-08-26T09:07:16.000Z</time>
      </trkpt>
      <trkpt lat="47.34261" lon="-2.41783">
        <ele>-84</ele>
        <time>2021-08-26T09:07:23.000Z</time>
      </trkpt>
      <trkpt lat="47.34257" lon="-2.41784">
        <ele>-83.599998474121</ele>
        <time>2021-08-26T09:07:24.000Z</time>
      </trkpt>
      <trkpt lat="47.34252" lon="-2.41783">
        <ele>-83.199996948242</ele>
        <time>2021-08-26T09:07:25.000Z</time>
      </trkpt>
      <trkpt lat="47.34247" lon="-2.41782">
        <ele>-82.599998474121</ele>
        <time>2021-08-26T09:07:26.000Z</time>
      </trkpt>
      <trkpt lat="47.34242" lon="-2.41779">
        <ele>-82.199996948242</ele>
        <time>2021-08-26T09:07:27.000Z</time>
      </trkpt>
      <trkpt lat="47.34231" lon="-2.41761">
        <ele>-82.199996948242</ele>
        <time>2021-08-26T09:07:31.000Z</time>
      </trkpt>
      <trkpt lat="47.34229" lon="-2.41755">
        <ele>-82.199996948242</ele>
        <time>2021-08-26T09:07:32.000Z</time>
      </trkpt>
      <trkpt lat="47.34221" lon="-2.41723">
        <ele>-82.199996948242</ele>
        <time>2021-08-26T09:07:37.000Z</time>
      </trkpt>
      <trkpt lat="47.34217" lon="-2.41711">
        <ele>-82.199996948242</ele>
        <time>2021-08-26T09:07:39.000Z</time>
      </trkpt>
      <trkpt lat="47.34207" lon="-2.41699">
        <ele>-82.199996948242</ele>
        <time>2021-08-26T09:07:42.000Z</time>
      </trkpt>
      <trkpt lat="47.34195" lon="-2.41702">
        <ele>-82.199996948242</ele>
        <time>2021-08-26T09:07:45.000Z</time>
      </trkpt>
      <trkpt lat="47.34187" lon="-2.41707">
        <ele>-82.199996948242</ele>
        <time>2021-08-26T09:07:47.000Z</time>
      </trkpt>
      <trkpt lat="47.34183" lon="-2.4171">
        <ele>-82.199996948242</ele>
        <time>2021-08-26T09:07:48.000Z</time>
      </trkpt>
      <trkpt lat="47.34175" lon="-2.41717">
        <ele>-82.199996948242</ele>
        <time>2021-08-26T09:07:50.000Z</time>
      </trkpt>
      <trkpt lat="47.34141" lon="-2.41751">
        <ele>-82.199996948242</ele>
        <time>2021-08-26T09:07:58.000Z</time>
      </trkpt>
      <trkpt lat="47.34113" lon="-2.41774">
        <ele>-82.199996948242</ele>
        <time>2021-08-26T09:08:04.000Z</time>
      </trkpt>
      <trkpt lat="47.34093" lon="-2.4179">
        <ele>-81.800003051758</ele>
        <time>2021-08-26T09:08:08.000Z</time>
      </trkpt>
      <trkpt lat="47.34088" lon="-2.41794">
        <ele>-81.400001525879</ele>
        <time>2021-08-26T09:08:09.000Z</time>
      </trkpt>
      <trkpt lat="47.34084" lon="-2.41798">
        <ele>-81</ele>
        <time>2021-08-26T09:08:10.000Z</time>
      </trkpt>
      <trkpt lat="47.34079" lon="-2.41803">
        <ele>-80.599998474121</ele>
        <time>2021-08-26T09:08:11.000Z</time>
      </trkpt>
      <trkpt lat="47.34075" lon="-2.41808">
        <ele>-80.199996948242</ele>
        <time>2021-08-26T09:08:12.000Z</time>
      </trkpt>
      <trkpt lat="47.34051" lon="-2.41838">
        <ele>-80.199996948242</ele>
        <time>2021-08-26T09:08:18.000Z</time>
      </trkpt>
      <trkpt lat="47.34044" lon="-2.41848">
        <ele>-79.800003051758</ele>
        <time>2021-08-26T09:08:20.000Z</time>
      </trkpt>
      <trkpt lat="47.34041" lon="-2.41854">
        <ele>-79.400001525879</ele>
        <time>2021-08-26T09:08:21.000Z</time>
      </trkpt>
      <trkpt lat="47.34037" lon="-2.41859">
        <ele>-79</ele>
        <time>2021-08-26T09:08:22.000Z</time>
      </trkpt>
      <trkpt lat="47.34034" lon="-2.41865">
        <ele>-78.599998474121</ele>
        <time>2021-08-26T09:08:23.000Z</time>
      </trkpt>
      <trkpt lat="47.3403" lon="-2.41871">
        <ele>-78.199996948242</ele>
        <time>2021-08-26T09:08:24.000Z</time>
      </trkpt>
      <trkpt lat="47.34023" lon="-2.41882">
        <ele>-78.199996948242</ele>
        <time>2021-08-26T09:08:26.000Z</time>
      </trkpt>
      <trkpt lat="47.33998" lon="-2.41922">
        <ele>-78.199996948242</ele>
        <time>2021-08-26T09:08:33.000Z</time>
      </trkpt>
      <trkpt lat="47.33967" lon="-2.41963">
        <ele>-78.199996948242</ele>
        <time>2021-08-26T09:08:41.000Z</time>
      </trkpt>
      <trkpt lat="47.33941" lon="-2.41993">
        <ele>-77.599998474121</ele>
        <time>2021-08-26T09:08:47.000Z</time>
      </trkpt>
      <trkpt lat="47.33936" lon="-2.41998">
        <ele>-77.199996948242</ele>
        <time>2021-08-26T09:08:48.000Z</time>
      </trkpt>
      <trkpt lat="47.33932" lon="-2.42002">
        <ele>-76.800003051758</ele>
        <time>2021-08-26T09:08:49.000Z</time>
      </trkpt>
      <trkpt lat="47.33927" lon="-2.42007">
        <ele>-76.400001525879</ele>
        <time>2021-08-26T09:08:50.000Z</time>
      </trkpt>
      <trkpt lat="47.33923" lon="-2.42011">
        <ele>-76</ele>
        <time>2021-08-26T09:08:51.000Z</time>
      </trkpt>
      <trkpt lat="47.33905" lon="-2.42029">
        <ele>-76</ele>
        <time>2021-08-26T09:08:55.000Z</time>
      </trkpt>
      <trkpt lat="47.339" lon="-2.42033">
        <ele>-76</ele>
        <time>2021-08-26T09:08:56.000Z</time>
      </trkpt>
      <trkpt lat="47.33855" lon="-2.4207">
        <ele>-76</ele>
        <time>2021-08-26T09:09:05.000Z</time>
      </trkpt>
      <trkpt lat="47.33835" lon="-2.42082">
        <ele>-75.599998474121</ele>
        <time>2021-08-26T09:09:09.000Z</time>
      </trkpt>
      <trkpt lat="47.3383" lon="-2.42085">
        <ele>-75.199996948242</ele>
        <time>2021-08-26T09:09:10.000Z</time>
      </trkpt>
      <trkpt lat="47.33825" lon="-2.42089">
        <ele>-74.800003051758</ele>
        <time>2021-08-26T09:09:11.000Z</time>
      </trkpt>
      <trkpt lat="47.33821" lon="-2.42094">
        <ele>-74.400001525879</ele>
        <time>2021-08-26T09:09:12.000Z</time>
      </trkpt>
      <trkpt lat="47.33818" lon="-2.42102">
        <ele>-74</ele>
        <time>2021-08-26T09:09:13.000Z</time>
      </trkpt>
      <trkpt lat="47.33817" lon="-2.4212">
        <ele>-74</ele>
        <time>2021-08-26T09:09:15.000Z</time>
      </trkpt>
      <trkpt lat="47.33818" lon="-2.42137">
        <ele>-74</ele>
        <time>2021-08-26T09:09:17.000Z</time>
      </trkpt>
      <trkpt lat="47.3382" lon="-2.42154">
        <ele>-74</ele>
        <time>2021-08-26T09:09:19.000Z</time>
      </trkpt>
      <trkpt lat="47.33828" lon="-2.42212">
        <ele>-73.400001525879</ele>
        <time>2021-08-26T09:09:26.000Z</time>
      </trkpt>
      <trkpt lat="47.33829" lon="-2.4222">
        <ele>-73</ele>
        <time>2021-08-26T09:09:27.000Z</time>
      </trkpt>
      <trkpt lat="47.3383" lon="-2.42228">
        <ele>-72.599998474121</ele>
        <time>2021-08-26T09:09:28.000Z</time>
      </trkpt>
      <trkpt lat="47.33831" lon="-2.42236">
        <ele>-72</ele>
        <time>2021-08-26T09:09:29.000Z</time>
      </trkpt>
      <trkpt lat="47.33832" lon="-2.42244">
        <ele>-71.599998474121</ele>
        <time>2021-08-26T09:09:30.000Z</time>
      </trkpt>
      <trkpt lat="47.33838" lon="-2.42284">
        <ele>-71.199996948242</ele>
        <time>2021-08-26T09:09:35.000Z</time>
      </trkpt>
      <trkpt lat="47.33839" lon="-2.42291">
        <ele>-70.800003051758</ele>
        <time>2021-08-26T09:09:36.000Z</time>
      </trkpt>
      <trkpt lat="47.3384" lon="-2.42299">
        <ele>-70.400001525879</ele>
        <time>2021-08-26T09:09:37.000Z</time>
      </trkpt>
      <trkpt lat="47.33841" lon="-2.42307">
        <ele>-70</ele>
        <time>2021-08-26T09:09:38.000Z</time>
      </trkpt>
      <trkpt lat="47.33842" lon="-2.42314">
        <ele>-69.400001525879</ele>
        <time>2021-08-26T09:09:39.000Z</time>
      </trkpt>
      <trkpt lat="47.33851" lon="-2.42372">
        <ele>-69.400001525879</ele>
        <time>2021-08-26T09:09:46.000Z</time>
      </trkpt>
      <trkpt lat="47.33852" lon="-2.42399">
        <ele>-69.400001525879</ele>
        <time>2021-08-26T09:09:49.000Z</time>
      </trkpt>
      <trkpt lat="47.3385" lon="-2.42415">
        <ele>-69.400001525879</ele>
        <time>2021-08-26T09:09:51.000Z</time>
      </trkpt>
      <trkpt lat="47.33848" lon="-2.42437">
        <ele>-69.400001525879</ele>
        <time>2021-08-26T09:09:55.000Z</time>
      </trkpt>
      <trkpt lat="47.33846" lon="-2.42455">
        <ele>-69.800003051758</ele>
        <time>2021-08-26T09:10:00.000Z</time>
      </trkpt>
      <trkpt lat="47.33846" lon="-2.4246">
        <ele>-70.199996948242</ele>
        <time>2021-08-26T09:10:01.000Z</time>
      </trkpt>
      <trkpt lat="47.33845" lon="-2.42465">
        <ele>-70.599998474121</ele>
        <time>2021-08-26T09:10:02.000Z</time>
      </trkpt>
      <trkpt lat="47.33843" lon="-2.4247">
        <ele>-71</ele>
        <time>2021-08-26T09:10:03.000Z</time>
      </trkpt>
      <trkpt lat="47.33841" lon="-2.42476">
        <ele>-71.599998474121</ele>
        <time>2021-08-26T09:10:04.000Z</time>
      </trkpt>
      <trkpt lat="47.33839" lon="-2.42482">
        <ele>-72.199996948242</ele>
        <time>2021-08-26T09:10:05.000Z</time>
      </trkpt>
      <trkpt lat="47.33838" lon="-2.42488">
        <ele>-72.599998474121</ele>
        <time>2021-08-26T09:10:06.000Z</time>
      </trkpt>
      <trkpt lat="47.33836" lon="-2.42494">
        <ele>-73.199996948242</ele>
        <time>2021-08-26T09:10:07.000Z</time>
      </trkpt>
      <trkpt lat="47.33834" lon="-2.42501">
        <ele>-73.599998474121</ele>
        <time>2021-08-26T09:10:08.000Z</time>
      </trkpt>
      <trkpt lat="47.33829" lon="-2.42521">
        <ele>-73.599998474121</ele>
        <time>2021-08-26T09:10:11.000Z</time>
      </trkpt>
      <trkpt lat="47.33822" lon="-2.42555">
        <ele>-73.599998474121</ele>
        <time>2021-08-26T09:10:17.000Z</time>
      </trkpt>
      <trkpt lat="47.3382" lon="-2.42565">
        <ele>-73.199996948242</ele>
        <time>2021-08-26T09:10:19.000Z</time>
      </trkpt>
      <trkpt lat="47.33818" lon="-2.4257">
        <ele>-72.800003051758</ele>
        <time>2021-08-26T09:10:20.000Z</time>
      </trkpt>
      <trkpt lat="47.33817" lon="-2.42574">
        <ele>-72.400001525879</ele>
        <time>2021-08-26T09:10:21.000Z</time>
      </trkpt>
      <trkpt lat="47.33816" lon="-2.42579">
        <ele>-72</ele>
        <time>2021-08-26T09:10:22.000Z</time>
      </trkpt>
      <trkpt lat="47.33815" lon="-2.42583">
        <ele>-71.400001525879</ele>
        <time>2021-08-26T09:10:23.000Z</time>
      </trkpt>
      <trkpt lat="47.33812" lon="-2.42605">
        <ele>-71</ele>
        <time>2021-08-26T09:10:28.000Z</time>
      </trkpt>
      <trkpt lat="47.33811" lon="-2.4261">
        <ele>-70.599998474121</ele>
        <time>2021-08-26T09:10:29.000Z</time>
      </trkpt>
      <trkpt lat="47.3381" lon="-2.42616">
        <ele>-70.199996948242</ele>
        <time>2021-08-26T09:10:30.000Z</time>
      </trkpt>
      <trkpt lat="47.33809" lon="-2.42621">
        <ele>-69.800003051758</ele>
        <time>2021-08-26T09:10:31.000Z</time>
      </trkpt>
      <trkpt lat="47.33808" lon="-2.42628">
        <ele>-69.400001525879</ele>
        <time>2021-08-26T09:10:32.000Z</time>
      </trkpt>
      <trkpt lat="47.33804" lon="-2.42647">
        <ele>-69.400001525879</ele>
        <time>2021-08-26T09:10:35.000Z</time>
      </trkpt>
      <trkpt lat="47.33797" lon="-2.42678">
        <ele>-69.400001525879</ele>
        <time>2021-08-26T09:10:40.000Z</time>
      </trkpt>
      <trkpt lat="47.33794" lon="-2.4269">
        <ele>-69.400001525879</ele>
        <time>2021-08-26T09:10:42.000Z</time>
      </trkpt>
      <trkpt lat="47.33787" lon="-2.42722">
        <ele>-69.400001525879</ele>
        <time>2021-08-26T09:10:47.000Z</time>
      </trkpt>
      <trkpt lat="47.33778" lon="-2.42763">
        <ele>-69.400001525879</ele>
        <time>2021-08-26T09:10:53.000Z</time>
      </trkpt>
      <trkpt lat="47.33777" lon="-2.42778">
        <ele>-69.400001525879</ele>
        <time>2021-08-26T09:10:55.000Z</time>
      </trkpt>
      <trkpt lat="47.33777" lon="-2.428">
        <ele>-69.400001525879</ele>
        <time>2021-08-26T09:10:58.000Z</time>
      </trkpt>
      <trkpt lat="47.33777" lon="-2.42805">
        <ele>-70</ele>
        <time>2021-08-26T09:10:59.000Z</time>
      </trkpt>
      <trkpt lat="47.33777" lon="-2.42808">
        <ele>-70.400001525879</ele>
        <time>2021-08-26T09:11:00.000Z</time>
      </trkpt>
      <trkpt lat="47.33778" lon="-2.42811">
        <ele>-70.800003051758</ele>
        <time>2021-08-26T09:11:01.000Z</time>
      </trkpt>
      <trkpt lat="47.33778" lon="-2.42813">
        <ele>-71.199996948242</ele>
        <time>2021-08-26T09:11:02.000Z</time>
      </trkpt>
      <trkpt lat="47.33778" lon="-2.42815">
        <ele>-71.800003051758</ele>
        <time>2021-08-26T09:11:03.000Z</time>
      </trkpt>
      <trkpt lat="47.33778" lon="-2.42815">
        <ele>-71.800003051758</ele>
        <time>2021-08-26T09:11:04.000Z</time>
      </trkpt>
      <trkpt lat="47.33778" lon="-2.42815">
        <ele>-71.800003051758</ele>
        <time>2021-08-26T09:11:08.000Z</time>
      </trkpt>
      <trkpt lat="47.33779" lon="-2.42818">
        <ele>-71.800003051758</ele>
        <time>2021-08-26T09:11:09.000Z</time>
      </trkpt>
      <trkpt lat="47.33777" lon="-2.42825">
        <ele>-71.800003051758</ele>
        <time>2021-08-26T09:11:11.000Z</time>
      </trkpt>
      <trkpt lat="47.33774" lon="-2.42832">
        <ele>-71.800003051758</ele>
        <time>2021-08-26T09:11:13.000Z</time>
      </trkpt>
      <trkpt lat="47.3377" lon="-2.42833">
        <ele>-71.800003051758</ele>
        <time>2021-08-26T09:11:15.000Z</time>
      </trkpt>
      <trkpt lat="47.33768" lon="-2.42832">
        <ele>-71.800003051758</ele>
        <time>2021-08-26T09:11:16.000Z</time>
      </trkpt>
      <trkpt lat="47.33754" lon="-2.4283">
        <ele>-71.800003051758</ele>
        <time>2021-08-26T09:11:20.000Z</time>
      </trkpt>
      <trkpt lat="47.33723" lon="-2.42832">
        <ele>-71.800003051758</ele>
        <time>2021-08-26T09:11:27.000Z</time>
      </trkpt>
      <trkpt lat="47.33688" lon="-2.42835">
        <ele>-71.800003051758</ele>
        <time>2021-08-26T09:11:34.000Z</time>
      </trkpt>
      <trkpt lat="47.33644" lon="-2.42841">
        <ele>-71.800003051758</ele>
        <time>2021-08-26T09:11:42.000Z</time>
      </trkpt>
      <trkpt lat="47.33608" lon="-2.42847">
        <ele>-71.199996948242</ele>
        <time>2021-08-26T09:11:48.000Z</time>
      </trkpt>
      <trkpt lat="47.33603" lon="-2.42847">
        <ele>-70.800003051758</ele>
        <time>2021-08-26T09:11:49.000Z</time>
      </trkpt>
      <trkpt lat="47.33597" lon="-2.42848">
        <ele>-70.400001525879</ele>
        <time>2021-08-26T09:11:50.000Z</time>
      </trkpt>
      <trkpt lat="47.33591" lon="-2.42849">
        <ele>-70</ele>
        <time>2021-08-26T09:11:51.000Z</time>
      </trkpt>
      <trkpt lat="47.33585" lon="-2.4285">
        <ele>-69.599998474121</ele>
        <time>2021-08-26T09:11:52.000Z</time>
      </trkpt>
      <trkpt lat="47.33538" lon="-2.42857">
        <ele>-69.599998474121</ele>
        <time>2021-08-26T09:12:00.000Z</time>
      </trkpt>
      <trkpt lat="47.33497" lon="-2.42863">
        <ele>-69.599998474121</ele>
        <time>2021-08-26T09:12:07.000Z</time>
      </trkpt>
      <trkpt lat="47.33437" lon="-2.42868">
        <ele>-69.599998474121</ele>
        <time>2021-08-26T09:12:18.000Z</time>
      </trkpt>
      <trkpt lat="47.33409" lon="-2.42873">
        <ele>-69.599998474121</ele>
        <time>2021-08-26T09:12:23.000Z</time>
      </trkpt>
      <trkpt lat="47.33374" lon="-2.42875">
        <ele>-69.599998474121</ele>
        <time>2021-08-26T09:12:29.000Z</time>
      </trkpt>
      <trkpt lat="47.33351" lon="-2.42876">
        <ele>-69.199996948242</ele>
        <time>2021-08-26T09:12:33.000Z</time>
      </trkpt>
      <trkpt lat="47.33345" lon="-2.42877">
        <ele>-68.800003051758</ele>
        <time>2021-08-26T09:12:34.000Z</time>
      </trkpt>
      <trkpt lat="47.33339" lon="-2.42877">
        <ele>-68.400001525879</ele>
        <time>2021-08-26T09:12:35.000Z</time>
      </trkpt>
      <trkpt lat="47.33333" lon="-2.42878">
        <ele>-68</ele>
        <time>2021-08-26T09:12:36.000Z</time>
      </trkpt>
      <trkpt lat="47.33327" lon="-2.42878">
        <ele>-67.400001525879</ele>
        <time>2021-08-26T09:12:37.000Z</time>
      </trkpt>
      <trkpt lat="47.33276" lon="-2.42882">
        <ele>-67.400001525879</ele>
        <time>2021-08-26T09:12:46.000Z</time>
      </trkpt>
      <trkpt lat="47.33233" lon="-2.42889">
        <ele>-67.400001525879</ele>
        <time>2021-08-26T09:12:54.000Z</time>
      </trkpt>
      <trkpt lat="47.33209" lon="-2.42895">
        <ele>-67.400001525879</ele>
        <time>2021-08-26T09:13:00.000Z</time>
      </trkpt>
      <trkpt lat="47.33205" lon="-2.42895">
        <ele>-67.400001525879</ele>
        <time>2021-08-26T09:13:01.000Z</time>
      </trkpt>
      <trkpt lat="47.33192" lon="-2.42897">
        <ele>-67.400001525879</ele>
        <time>2021-08-26T09:13:06.000Z</time>
      </trkpt>
      <trkpt lat="47.3319" lon="-2.42897">
        <ele>-67</ele>
        <time>2021-08-26T09:13:07.000Z</time>
      </trkpt>
      <trkpt lat="47.33189" lon="-2.42898">
        <ele>-66.599998474121</ele>
        <time>2021-08-26T09:13:08.000Z</time>
      </trkpt>
      <trkpt lat="47.33187" lon="-2.42898">
        <ele>-66.199996948242</ele>
        <time>2021-08-26T09:13:09.000Z</time>
      </trkpt>
      <trkpt lat="47.33186" lon="-2.42899">
        <ele>-65.800003051758</ele>
        <time>2021-08-26T09:13:10.000Z</time>
      </trkpt>
      <trkpt lat="47.33184" lon="-2.429">
        <ele>-65.400001525879</ele>
        <time>2021-08-26T09:13:11.000Z</time>
      </trkpt>
      <trkpt lat="47.33183" lon="-2.42902">
        <ele>-65.400001525879</ele>
        <time>2021-08-26T09:13:12.000Z</time>
      </trkpt>
      <trkpt lat="47.33171" lon="-2.42913">
        <ele>-65.400001525879</ele>
        <time>2021-08-26T09:13:16.000Z</time>
      </trkpt>
      <trkpt lat="47.33167" lon="-2.42913">
        <ele>-65.400001525879</ele>
        <time>2021-08-26T09:13:17.000Z</time>
      </trkpt>
      <trkpt lat="47.33158" lon="-2.42907">
        <ele>-65.400001525879</ele>
        <time>2021-08-26T09:13:19.000Z</time>
      </trkpt>
      <trkpt lat="47.33154" lon="-2.42904">
        <ele>-65</ele>
        <time>2021-08-26T09:13:20.000Z</time>
      </trkpt>
      <trkpt lat="47.33149" lon="-2.42903">
        <ele>-64.599998474121</ele>
        <time>2021-08-26T09:13:21.000Z</time>
      </trkpt>
      <trkpt lat="47.33144" lon="-2.42903">
        <ele>-64.199996948242</ele>
        <time>2021-08-26T09:13:22.000Z</time>
      </trkpt>
      <trkpt lat="47.33139" lon="-2.42904">
        <ele>-63.599998474121</ele>
        <time>2021-08-26T09:13:23.000Z</time>
      </trkpt>
      <trkpt lat="47.33133" lon="-2.42904">
        <ele>-63.200000762939</ele>
        <time>2021-08-26T09:13:24.000Z</time>
      </trkpt>
      <trkpt lat="47.331" lon="-2.4291">
        <ele>-63.200000762939</ele>
        <time>2021-08-26T09:13:30.000Z</time>
      </trkpt>
      <trkpt lat="47.33062" lon="-2.42916">
        <ele>-63.200000762939</ele>
        <time>2021-08-26T09:13:37.000Z</time>
      </trkpt>
      <trkpt lat="47.33056" lon="-2.42917">
        <ele>-63.200000762939</ele>
        <time>2021-08-26T09:13:38.000Z</time>
      </trkpt>
      <trkpt lat="47.33041" lon="-2.42921">
        <ele>-63.200000762939</ele>
        <time>2021-08-26T09:13:41.000Z</time>
      </trkpt>
      <trkpt lat="47.33036" lon="-2.42922">
        <ele>-63.200000762939</ele>
        <time>2021-08-26T09:13:42.000Z</time>
      </trkpt>
      <trkpt lat="47.33011" lon="-2.42926">
        <ele>-63.200000762939</ele>
        <time>2021-08-26T09:13:47.000Z</time>
      </trkpt>
      <trkpt lat="47.32992" lon="-2.42931">
        <ele>-63.200000762939</ele>
        <time>2021-08-26T09:13:51.000Z</time>
      </trkpt>
      <trkpt lat="47.32988" lon="-2.42937">
        <ele>-63.200000762939</ele>
        <time>2021-08-26T09:13:52.000Z</time>
      </trkpt>
      <trkpt lat="47.32981" lon="-2.42959">
        <ele>-62.799999237061</ele>
        <time>2021-08-26T09:13:55.000Z</time>
      </trkpt>
      <trkpt lat="47.32981" lon="-2.42967">
        <ele>-62.400001525879</ele>
        <time>2021-08-26T09:13:56.000Z</time>
      </trkpt>
      <trkpt lat="47.3298" lon="-2.42975">
        <ele>-62</ele>
        <time>2021-08-26T09:13:57.000Z</time>
      </trkpt>
      <trkpt lat="47.3298" lon="-2.42984">
        <ele>-61.599998474121</ele>
        <time>2021-08-26T09:13:58.000Z</time>
      </trkpt>
      <trkpt lat="47.3298" lon="-2.42993">
        <ele>-61.200000762939</ele>
        <time>2021-08-26T09:13:59.000Z</time>
      </trkpt>
      <trkpt lat="47.3298" lon="-2.43002">
        <ele>-61.200000762939</ele>
        <time>2021-08-26T09:14:00.000Z</time>
      </trkpt>
      <trkpt lat="47.32979" lon="-2.43076">
        <ele>-61.200000762939</ele>
        <time>2021-08-26T09:14:08.000Z</time>
      </trkpt>
      <trkpt lat="47.32978" lon="-2.43085">
        <ele>-61.200000762939</ele>
        <time>2021-08-26T09:14:09.000Z</time>
      </trkpt>
      <trkpt lat="47.3297" lon="-2.43112">
        <ele>-61.200000762939</ele>
        <time>2021-08-26T09:14:12.000Z</time>
      </trkpt>
      <trkpt lat="47.32957" lon="-2.43134">
        <ele>-61.200000762939</ele>
        <time>2021-08-26T09:14:15.000Z</time>
      </trkpt>
      <trkpt lat="47.32948" lon="-2.43149">
        <ele>-61.200000762939</ele>
        <time>2021-08-26T09:14:17.000Z</time>
      </trkpt>
      <trkpt lat="47.3292" lon="-2.4318">
        <ele>-61.200000762939</ele>
        <time>2021-08-26T09:14:22.000Z</time>
      </trkpt>
      <trkpt lat="47.32881" lon="-2.43212">
        <ele>-61.200000762939</ele>
        <time>2021-08-26T09:14:28.000Z</time>
      </trkpt>
      <trkpt lat="47.32841" lon="-2.43242">
        <ele>-61.200000762939</ele>
        <time>2021-08-26T09:14:34.000Z</time>
      </trkpt>
      <trkpt lat="47.32794" lon="-2.43266">
        <ele>-61.200000762939</ele>
        <time>2021-08-26T09:14:41.000Z</time>
      </trkpt>
      <trkpt lat="47.32781" lon="-2.43272">
        <ele>-61.599998474121</ele>
        <time>2021-08-26T09:14:43.000Z</time>
      </trkpt>
      <trkpt lat="47.32774" lon="-2.43275">
        <ele>-62</ele>
        <time>2021-08-26T09:14:44.000Z</time>
      </trkpt>
      <trkpt lat="47.32768" lon="-2.43278">
        <ele>-62.400001525879</ele>
        <time>2021-08-26T09:14:45.000Z</time>
      </trkpt>
      <trkpt lat="47.32762" lon="-2.4328">
        <ele>-62.799999237061</ele>
        <time>2021-08-26T09:14:46.000Z</time>
      </trkpt>
      <trkpt lat="47.32756" lon="-2.43283">
        <ele>-63.200000762939</ele>
        <time>2021-08-26T09:14:47.000Z</time>
      </trkpt>
      <trkpt lat="47.3275" lon="-2.43286">
        <ele>-63.200000762939</ele>
        <time>2021-08-26T09:14:48.000Z</time>
      </trkpt>
      <trkpt lat="47.32722" lon="-2.43293">
        <ele>-63.200000762939</ele>
        <time>2021-08-26T09:14:53.000Z</time>
      </trkpt>
      <trkpt lat="47.32717" lon="-2.43293">
        <ele>-63.200000762939</ele>
        <time>2021-08-26T09:14:54.000Z</time>
      </trkpt>
      <trkpt lat="47.32707" lon="-2.43292">
        <ele>-63.200000762939</ele>
        <time>2021-08-26T09:14:57.000Z</time>
      </trkpt>
      <trkpt lat="47.32699" lon="-2.43291">
        <ele>-63.200000762939</ele>
        <time>2021-08-26T09:14:59.000Z</time>
      </trkpt>
      <trkpt lat="47.32694" lon="-2.43289">
        <ele>-63.200000762939</ele>
        <time>2021-08-26T09:15:00.000Z</time>
      </trkpt>
      <trkpt lat="47.32689" lon="-2.43286">
        <ele>-63.200000762939</ele>
        <time>2021-08-26T09:15:01.000Z</time>
      </trkpt>
      <trkpt lat="47.32676" lon="-2.43274">
        <ele>-63.200000762939</ele>
        <time>2021-08-26T09:15:04.000Z</time>
      </trkpt>
      <trkpt lat="47.32668" lon="-2.43263">
        <ele>-63.200000762939</ele>
        <time>2021-08-26T09:15:06.000Z</time>
      </trkpt>
      <trkpt lat="47.32652" lon="-2.43232">
        <ele>-63.200000762939</ele>
        <time>2021-08-26T09:15:11.000Z</time>
      </trkpt>
      <trkpt lat="47.32649" lon="-2.43226">
        <ele>-63.200000762939</ele>
        <time>2021-08-26T09:15:12.000Z</time>
      </trkpt>
      <trkpt lat="47.32637" lon="-2.43193">
        <ele>-63.200000762939</ele>
        <time>2021-08-26T09:15:18.000Z</time>
      </trkpt>
      <trkpt lat="47.32628" lon="-2.43195">
        <ele>-63.200000762939</ele>
        <time>2021-08-26T09:15:20.000Z</time>
      </trkpt>
      <trkpt lat="47.32598" lon="-2.43212">
        <ele>-63.200000762939</ele>
        <time>2021-08-26T09:15:25.000Z</time>
      </trkpt>
      <trkpt lat="47.32586" lon="-2.43224">
        <ele>-63.200000762939</ele>
        <time>2021-08-26T09:15:27.000Z</time>
      </trkpt>
      <trkpt lat="47.3258" lon="-2.43232">
        <ele>-63.599998474121</ele>
        <time>2021-08-26T09:15:28.000Z</time>
      </trkpt>
      <trkpt lat="47.32574" lon="-2.43241">
        <ele>-64.599998474121</ele>
        <time>2021-08-26T09:15:29.000Z</time>
      </trkpt>
      <trkpt lat="47.32569" lon="-2.4325">
        <ele>-65</ele>
        <time>2021-08-26T09:15:30.000Z</time>
      </trkpt>
      <trkpt lat="47.32564" lon="-2.4326">
        <ele>-65.400001525879</ele>
        <time>2021-08-26T09:15:31.000Z</time>
      </trkpt>
      <trkpt lat="47.32555" lon="-2.4328">
        <ele>-65.400001525879</ele>
        <time>2021-08-26T09:15:33.000Z</time>
      </trkpt>
      <trkpt lat="47.32549" lon="-2.43301">
        <ele>-65.800003051758</ele>
        <time>2021-08-26T09:15:35.000Z</time>
      </trkpt>
      <trkpt lat="47.32547" lon="-2.43312">
        <ele>-66.199996948242</ele>
        <time>2021-08-26T09:15:36.000Z</time>
      </trkpt>
      <trkpt lat="47.32544" lon="-2.43323">
        <ele>-66.599998474121</ele>
        <time>2021-08-26T09:15:37.000Z</time>
      </trkpt>
      <trkpt lat="47.32543" lon="-2.43334">
        <ele>-67</ele>
        <time>2021-08-26T09:15:38.000Z</time>
      </trkpt>
      <trkpt lat="47.32542" lon="-2.43344">
        <ele>-67.400001525879</ele>
        <time>2021-08-26T09:15:39.000Z</time>
      </trkpt>
      <trkpt lat="47.3254" lon="-2.43366">
        <ele>-67.400001525879</ele>
        <time>2021-08-26T09:15:41.000Z</time>
      </trkpt>
      <trkpt lat="47.32534" lon="-2.43387">
        <ele>-67.400001525879</ele>
        <time>2021-08-26T09:15:43.000Z</time>
      </trkpt>
      <trkpt lat="47.32528" lon="-2.43405">
        <ele>-67.400001525879</ele>
        <time>2021-08-26T09:15:45.000Z</time>
      </trkpt>
      <trkpt lat="47.32525" lon="-2.43411">
        <ele>-68</ele>
        <time>2021-08-26T09:15:46.000Z</time>
      </trkpt>
      <trkpt lat="47.32522" lon="-2.43414">
        <ele>-68.400001525879</ele>
        <time>2021-08-26T09:15:47.000Z</time>
      </trkpt>
      <trkpt lat="47.3252" lon="-2.43417">
        <ele>-69</ele>
        <time>2021-08-26T09:15:48.000Z</time>
      </trkpt>
      <trkpt lat="47.32517" lon="-2.43421">
        <ele>-69.400001525879</ele>
        <time>2021-08-26T09:15:49.000Z</time>
      </trkpt>
      <trkpt lat="47.32514" lon="-2.43425">
        <ele>-70</ele>
        <time>2021-08-26T09:15:50.000Z</time>
      </trkpt>
      <trkpt lat="47.32504" lon="-2.43439">
        <ele>-70</ele>
        <time>2021-08-26T09:15:53.000Z</time>
      </trkpt>
      <trkpt lat="47.32497" lon="-2.43449">
        <ele>-70</ele>
        <time>2021-08-26T09:15:55.000Z</time>
      </trkpt>
      <trkpt lat="47.32485" lon="-2.43463">
        <ele>-70</ele>
        <time>2021-08-26T09:15:58.000Z</time>
      </trkpt>
      <trkpt lat="47.32481" lon="-2.43468">
        <ele>-70</ele>
        <time>2021-08-26T09:15:59.000Z</time>
      </trkpt>
      <trkpt lat="47.32449" lon="-2.435">
        <ele>-70</ele>
        <time>2021-08-26T09:16:06.000Z</time>
      </trkpt>
      <trkpt lat="47.32422" lon="-2.43527">
        <ele>-70</ele>
        <time>2021-08-26T09:16:11.000Z</time>
      </trkpt>
      <trkpt lat="47.32418" lon="-2.43534">
        <ele>-70</ele>
        <time>2021-08-26T09:16:12.000Z</time>
      </trkpt>
      <trkpt lat="47.32405" lon="-2.43567">
        <ele>-70</ele>
        <time>2021-08-26T09:16:16.000Z</time>
      </trkpt>
      <trkpt lat="47.32389" lon="-2.43625">
        <ele>-70</ele>
        <time>2021-08-26T09:16:22.000Z</time>
      </trkpt>
      <trkpt lat="47.32384" lon="-2.43646">
        <ele>-70</ele>
        <time>2021-08-26T09:16:24.000Z</time>
      </trkpt>
      <trkpt lat="47.32379" lon="-2.43666">
        <ele>-70</ele>
        <time>2021-08-26T09:16:26.000Z</time>
      </trkpt>
      <trkpt lat="47.32367" lon="-2.43729">
        <ele>-70</ele>
        <time>2021-08-26T09:16:32.000Z</time>
      </trkpt>
      <trkpt lat="47.32345" lon="-2.43808">
        <ele>-70</ele>
        <time>2021-08-26T09:16:40.000Z</time>
      </trkpt>
      <trkpt lat="47.32333" lon="-2.43846">
        <ele>-70.400001525879</ele>
        <time>2021-08-26T09:16:44.000Z</time>
      </trkpt>
      <trkpt lat="47.32331" lon="-2.43856">
        <ele>-70.800003051758</ele>
        <time>2021-08-26T09:16:45.000Z</time>
      </trkpt>
      <trkpt lat="47.32328" lon="-2.43867">
        <ele>-71.199996948242</ele>
        <time>2021-08-26T09:16:46.000Z</time>
      </trkpt>
      <trkpt lat="47.32326" lon="-2.43877">
        <ele>-71.800003051758</ele>
        <time>2021-08-26T09:16:47.000Z</time>
      </trkpt>
      <trkpt lat="47.32323" lon="-2.43888">
        <ele>-72.199996948242</ele>
        <time>2021-08-26T09:16:48.000Z</time>
      </trkpt>
      <trkpt lat="47.3232" lon="-2.43909">
        <ele>-72.199996948242</ele>
        <time>2021-08-26T09:16:50.000Z</time>
      </trkpt>
      <trkpt lat="47.32314" lon="-2.43942">
        <ele>-72.199996948242</ele>
        <time>2021-08-26T09:16:53.000Z</time>
      </trkpt>
      <trkpt lat="47.32305" lon="-2.43976">
        <ele>-72.199996948242</ele>
        <time>2021-08-26T09:16:56.000Z</time>
      </trkpt>
      <trkpt lat="47.32294" lon="-2.43995">
        <ele>-72.199996948242</ele>
        <time>2021-08-26T09:16:58.000Z</time>
      </trkpt>
      <trkpt lat="47.32287" lon="-2.44003">
        <ele>-72.599998474121</ele>
        <time>2021-08-26T09:16:59.000Z</time>
      </trkpt>
      <trkpt lat="47.32281" lon="-2.4401">
        <ele>-73</ele>
        <time>2021-08-26T09:17:00.000Z</time>
      </trkpt>
      <trkpt lat="47.32275" lon="-2.44015">
        <ele>-73.599998474121</ele>
        <time>2021-08-26T09:17:01.000Z</time>
      </trkpt>
      <trkpt lat="47.32269" lon="-2.4402">
        <ele>-74.199996948242</ele>
        <time>2021-08-26T09:17:02.000Z</time>
      </trkpt>
      <trkpt lat="47.32265" lon="-2.44025">
        <ele>-74.800003051758</ele>
        <time>2021-08-26T09:17:03.000Z</time>
      </trkpt>
      <trkpt lat="47.3226" lon="-2.44029">
        <ele>-75.400001525879</ele>
        <time>2021-08-26T09:17:04.000Z</time>
      </trkpt>
      <trkpt lat="47.32257" lon="-2.44033">
        <ele>-76</ele>
        <time>2021-08-26T09:17:05.000Z</time>
      </trkpt>
      <trkpt lat="47.32255" lon="-2.44037">
        <ele>-76.599998474121</ele>
        <time>2021-08-26T09:17:06.000Z</time>
      </trkpt>
      <trkpt lat="47.32256" lon="-2.44046">
        <ele>-77.400001525879</ele>
        <time>2021-08-26T09:17:08.000Z</time>
      </trkpt>
      <trkpt lat="47.3226" lon="-2.44048">
        <ele>-77.800003051758</ele>
        <time>2021-08-26T09:17:09.000Z</time>
      </trkpt>
      <trkpt lat="47.32264" lon="-2.44049">
        <ele>-78.199996948242</ele>
        <time>2021-08-26T09:17:10.000Z</time>
      </trkpt>
      <trkpt lat="47.32267" lon="-2.44049">
        <ele>-78.599998474121</ele>
        <time>2021-08-26T09:17:11.000Z</time>
      </trkpt>
      <trkpt lat="47.32271" lon="-2.44049">
        <ele>-78.599998474121</ele>
        <time>2021-08-26T09:17:12.000Z</time>
      </trkpt>
      <trkpt lat="47.32278" lon="-2.4405">
        <ele>-78.599998474121</ele>
        <time>2021-08-26T09:17:14.000Z</time>
      </trkpt>
      <trkpt lat="47.32294" lon="-2.44054">
        <ele>-78.599998474121</ele>
        <time>2021-08-26T09:17:18.000Z</time>
      </trkpt>
      <trkpt lat="47.32303" lon="-2.44058">
        <ele>-78.599998474121</ele>
        <time>2021-08-26T09:17:20.000Z</time>
      </trkpt>
      <trkpt lat="47.32312" lon="-2.44062">
        <ele>-78.599998474121</ele>
        <time>2021-08-26T09:17:22.000Z</time>
      </trkpt>
      <trkpt lat="47.32317" lon="-2.44065">
        <ele>-78.199996948242</ele>
        <time>2021-08-26T09:17:23.000Z</time>
      </trkpt>
      <trkpt lat="47.32321" lon="-2.44066">
        <ele>-77.800003051758</ele>
        <time>2021-08-26T09:17:24.000Z</time>
      </trkpt>
      <trkpt lat="47.32326" lon="-2.44067">
        <ele>-77.400001525879</ele>
        <time>2021-08-26T09:17:25.000Z</time>
      </trkpt>
      <trkpt lat="47.32331" lon="-2.44068">
        <ele>-77</ele>
        <time>2021-08-26T09:17:26.000Z</time>
      </trkpt>
      <trkpt lat="47.32336" lon="-2.44069">
        <ele>-76.599998474121</ele>
        <time>2021-08-26T09:17:27.000Z</time>
      </trkpt>
      <trkpt lat="47.32345" lon="-2.4407">
        <ele>-76.599998474121</ele>
        <time>2021-08-26T09:17:29.000Z</time>
      </trkpt>
      <trkpt lat="47.32354" lon="-2.4407">
        <ele>-76.599998474121</ele>
        <time>2021-08-26T09:17:31.000Z</time>
      </trkpt>
      <trkpt lat="47.32359" lon="-2.44068">
        <ele>-76.599998474121</ele>
        <time>2021-08-26T09:17:32.000Z</time>
      </trkpt>
      <trkpt lat="47.32372" lon="-2.44064">
        <ele>-76.199996948242</ele>
        <time>2021-08-26T09:17:35.000Z</time>
      </trkpt>
      <trkpt lat="47.32377" lon="-2.44062">
        <ele>-75.800003051758</ele>
        <time>2021-08-26T09:17:36.000Z</time>
      </trkpt>
      <trkpt lat="47.32381" lon="-2.4406">
        <ele>-75.400001525879</ele>
        <time>2021-08-26T09:17:37.000Z</time>
      </trkpt>
      <trkpt lat="47.32385" lon="-2.44058">
        <ele>-75</ele>
        <time>2021-08-26T09:17:38.000Z</time>
      </trkpt>
      <trkpt lat="47.32389" lon="-2.44056">
        <ele>-74.599998474121</ele>
        <time>2021-08-26T09:17:39.000Z</time>
      </trkpt>
      <trkpt lat="47.32415" lon="-2.4404">
        <ele>-74</ele>
        <time>2021-08-26T09:17:46.000Z</time>
      </trkpt>
      <trkpt lat="47.32419" lon="-2.44037">
        <ele>-73.599998474121</ele>
        <time>2021-08-26T09:17:47.000Z</time>
      </trkpt>
      <trkpt lat="47.32422" lon="-2.44034">
        <ele>-73.199996948242</ele>
        <time>2021-08-26T09:17:48.000Z</time>
      </trkpt>
      <trkpt lat="47.32426" lon="-2.44032">
        <ele>-72.800003051758</ele>
        <time>2021-08-26T09:17:49.000Z</time>
      </trkpt>
      <trkpt lat="47.32429" lon="-2.44029">
        <ele>-72.400001525879</ele>
        <time>2021-08-26T09:17:50.000Z</time>
      </trkpt>
      <trkpt lat="47.3244" lon="-2.44023">
        <ele>-72.400001525879</ele>
        <time>2021-08-26T09:17:53.000Z</time>
      </trkpt>
      <trkpt lat="47.32448" lon="-2.44017">
        <ele>-72.400001525879</ele>
        <time>2021-08-26T09:17:55.000Z</time>
      </trkpt>
      <trkpt lat="47.32464" lon="-2.44006">
        <ele>-72.400001525879</ele>
        <time>2021-08-26T09:17:59.000Z</time>
      </trkpt>
      <trkpt lat="47.32474" lon="-2.43999">
        <ele>-72</ele>
        <time>2021-08-26T09:18:02.000Z</time>
      </trkpt>
      <trkpt lat="47.32478" lon="-2.43996">
        <ele>-71.599998474121</ele>
        <time>2021-08-26T09:18:03.000Z</time>
      </trkpt>
      <trkpt lat="47.32482" lon="-2.43994">
        <ele>-71.199996948242</ele>
        <time>2021-08-26T09:18:04.000Z</time>
      </trkpt>
      <trkpt lat="47.32486" lon="-2.43991">
        <ele>-70.800003051758</ele>
        <time>2021-08-26T09:18:05.000Z</time>
      </trkpt>
      <trkpt lat="47.3249" lon="-2.43989">
        <ele>-70.400001525879</ele>
        <time>2021-08-26T09:18:06.000Z</time>
      </trkpt>
      <trkpt lat="47.32504" lon="-2.43985">
        <ele>-70.400001525879</ele>
        <time>2021-08-26T09:18:10.000Z</time>
      </trkpt>
      <trkpt lat="47.32512" lon="-2.4399">
        <ele>-70.400001525879</ele>
        <time>2021-08-26T09:18:12.000Z</time>
      </trkpt>
      <trkpt lat="47.32519" lon="-2.44001">
        <ele>-70.400001525879</ele>
        <time>2021-08-26T09:18:14.000Z</time>
      </trkpt>
      <trkpt lat="47.32524" lon="-2.44006">
        <ele>-70.400001525879</ele>
        <time>2021-08-26T09:18:15.000Z</time>
      </trkpt>
      <trkpt lat="47.32538" lon="-2.44019">
        <ele>-70.400001525879</ele>
        <time>2021-08-26T09:18:18.000Z</time>
      </trkpt>
      <trkpt lat="47.32559" lon="-2.44031">
        <ele>-70.400001525879</ele>
        <time>2021-08-26T09:18:23.000Z</time>
      </trkpt>
      <trkpt lat="47.3257" lon="-2.44038">
        <ele>-70.400001525879</ele>
        <time>2021-08-26T09:18:27.000Z</time>
      </trkpt>
      <trkpt lat="47.32571" lon="-2.44041">
        <ele>-70.400001525879</ele>
        <time>2021-08-26T09:18:28.000Z</time>
      </trkpt>
      <trkpt lat="47.32568" lon="-2.44052">
        <ele>-70.400001525879</ele>
        <time>2021-08-26T09:18:31.000Z</time>
      </trkpt>
      <trkpt lat="47.32567" lon="-2.44056">
        <ele>-70.400001525879</ele>
        <time>2021-08-26T09:18:32.000Z</time>
      </trkpt>
      <trkpt lat="47.32563" lon="-2.44072">
        <ele>-70.400001525879</ele>
        <time>2021-08-26T09:18:35.000Z</time>
      </trkpt>
      <trkpt lat="47.32558" lon="-2.44085">
        <ele>-70.400001525879</ele>
        <time>2021-08-26T09:18:37.000Z</time>
      </trkpt>
      <trkpt lat="47.32551" lon="-2.44107">
        <ele>-69.800003051758</ele>
        <time>2021-08-26T09:18:40.000Z</time>
      </trkpt>
      <trkpt lat="47.32549" lon="-2.44114">
        <ele>-69.400001525879</ele>
        <time>2021-08-26T09:18:41.000Z</time>
      </trkpt>
      <trkpt lat="47.32547" lon="-2.44121">
        <ele>-69</ele>
        <time>2021-08-26T09:18:42.000Z</time>
      </trkpt>
      <trkpt lat="47.32545" lon="-2.44129">
        <ele>-68.599998474121</ele>
        <time>2021-08-26T09:18:43.000Z</time>
      </trkpt>
      <trkpt lat="47.32543" lon="-2.44137">
        <ele>-68</ele>
        <time>2021-08-26T09:18:44.000Z</time>
      </trkpt>
      <trkpt lat="47.32529" lon="-2.44183">
        <ele>-68</ele>
        <time>2021-08-26T09:18:50.000Z</time>
      </trkpt>
      <trkpt lat="47.32527" lon="-2.44191">
        <ele>-68</ele>
        <time>2021-08-26T09:18:51.000Z</time>
      </trkpt>
      <trkpt lat="47.3253" lon="-2.44213">
        <ele>-68</ele>
        <time>2021-08-26T09:18:54.000Z</time>
      </trkpt>
      <trkpt lat="47.32536" lon="-2.44225">
        <ele>-68</ele>
        <time>2021-08-26T09:18:56.000Z</time>
      </trkpt>
      <trkpt lat="47.3255" lon="-2.44249">
        <ele>-68</ele>
        <time>2021-08-26T09:19:00.000Z</time>
      </trkpt>
      <trkpt lat="47.32556" lon="-2.44263">
        <ele>-68</ele>
        <time>2021-08-26T09:19:02.000Z</time>
      </trkpt>
      <trkpt lat="47.3256" lon="-2.44281">
        <ele>-68</ele>
        <time>2021-08-26T09:19:04.000Z</time>
      </trkpt>
      <trkpt lat="47.32563" lon="-2.44299">
        <ele>-68</ele>
        <time>2021-08-26T09:19:06.000Z</time>
      </trkpt>
      <trkpt lat="47.32569" lon="-2.44315">
        <ele>-68</ele>
        <time>2021-08-26T09:19:08.000Z</time>
      </trkpt>
      <trkpt lat="47.32592" lon="-2.4437">
        <ele>-68</ele>
        <time>2021-08-26T09:19:15.000Z</time>
      </trkpt>
      <trkpt lat="47.32608" lon="-2.44382">
        <ele>-68</ele>
        <time>2021-08-26T09:19:18.000Z</time>
      </trkpt>
      <trkpt lat="47.3262" lon="-2.4439">
        <ele>-68</ele>
        <time>2021-08-26T09:19:21.000Z</time>
      </trkpt>
      <trkpt lat="47.32627" lon="-2.4441">
        <ele>-68</ele>
        <time>2021-08-26T09:19:25.000Z</time>
      </trkpt>
      <trkpt lat="47.3263" lon="-2.44416">
        <ele>-68</ele>
        <time>2021-08-26T09:19:26.000Z</time>
      </trkpt>
      <trkpt lat="47.32645" lon="-2.44449">
        <ele>-68</ele>
        <time>2021-08-26T09:19:32.000Z</time>
      </trkpt>
      <trkpt lat="47.32652" lon="-2.44468">
        <ele>-68</ele>
        <time>2021-08-26T09:19:35.000Z</time>
      </trkpt>
      <trkpt lat="47.32661" lon="-2.4449">
        <ele>-68</ele>
        <time>2021-08-26T09:19:39.000Z</time>
      </trkpt>
      <trkpt lat="47.32665" lon="-2.44493">
        <ele>-68</ele>
        <time>2021-08-26T09:19:40.000Z</time>
      </trkpt>
      <trkpt lat="47.32671" lon="-2.44499">
        <ele>-68</ele>
        <time>2021-08-26T09:19:42.000Z</time>
      </trkpt>
      <trkpt lat="47.3267" lon="-2.44512">
        <ele>-68</ele>
        <time>2021-08-26T09:19:45.000Z</time>
      </trkpt>
      <trkpt lat="47.32662" lon="-2.44528">
        <ele>-68</ele>
        <time>2021-08-26T09:19:48.000Z</time>
      </trkpt>
      <trkpt lat="47.32658" lon="-2.44534">
        <ele>-68</ele>
        <time>2021-08-26T09:19:49.000Z</time>
      </trkpt>
      <trkpt lat="47.32638" lon="-2.4457">
        <ele>-68</ele>
        <time>2021-08-26T09:19:54.000Z</time>
      </trkpt>
      <trkpt lat="47.32611" lon="-2.44614">
        <ele>-68</ele>
        <time>2021-08-26T09:20:00.000Z</time>
      </trkpt>
      <trkpt lat="47.32602" lon="-2.44629">
        <ele>-68.400001525879</ele>
        <time>2021-08-26T09:20:02.000Z</time>
      </trkpt>
      <trkpt lat="47.32597" lon="-2.44636">
        <ele>-69</ele>
        <time>2021-08-26T09:20:03.000Z</time>
      </trkpt>
      <trkpt lat="47.32592" lon="-2.44642">
        <ele>-69.400001525879</ele>
        <time>2021-08-26T09:20:04.000Z</time>
      </trkpt>
      <trkpt lat="47.32588" lon="-2.44648">
        <ele>-69.800003051758</ele>
        <time>2021-08-26T09:20:05.000Z</time>
      </trkpt>
      <trkpt lat="47.32584" lon="-2.44654">
        <ele>-70.199996948242</ele>
        <time>2021-08-26T09:20:06.000Z</time>
      </trkpt>
      <trkpt lat="47.32575" lon="-2.44666">
        <ele>-70.599998474121</ele>
        <time>2021-08-26T09:20:08.000Z</time>
      </trkpt>
      <trkpt lat="47.3257" lon="-2.44673">
        <ele>-71</ele>
        <time>2021-08-26T09:20:09.000Z</time>
      </trkpt>
      <trkpt lat="47.32566" lon="-2.44681">
        <ele>-71.599998474121</ele>
        <time>2021-08-26T09:20:10.000Z</time>
      </trkpt>
      <trkpt lat="47.3256" lon="-2.44689">
        <ele>-72</ele>
        <time>2021-08-26T09:20:11.000Z</time>
      </trkpt>
      <trkpt lat="47.32555" lon="-2.44696">
        <ele>-72.599998474121</ele>
        <time>2021-08-26T09:20:12.000Z</time>
      </trkpt>
      <trkpt lat="47.32541" lon="-2.44716">
        <ele>-73</ele>
        <time>2021-08-26T09:20:15.000Z</time>
      </trkpt>
      <trkpt lat="47.32538" lon="-2.44721">
        <ele>-73.599998474121</ele>
        <time>2021-08-26T09:20:16.000Z</time>
      </trkpt>
      <trkpt lat="47.32536" lon="-2.44725">
        <ele>-74</ele>
        <time>2021-08-26T09:20:17.000Z</time>
      </trkpt>
      <trkpt lat="47.32533" lon="-2.44731">
        <ele>-74.599998474121</ele>
        <time>2021-08-26T09:20:18.000Z</time>
      </trkpt>
      <trkpt lat="47.32532" lon="-2.44735">
        <ele>-75</ele>
        <time>2021-08-26T09:20:19.000Z</time>
      </trkpt>
      <trkpt lat="47.32529" lon="-2.4474">
        <ele>-75.599998474121</ele>
        <time>2021-08-26T09:20:20.000Z</time>
      </trkpt>
      <trkpt lat="47.32525" lon="-2.44744">
        <ele>-76</ele>
        <time>2021-08-26T09:20:21.000Z</time>
      </trkpt>
      <trkpt lat="47.32521" lon="-2.44746">
        <ele>-76.400001525879</ele>
        <time>2021-08-26T09:20:22.000Z</time>
      </trkpt>
      <trkpt lat="47.32517" lon="-2.44749">
        <ele>-76.800003051758</ele>
        <time>2021-08-26T09:20:23.000Z</time>
      </trkpt>
      <trkpt lat="47.32513" lon="-2.44752">
        <ele>-77.199996948242</ele>
        <time>2021-08-26T09:20:24.000Z</time>
      </trkpt>
      <trkpt lat="47.32497" lon="-2.44763">
        <ele>-77.599998474121</ele>
        <time>2021-08-26T09:20:27.000Z</time>
      </trkpt>
      <trkpt lat="47.32492" lon="-2.44767">
        <ele>-78.199996948242</ele>
        <time>2021-08-26T09:20:28.000Z</time>
      </trkpt>
      <trkpt lat="47.32487" lon="-2.44771">
        <ele>-78.599998474121</ele>
        <time>2021-08-26T09:20:29.000Z</time>
      </trkpt>
      <trkpt lat="47.32481" lon="-2.44775">
        <ele>-79</ele>
        <time>2021-08-26T09:20:30.000Z</time>
      </trkpt>
      <trkpt lat="47.32476" lon="-2.44779">
        <ele>-79.400001525879</ele>
        <time>2021-08-26T09:20:31.000Z</time>
      </trkpt>
      <trkpt lat="47.32463" lon="-2.44789">
        <ele>-79.400001525879</ele>
        <time>2021-08-26T09:20:33.000Z</time>
      </trkpt>
      <trkpt lat="47.32456" lon="-2.44794">
        <ele>-79.800003051758</ele>
        <time>2021-08-26T09:20:34.000Z</time>
      </trkpt>
      <trkpt lat="47.32448" lon="-2.448">
        <ele>-80.199996948242</ele>
        <time>2021-08-26T09:20:35.000Z</time>
      </trkpt>
      <trkpt lat="47.3244" lon="-2.44807">
        <ele>-80.599998474121</ele>
        <time>2021-08-26T09:20:36.000Z</time>
      </trkpt>
      <trkpt lat="47.32431" lon="-2.44813">
        <ele>-81.199996948242</ele>
        <time>2021-08-26T09:20:37.000Z</time>
      </trkpt>
      <trkpt lat="47.32423" lon="-2.44819">
        <ele>-81.599998474121</ele>
        <time>2021-08-26T09:20:38.000Z</time>
      </trkpt>
      <trkpt lat="47.32387" lon="-2.44845">
        <ele>-81.599998474121</ele>
        <time>2021-08-26T09:20:42.000Z</time>
      </trkpt>
      <trkpt lat="47.32356" lon="-2.4487">
        <ele>-81.599998474121</ele>
        <time>2021-08-26T09:20:46.000Z</time>
      </trkpt>
      <trkpt lat="47.32349" lon="-2.44877">
        <ele>-82</ele>
        <time>2021-08-26T09:20:47.000Z</time>
      </trkpt>
      <trkpt lat="47.32342" lon="-2.44885">
        <ele>-82.400001525879</ele>
        <time>2021-08-26T09:20:48.000Z</time>
      </trkpt>
      <trkpt lat="47.32336" lon="-2.44892">
        <ele>-82.800003051758</ele>
        <time>2021-08-26T09:20:49.000Z</time>
      </trkpt>
      <trkpt lat="47.3233" lon="-2.44901">
        <ele>-83.599998474121</ele>
        <time>2021-08-26T09:20:50.000Z</time>
      </trkpt>
      <trkpt lat="47.32304" lon="-2.44931">
        <ele>-83.599998474121</ele>
        <time>2021-08-26T09:20:54.000Z</time>
      </trkpt>
      <trkpt lat="47.32272" lon="-2.44966">
        <ele>-84</ele>
        <time>2021-08-26T09:20:59.000Z</time>
      </trkpt>
      <trkpt lat="47.32266" lon="-2.44973">
        <ele>-84.400001525879</ele>
        <time>2021-08-26T09:21:00.000Z</time>
      </trkpt>
      <trkpt lat="47.32259" lon="-2.4498">
        <ele>-84.800003051758</ele>
        <time>2021-08-26T09:21:01.000Z</time>
      </trkpt>
      <trkpt lat="47.32253" lon="-2.44987">
        <ele>-85.199996948242</ele>
        <time>2021-08-26T09:21:02.000Z</time>
      </trkpt>
      <trkpt lat="47.32247" lon="-2.44994">
        <ele>-85.599998474121</ele>
        <time>2021-08-26T09:21:03.000Z</time>
      </trkpt>
      <trkpt lat="47.32242" lon="-2.45">
        <ele>-86</ele>
        <time>2021-08-26T09:21:04.000Z</time>
      </trkpt>
      <trkpt lat="47.32236" lon="-2.45007">
        <ele>-86.599998474121</ele>
        <time>2021-08-26T09:21:05.000Z</time>
      </trkpt>
      <trkpt lat="47.32231" lon="-2.45013">
        <ele>-87.199996948242</ele>
        <time>2021-08-26T09:21:06.000Z</time>
      </trkpt>
      <trkpt lat="47.32226" lon="-2.45018">
        <ele>-88</ele>
        <time>2021-08-26T09:21:07.000Z</time>
      </trkpt>
      <trkpt lat="47.32222" lon="-2.45022">
        <ele>-88.800003051758</ele>
        <time>2021-08-26T09:21:08.000Z</time>
      </trkpt>
      <trkpt lat="47.32218" lon="-2.45025">
        <ele>-89.800003051758</ele>
        <time>2021-08-26T09:21:09.000Z</time>
      </trkpt>
      <trkpt lat="47.32214" lon="-2.45026">
        <ele>-90.599998474121</ele>
        <time>2021-08-26T09:21:10.000Z</time>
      </trkpt>
      <trkpt lat="47.32211" lon="-2.45025">
        <ele>-91.400001525879</ele>
        <time>2021-08-26T09:21:11.000Z</time>
      </trkpt>
      <trkpt lat="47.32209" lon="-2.45021">
        <ele>-92.199996948242</ele>
        <time>2021-08-26T09:21:12.000Z</time>
      </trkpt>
      <trkpt lat="47.32206" lon="-2.45016">
        <ele>-93</ele>
        <time>2021-08-26T09:21:13.000Z</time>
      </trkpt>
      <trkpt lat="47.32204" lon="-2.45012">
        <ele>-93.800003051758</ele>
        <time>2021-08-26T09:21:14.000Z</time>
      </trkpt>
      <trkpt lat="47.32202" lon="-2.45007">
        <ele>-94.400001525879</ele>
        <time>2021-08-26T09:21:15.000Z</time>
      </trkpt>
      <trkpt lat="47.32192" lon="-2.44985">
        <ele>-94.400001525879</ele>
        <time>2021-08-26T09:21:19.000Z</time>
      </trkpt>
      <trkpt lat="47.32185" lon="-2.44973">
        <ele>-94.400001525879</ele>
        <time>2021-08-26T09:21:21.000Z</time>
      </trkpt>
      <trkpt lat="47.32175" lon="-2.44964">
        <ele>-94.400001525879</ele>
        <time>2021-08-26T09:21:23.000Z</time>
      </trkpt>
      <trkpt lat="47.32157" lon="-2.44949">
        <ele>-94.400001525879</ele>
        <time>2021-08-26T09:21:26.000Z</time>
      </trkpt>
      <trkpt lat="47.32144" lon="-2.44939">
        <ele>-94.400001525879</ele>
        <time>2021-08-26T09:21:28.000Z</time>
      </trkpt>
      <trkpt lat="47.32138" lon="-2.44932">
        <ele>-94.400001525879</ele>
        <time>2021-08-26T09:21:29.000Z</time>
      </trkpt>
      <trkpt lat="47.32122" lon="-2.44908">
        <ele>-94.400001525879</ele>
        <time>2021-08-26T09:21:32.000Z</time>
      </trkpt>
      <trkpt lat="47.32113" lon="-2.4489">
        <ele>-94.400001525879</ele>
        <time>2021-08-26T09:21:34.000Z</time>
      </trkpt>
      <trkpt lat="47.32102" lon="-2.44861">
        <ele>-94.800003051758</ele>
        <time>2021-08-26T09:21:37.000Z</time>
      </trkpt>
      <trkpt lat="47.32098" lon="-2.44852">
        <ele>-95.199996948242</ele>
        <time>2021-08-26T09:21:38.000Z</time>
      </trkpt>
      <trkpt lat="47.32094" lon="-2.44843">
        <ele>-95.599998474121</ele>
        <time>2021-08-26T09:21:39.000Z</time>
      </trkpt>
      <trkpt lat="47.32091" lon="-2.44834">
        <ele>-96.599998474121</ele>
        <time>2021-08-26T09:21:40.000Z</time>
      </trkpt>
      <trkpt lat="47.32069" lon="-2.44782">
        <ele>-96.599998474121</ele>
        <time>2021-08-26T09:21:46.000Z</time>
      </trkpt>
      <trkpt lat="47.32043" lon="-2.44736">
        <ele>-96.599998474121</ele>
        <time>2021-08-26T09:21:52.000Z</time>
      </trkpt>
      <trkpt lat="47.32033" lon="-2.44722">
        <ele>-97</ele>
        <time>2021-08-26T09:21:54.000Z</time>
      </trkpt>
      <trkpt lat="47.32028" lon="-2.44715">
        <ele>-97.400001525879</ele>
        <time>2021-08-26T09:21:55.000Z</time>
      </trkpt>
      <trkpt lat="47.32023" lon="-2.44708">
        <ele>-97.800003051758</ele>
        <time>2021-08-26T09:21:56.000Z</time>
      </trkpt>
      <trkpt lat="47.32019" lon="-2.44701">
        <ele>-98.199996948242</ele>
        <time>2021-08-26T09:21:57.000Z</time>
      </trkpt>
      <trkpt lat="47.32013" lon="-2.44694">
        <ele>-98.599998474121</ele>
        <time>2021-08-26T09:21:58.000Z</time>
      </trkpt>
      <trkpt lat="47.32009" lon="-2.44687">
        <ele>-98.599998474121</ele>
        <time>2021-08-26T09:21:59.000Z</time>
      </trkpt>
      <trkpt lat="47.31975" lon="-2.44644">
        <ele>-98.599998474121</ele>
        <time>2021-08-26T09:22:06.000Z</time>
      </trkpt>
      <trkpt lat="47.31938" lon="-2.44603">
        <ele>-98.599998474121</ele>
        <time>2021-08-26T09:22:13.000Z</time>
      </trkpt>
      <trkpt lat="47.31909" lon="-2.4457">
        <ele>-98.599998474121</ele>
        <time>2021-08-26T09:22:19.000Z</time>
      </trkpt>
      <trkpt lat="47.31905" lon="-2.44567">
        <ele>-98.599998474121</ele>
        <time>2021-08-26T09:22:20.000Z</time>
      </trkpt>
      <trkpt lat="47.31901" lon="-2.44567">
        <ele>-99</ele>
        <time>2021-08-26T09:22:21.000Z</time>
      </trkpt>
      <trkpt lat="47.31897" lon="-2.44569">
        <ele>-99.400001525879</ele>
        <time>2021-08-26T09:22:22.000Z</time>
      </trkpt>
      <trkpt lat="47.31893" lon="-2.44573">
        <ele>-99.800003051758</ele>
        <time>2021-08-26T09:22:23.000Z</time>
      </trkpt>
      <trkpt lat="47.31891" lon="-2.44578">
        <ele>-100.19999694824</ele>
        <time>2021-08-26T09:22:24.000Z</time>
      </trkpt>
      <trkpt lat="47.31889" lon="-2.44585">
        <ele>-100.59999847412</ele>
        <time>2021-08-26T09:22:25.000Z</time>
      </trkpt>
      <trkpt lat="47.31885" lon="-2.44597">
        <ele>-100.59999847412</ele>
        <time>2021-08-26T09:22:27.000Z</time>
      </trkpt>
      <trkpt lat="47.31883" lon="-2.44604">
        <ele>-100.59999847412</ele>
        <time>2021-08-26T09:22:28.000Z</time>
      </trkpt>
      <trkpt lat="47.31875" lon="-2.44623">
        <ele>-100.59999847412</ele>
        <time>2021-08-26T09:22:31.000Z</time>
      </trkpt>
      <trkpt lat="47.31868" lon="-2.44643">
        <ele>-100.59999847412</ele>
        <time>2021-08-26T09:22:34.000Z</time>
      </trkpt>
      <trkpt lat="47.31863" lon="-2.44657">
        <ele>-101</ele>
        <time>2021-08-26T09:22:36.000Z</time>
      </trkpt>
      <trkpt lat="47.3186" lon="-2.44664">
        <ele>-101.40000152588</ele>
        <time>2021-08-26T09:22:37.000Z</time>
      </trkpt>
      <trkpt lat="47.31857" lon="-2.44671">
        <ele>-101.80000305176</ele>
        <time>2021-08-26T09:22:38.000Z</time>
      </trkpt>
      <trkpt lat="47.31854" lon="-2.44677">
        <ele>-102.19999694824</ele>
        <time>2021-08-26T09:22:39.000Z</time>
      </trkpt>
      <trkpt lat="47.31851" lon="-2.44684">
        <ele>-102.59999847412</ele>
        <time>2021-08-26T09:22:40.000Z</time>
      </trkpt>
      <trkpt lat="47.31834" lon="-2.44707">
        <ele>-102.59999847412</ele>
        <time>2021-08-26T09:22:44.000Z</time>
      </trkpt>
      <trkpt lat="47.31813" lon="-2.44726">
        <ele>-102.59999847412</ele>
        <time>2021-08-26T09:22:48.000Z</time>
      </trkpt>
      <trkpt lat="47.31807" lon="-2.4473">
        <ele>-102.59999847412</ele>
        <time>2021-08-26T09:22:49.000Z</time>
      </trkpt>
      <trkpt lat="47.31774" lon="-2.4475">
        <ele>-102.59999847412</ele>
        <time>2021-08-26T09:22:55.000Z</time>
      </trkpt>
      <trkpt lat="47.31768" lon="-2.44754">
        <ele>-102.59999847412</ele>
        <time>2021-08-26T09:22:56.000Z</time>
      </trkpt>
      <trkpt lat="47.31741" lon="-2.4478">
        <ele>-102.59999847412</ele>
        <time>2021-08-26T09:23:02.000Z</time>
      </trkpt>
      <trkpt lat="47.31732" lon="-2.4479">
        <ele>-102.59999847412</ele>
        <time>2021-08-26T09:23:06.000Z</time>
      </trkpt>
      <trkpt lat="47.3173" lon="-2.4479">
        <ele>-103.19999694824</ele>
        <time>2021-08-26T09:23:07.000Z</time>
      </trkpt>
      <trkpt lat="47.3173" lon="-2.44791">
        <ele>-103.59999847412</ele>
        <time>2021-08-26T09:23:08.000Z</time>
      </trkpt>
      <trkpt lat="47.3173" lon="-2.44791">
        <ele>-104</ele>
        <time>2021-08-26T09:23:09.000Z</time>
      </trkpt>
      <trkpt lat="47.31729" lon="-2.44791">
        <ele>-104.80000305176</ele>
        <time>2021-08-26T09:23:13.000Z</time>
      </trkpt>
      <trkpt lat="47.31727" lon="-2.4479">
        <ele>-104.80000305176</ele>
        <time>2021-08-26T09:23:14.000Z</time>
      </trkpt>
      <trkpt lat="47.31724" lon="-2.44783">
        <ele>-104.80000305176</ele>
        <time>2021-08-26T09:23:16.000Z</time>
      </trkpt>
      <trkpt lat="47.31713" lon="-2.44759">
        <ele>-104.80000305176</ele>
        <time>2021-08-26T09:23:21.000Z</time>
      </trkpt>
      <trkpt lat="47.31694" lon="-2.44714">
        <ele>-104.80000305176</ele>
        <time>2021-08-26T09:23:29.000Z</time>
      </trkpt>
      <trkpt lat="47.31676" lon="-2.44671">
        <ele>-104.80000305176</ele>
        <time>2021-08-26T09:23:37.000Z</time>
      </trkpt>
      <trkpt lat="47.31659" lon="-2.4463">
        <ele>-104.80000305176</ele>
        <time>2021-08-26T09:23:44.000Z</time>
      </trkpt>
      <trkpt lat="47.31642" lon="-2.44594">
        <ele>-104.80000305176</ele>
        <time>2021-08-26T09:23:50.000Z</time>
      </trkpt>
      <trkpt lat="47.31613" lon="-2.44545">
        <ele>-104.80000305176</ele>
        <time>2021-08-26T09:23:58.000Z</time>
      </trkpt>
      <trkpt lat="47.31595" lon="-2.44512">
        <ele>-104.80000305176</ele>
        <time>2021-08-26T09:24:03.000Z</time>
      </trkpt>
      <trkpt lat="47.31593" lon="-2.44505">
        <ele>-104.80000305176</ele>
        <time>2021-08-26T09:24:04.000Z</time>
      </trkpt>
      <trkpt lat="47.3158" lon="-2.44454">
        <ele>-104.80000305176</ele>
        <time>2021-08-26T09:24:10.000Z</time>
      </trkpt>
      <trkpt lat="47.31568" lon="-2.44372">
        <ele>-104.80000305176</ele>
        <time>2021-08-26T09:24:19.000Z</time>
      </trkpt>
      <trkpt lat="47.31558" lon="-2.443">
        <ele>-104.80000305176</ele>
        <time>2021-08-26T09:24:27.000Z</time>
      </trkpt>
      <trkpt lat="47.31545" lon="-2.44225">
        <ele>-104.80000305176</ele>
        <time>2021-08-26T09:24:36.000Z</time>
      </trkpt>
      <trkpt lat="47.31528" lon="-2.44174">
        <ele>-104.80000305176</ele>
        <time>2021-08-26T09:24:43.000Z</time>
      </trkpt>
      <trkpt lat="47.31505" lon="-2.44133">
        <ele>-104.80000305176</ele>
        <time>2021-08-26T09:24:49.000Z</time>
      </trkpt>
      <trkpt lat="47.3146" lon="-2.44075">
        <ele>-104.80000305176</ele>
        <time>2021-08-26T09:24:58.000Z</time>
      </trkpt>
      <trkpt lat="47.31418" lon="-2.4402">
        <ele>-104.80000305176</ele>
        <time>2021-08-26T09:25:07.000Z</time>
      </trkpt>
      <trkpt lat="47.31413" lon="-2.44014">
        <ele>-104.80000305176</ele>
        <time>2021-08-26T09:25:08.000Z</time>
      </trkpt>
      <trkpt lat="47.31368" lon="-2.43955">
        <ele>-104.80000305176</ele>
        <time>2021-08-26T09:25:18.000Z</time>
      </trkpt>
      <trkpt lat="47.31365" lon="-2.43948">
        <ele>-104.80000305176</ele>
        <time>2021-08-26T09:25:19.000Z</time>
      </trkpt>
      <trkpt lat="47.31358" lon="-2.43932">
        <ele>-103.80000305176</ele>
        <time>2021-08-26T09:25:21.000Z</time>
      </trkpt>
      <trkpt lat="47.31355" lon="-2.43924">
        <ele>-103.40000152588</ele>
        <time>2021-08-26T09:25:22.000Z</time>
      </trkpt>
      <trkpt lat="47.31352" lon="-2.43916">
        <ele>-103</ele>
        <time>2021-08-26T09:25:23.000Z</time>
      </trkpt>
      <trkpt lat="47.3135" lon="-2.43908">
        <ele>-102.59999847412</ele>
        <time>2021-08-26T09:25:24.000Z</time>
      </trkpt>
      <trkpt lat="47.31346" lon="-2.43899">
        <ele>-102.59999847412</ele>
        <time>2021-08-26T09:25:25.000Z</time>
      </trkpt>
      <trkpt lat="47.3132" lon="-2.43837">
        <ele>-102.59999847412</ele>
        <time>2021-08-26T09:25:33.000Z</time>
      </trkpt>
      <trkpt lat="47.31316" lon="-2.4383">
        <ele>-102.59999847412</ele>
        <time>2021-08-26T09:25:34.000Z</time>
      </trkpt>
      <trkpt lat="47.31302" lon="-2.43811">
        <ele>-102.59999847412</ele>
        <time>2021-08-26T09:25:37.000Z</time>
      </trkpt>
      <trkpt lat="47.31293" lon="-2.43798">
        <ele>-102.59999847412</ele>
        <time>2021-08-26T09:25:39.000Z</time>
      </trkpt>
      <trkpt lat="47.31273" lon="-2.4375">
        <ele>-102.59999847412</ele>
        <time>2021-08-26T09:25:45.000Z</time>
      </trkpt>
      <trkpt lat="47.31246" lon="-2.43675">
        <ele>-102.59999847412</ele>
        <time>2021-08-26T09:25:54.000Z</time>
      </trkpt>
      <trkpt lat="47.31235" lon="-2.43611">
        <ele>-102.59999847412</ele>
        <time>2021-08-26T09:26:01.000Z</time>
      </trkpt>
      <trkpt lat="47.31223" lon="-2.43533">
        <ele>-102.59999847412</ele>
        <time>2021-08-26T09:26:10.000Z</time>
      </trkpt>
      <trkpt lat="47.31213" lon="-2.43464">
        <ele>-102.59999847412</ele>
        <time>2021-08-26T09:26:18.000Z</time>
      </trkpt>
      <trkpt lat="47.31201" lon="-2.43387">
        <ele>-102.59999847412</ele>
        <time>2021-08-26T09:26:27.000Z</time>
      </trkpt>
      <trkpt lat="47.31194" lon="-2.43344">
        <ele>-102.59999847412</ele>
        <time>2021-08-26T09:26:32.000Z</time>
      </trkpt>
      <trkpt lat="47.3119" lon="-2.43327">
        <ele>-102.59999847412</ele>
        <time>2021-08-26T09:26:34.000Z</time>
      </trkpt>
      <trkpt lat="47.31177" lon="-2.43295">
        <ele>-102.59999847412</ele>
        <time>2021-08-26T09:26:38.000Z</time>
      </trkpt>
      <trkpt lat="47.31168" lon="-2.4328">
        <ele>-102.59999847412</ele>
        <time>2021-08-26T09:26:40.000Z</time>
      </trkpt>
      <trkpt lat="47.31134" lon="-2.43228">
        <ele>-102.59999847412</ele>
        <time>2021-08-26T09:26:47.000Z</time>
      </trkpt>
      <trkpt lat="47.31112" lon="-2.43196">
        <ele>-102.59999847412</ele>
        <time>2021-08-26T09:26:52.000Z</time>
      </trkpt>
      <trkpt lat="47.31106" lon="-2.43194">
        <ele>-102.59999847412</ele>
        <time>2021-08-26T09:26:53.000Z</time>
      </trkpt>
      <trkpt lat="47.31089" lon="-2.43204">
        <ele>-102.59999847412</ele>
        <time>2021-08-26T09:26:56.000Z</time>
      </trkpt>
      <trkpt lat="47.31084" lon="-2.43209">
        <ele>-102.59999847412</ele>
        <time>2021-08-26T09:26:57.000Z</time>
      </trkpt>
      <trkpt lat="47.31052" lon="-2.43239">
        <ele>-102.59999847412</ele>
        <time>2021-08-26T09:27:03.000Z</time>
      </trkpt>
      <trkpt lat="47.31028" lon="-2.43273">
        <ele>-103</ele>
        <time>2021-08-26T09:27:08.000Z</time>
      </trkpt>
      <trkpt lat="47.31024" lon="-2.4328">
        <ele>-103.40000152588</ele>
        <time>2021-08-26T09:27:09.000Z</time>
      </trkpt>
      <trkpt lat="47.31019" lon="-2.43287">
        <ele>-103.80000305176</ele>
        <time>2021-08-26T09:27:10.000Z</time>
      </trkpt>
      <trkpt lat="47.31014" lon="-2.43294">
        <ele>-104.19999694824</ele>
        <time>2021-08-26T09:27:11.000Z</time>
      </trkpt>
      <trkpt lat="47.31008" lon="-2.433">
        <ele>-104.59999847412</ele>
        <time>2021-08-26T09:27:12.000Z</time>
      </trkpt>
      <trkpt lat="47.30989" lon="-2.43314">
        <ele>-104.59999847412</ele>
        <time>2021-08-26T09:27:15.000Z</time>
      </trkpt>
      <trkpt lat="47.3095" lon="-2.43331">
        <ele>-104.59999847412</ele>
        <time>2021-08-26T09:27:21.000Z</time>
      </trkpt>
      <trkpt lat="47.30892" lon="-2.43355">
        <ele>-104.59999847412</ele>
        <time>2021-08-26T09:27:30.000Z</time>
      </trkpt>
      <trkpt lat="47.30874" lon="-2.43363">
        <ele>-104.59999847412</ele>
        <time>2021-08-26T09:27:33.000Z</time>
      </trkpt>
      <trkpt lat="47.30832" lon="-2.4338">
        <ele>-104.59999847412</ele>
        <time>2021-08-26T09:27:40.000Z</time>
      </trkpt>
      <trkpt lat="47.30788" lon="-2.4339">
        <ele>-104.59999847412</ele>
        <time>2021-08-26T09:27:47.000Z</time>
      </trkpt>
      <trkpt lat="47.30736" lon="-2.43391">
        <ele>-104.59999847412</ele>
        <time>2021-08-26T09:27:55.000Z</time>
      </trkpt>
      <trkpt lat="47.30686" lon="-2.43394">
        <ele>-104.59999847412</ele>
        <time>2021-08-26T09:28:03.000Z</time>
      </trkpt>
      <trkpt lat="47.30648" lon="-2.43403">
        <ele>-104.59999847412</ele>
        <time>2021-08-26T09:28:09.000Z</time>
      </trkpt>
      <trkpt lat="47.30636" lon="-2.43405">
        <ele>-105.19999694824</ele>
        <time>2021-08-26T09:28:11.000Z</time>
      </trkpt>
      <trkpt lat="47.3063" lon="-2.43406">
        <ele>-105.59999847412</ele>
        <time>2021-08-26T09:28:12.000Z</time>
      </trkpt>
      <trkpt lat="47.30624" lon="-2.43407">
        <ele>-106</ele>
        <time>2021-08-26T09:28:13.000Z</time>
      </trkpt>
      <trkpt lat="47.30619" lon="-2.43409">
        <ele>-106.80000305176</ele>
        <time>2021-08-26T09:28:14.000Z</time>
      </trkpt>
      <trkpt lat="47.30608" lon="-2.43413">
        <ele>-106.80000305176</ele>
        <time>2021-08-26T09:28:16.000Z</time>
      </trkpt>
      <trkpt lat="47.3057" lon="-2.43421">
        <ele>-106.80000305176</ele>
        <time>2021-08-26T09:28:23.000Z</time>
      </trkpt>
      <trkpt lat="47.30534" lon="-2.4342">
        <ele>-106.80000305176</ele>
        <time>2021-08-26T09:28:29.000Z</time>
      </trkpt>
      <trkpt lat="47.30483" lon="-2.43413">
        <ele>-106.80000305176</ele>
        <time>2021-08-26T09:28:37.000Z</time>
      </trkpt>
      <trkpt lat="47.30465" lon="-2.43414">
        <ele>-106.80000305176</ele>
        <time>2021-08-26T09:28:40.000Z</time>
      </trkpt>
      <trkpt lat="47.30453" lon="-2.43419">
        <ele>-106.80000305176</ele>
        <time>2021-08-26T09:28:42.000Z</time>
      </trkpt>
      <trkpt lat="47.30442" lon="-2.43423">
        <ele>-106.80000305176</ele>
        <time>2021-08-26T09:28:44.000Z</time>
      </trkpt>
      <trkpt lat="47.30431" lon="-2.43414">
        <ele>-106.80000305176</ele>
        <time>2021-08-26T09:28:46.000Z</time>
      </trkpt>
      <trkpt lat="47.30423" lon="-2.43391">
        <ele>-106.40000152588</ele>
        <time>2021-08-26T09:28:49.000Z</time>
      </trkpt>
      <trkpt lat="47.30422" lon="-2.43383">
        <ele>-106</ele>
        <time>2021-08-26T09:28:50.000Z</time>
      </trkpt>
      <trkpt lat="47.30421" lon="-2.43375">
        <ele>-105.40000152588</ele>
        <time>2021-08-26T09:28:51.000Z</time>
      </trkpt>
      <trkpt lat="47.30419" lon="-2.43368">
        <ele>-105</ele>
        <time>2021-08-26T09:28:52.000Z</time>
      </trkpt>
      <trkpt lat="47.30419" lon="-2.43361">
        <ele>-104.59999847412</ele>
        <time>2021-08-26T09:28:53.000Z</time>
      </trkpt>
      <trkpt lat="47.30417" lon="-2.43349">
        <ele>-104.59999847412</ele>
        <time>2021-08-26T09:28:55.000Z</time>
      </trkpt>
      <trkpt lat="47.30414" lon="-2.43336">
        <ele>-104.59999847412</ele>
        <time>2021-08-26T09:28:57.000Z</time>
      </trkpt>
      <trkpt lat="47.3041" lon="-2.43316">
        <ele>-104.59999847412</ele>
        <time>2021-08-26T09:29:00.000Z</time>
      </trkpt>
      <trkpt lat="47.30409" lon="-2.43309">
        <ele>-104.59999847412</ele>
        <time>2021-08-26T09:29:01.000Z</time>
      </trkpt>
      <trkpt lat="47.30397" lon="-2.43266">
        <ele>-104.59999847412</ele>
        <time>2021-08-26T09:29:07.000Z</time>
      </trkpt>
      <trkpt lat="47.30391" lon="-2.43251">
        <ele>-104.59999847412</ele>
        <time>2021-08-26T09:29:09.000Z</time>
      </trkpt>
      <trkpt lat="47.30378" lon="-2.43237">
        <ele>-104.59999847412</ele>
        <time>2021-08-26T09:29:12.000Z</time>
      </trkpt>
      <trkpt lat="47.30359" lon="-2.4324">
        <ele>-104.59999847412</ele>
        <time>2021-08-26T09:29:15.000Z</time>
      </trkpt>
      <trkpt lat="47.30353" lon="-2.43242">
        <ele>-104.59999847412</ele>
        <time>2021-08-26T09:29:16.000Z</time>
      </trkpt>
      <trkpt lat="47.30336" lon="-2.43247">
        <ele>-104.59999847412</ele>
        <time>2021-08-26T09:29:19.000Z</time>
      </trkpt>
      <trkpt lat="47.30324" lon="-2.4325">
        <ele>-104.59999847412</ele>
        <time>2021-08-26T09:29:21.000Z</time>
      </trkpt>
      <trkpt lat="47.3028" lon="-2.43259">
        <ele>-104.59999847412</ele>
        <time>2021-08-26T09:29:28.000Z</time>
      </trkpt>
      <trkpt lat="47.30275" lon="-2.43261">
        <ele>-105</ele>
        <time>2021-08-26T09:29:29.000Z</time>
      </trkpt>
      <trkpt lat="47.30269" lon="-2.43264">
        <ele>-105.40000152588</ele>
        <time>2021-08-26T09:29:30.000Z</time>
      </trkpt>
      <trkpt lat="47.30263" lon="-2.43266">
        <ele>-105.80000305176</ele>
        <time>2021-08-26T09:29:31.000Z</time>
      </trkpt>
      <trkpt lat="47.30257" lon="-2.43267">
        <ele>-106.19999694824</ele>
        <time>2021-08-26T09:29:32.000Z</time>
      </trkpt>
      <trkpt lat="47.30251" lon="-2.4327">
        <ele>-106.59999847412</ele>
        <time>2021-08-26T09:29:33.000Z</time>
      </trkpt>
      <trkpt lat="47.30244" lon="-2.43272">
        <ele>-106.59999847412</ele>
        <time>2021-08-26T09:29:34.000Z</time>
      </trkpt>
      <trkpt lat="47.3019" lon="-2.43297">
        <ele>-106.59999847412</ele>
        <time>2021-08-26T09:29:43.000Z</time>
      </trkpt>
      <trkpt lat="47.30178" lon="-2.43303">
        <ele>-106.59999847412</ele>
        <time>2021-08-26T09:29:45.000Z</time>
      </trkpt>
      <trkpt lat="47.30159" lon="-2.43309">
        <ele>-106.59999847412</ele>
        <time>2021-08-26T09:29:48.000Z</time>
      </trkpt>
      <trkpt lat="47.30127" lon="-2.4332">
        <ele>-106.59999847412</ele>
        <time>2021-08-26T09:29:53.000Z</time>
      </trkpt>
      <trkpt lat="47.30114" lon="-2.43324">
        <ele>-106.59999847412</ele>
        <time>2021-08-26T09:29:55.000Z</time>
      </trkpt>
      <trkpt lat="47.30076" lon="-2.43331">
        <ele>-106.59999847412</ele>
        <time>2021-08-26T09:30:01.000Z</time>
      </trkpt>
      <trkpt lat="47.30053" lon="-2.43336">
        <ele>-106.59999847412</ele>
        <time>2021-08-26T09:30:05.000Z</time>
      </trkpt>
      <trkpt lat="47.30041" lon="-2.43336">
        <ele>-106.59999847412</ele>
        <time>2021-08-26T09:30:07.000Z</time>
      </trkpt>
      <trkpt lat="47.30035" lon="-2.43336">
        <ele>-106.59999847412</ele>
        <time>2021-08-26T09:30:08.000Z</time>
      </trkpt>
      <trkpt lat="47.30013" lon="-2.43328">
        <ele>-106.59999847412</ele>
        <time>2021-08-26T09:30:12.000Z</time>
      </trkpt>
      <trkpt lat="47.30008" lon="-2.43326">
        <ele>-106.59999847412</ele>
        <time>2021-08-26T09:30:13.000Z</time>
      </trkpt>
      <trkpt lat="47.29997" lon="-2.43318">
        <ele>-106.59999847412</ele>
        <time>2021-08-26T09:30:15.000Z</time>
      </trkpt>
      <trkpt lat="47.29979" lon="-2.43301">
        <ele>-106.59999847412</ele>
        <time>2021-08-26T09:30:19.000Z</time>
      </trkpt>
      <trkpt lat="47.29957" lon="-2.43297">
        <ele>-106.59999847412</ele>
        <time>2021-08-26T09:30:23.000Z</time>
      </trkpt>
      <trkpt lat="47.29946" lon="-2.433">
        <ele>-106.59999847412</ele>
        <time>2021-08-26T09:30:25.000Z</time>
      </trkpt>
      <trkpt lat="47.29925" lon="-2.4331">
        <ele>-106.59999847412</ele>
        <time>2021-08-26T09:30:29.000Z</time>
      </trkpt>
      <trkpt lat="47.29915" lon="-2.43312">
        <ele>-106.59999847412</ele>
        <time>2021-08-26T09:30:31.000Z</time>
      </trkpt>
      <trkpt lat="47.29904" lon="-2.43311">
        <ele>-106.59999847412</ele>
        <time>2021-08-26T09:30:33.000Z</time>
      </trkpt>
      <trkpt lat="47.29899" lon="-2.43311">
        <ele>-106.59999847412</ele>
        <time>2021-08-26T09:30:34.000Z</time>
      </trkpt>
      <trkpt lat="47.29885" lon="-2.4332">
        <ele>-106.59999847412</ele>
        <time>2021-08-26T09:30:37.000Z</time>
      </trkpt>
      <trkpt lat="47.29876" lon="-2.4333">
        <ele>-106.59999847412</ele>
        <time>2021-08-26T09:30:39.000Z</time>
      </trkpt>
      <trkpt lat="47.29861" lon="-2.43346">
        <ele>-106.59999847412</ele>
        <time>2021-08-26T09:30:42.000Z</time>
      </trkpt>
      <trkpt lat="47.29814" lon="-2.43397">
        <ele>-106.59999847412</ele>
        <time>2021-08-26T09:30:51.000Z</time>
      </trkpt>
      <trkpt lat="47.29804" lon="-2.43409">
        <ele>-106.59999847412</ele>
        <time>2021-08-26T09:30:53.000Z</time>
      </trkpt>
      <trkpt lat="47.29766" lon="-2.43451">
        <ele>-106.59999847412</ele>
        <time>2021-08-26T09:31:01.000Z</time>
      </trkpt>
      <trkpt lat="47.29736" lon="-2.43482">
        <ele>-106.59999847412</ele>
        <time>2021-08-26T09:31:07.000Z</time>
      </trkpt>
      <trkpt lat="47.29684" lon="-2.43521">
        <ele>-106.59999847412</ele>
        <time>2021-08-26T09:31:16.000Z</time>
      </trkpt>
      <trkpt lat="47.29652" lon="-2.43541">
        <ele>-106.59999847412</ele>
        <time>2021-08-26T09:31:23.000Z</time>
      </trkpt>
      <trkpt lat="47.29646" lon="-2.43548">
        <ele>-106.59999847412</ele>
        <time>2021-08-26T09:31:25.000Z</time>
      </trkpt>
      <trkpt lat="47.29635" lon="-2.43559">
        <ele>-106.59999847412</ele>
        <time>2021-08-26T09:31:28.000Z</time>
      </trkpt>
      <trkpt lat="47.29622" lon="-2.43552">
        <ele>-106.59999847412</ele>
        <time>2021-08-26T09:31:31.000Z</time>
      </trkpt>
      <trkpt lat="47.29624" lon="-2.43538">
        <ele>-106.59999847412</ele>
        <time>2021-08-26T09:31:33.000Z</time>
      </trkpt>
      <trkpt lat="47.29627" lon="-2.43524">
        <ele>-106.59999847412</ele>
        <time>2021-08-26T09:31:35.000Z</time>
      </trkpt>
      <trkpt lat="47.29628" lon="-2.43517">
        <ele>-106.59999847412</ele>
        <time>2021-08-26T09:31:36.000Z</time>
      </trkpt>
      <trkpt lat="47.29625" lon="-2.43504">
        <ele>-106.59999847412</ele>
        <time>2021-08-26T09:31:38.000Z</time>
      </trkpt>
      <trkpt lat="47.29617" lon="-2.43493">
        <ele>-106.59999847412</ele>
        <time>2021-08-26T09:31:41.000Z</time>
      </trkpt>
      <trkpt lat="47.29615" lon="-2.43488">
        <ele>-106.59999847412</ele>
        <time>2021-08-26T09:31:44.000Z</time>
      </trkpt>
      <trkpt lat="47.29613" lon="-2.43494">
        <ele>-106.59999847412</ele>
        <time>2021-08-26T09:31:47.000Z</time>
      </trkpt>
      <trkpt lat="47.29607" lon="-2.43497">
        <ele>-106.59999847412</ele>
        <time>2021-08-26T09:31:51.000Z</time>
      </trkpt>
      <trkpt lat="47.29597" lon="-2.43498">
        <ele>-106.59999847412</ele>
        <time>2021-08-26T09:31:54.000Z</time>
      </trkpt>
      <trkpt lat="47.29592" lon="-2.43498">
        <ele>-106.59999847412</ele>
        <time>2021-08-26T09:31:55.000Z</time>
      </trkpt>
      <trkpt lat="47.29576" lon="-2.43498">
        <ele>-106.59999847412</ele>
        <time>2021-08-26T09:31:58.000Z</time>
      </trkpt>
      <trkpt lat="47.29566" lon="-2.43497">
        <ele>-106.59999847412</ele>
        <time>2021-08-26T09:32:00.000Z</time>
      </trkpt>
      <trkpt lat="47.29525" lon="-2.4349">
        <ele>-106.59999847412</ele>
        <time>2021-08-26T09:32:07.000Z</time>
      </trkpt>
      <trkpt lat="47.29496" lon="-2.43478">
        <ele>-106.59999847412</ele>
        <time>2021-08-26T09:32:12.000Z</time>
      </trkpt>
      <trkpt lat="47.29491" lon="-2.43475">
        <ele>-106.59999847412</ele>
        <time>2021-08-26T09:32:13.000Z</time>
      </trkpt>
      <trkpt lat="47.29465" lon="-2.43462">
        <ele>-106.59999847412</ele>
        <time>2021-08-26T09:32:18.000Z</time>
      </trkpt>
      <trkpt lat="47.2946" lon="-2.43464">
        <ele>-106.59999847412</ele>
        <time>2021-08-26T09:32:19.000Z</time>
      </trkpt>
      <trkpt lat="47.29442" lon="-2.43447">
        <ele>-106.59999847412</ele>
        <time>2021-08-26T09:32:23.000Z</time>
      </trkpt>
      <trkpt lat="47.29436" lon="-2.43418">
        <ele>-106.59999847412</ele>
        <time>2021-08-26T09:32:27.000Z</time>
      </trkpt>
      <trkpt lat="47.29436" lon="-2.4341">
        <ele>-106.59999847412</ele>
        <time>2021-08-26T09:32:28.000Z</time>
      </trkpt>
      <trkpt lat="47.29434" lon="-2.43403">
        <ele>-106.59999847412</ele>
        <time>2021-08-26T09:32:29.000Z</time>
      </trkpt>
      <trkpt lat="47.29426" lon="-2.43386">
        <ele>-106.59999847412</ele>
        <time>2021-08-26T09:32:32.000Z</time>
      </trkpt>
      <trkpt lat="47.29412" lon="-2.43382">
        <ele>-106.59999847412</ele>
        <time>2021-08-26T09:32:35.000Z</time>
      </trkpt>
      <trkpt lat="47.2941" lon="-2.43371">
        <ele>-106.59999847412</ele>
        <time>2021-08-26T09:32:37.000Z</time>
      </trkpt>
      <trkpt lat="47.29403" lon="-2.43341">
        <ele>-106.59999847412</ele>
        <time>2021-08-26T09:32:42.000Z</time>
      </trkpt>
      <trkpt lat="47.29387" lon="-2.43319">
        <ele>-106.59999847412</ele>
        <time>2021-08-26T09:32:46.000Z</time>
      </trkpt>
      <trkpt lat="47.29365" lon="-2.43292">
        <ele>-106.59999847412</ele>
        <time>2021-08-26T09:32:51.000Z</time>
      </trkpt>
      <trkpt lat="47.29364" lon="-2.43284">
        <ele>-106.59999847412</ele>
        <time>2021-08-26T09:32:52.000Z</time>
      </trkpt>
      <trkpt lat="47.29361" lon="-2.43259">
        <ele>-106.59999847412</ele>
        <time>2021-08-26T09:32:55.000Z</time>
      </trkpt>
      <trkpt lat="47.29361" lon="-2.43251">
        <ele>-106.59999847412</ele>
        <time>2021-08-26T09:32:56.000Z</time>
      </trkpt>
      <trkpt lat="47.29363" lon="-2.43236">
        <ele>-106.59999847412</ele>
        <time>2021-08-26T09:32:58.000Z</time>
      </trkpt>
      <trkpt lat="47.29368" lon="-2.43222">
        <ele>-106.59999847412</ele>
        <time>2021-08-26T09:33:00.000Z</time>
      </trkpt>
      <trkpt lat="47.29375" lon="-2.43194">
        <ele>-106.59999847412</ele>
        <time>2021-08-26T09:33:04.000Z</time>
      </trkpt>
      <trkpt lat="47.29369" lon="-2.43156">
        <ele>-106.59999847412</ele>
        <time>2021-08-26T09:33:09.000Z</time>
      </trkpt>
      <trkpt lat="47.29359" lon="-2.43127">
        <ele>-106.59999847412</ele>
        <time>2021-08-26T09:33:13.000Z</time>
      </trkpt>
      <trkpt lat="47.29352" lon="-2.43114">
        <ele>-106.59999847412</ele>
        <time>2021-08-26T09:33:15.000Z</time>
      </trkpt>
      <trkpt lat="47.29342" lon="-2.43094">
        <ele>-106.59999847412</ele>
        <time>2021-08-26T09:33:18.000Z</time>
      </trkpt>
      <trkpt lat="47.29332" lon="-2.43084">
        <ele>-106.59999847412</ele>
        <time>2021-08-26T09:33:20.000Z</time>
      </trkpt>
      <trkpt lat="47.29315" lon="-2.43075">
        <ele>-106.59999847412</ele>
        <time>2021-08-26T09:33:23.000Z</time>
      </trkpt>
      <trkpt lat="47.29309" lon="-2.43071">
        <ele>-106.59999847412</ele>
        <time>2021-08-26T09:33:24.000Z</time>
      </trkpt>
      <trkpt lat="47.29303" lon="-2.43047">
        <ele>-106.59999847412</ele>
        <time>2021-08-26T09:33:27.000Z</time>
      </trkpt>
      <trkpt lat="47.29308" lon="-2.43016">
        <ele>-106.59999847412</ele>
        <time>2021-08-26T09:33:31.000Z</time>
      </trkpt>
      <trkpt lat="47.29308" lon="-2.43008">
        <ele>-106.59999847412</ele>
        <time>2021-08-26T09:33:32.000Z</time>
      </trkpt>
      <trkpt lat="47.29312" lon="-2.42976">
        <ele>-106.59999847412</ele>
        <time>2021-08-26T09:33:36.000Z</time>
      </trkpt>
      <trkpt lat="47.29312" lon="-2.42949">
        <ele>-106.59999847412</ele>
        <time>2021-08-26T09:33:39.000Z</time>
      </trkpt>
      <trkpt lat="47.29312" lon="-2.42932">
        <ele>-106.19999694824</ele>
        <time>2021-08-26T09:33:41.000Z</time>
      </trkpt>
      <trkpt lat="47.29315" lon="-2.42925">
        <ele>-105.80000305176</ele>
        <time>2021-08-26T09:33:42.000Z</time>
      </trkpt>
      <trkpt lat="47.29317" lon="-2.42917">
        <ele>-105.40000152588</ele>
        <time>2021-08-26T09:33:43.000Z</time>
      </trkpt>
      <trkpt lat="47.29318" lon="-2.4291">
        <ele>-105</ele>
        <time>2021-08-26T09:33:44.000Z</time>
      </trkpt>
      <trkpt lat="47.2932" lon="-2.42902">
        <ele>-104.59999847412</ele>
        <time>2021-08-26T09:33:45.000Z</time>
      </trkpt>
      <trkpt lat="47.29332" lon="-2.42856">
        <ele>-104.59999847412</ele>
        <time>2021-08-26T09:33:51.000Z</time>
      </trkpt>
      <trkpt lat="47.29339" lon="-2.42841">
        <ele>-104.59999847412</ele>
        <time>2021-08-26T09:33:53.000Z</time>
      </trkpt>
      <trkpt lat="47.29352" lon="-2.42822">
        <ele>-104.59999847412</ele>
        <time>2021-08-26T09:33:56.000Z</time>
      </trkpt>
      <trkpt lat="47.29361" lon="-2.42811">
        <ele>-104.59999847412</ele>
        <time>2021-08-26T09:33:58.000Z</time>
      </trkpt>
      <trkpt lat="47.29374" lon="-2.42795">
        <ele>-104.59999847412</ele>
        <time>2021-08-26T09:34:01.000Z</time>
      </trkpt>
      <trkpt lat="47.29379" lon="-2.4278">
        <ele>-104.59999847412</ele>
        <time>2021-08-26T09:34:03.000Z</time>
      </trkpt>
      <trkpt lat="47.29381" lon="-2.42773">
        <ele>-104.59999847412</ele>
        <time>2021-08-26T09:34:04.000Z</time>
      </trkpt>
      <trkpt lat="47.29384" lon="-2.42756">
        <ele>-104.59999847412</ele>
        <time>2021-08-26T09:34:06.000Z</time>
      </trkpt>
      <trkpt lat="47.29399" lon="-2.42712">
        <ele>-104.59999847412</ele>
        <time>2021-08-26T09:34:12.000Z</time>
      </trkpt>
      <trkpt lat="47.29416" lon="-2.42673">
        <ele>-104.59999847412</ele>
        <time>2021-08-26T09:34:18.000Z</time>
      </trkpt>
      <trkpt lat="47.29418" lon="-2.42666">
        <ele>-104.59999847412</ele>
        <time>2021-08-26T09:34:19.000Z</time>
      </trkpt>
      <trkpt lat="47.2942" lon="-2.42643">
        <ele>-104.59999847412</ele>
        <time>2021-08-26T09:34:22.000Z</time>
      </trkpt>
      <trkpt lat="47.29424" lon="-2.42588">
        <ele>-104.59999847412</ele>
        <time>2021-08-26T09:34:29.000Z</time>
      </trkpt>
      <trkpt lat="47.29434" lon="-2.42573">
        <ele>-104.59999847412</ele>
        <time>2021-08-26T09:34:32.000Z</time>
      </trkpt>
      <trkpt lat="47.29437" lon="-2.42569">
        <ele>-104.59999847412</ele>
        <time>2021-08-26T09:34:33.000Z</time>
      </trkpt>
      <trkpt lat="47.29455" lon="-2.42548">
        <ele>-104.59999847412</ele>
        <time>2021-08-26T09:34:38.000Z</time>
      </trkpt>
      <trkpt lat="47.2947" lon="-2.42535">
        <ele>-104.59999847412</ele>
        <time>2021-08-26T09:34:42.000Z</time>
      </trkpt>
      <trkpt lat="47.29473" lon="-2.42531">
        <ele>-104.59999847412</ele>
        <time>2021-08-26T09:34:43.000Z</time>
      </trkpt>
      <trkpt lat="47.29493" lon="-2.42508">
        <ele>-104.59999847412</ele>
        <time>2021-08-26T09:34:49.000Z</time>
      </trkpt>
      <trkpt lat="47.29513" lon="-2.42485">
        <ele>-104.59999847412</ele>
        <time>2021-08-26T09:34:54.000Z</time>
      </trkpt>
      <trkpt lat="47.29537" lon="-2.42465">
        <ele>-104.59999847412</ele>
        <time>2021-08-26T09:34:59.000Z</time>
      </trkpt>
      <trkpt lat="47.29549" lon="-2.42441">
        <ele>-104.59999847412</ele>
        <time>2021-08-26T09:35:03.000Z</time>
      </trkpt>
      <trkpt lat="47.29562" lon="-2.42429">
        <ele>-104.59999847412</ele>
        <time>2021-08-26T09:35:06.000Z</time>
      </trkpt>
      <trkpt lat="47.29586" lon="-2.42425">
        <ele>-104.59999847412</ele>
        <time>2021-08-26T09:35:11.000Z</time>
      </trkpt>
      <trkpt lat="47.29614" lon="-2.42434">
        <ele>-105</ele>
        <time>2021-08-26T09:35:17.000Z</time>
      </trkpt>
      <trkpt lat="47.29618" lon="-2.42435">
        <ele>-105.40000152588</ele>
        <time>2021-08-26T09:35:18.000Z</time>
      </trkpt>
      <trkpt lat="47.29622" lon="-2.42435">
        <ele>-105.80000305176</ele>
        <time>2021-08-26T09:35:19.000Z</time>
      </trkpt>
      <trkpt lat="47.29624" lon="-2.42435">
        <ele>-106.19999694824</ele>
        <time>2021-08-26T09:35:20.000Z</time>
      </trkpt>
      <trkpt lat="47.29627" lon="-2.42431">
        <ele>-106.59999847412</ele>
        <time>2021-08-26T09:35:21.000Z</time>
      </trkpt>
      <trkpt lat="47.29628" lon="-2.42426">
        <ele>-106.59999847412</ele>
        <time>2021-08-26T09:35:22.000Z</time>
      </trkpt>
      <trkpt lat="47.29631" lon="-2.42406">
        <ele>-106.59999847412</ele>
        <time>2021-08-26T09:35:25.000Z</time>
      </trkpt>
      <trkpt lat="47.29634" lon="-2.4239">
        <ele>-106.59999847412</ele>
        <time>2021-08-26T09:35:27.000Z</time>
      </trkpt>
      <trkpt lat="47.29644" lon="-2.42341">
        <ele>-106.59999847412</ele>
        <time>2021-08-26T09:35:33.000Z</time>
      </trkpt>
      <trkpt lat="47.29658" lon="-2.42276">
        <ele>-106.19999694824</ele>
        <time>2021-08-26T09:35:41.000Z</time>
      </trkpt>
      <trkpt lat="47.2966" lon="-2.42269">
        <ele>-105.80000305176</ele>
        <time>2021-08-26T09:35:42.000Z</time>
      </trkpt>
      <trkpt lat="47.29662" lon="-2.42262">
        <ele>-105.40000152588</ele>
        <time>2021-08-26T09:35:43.000Z</time>
      </trkpt>
      <trkpt lat="47.29663" lon="-2.42255">
        <ele>-104.80000305176</ele>
        <time>2021-08-26T09:35:44.000Z</time>
      </trkpt>
      <trkpt lat="47.29665" lon="-2.42248">
        <ele>-104.40000152588</ele>
        <time>2021-08-26T09:35:45.000Z</time>
      </trkpt>
      <trkpt lat="47.29669" lon="-2.42234">
        <ele>-104.40000152588</ele>
        <time>2021-08-26T09:35:47.000Z</time>
      </trkpt>
      <trkpt lat="47.29681" lon="-2.42208">
        <ele>-104.40000152588</ele>
        <time>2021-08-26T09:35:51.000Z</time>
      </trkpt>
      <trkpt lat="47.29688" lon="-2.42194">
        <ele>-104.40000152588</ele>
        <time>2021-08-26T09:35:53.000Z</time>
      </trkpt>
      <trkpt lat="47.29718" lon="-2.42144">
        <ele>-104.40000152588</ele>
        <time>2021-08-26T09:36:00.000Z</time>
      </trkpt>
      <trkpt lat="47.29741" lon="-2.42102">
        <ele>-104.40000152588</ele>
        <time>2021-08-26T09:36:06.000Z</time>
      </trkpt>
      <trkpt lat="47.29769" lon="-2.42052">
        <ele>-104.40000152588</ele>
        <time>2021-08-26T09:36:13.000Z</time>
      </trkpt>
      <trkpt lat="47.29785" lon="-2.42016">
        <ele>-104.40000152588</ele>
        <time>2021-08-26T09:36:18.000Z</time>
      </trkpt>
      <trkpt lat="47.29787" lon="-2.42007">
        <ele>-104.40000152588</ele>
        <time>2021-08-26T09:36:19.000Z</time>
      </trkpt>
      <trkpt lat="47.29784" lon="-2.41974">
        <ele>-104.40000152588</ele>
        <time>2021-08-26T09:36:23.000Z</time>
      </trkpt>
      <trkpt lat="47.29782" lon="-2.41966">
        <ele>-104.40000152588</ele>
        <time>2021-08-26T09:36:24.000Z</time>
      </trkpt>
      <trkpt lat="47.29774" lon="-2.41926">
        <ele>-104.40000152588</ele>
        <time>2021-08-26T09:36:30.000Z</time>
      </trkpt>
      <trkpt lat="47.29768" lon="-2.4189">
        <ele>-104.40000152588</ele>
        <time>2021-08-26T09:36:36.000Z</time>
      </trkpt>
      <trkpt lat="47.29767" lon="-2.41847">
        <ele>-104.40000152588</ele>
        <time>2021-08-26T09:36:42.000Z</time>
      </trkpt>
      <trkpt lat="47.29771" lon="-2.41802">
        <ele>-104.40000152588</ele>
        <time>2021-08-26T09:36:49.000Z</time>
      </trkpt>
      <trkpt lat="47.29769" lon="-2.41767">
        <ele>-104.40000152588</ele>
        <time>2021-08-26T09:36:56.000Z</time>
      </trkpt>
      <trkpt lat="47.29762" lon="-2.41748">
        <ele>-104.40000152588</ele>
        <time>2021-08-26T09:37:02.000Z</time>
      </trkpt>
      <trkpt lat="47.29756" lon="-2.4175">
        <ele>-104.80000305176</ele>
        <time>2021-08-26T09:37:04.000Z</time>
      </trkpt>
      <trkpt lat="47.29753" lon="-2.41752">
        <ele>-105.19999694824</ele>
        <time>2021-08-26T09:37:05.000Z</time>
      </trkpt>
      <trkpt lat="47.2975" lon="-2.41753">
        <ele>-105.59999847412</ele>
        <time>2021-08-26T09:37:06.000Z</time>
      </trkpt>
      <trkpt lat="47.29747" lon="-2.41753">
        <ele>-106</ele>
        <time>2021-08-26T09:37:07.000Z</time>
      </trkpt>
      <trkpt lat="47.29744" lon="-2.41755">
        <ele>-106.40000152588</ele>
        <time>2021-08-26T09:37:08.000Z</time>
      </trkpt>
      <trkpt lat="47.29736" lon="-2.41764">
        <ele>-106.40000152588</ele>
        <time>2021-08-26T09:37:11.000Z</time>
      </trkpt>
      <trkpt lat="47.29732" lon="-2.41768">
        <ele>-106.40000152588</ele>
        <time>2021-08-26T09:37:12.000Z</time>
      </trkpt>
      <trkpt lat="47.29714" lon="-2.41794">
        <ele>-106.40000152588</ele>
        <time>2021-08-26T09:37:17.000Z</time>
      </trkpt>
      <trkpt lat="47.29697" lon="-2.41819">
        <ele>-106.40000152588</ele>
        <time>2021-08-26T09:37:21.000Z</time>
      </trkpt>
      <trkpt lat="47.29691" lon="-2.41822">
        <ele>-106.40000152588</ele>
        <time>2021-08-26T09:37:22.000Z</time>
      </trkpt>
      <trkpt lat="47.29673" lon="-2.41823">
        <ele>-106.40000152588</ele>
        <time>2021-08-26T09:37:25.000Z</time>
      </trkpt>
      <trkpt lat="47.29661" lon="-2.41827">
        <ele>-106.40000152588</ele>
        <time>2021-08-26T09:37:27.000Z</time>
      </trkpt>
      <trkpt lat="47.29649" lon="-2.41828">
        <ele>-106.40000152588</ele>
        <time>2021-08-26T09:37:29.000Z</time>
      </trkpt>
      <trkpt lat="47.29644" lon="-2.41823">
        <ele>-106.40000152588</ele>
        <time>2021-08-26T09:37:30.000Z</time>
      </trkpt>
      <trkpt lat="47.29636" lon="-2.41799">
        <ele>-106.40000152588</ele>
        <time>2021-08-26T09:37:33.000Z</time>
      </trkpt>
      <trkpt lat="47.29629" lon="-2.41766">
        <ele>-106.40000152588</ele>
        <time>2021-08-26T09:37:37.000Z</time>
      </trkpt>
      <trkpt lat="47.2961" lon="-2.41742">
        <ele>-106.40000152588</ele>
        <time>2021-08-26T09:37:41.000Z</time>
      </trkpt>
      <trkpt lat="47.29605" lon="-2.41737">
        <ele>-106.40000152588</ele>
        <time>2021-08-26T09:37:42.000Z</time>
      </trkpt>
      <trkpt lat="47.29574" lon="-2.41711">
        <ele>-106.40000152588</ele>
        <time>2021-08-26T09:37:48.000Z</time>
      </trkpt>
      <trkpt lat="47.29568" lon="-2.41709">
        <ele>-106.40000152588</ele>
        <time>2021-08-26T09:37:49.000Z</time>
      </trkpt>
      <trkpt lat="47.29558" lon="-2.41703">
        <ele>-106.40000152588</ele>
        <time>2021-08-26T09:37:51.000Z</time>
      </trkpt>
      <trkpt lat="47.29553" lon="-2.41697">
        <ele>-106.40000152588</ele>
        <time>2021-08-26T09:37:52.000Z</time>
      </trkpt>
      <trkpt lat="47.29542" lon="-2.41674">
        <ele>-106.40000152588</ele>
        <time>2021-08-26T09:37:56.000Z</time>
      </trkpt>
      <trkpt lat="47.29535" lon="-2.41653">
        <ele>-106.40000152588</ele>
        <time>2021-08-26T09:37:59.000Z</time>
      </trkpt>
      <trkpt lat="47.29529" lon="-2.4163">
        <ele>-106.40000152588</ele>
        <time>2021-08-26T09:38:02.000Z</time>
      </trkpt>
      <trkpt lat="47.29528" lon="-2.41585">
        <ele>-106.40000152588</ele>
        <time>2021-08-26T09:38:07.000Z</time>
      </trkpt>
      <trkpt lat="47.29539" lon="-2.41552">
        <ele>-106.40000152588</ele>
        <time>2021-08-26T09:38:11.000Z</time>
      </trkpt>
      <trkpt lat="47.29543" lon="-2.41536">
        <ele>-106.40000152588</ele>
        <time>2021-08-26T09:38:13.000Z</time>
      </trkpt>
      <trkpt lat="47.29541" lon="-2.4152">
        <ele>-106.40000152588</ele>
        <time>2021-08-26T09:38:15.000Z</time>
      </trkpt>
      <trkpt lat="47.29537" lon="-2.41509">
        <ele>-106.40000152588</ele>
        <time>2021-08-26T09:38:18.000Z</time>
      </trkpt>
      <trkpt lat="47.29525" lon="-2.41485">
        <ele>-106.40000152588</ele>
        <time>2021-08-26T09:38:24.000Z</time>
      </trkpt>
      <trkpt lat="47.29514" lon="-2.41475">
        <ele>-106.40000152588</ele>
        <time>2021-08-26T09:38:27.000Z</time>
      </trkpt>
      <trkpt lat="47.29505" lon="-2.41474">
        <ele>-106.40000152588</ele>
        <time>2021-08-26T09:38:29.000Z</time>
      </trkpt>
      <trkpt lat="47.29488" lon="-2.41484">
        <ele>-106.40000152588</ele>
        <time>2021-08-26T09:38:33.000Z</time>
      </trkpt>
      <trkpt lat="47.29483" lon="-2.41485">
        <ele>-106.40000152588</ele>
        <time>2021-08-26T09:38:34.000Z</time>
      </trkpt>
      <trkpt lat="47.29469" lon="-2.41482">
        <ele>-106.40000152588</ele>
        <time>2021-08-26T09:38:37.000Z</time>
      </trkpt>
      <trkpt lat="47.29459" lon="-2.41483">
        <ele>-106.40000152588</ele>
        <time>2021-08-26T09:38:39.000Z</time>
      </trkpt>
      <trkpt lat="47.29448" lon="-2.41486">
        <ele>-106.40000152588</ele>
        <time>2021-08-26T09:38:41.000Z</time>
      </trkpt>
      <trkpt lat="47.29438" lon="-2.41487">
        <ele>-106.40000152588</ele>
        <time>2021-08-26T09:38:43.000Z</time>
      </trkpt>
      <trkpt lat="47.29429" lon="-2.41483">
        <ele>-106.40000152588</ele>
        <time>2021-08-26T09:38:45.000Z</time>
      </trkpt>
      <trkpt lat="47.29417" lon="-2.41467">
        <ele>-106.40000152588</ele>
        <time>2021-08-26T09:38:48.000Z</time>
      </trkpt>
      <trkpt lat="47.29402" lon="-2.41446">
        <ele>-106.40000152588</ele>
        <time>2021-08-26T09:38:52.000Z</time>
      </trkpt>
      <trkpt lat="47.29393" lon="-2.41427">
        <ele>-106.40000152588</ele>
        <time>2021-08-26T09:38:55.000Z</time>
      </trkpt>
      <trkpt lat="47.29374" lon="-2.41386">
        <ele>-106.40000152588</ele>
        <time>2021-08-26T09:39:02.000Z</time>
      </trkpt>
      <trkpt lat="47.29351" lon="-2.41355">
        <ele>-106.40000152588</ele>
        <time>2021-08-26T09:39:09.000Z</time>
      </trkpt>
      <trkpt lat="47.29345" lon="-2.41333">
        <ele>-106.40000152588</ele>
        <time>2021-08-26T09:39:13.000Z</time>
      </trkpt>
      <trkpt lat="47.29344" lon="-2.41328">
        <ele>-106.40000152588</ele>
        <time>2021-08-26T09:39:14.000Z</time>
      </trkpt>
      <trkpt lat="47.29346" lon="-2.41323">
        <ele>-106.40000152588</ele>
        <time>2021-08-26T09:39:15.000Z</time>
      </trkpt>
      <trkpt lat="47.29351" lon="-2.41316">
        <ele>-106.40000152588</ele>
        <time>2021-08-26T09:39:17.000Z</time>
      </trkpt>
      <trkpt lat="47.2936" lon="-2.41297">
        <ele>-106.40000152588</ele>
        <time>2021-08-26T09:39:21.000Z</time>
      </trkpt>
      <trkpt lat="47.29359" lon="-2.41286">
        <ele>-106.40000152588</ele>
        <time>2021-08-26T09:39:23.000Z</time>
      </trkpt>
      <trkpt lat="47.29355" lon="-2.41253">
        <ele>-106.40000152588</ele>
        <time>2021-08-26T09:39:28.000Z</time>
      </trkpt>
      <trkpt lat="47.29352" lon="-2.41246">
        <ele>-106.40000152588</ele>
        <time>2021-08-26T09:39:29.000Z</time>
      </trkpt>
      <trkpt lat="47.29337" lon="-2.41225">
        <ele>-106.40000152588</ele>
        <time>2021-08-26T09:39:33.000Z</time>
      </trkpt>
      <trkpt lat="47.29332" lon="-2.4122">
        <ele>-106.40000152588</ele>
        <time>2021-08-26T09:39:34.000Z</time>
      </trkpt>
      <trkpt lat="47.29305" lon="-2.41189">
        <ele>-106.40000152588</ele>
        <time>2021-08-26T09:39:40.000Z</time>
      </trkpt>
      <trkpt lat="47.29302" lon="-2.41184">
        <ele>-106.40000152588</ele>
        <time>2021-08-26T09:39:41.000Z</time>
      </trkpt>
      <trkpt lat="47.29296" lon="-2.41166">
        <ele>-106.40000152588</ele>
        <time>2021-08-26T09:39:44.000Z</time>
      </trkpt>
      <trkpt lat="47.29294" lon="-2.4116">
        <ele>-106.40000152588</ele>
        <time>2021-08-26T09:39:45.000Z</time>
      </trkpt>
      <trkpt lat="47.29289" lon="-2.41149">
        <ele>-106.40000152588</ele>
        <time>2021-08-26T09:39:47.000Z</time>
      </trkpt>
      <trkpt lat="47.29276" lon="-2.41127">
        <ele>-106.40000152588</ele>
        <time>2021-08-26T09:39:51.000Z</time>
      </trkpt>
      <trkpt lat="47.29249" lon="-2.41093">
        <ele>-106.40000152588</ele>
        <time>2021-08-26T09:39:58.000Z</time>
      </trkpt>
      <trkpt lat="47.29247" lon="-2.41071">
        <ele>-106.40000152588</ele>
        <time>2021-08-26T09:40:01.000Z</time>
      </trkpt>
      <trkpt lat="47.29256" lon="-2.41052">
        <ele>-106.40000152588</ele>
        <time>2021-08-26T09:40:04.000Z</time>
      </trkpt>
      <trkpt lat="47.29249" lon="-2.41031">
        <ele>-106.40000152588</ele>
        <time>2021-08-26T09:40:07.000Z</time>
      </trkpt>
      <trkpt lat="47.2924" lon="-2.41023">
        <ele>-106.40000152588</ele>
        <time>2021-08-26T09:40:09.000Z</time>
      </trkpt>
      <trkpt lat="47.29237" lon="-2.41017">
        <ele>-106.40000152588</ele>
        <time>2021-08-26T09:40:10.000Z</time>
      </trkpt>
      <trkpt lat="47.29233" lon="-2.41012">
        <ele>-106.40000152588</ele>
        <time>2021-08-26T09:40:11.000Z</time>
      </trkpt>
      <trkpt lat="47.29216" lon="-2.40972">
        <ele>-106.40000152588</ele>
        <time>2021-08-26T09:40:17.000Z</time>
      </trkpt>
      <trkpt lat="47.29206" lon="-2.40954">
        <ele>-106.40000152588</ele>
        <time>2021-08-26T09:40:20.000Z</time>
      </trkpt>
      <trkpt lat="47.29196" lon="-2.40948">
        <ele>-106.40000152588</ele>
        <time>2021-08-26T09:40:22.000Z</time>
      </trkpt>
      <trkpt lat="47.29185" lon="-2.40944">
        <ele>-106.40000152588</ele>
        <time>2021-08-26T09:40:24.000Z</time>
      </trkpt>
      <trkpt lat="47.29168" lon="-2.40938">
        <ele>-106.40000152588</ele>
        <time>2021-08-26T09:40:27.000Z</time>
      </trkpt>
      <trkpt lat="47.29163" lon="-2.40922">
        <ele>-106.40000152588</ele>
        <time>2021-08-26T09:40:29.000Z</time>
      </trkpt>
      <trkpt lat="47.29163" lon="-2.40906">
        <ele>-106.40000152588</ele>
        <time>2021-08-26T09:40:31.000Z</time>
      </trkpt>
      <trkpt lat="47.29166" lon="-2.4089">
        <ele>-106.40000152588</ele>
        <time>2021-08-26T09:40:33.000Z</time>
      </trkpt>
      <trkpt lat="47.29174" lon="-2.40861">
        <ele>-106</ele>
        <time>2021-08-26T09:40:37.000Z</time>
      </trkpt>
      <trkpt lat="47.29175" lon="-2.40854">
        <ele>-105.59999847412</ele>
        <time>2021-08-26T09:40:38.000Z</time>
      </trkpt>
      <trkpt lat="47.29174" lon="-2.40847">
        <ele>-105.19999694824</ele>
        <time>2021-08-26T09:40:39.000Z</time>
      </trkpt>
      <trkpt lat="47.29173" lon="-2.4084">
        <ele>-104.80000305176</ele>
        <time>2021-08-26T09:40:40.000Z</time>
      </trkpt>
      <trkpt lat="47.29172" lon="-2.40833">
        <ele>-104.40000152588</ele>
        <time>2021-08-26T09:40:41.000Z</time>
      </trkpt>
      <trkpt lat="47.29172" lon="-2.40825">
        <ele>-104.40000152588</ele>
        <time>2021-08-26T09:40:42.000Z</time>
      </trkpt>
      <trkpt lat="47.29176" lon="-2.40802">
        <ele>-104.40000152588</ele>
        <time>2021-08-26T09:40:45.000Z</time>
      </trkpt>
      <trkpt lat="47.29179" lon="-2.40795">
        <ele>-104.40000152588</ele>
        <time>2021-08-26T09:40:46.000Z</time>
      </trkpt>
      <trkpt lat="47.29181" lon="-2.40789">
        <ele>-104.40000152588</ele>
        <time>2021-08-26T09:40:47.000Z</time>
      </trkpt>
      <trkpt lat="47.29193" lon="-2.40756">
        <ele>-104.40000152588</ele>
        <time>2021-08-26T09:40:52.000Z</time>
      </trkpt>
      <trkpt lat="47.29197" lon="-2.40749">
        <ele>-104.40000152588</ele>
        <time>2021-08-26T09:40:53.000Z</time>
      </trkpt>
      <trkpt lat="47.29208" lon="-2.40734">
        <ele>-104.40000152588</ele>
        <time>2021-08-26T09:40:56.000Z</time>
      </trkpt>
      <trkpt lat="47.29227" lon="-2.40703">
        <ele>-104.40000152588</ele>
        <time>2021-08-26T09:41:02.000Z</time>
      </trkpt>
      <trkpt lat="47.29235" lon="-2.40675">
        <ele>-104.40000152588</ele>
        <time>2021-08-26T09:41:06.000Z</time>
      </trkpt>
      <trkpt lat="47.29235" lon="-2.40666">
        <ele>-104.40000152588</ele>
        <time>2021-08-26T09:41:07.000Z</time>
      </trkpt>
      <trkpt lat="47.29228" lon="-2.40642">
        <ele>-104.40000152588</ele>
        <time>2021-08-26T09:41:10.000Z</time>
      </trkpt>
      <trkpt lat="47.29224" lon="-2.40634">
        <ele>-104.40000152588</ele>
        <time>2021-08-26T09:41:11.000Z</time>
      </trkpt>
      <trkpt lat="47.2922" lon="-2.40627">
        <ele>-104.40000152588</ele>
        <time>2021-08-26T09:41:12.000Z</time>
      </trkpt>
      <trkpt lat="47.29206" lon="-2.40612">
        <ele>-104.40000152588</ele>
        <time>2021-08-26T09:41:15.000Z</time>
      </trkpt>
      <trkpt lat="47.29201" lon="-2.40608">
        <ele>-104.40000152588</ele>
        <time>2021-08-26T09:41:16.000Z</time>
      </trkpt>
      <trkpt lat="47.29196" lon="-2.40611">
        <ele>-104.80000305176</ele>
        <time>2021-08-26T09:41:17.000Z</time>
      </trkpt>
      <trkpt lat="47.29191" lon="-2.40614">
        <ele>-105.19999694824</ele>
        <time>2021-08-26T09:41:18.000Z</time>
      </trkpt>
      <trkpt lat="47.29187" lon="-2.40617">
        <ele>-105.59999847412</ele>
        <time>2021-08-26T09:41:19.000Z</time>
      </trkpt>
      <trkpt lat="47.29182" lon="-2.4062">
        <ele>-106.19999694824</ele>
        <time>2021-08-26T09:41:20.000Z</time>
      </trkpt>
      <trkpt lat="47.29178" lon="-2.40624">
        <ele>-106.59999847412</ele>
        <time>2021-08-26T09:41:21.000Z</time>
      </trkpt>
      <trkpt lat="47.29154" lon="-2.40642">
        <ele>-106.59999847412</ele>
        <time>2021-08-26T09:41:26.000Z</time>
      </trkpt>
      <trkpt lat="47.2915" lon="-2.40644">
        <ele>-106.59999847412</ele>
        <time>2021-08-26T09:41:27.000Z</time>
      </trkpt>
      <trkpt lat="47.29143" lon="-2.40638">
        <ele>-106.59999847412</ele>
        <time>2021-08-26T09:41:29.000Z</time>
      </trkpt>
      <trkpt lat="47.29143" lon="-2.40623">
        <ele>-106.59999847412</ele>
        <time>2021-08-26T09:41:31.000Z</time>
      </trkpt>
      <trkpt lat="47.29141" lon="-2.40609">
        <ele>-106.59999847412</ele>
        <time>2021-08-26T09:41:33.000Z</time>
      </trkpt>
      <trkpt lat="47.29135" lon="-2.40591">
        <ele>-106.59999847412</ele>
        <time>2021-08-26T09:41:36.000Z</time>
      </trkpt>
      <trkpt lat="47.29118" lon="-2.40566">
        <ele>-106.59999847412</ele>
        <time>2021-08-26T09:41:41.000Z</time>
      </trkpt>
      <trkpt lat="47.29115" lon="-2.40562">
        <ele>-106.59999847412</ele>
        <time>2021-08-26T09:41:42.000Z</time>
      </trkpt>
      <trkpt lat="47.29111" lon="-2.40558">
        <ele>-106.59999847412</ele>
        <time>2021-08-26T09:41:43.000Z</time>
      </trkpt>
      <trkpt lat="47.29104" lon="-2.40551">
        <ele>-106.59999847412</ele>
        <time>2021-08-26T09:41:45.000Z</time>
      </trkpt>
      <trkpt lat="47.29101" lon="-2.40544">
        <ele>-106.59999847412</ele>
        <time>2021-08-26T09:41:46.000Z</time>
      </trkpt>
      <trkpt lat="47.29101" lon="-2.40523">
        <ele>-106.59999847412</ele>
        <time>2021-08-26T09:41:49.000Z</time>
      </trkpt>
      <trkpt lat="47.2911" lon="-2.40506">
        <ele>-106.59999847412</ele>
        <time>2021-08-26T09:41:52.000Z</time>
      </trkpt>
      <trkpt lat="47.29114" lon="-2.40503">
        <ele>-106.59999847412</ele>
        <time>2021-08-26T09:41:53.000Z</time>
      </trkpt>
      <trkpt lat="47.29118" lon="-2.405">
        <ele>-106.59999847412</ele>
        <time>2021-08-26T09:41:54.000Z</time>
      </trkpt>
      <trkpt lat="47.29136" lon="-2.40489">
        <ele>-106.59999847412</ele>
        <time>2021-08-26T09:41:58.000Z</time>
      </trkpt>
      <trkpt lat="47.29146" lon="-2.40486">
        <ele>-106.59999847412</ele>
        <time>2021-08-26T09:42:00.000Z</time>
      </trkpt>
      <trkpt lat="47.29156" lon="-2.40488">
        <ele>-106.59999847412</ele>
        <time>2021-08-26T09:42:02.000Z</time>
      </trkpt>
      <trkpt lat="47.29168" lon="-2.40501">
        <ele>-106.59999847412</ele>
        <time>2021-08-26T09:42:05.000Z</time>
      </trkpt>
      <trkpt lat="47.29171" lon="-2.40508">
        <ele>-106.59999847412</ele>
        <time>2021-08-26T09:42:06.000Z</time>
      </trkpt>
      <trkpt lat="47.29174" lon="-2.40513">
        <ele>-106.59999847412</ele>
        <time>2021-08-26T09:42:07.000Z</time>
      </trkpt>
      <trkpt lat="47.29183" lon="-2.40517">
        <ele>-106.59999847412</ele>
        <time>2021-08-26T09:42:09.000Z</time>
      </trkpt>
      <trkpt lat="47.29192" lon="-2.40513">
        <ele>-106.59999847412</ele>
        <time>2021-08-26T09:42:11.000Z</time>
      </trkpt>
      <trkpt lat="47.2921" lon="-2.40505">
        <ele>-106.59999847412</ele>
        <time>2021-08-26T09:42:15.000Z</time>
      </trkpt>
      <trkpt lat="47.29218" lon="-2.40501">
        <ele>-106.59999847412</ele>
        <time>2021-08-26T09:42:17.000Z</time>
      </trkpt>
      <trkpt lat="47.29235" lon="-2.4049">
        <ele>-106.59999847412</ele>
        <time>2021-08-26T09:42:21.000Z</time>
      </trkpt>
      <trkpt lat="47.29269" lon="-2.40473">
        <ele>-106.59999847412</ele>
        <time>2021-08-26T09:42:29.000Z</time>
      </trkpt>
      <trkpt lat="47.29283" lon="-2.40467">
        <ele>-106.59999847412</ele>
        <time>2021-08-26T09:42:32.000Z</time>
      </trkpt>
      <trkpt lat="47.2929" lon="-2.4046">
        <ele>-106.59999847412</ele>
        <time>2021-08-26T09:42:34.000Z</time>
      </trkpt>
      <trkpt lat="47.29301" lon="-2.40437">
        <ele>-106.59999847412</ele>
        <time>2021-08-26T09:42:38.000Z</time>
      </trkpt>
      <trkpt lat="47.29309" lon="-2.40409">
        <ele>-106.59999847412</ele>
        <time>2021-08-26T09:42:42.000Z</time>
      </trkpt>
      <trkpt lat="47.29308" lon="-2.40402">
        <ele>-106.59999847412</ele>
        <time>2021-08-26T09:42:43.000Z</time>
      </trkpt>
      <trkpt lat="47.293" lon="-2.40383">
        <ele>-106.59999847412</ele>
        <time>2021-08-26T09:42:46.000Z</time>
      </trkpt>
      <trkpt lat="47.29288" lon="-2.40359">
        <ele>-106.59999847412</ele>
        <time>2021-08-26T09:42:50.000Z</time>
      </trkpt>
      <trkpt lat="47.29287" lon="-2.40353">
        <ele>-106.59999847412</ele>
        <time>2021-08-26T09:42:51.000Z</time>
      </trkpt>
      <trkpt lat="47.29292" lon="-2.40335">
        <ele>-106.59999847412</ele>
        <time>2021-08-26T09:42:54.000Z</time>
      </trkpt>
      <trkpt lat="47.29301" lon="-2.40324">
        <ele>-106.59999847412</ele>
        <time>2021-08-26T09:42:57.000Z</time>
      </trkpt>
      <trkpt lat="47.29305" lon="-2.40321">
        <ele>-106.59999847412</ele>
        <time>2021-08-26T09:42:58.000Z</time>
      </trkpt>
      <trkpt lat="47.29333" lon="-2.40288">
        <ele>-106.59999847412</ele>
        <time>2021-08-26T09:43:06.000Z</time>
      </trkpt>
      <trkpt lat="47.29337" lon="-2.40285">
        <ele>-106.59999847412</ele>
        <time>2021-08-26T09:43:07.000Z</time>
      </trkpt>
      <trkpt lat="47.29357" lon="-2.40268">
        <ele>-106.59999847412</ele>
        <time>2021-08-26T09:43:12.000Z</time>
      </trkpt>
      <trkpt lat="47.29379" lon="-2.40247">
        <ele>-106.59999847412</ele>
        <time>2021-08-26T09:43:18.000Z</time>
      </trkpt>
      <trkpt lat="47.29404" lon="-2.4023">
        <ele>-106.59999847412</ele>
        <time>2021-08-26T09:43:25.000Z</time>
      </trkpt>
      <trkpt lat="47.29408" lon="-2.40228">
        <ele>-106.59999847412</ele>
        <time>2021-08-26T09:43:26.000Z</time>
      </trkpt>
      <trkpt lat="47.29425" lon="-2.40219">
        <ele>-106.59999847412</ele>
        <time>2021-08-26T09:43:30.000Z</time>
      </trkpt>
      <trkpt lat="47.2943" lon="-2.40218">
        <ele>-106.59999847412</ele>
        <time>2021-08-26T09:43:31.000Z</time>
      </trkpt>
      <trkpt lat="47.29446" lon="-2.4021">
        <ele>-106.59999847412</ele>
        <time>2021-08-26T09:43:35.000Z</time>
      </trkpt>
      <trkpt lat="47.29451" lon="-2.4019">
        <ele>-106.59999847412</ele>
        <time>2021-08-26T09:43:38.000Z</time>
      </trkpt>
      <trkpt lat="47.29453" lon="-2.40176">
        <ele>-106.59999847412</ele>
        <time>2021-08-26T09:43:40.000Z</time>
      </trkpt>
      <trkpt lat="47.29457" lon="-2.40149">
        <ele>-106.59999847412</ele>
        <time>2021-08-26T09:43:44.000Z</time>
      </trkpt>
      <trkpt lat="47.29458" lon="-2.40136">
        <ele>-106.59999847412</ele>
        <time>2021-08-26T09:43:46.000Z</time>
      </trkpt>
      <trkpt lat="47.29465" lon="-2.40077">
        <ele>-106.59999847412</ele>
        <time>2021-08-26T09:43:54.000Z</time>
      </trkpt>
      <trkpt lat="47.29465" lon="-2.40047">
        <ele>-106.59999847412</ele>
        <time>2021-08-26T09:43:58.000Z</time>
      </trkpt>
      <trkpt lat="47.29463" lon="-2.40026">
        <ele>-106.59999847412</ele>
        <time>2021-08-26T09:44:01.000Z</time>
      </trkpt>
      <trkpt lat="47.29463" lon="-2.39998">
        <ele>-106.59999847412</ele>
        <time>2021-08-26T09:44:05.000Z</time>
      </trkpt>
      <trkpt lat="47.29465" lon="-2.39984">
        <ele>-106.59999847412</ele>
        <time>2021-08-26T09:44:07.000Z</time>
      </trkpt>
      <trkpt lat="47.29466" lon="-2.39978">
        <ele>-106.59999847412</ele>
        <time>2021-08-26T09:44:08.000Z</time>
      </trkpt>
      <trkpt lat="47.29474" lon="-2.39956">
        <ele>-106.59999847412</ele>
        <time>2021-08-26T09:44:12.000Z</time>
      </trkpt>
      <trkpt lat="47.29482" lon="-2.39934">
        <ele>-106.59999847412</ele>
        <time>2021-08-26T09:44:17.000Z</time>
      </trkpt>
      <trkpt lat="47.29487" lon="-2.39918">
        <ele>-106.59999847412</ele>
        <time>2021-08-26T09:44:22.000Z</time>
      </trkpt>
      <trkpt lat="47.29486" lon="-2.39916">
        <ele>-106.59999847412</ele>
        <time>2021-08-26T09:44:23.000Z</time>
      </trkpt>
      <trkpt lat="47.29486" lon="-2.39915">
        <ele>-106.59999847412</ele>
        <time>2021-08-26T09:44:24.000Z</time>
      </trkpt>
      <trkpt lat="47.29486" lon="-2.39914">
        <ele>-106.59999847412</ele>
        <time>2021-08-26T09:44:27.000Z</time>
      </trkpt>
      <trkpt lat="47.29487" lon="-2.39911">
        <ele>-106.59999847412</ele>
        <time>2021-08-26T09:44:28.000Z</time>
      </trkpt>
      <trkpt lat="47.29494" lon="-2.39901">
        <ele>-106.59999847412</ele>
        <time>2021-08-26T09:44:34.000Z</time>
      </trkpt>
      <trkpt lat="47.29495" lon="-2.399">
        <ele>-106.59999847412</ele>
        <time>2021-08-26T09:44:36.000Z</time>
      </trkpt>
      <trkpt lat="47.29497" lon="-2.39899">
        <ele>-106.59999847412</ele>
        <time>2021-08-26T09:45:11.000Z</time>
      </trkpt>
      <trkpt lat="47.29499" lon="-2.39896">
        <ele>-106.59999847412</ele>
        <time>2021-08-26T09:45:12.000Z</time>
      </trkpt>
      <trkpt lat="47.2951" lon="-2.39879">
        <ele>-106.59999847412</ele>
        <time>2021-08-26T09:45:16.000Z</time>
      </trkpt>
      <trkpt lat="47.2953" lon="-2.39837">
        <ele>-106.59999847412</ele>
        <time>2021-08-26T09:45:23.000Z</time>
      </trkpt>
      <trkpt lat="47.2955" lon="-2.398">
        <ele>-106.59999847412</ele>
        <time>2021-08-26T09:45:29.000Z</time>
      </trkpt>
      <trkpt lat="47.29567" lon="-2.39757">
        <ele>-106.59999847412</ele>
        <time>2021-08-26T09:45:35.000Z</time>
      </trkpt>
      <trkpt lat="47.29589" lon="-2.39718">
        <ele>-106.59999847412</ele>
        <time>2021-08-26T09:45:41.000Z</time>
      </trkpt>
      <trkpt lat="47.29596" lon="-2.39704">
        <ele>-106.59999847412</ele>
        <time>2021-08-26T09:45:43.000Z</time>
      </trkpt>
      <trkpt lat="47.29622" lon="-2.39659">
        <ele>-106.59999847412</ele>
        <time>2021-08-26T09:45:50.000Z</time>
      </trkpt>
      <trkpt lat="47.29624" lon="-2.39653">
        <ele>-106.59999847412</ele>
        <time>2021-08-26T09:45:51.000Z</time>
      </trkpt>
      <trkpt lat="47.29628" lon="-2.39622">
        <ele>-106.59999847412</ele>
        <time>2021-08-26T09:45:55.000Z</time>
      </trkpt>
      <trkpt lat="47.29629" lon="-2.39606">
        <ele>-106.59999847412</ele>
        <time>2021-08-26T09:45:57.000Z</time>
      </trkpt>
      <trkpt lat="47.29631" lon="-2.39592">
        <ele>-106.59999847412</ele>
        <time>2021-08-26T09:45:59.000Z</time>
      </trkpt>
      <trkpt lat="47.29631" lon="-2.39585">
        <ele>-106.59999847412</ele>
        <time>2021-08-26T09:46:00.000Z</time>
      </trkpt>
      <trkpt lat="47.29624" lon="-2.39572">
        <ele>-106.59999847412</ele>
        <time>2021-08-26T09:46:03.000Z</time>
      </trkpt>
      <trkpt lat="47.29617" lon="-2.39573">
        <ele>-106.59999847412</ele>
        <time>2021-08-26T09:46:05.000Z</time>
      </trkpt>
      <trkpt lat="47.29612" lon="-2.39572">
        <ele>-106.59999847412</ele>
        <time>2021-08-26T09:46:07.000Z</time>
      </trkpt>
      <trkpt lat="47.29611" lon="-2.39569">
        <ele>-106</ele>
        <time>2021-08-26T09:46:08.000Z</time>
      </trkpt>
      <trkpt lat="47.29612" lon="-2.39566">
        <ele>-105.59999847412</ele>
        <time>2021-08-26T09:46:09.000Z</time>
      </trkpt>
      <trkpt lat="47.29613" lon="-2.39564">
        <ele>-105.19999694824</ele>
        <time>2021-08-26T09:46:10.000Z</time>
      </trkpt>
      <trkpt lat="47.29615" lon="-2.39563">
        <ele>-104.80000305176</ele>
        <time>2021-08-26T09:46:11.000Z</time>
      </trkpt>
      <trkpt lat="47.29618" lon="-2.39562">
        <ele>-104.40000152588</ele>
        <time>2021-08-26T09:46:12.000Z</time>
      </trkpt>
      <trkpt lat="47.29624" lon="-2.39557">
        <ele>-104.40000152588</ele>
        <time>2021-08-26T09:46:15.000Z</time>
      </trkpt>
      <trkpt lat="47.29623" lon="-2.39555">
        <ele>-104.40000152588</ele>
        <time>2021-08-26T09:46:16.000Z</time>
      </trkpt>
      <trkpt lat="47.29619" lon="-2.39554">
        <ele>-103.80000305176</ele>
        <time>2021-08-26T09:46:18.000Z</time>
      </trkpt>
      <trkpt lat="47.29616" lon="-2.39554">
        <ele>-103</ele>
        <time>2021-08-26T09:46:19.000Z</time>
      </trkpt>
      <trkpt lat="47.29612" lon="-2.39554">
        <ele>-102.59999847412</ele>
        <time>2021-08-26T09:46:20.000Z</time>
      </trkpt>
      <trkpt lat="47.29609" lon="-2.39554">
        <ele>-102.19999694824</ele>
        <time>2021-08-26T09:46:21.000Z</time>
      </trkpt>
      <trkpt lat="47.29597" lon="-2.39552">
        <ele>-102.19999694824</ele>
        <time>2021-08-26T09:46:25.000Z</time>
      </trkpt>
      <trkpt lat="47.2959" lon="-2.39551">
        <ele>-101.59999847412</ele>
        <time>2021-08-26T09:46:27.000Z</time>
      </trkpt>
      <trkpt lat="47.29587" lon="-2.3955">
        <ele>-101.19999694824</ele>
        <time>2021-08-26T09:46:28.000Z</time>
      </trkpt>
      <trkpt lat="47.29583" lon="-2.39549">
        <ele>-100.59999847412</ele>
        <time>2021-08-26T09:46:29.000Z</time>
      </trkpt>
      <trkpt lat="47.29578" lon="-2.39548">
        <ele>-100.19999694824</ele>
        <time>2021-08-26T09:46:30.000Z</time>
      </trkpt>
      <trkpt lat="47.29573" lon="-2.39547">
        <ele>-99.800003051758</ele>
        <time>2021-08-26T09:46:31.000Z</time>
      </trkpt>
      <trkpt lat="47.29562" lon="-2.39545">
        <ele>-99.800003051758</ele>
        <time>2021-08-26T09:46:33.000Z</time>
      </trkpt>
      <trkpt lat="47.29556" lon="-2.39537">
        <ele>-99.800003051758</ele>
        <time>2021-08-26T09:46:35.000Z</time>
      </trkpt>
      <trkpt lat="47.29557" lon="-2.39529">
        <ele>-100.19999694824</ele>
        <time>2021-08-26T09:46:37.000Z</time>
      </trkpt>
      <trkpt lat="47.29556" lon="-2.39526">
        <ele>-100.59999847412</ele>
        <time>2021-08-26T09:46:38.000Z</time>
      </trkpt>
      <trkpt lat="47.29556" lon="-2.39522">
        <ele>-101.19999694824</ele>
        <time>2021-08-26T09:46:39.000Z</time>
      </trkpt>
      <trkpt lat="47.29555" lon="-2.39518">
        <ele>-101.59999847412</ele>
        <time>2021-08-26T09:46:40.000Z</time>
      </trkpt>
      <trkpt lat="47.29556" lon="-2.39513">
        <ele>-102</ele>
        <time>2021-08-26T09:46:41.000Z</time>
      </trkpt>
      <trkpt lat="47.29556" lon="-2.39507">
        <ele>-102</ele>
        <time>2021-08-26T09:46:42.000Z</time>
      </trkpt>
      <trkpt lat="47.29559" lon="-2.39496">
        <ele>-102.59999847412</ele>
        <time>2021-08-26T09:46:44.000Z</time>
      </trkpt>
      <trkpt lat="47.29561" lon="-2.39494">
        <ele>-103</ele>
        <time>2021-08-26T09:46:45.000Z</time>
      </trkpt>
      <trkpt lat="47.29562" lon="-2.39493">
        <ele>-103.40000152588</ele>
        <time>2021-08-26T09:46:46.000Z</time>
      </trkpt>
      <trkpt lat="47.29563" lon="-2.39491">
        <ele>-104.19999694824</ele>
        <time>2021-08-26T09:46:47.000Z</time>
      </trkpt>
      <trkpt lat="47.29563" lon="-2.3949">
        <ele>-104.80000305176</ele>
        <time>2021-08-26T09:46:48.000Z</time>
      </trkpt>
      <trkpt lat="47.29563" lon="-2.39488">
        <ele>-105.40000152588</ele>
        <time>2021-08-26T09:46:49.000Z</time>
      </trkpt>
      <trkpt lat="47.29563" lon="-2.39487">
        <ele>-106.19999694824</ele>
        <time>2021-08-26T09:46:50.000Z</time>
      </trkpt>
      <trkpt lat="47.29564" lon="-2.39485">
        <ele>-106.80000305176</ele>
        <time>2021-08-26T09:46:51.000Z</time>
      </trkpt>
      <trkpt lat="47.29567" lon="-2.39485">
        <ele>-106.80000305176</ele>
        <time>2021-08-26T09:46:54.000Z</time>
      </trkpt>
      <trkpt lat="47.29575" lon="-2.39493">
        <ele>-106.80000305176</ele>
        <time>2021-08-26T09:47:00.000Z</time>
      </trkpt>
      <trkpt lat="47.29583" lon="-2.39498">
        <ele>-106.80000305176</ele>
        <time>2021-08-26T09:47:04.000Z</time>
      </trkpt>
      <trkpt lat="47.29595" lon="-2.39493">
        <ele>-106.80000305176</ele>
        <time>2021-08-26T09:47:08.000Z</time>
      </trkpt>
      <trkpt lat="47.29597" lon="-2.39491">
        <ele>-106.80000305176</ele>
        <time>2021-08-26T09:47:09.000Z</time>
      </trkpt>
      <trkpt lat="47.29608" lon="-2.39471">
        <ele>-106.80000305176</ele>
        <time>2021-08-26T09:47:14.000Z</time>
      </trkpt>
      <trkpt lat="47.29627" lon="-2.3944">
        <ele>-106.80000305176</ele>
        <time>2021-08-26T09:47:21.000Z</time>
      </trkpt>
      <trkpt lat="47.29632" lon="-2.39424">
        <ele>-106.80000305176</ele>
        <time>2021-08-26T09:47:24.000Z</time>
      </trkpt>
      <trkpt lat="47.29633" lon="-2.39412">
        <ele>-106.80000305176</ele>
        <time>2021-08-26T09:47:26.000Z</time>
      </trkpt>
      <trkpt lat="47.29634" lon="-2.39399">
        <ele>-106.80000305176</ele>
        <time>2021-08-26T09:47:28.000Z</time>
      </trkpt>
      <trkpt lat="47.29638" lon="-2.39388">
        <ele>-106.80000305176</ele>
        <time>2021-08-26T09:47:30.000Z</time>
      </trkpt>
      <trkpt lat="47.29641" lon="-2.39371">
        <ele>-106.80000305176</ele>
        <time>2021-08-26T09:47:33.000Z</time>
      </trkpt>
      <trkpt lat="47.29642" lon="-2.39364">
        <ele>-106.80000305176</ele>
        <time>2021-08-26T09:47:34.000Z</time>
      </trkpt>
      <trkpt lat="47.29646" lon="-2.39312">
        <ele>-106.80000305176</ele>
        <time>2021-08-26T09:47:42.000Z</time>
      </trkpt>
      <trkpt lat="47.2965" lon="-2.39265">
        <ele>-106.80000305176</ele>
        <time>2021-08-26T09:47:49.000Z</time>
      </trkpt>
      <trkpt lat="47.29658" lon="-2.39217">
        <ele>-106.80000305176</ele>
        <time>2021-08-26T09:47:56.000Z</time>
      </trkpt>
      <trkpt lat="47.29662" lon="-2.39207">
        <ele>-106</ele>
        <time>2021-08-26T09:47:58.000Z</time>
      </trkpt>
      <trkpt lat="47.29663" lon="-2.39202">
        <ele>-105.59999847412</ele>
        <time>2021-08-26T09:47:59.000Z</time>
      </trkpt>
      <trkpt lat="47.29665" lon="-2.39197">
        <ele>-105.19999694824</ele>
        <time>2021-08-26T09:48:00.000Z</time>
      </trkpt>
      <trkpt lat="47.29666" lon="-2.39192">
        <ele>-104.80000305176</ele>
        <time>2021-08-26T09:48:01.000Z</time>
      </trkpt>
      <trkpt lat="47.29669" lon="-2.39187">
        <ele>-104.80000305176</ele>
        <time>2021-08-26T09:48:02.000Z</time>
      </trkpt>
      <trkpt lat="47.29671" lon="-2.39184">
        <ele>-104.80000305176</ele>
        <time>2021-08-26T09:48:03.000Z</time>
      </trkpt>
      <trkpt lat="47.29679" lon="-2.39179">
        <ele>-104.80000305176</ele>
        <time>2021-08-26T09:48:05.000Z</time>
      </trkpt>
      <trkpt lat="47.29716" lon="-2.39161">
        <ele>-104.80000305176</ele>
        <time>2021-08-26T09:48:13.000Z</time>
      </trkpt>
      <trkpt lat="47.29744" lon="-2.39146">
        <ele>-104.80000305176</ele>
        <time>2021-08-26T09:48:19.000Z</time>
      </trkpt>
      <trkpt lat="47.29761" lon="-2.39137">
        <ele>-104.19999694824</ele>
        <time>2021-08-26T09:48:23.000Z</time>
      </trkpt>
      <trkpt lat="47.29765" lon="-2.39135">
        <ele>-103.80000305176</ele>
        <time>2021-08-26T09:48:24.000Z</time>
      </trkpt>
      <trkpt lat="47.29768" lon="-2.39133">
        <ele>-103.40000152588</ele>
        <time>2021-08-26T09:48:25.000Z</time>
      </trkpt>
      <trkpt lat="47.29772" lon="-2.39131">
        <ele>-103</ele>
        <time>2021-08-26T09:48:26.000Z</time>
      </trkpt>
      <trkpt lat="47.29776" lon="-2.39129">
        <ele>-102.59999847412</ele>
        <time>2021-08-26T09:48:27.000Z</time>
      </trkpt>
      <trkpt lat="47.2978" lon="-2.39127">
        <ele>-102.59999847412</ele>
        <time>2021-08-26T09:48:28.000Z</time>
      </trkpt>
      <trkpt lat="47.298" lon="-2.39117">
        <ele>-102.59999847412</ele>
        <time>2021-08-26T09:48:33.000Z</time>
      </trkpt>
      <trkpt lat="47.29828" lon="-2.39103">
        <ele>-102.59999847412</ele>
        <time>2021-08-26T09:48:40.000Z</time>
      </trkpt>
      <trkpt lat="47.29847" lon="-2.39093">
        <ele>-102.59999847412</ele>
        <time>2021-08-26T09:48:45.000Z</time>
      </trkpt>
      <trkpt lat="47.29861" lon="-2.39081">
        <ele>-102.59999847412</ele>
        <time>2021-08-26T09:48:49.000Z</time>
      </trkpt>
      <trkpt lat="47.29898" lon="-2.39054">
        <ele>-102.59999847412</ele>
        <time>2021-08-26T09:48:58.000Z</time>
      </trkpt>
      <trkpt lat="47.29922" lon="-2.39034">
        <ele>-102.19999694824</ele>
        <time>2021-08-26T09:49:04.000Z</time>
      </trkpt>
      <trkpt lat="47.29926" lon="-2.39031">
        <ele>-101.80000305176</ele>
        <time>2021-08-26T09:49:05.000Z</time>
      </trkpt>
      <trkpt lat="47.2993" lon="-2.39028">
        <ele>-101.40000152588</ele>
        <time>2021-08-26T09:49:06.000Z</time>
      </trkpt>
      <trkpt lat="47.29934" lon="-2.39025">
        <ele>-101</ele>
        <time>2021-08-26T09:49:07.000Z</time>
      </trkpt>
      <trkpt lat="47.29938" lon="-2.39022">
        <ele>-100.59999847412</ele>
        <time>2021-08-26T09:49:08.000Z</time>
      </trkpt>
      <trkpt lat="47.29954" lon="-2.3901">
        <ele>-100.59999847412</ele>
        <time>2021-08-26T09:49:12.000Z</time>
      </trkpt>
      <trkpt lat="47.29965" lon="-2.39003">
        <ele>-100.19999694824</ele>
        <time>2021-08-26T09:49:15.000Z</time>
      </trkpt>
      <trkpt lat="47.29969" lon="-2.39001">
        <ele>-99.800003051758</ele>
        <time>2021-08-26T09:49:16.000Z</time>
      </trkpt>
      <trkpt lat="47.29972" lon="-2.38999">
        <ele>-99.199996948242</ele>
        <time>2021-08-26T09:49:17.000Z</time>
      </trkpt>
      <trkpt lat="47.29976" lon="-2.38997">
        <ele>-98.800003051758</ele>
        <time>2021-08-26T09:49:18.000Z</time>
      </trkpt>
      <trkpt lat="47.2998" lon="-2.38995">
        <ele>-98.400001525879</ele>
        <time>2021-08-26T09:49:19.000Z</time>
      </trkpt>
      <trkpt lat="47.29983" lon="-2.38993">
        <ele>-98.400001525879</ele>
        <time>2021-08-26T09:49:20.000Z</time>
      </trkpt>
      <trkpt lat="47.29999" lon="-2.38989">
        <ele>-98.400001525879</ele>
        <time>2021-08-26T09:49:24.000Z</time>
      </trkpt>
      <trkpt lat="47.30002" lon="-2.38985">
        <ele>-98.400001525879</ele>
        <time>2021-08-26T09:49:25.000Z</time>
      </trkpt>
      <trkpt lat="47.30007" lon="-2.3896">
        <ele>-98.400001525879</ele>
        <time>2021-08-26T09:49:29.000Z</time>
      </trkpt>
      <trkpt lat="47.30007" lon="-2.38952">
        <ele>-98.400001525879</ele>
        <time>2021-08-26T09:49:30.000Z</time>
      </trkpt>
      <trkpt lat="47.30006" lon="-2.38928">
        <ele>-98.400001525879</ele>
        <time>2021-08-26T09:49:34.000Z</time>
      </trkpt>
      <trkpt lat="47.30006" lon="-2.38898">
        <ele>-98</ele>
        <time>2021-08-26T09:49:40.000Z</time>
      </trkpt>
      <trkpt lat="47.30006" lon="-2.38894">
        <ele>-97.599998474121</ele>
        <time>2021-08-26T09:49:41.000Z</time>
      </trkpt>
      <trkpt lat="47.30006" lon="-2.3889">
        <ele>-97.199996948242</ele>
        <time>2021-08-26T09:49:42.000Z</time>
      </trkpt>
      <trkpt lat="47.30006" lon="-2.38885">
        <ele>-96.800003051758</ele>
        <time>2021-08-26T09:49:43.000Z</time>
      </trkpt>
      <trkpt lat="47.30006" lon="-2.3888">
        <ele>-96.400001525879</ele>
        <time>2021-08-26T09:49:44.000Z</time>
      </trkpt>
      <trkpt lat="47.30006" lon="-2.38863">
        <ele>-96</ele>
        <time>2021-08-26T09:49:48.000Z</time>
      </trkpt>
      <trkpt lat="47.30006" lon="-2.38859">
        <ele>-95.599998474121</ele>
        <time>2021-08-26T09:49:49.000Z</time>
      </trkpt>
      <trkpt lat="47.30006" lon="-2.38855">
        <ele>-95.199996948242</ele>
        <time>2021-08-26T09:49:50.000Z</time>
      </trkpt>
      <trkpt lat="47.30006" lon="-2.38851">
        <ele>-94.800003051758</ele>
        <time>2021-08-26T09:49:51.000Z</time>
      </trkpt>
      <trkpt lat="47.30006" lon="-2.38846">
        <ele>-94.400001525879</ele>
        <time>2021-08-26T09:49:52.000Z</time>
      </trkpt>
      <trkpt lat="47.30006" lon="-2.38837">
        <ele>-94.400001525879</ele>
        <time>2021-08-26T09:49:54.000Z</time>
      </trkpt>
      <trkpt lat="47.3001" lon="-2.38806">
        <ele>-94.400001525879</ele>
        <time>2021-08-26T09:50:01.000Z</time>
      </trkpt>
      <trkpt lat="47.30011" lon="-2.38797">
        <ele>-93.800003051758</ele>
        <time>2021-08-26T09:50:03.000Z</time>
      </trkpt>
      <trkpt lat="47.30012" lon="-2.38792">
        <ele>-93.400001525879</ele>
        <time>2021-08-26T09:50:04.000Z</time>
      </trkpt>
      <trkpt lat="47.30012" lon="-2.38788">
        <ele>-93</ele>
        <time>2021-08-26T09:50:05.000Z</time>
      </trkpt>
      <trkpt lat="47.30013" lon="-2.38784">
        <ele>-92.599998474121</ele>
        <time>2021-08-26T09:50:06.000Z</time>
      </trkpt>
      <trkpt lat="47.30013" lon="-2.3878">
        <ele>-92</ele>
        <time>2021-08-26T09:50:07.000Z</time>
      </trkpt>
      <trkpt lat="47.30013" lon="-2.38775">
        <ele>-92</ele>
        <time>2021-08-26T09:50:08.000Z</time>
      </trkpt>
      <trkpt lat="47.30017" lon="-2.38749">
        <ele>-92</ele>
        <time>2021-08-26T09:50:15.000Z</time>
      </trkpt>
      <trkpt lat="47.30019" lon="-2.38737">
        <ele>-91.599998474121</ele>
        <time>2021-08-26T09:50:18.000Z</time>
      </trkpt>
      <trkpt lat="47.3002" lon="-2.38733">
        <ele>-91.199996948242</ele>
        <time>2021-08-26T09:50:19.000Z</time>
      </trkpt>
      <trkpt lat="47.30021" lon="-2.38729">
        <ele>-90.800003051758</ele>
        <time>2021-08-26T09:50:20.000Z</time>
      </trkpt>
      <trkpt lat="47.30022" lon="-2.38725">
        <ele>-90.400001525879</ele>
        <time>2021-08-26T09:50:21.000Z</time>
      </trkpt>
      <trkpt lat="47.30022" lon="-2.38721">
        <ele>-89.800003051758</ele>
        <time>2021-08-26T09:50:22.000Z</time>
      </trkpt>
      <trkpt lat="47.30026" lon="-2.38689">
        <ele>-89.800003051758</ele>
        <time>2021-08-26T09:50:30.000Z</time>
      </trkpt>
      <trkpt lat="47.30027" lon="-2.38676">
        <ele>-89.400001525879</ele>
        <time>2021-08-26T09:50:33.000Z</time>
      </trkpt>
      <trkpt lat="47.30027" lon="-2.38672">
        <ele>-89</ele>
        <time>2021-08-26T09:50:34.000Z</time>
      </trkpt>
      <trkpt lat="47.30027" lon="-2.38668">
        <ele>-88.599998474121</ele>
        <time>2021-08-26T09:50:35.000Z</time>
      </trkpt>
      <trkpt lat="47.30026" lon="-2.38664">
        <ele>-88.199996948242</ele>
        <time>2021-08-26T09:50:36.000Z</time>
      </trkpt>
      <trkpt lat="47.30026" lon="-2.3866">
        <ele>-87.800003051758</ele>
        <time>2021-08-26T09:50:37.000Z</time>
      </trkpt>
      <trkpt lat="47.30024" lon="-2.38631">
        <ele>-87.800003051758</ele>
        <time>2021-08-26T09:50:44.000Z</time>
      </trkpt>
      <trkpt lat="47.30024" lon="-2.38603">
        <ele>-87.400001525879</ele>
        <time>2021-08-26T09:50:50.000Z</time>
      </trkpt>
      <trkpt lat="47.30025" lon="-2.38599">
        <ele>-86.599998474121</ele>
        <time>2021-08-26T09:50:51.000Z</time>
      </trkpt>
      <trkpt lat="47.30025" lon="-2.38595">
        <ele>-86.199996948242</ele>
        <time>2021-08-26T09:50:52.000Z</time>
      </trkpt>
      <trkpt lat="47.30024" lon="-2.38592">
        <ele>-85.800003051758</ele>
        <time>2021-08-26T09:50:53.000Z</time>
      </trkpt>
      <trkpt lat="47.30023" lon="-2.38581">
        <ele>-85.800003051758</ele>
        <time>2021-08-26T09:50:56.000Z</time>
      </trkpt>
      <trkpt lat="47.30021" lon="-2.38568">
        <ele>-85.400001525879</ele>
        <time>2021-08-26T09:51:00.000Z</time>
      </trkpt>
      <trkpt lat="47.30021" lon="-2.38564">
        <ele>-85</ele>
        <time>2021-08-26T09:51:01.000Z</time>
      </trkpt>
      <trkpt lat="47.3002" lon="-2.3856">
        <ele>-84.599998474121</ele>
        <time>2021-08-26T09:51:02.000Z</time>
      </trkpt>
      <trkpt lat="47.3002" lon="-2.38556">
        <ele>-84.199996948242</ele>
        <time>2021-08-26T09:51:03.000Z</time>
      </trkpt>
      <trkpt lat="47.3002" lon="-2.38552">
        <ele>-83.800003051758</ele>
        <time>2021-08-26T09:51:04.000Z</time>
      </trkpt>
      <trkpt lat="47.30018" lon="-2.38546">
        <ele>-83.800003051758</ele>
        <time>2021-08-26T09:51:06.000Z</time>
      </trkpt>
      <trkpt lat="47.30016" lon="-2.38539">
        <ele>-83.800003051758</ele>
        <time>2021-08-26T09:51:08.000Z</time>
      </trkpt>
      <trkpt lat="47.30015" lon="-2.38526">
        <ele>-83.400001525879</ele>
        <time>2021-08-26T09:51:11.000Z</time>
      </trkpt>
      <trkpt lat="47.30014" lon="-2.38521">
        <ele>-83</ele>
        <time>2021-08-26T09:51:12.000Z</time>
      </trkpt>
      <trkpt lat="47.30013" lon="-2.38516">
        <ele>-82.400001525879</ele>
        <time>2021-08-26T09:51:13.000Z</time>
      </trkpt>
      <trkpt lat="47.30012" lon="-2.3851">
        <ele>-82</ele>
        <time>2021-08-26T09:51:14.000Z</time>
      </trkpt>
      <trkpt lat="47.30012" lon="-2.38504">
        <ele>-81.599998474121</ele>
        <time>2021-08-26T09:51:15.000Z</time>
      </trkpt>
      <trkpt lat="47.30009" lon="-2.38492">
        <ele>-81.199996948242</ele>
        <time>2021-08-26T09:51:17.000Z</time>
      </trkpt>
      <trkpt lat="47.30008" lon="-2.38485">
        <ele>-80.800003051758</ele>
        <time>2021-08-26T09:51:18.000Z</time>
      </trkpt>
      <trkpt lat="47.30007" lon="-2.38478">
        <ele>-80.400001525879</ele>
        <time>2021-08-26T09:51:19.000Z</time>
      </trkpt>
      <trkpt lat="47.30006" lon="-2.3847">
        <ele>-80</ele>
        <time>2021-08-26T09:51:20.000Z</time>
      </trkpt>
      <trkpt lat="47.30004" lon="-2.38462">
        <ele>-79.599998474121</ele>
        <time>2021-08-26T09:51:21.000Z</time>
      </trkpt>
      <trkpt lat="47.29999" lon="-2.38414">
        <ele>-79</ele>
        <time>2021-08-26T09:51:26.000Z</time>
      </trkpt>
      <trkpt lat="47.29998" lon="-2.38405">
        <ele>-78.599998474121</ele>
        <time>2021-08-26T09:51:27.000Z</time>
      </trkpt>
      <trkpt lat="47.29997" lon="-2.38395">
        <ele>-78</ele>
        <time>2021-08-26T09:51:28.000Z</time>
      </trkpt>
      <trkpt lat="47.29996" lon="-2.38386">
        <ele>-77.599998474121</ele>
        <time>2021-08-26T09:51:29.000Z</time>
      </trkpt>
      <trkpt lat="47.29995" lon="-2.38376">
        <ele>-77.199996948242</ele>
        <time>2021-08-26T09:51:30.000Z</time>
      </trkpt>
      <trkpt lat="47.29994" lon="-2.38339">
        <ele>-77.199996948242</ele>
        <time>2021-08-26T09:51:34.000Z</time>
      </trkpt>
      <trkpt lat="47.29993" lon="-2.38305">
        <ele>-77.599998474121</ele>
        <time>2021-08-26T09:51:38.000Z</time>
      </trkpt>
      <trkpt lat="47.29993" lon="-2.38296">
        <ele>-78</ele>
        <time>2021-08-26T09:51:39.000Z</time>
      </trkpt>
      <trkpt lat="47.29993" lon="-2.38287">
        <ele>-78.400001525879</ele>
        <time>2021-08-26T09:51:40.000Z</time>
      </trkpt>
      <trkpt lat="47.29993" lon="-2.38279">
        <ele>-79.199996948242</ele>
        <time>2021-08-26T09:51:41.000Z</time>
      </trkpt>
      <trkpt lat="47.29993" lon="-2.3827">
        <ele>-79.199996948242</ele>
        <time>2021-08-26T09:51:42.000Z</time>
      </trkpt>
      <trkpt lat="47.29991" lon="-2.38195">
        <ele>-79.199996948242</ele>
        <time>2021-08-26T09:51:50.000Z</time>
      </trkpt>
      <trkpt lat="47.29988" lon="-2.38115">
        <ele>-79.199996948242</ele>
        <time>2021-08-26T09:51:58.000Z</time>
      </trkpt>
      <trkpt lat="47.29988" lon="-2.38082">
        <ele>-79.599998474121</ele>
        <time>2021-08-26T09:52:01.000Z</time>
      </trkpt>
      <trkpt lat="47.29988" lon="-2.3807">
        <ele>-80.199996948242</ele>
        <time>2021-08-26T09:52:02.000Z</time>
      </trkpt>
      <trkpt lat="47.29988" lon="-2.38058">
        <ele>-80.599998474121</ele>
        <time>2021-08-26T09:52:03.000Z</time>
      </trkpt>
      <trkpt lat="47.29989" lon="-2.38046">
        <ele>-81</ele>
        <time>2021-08-26T09:52:04.000Z</time>
      </trkpt>
      <trkpt lat="47.29989" lon="-2.38034">
        <ele>-81.599998474121</ele>
        <time>2021-08-26T09:52:05.000Z</time>
      </trkpt>
      <trkpt lat="47.29989" lon="-2.38011">
        <ele>-82</ele>
        <time>2021-08-26T09:52:07.000Z</time>
      </trkpt>
      <trkpt lat="47.29989" lon="-2.38">
        <ele>-82.599998474121</ele>
        <time>2021-08-26T09:52:08.000Z</time>
      </trkpt>
      <trkpt lat="47.29989" lon="-2.3799">
        <ele>-83</ele>
        <time>2021-08-26T09:52:09.000Z</time>
      </trkpt>
      <trkpt lat="47.29989" lon="-2.3798">
        <ele>-83.400001525879</ele>
        <time>2021-08-26T09:52:10.000Z</time>
      </trkpt>
      <trkpt lat="47.29989" lon="-2.37971">
        <ele>-84</ele>
        <time>2021-08-26T09:52:11.000Z</time>
      </trkpt>
      <trkpt lat="47.29988" lon="-2.37962">
        <ele>-84</ele>
        <time>2021-08-26T09:52:12.000Z</time>
      </trkpt>
      <trkpt lat="47.29984" lon="-2.37945">
        <ele>-84</ele>
        <time>2021-08-26T09:52:14.000Z</time>
      </trkpt>
      <trkpt lat="47.29969" lon="-2.37922">
        <ele>-84</ele>
        <time>2021-08-26T09:52:18.000Z</time>
      </trkpt>
      <trkpt lat="47.2996" lon="-2.37913">
        <ele>-84</ele>
        <time>2021-08-26T09:52:20.000Z</time>
      </trkpt>
      <trkpt lat="47.29941" lon="-2.37894">
        <ele>-84</ele>
        <time>2021-08-26T09:52:25.000Z</time>
      </trkpt>
      <trkpt lat="47.29935" lon="-2.37889">
        <ele>-84</ele>
        <time>2021-08-26T09:52:29.000Z</time>
      </trkpt>
      <trkpt lat="47.29931" lon="-2.37884">
        <ele>-86</ele>
        <time>2021-08-26T09:52:59.000Z</time>
      </trkpt>
      <trkpt lat="47.29927" lon="-2.3788">
        <ele>-86</ele>
        <time>2021-08-26T09:53:02.000Z</time>
      </trkpt>
      <trkpt lat="47.29925" lon="-2.37878">
        <ele>-86</ele>
        <time>2021-08-26T09:53:03.000Z</time>
      </trkpt>
      <trkpt lat="47.29916" lon="-2.37864">
        <ele>-86</ele>
        <time>2021-08-26T09:53:08.000Z</time>
      </trkpt>
      <trkpt lat="47.29904" lon="-2.37852">
        <ele>-85.400001525879</ele>
        <time>2021-08-26T09:53:13.000Z</time>
      </trkpt>
      <trkpt lat="47.29902" lon="-2.3785">
        <ele>-85</ele>
        <time>2021-08-26T09:53:14.000Z</time>
      </trkpt>
      <trkpt lat="47.299" lon="-2.37847">
        <ele>-84.599998474121</ele>
        <time>2021-08-26T09:53:15.000Z</time>
      </trkpt>
      <trkpt lat="47.29898" lon="-2.37844">
        <ele>-84.199996948242</ele>
        <time>2021-08-26T09:53:16.000Z</time>
      </trkpt>
      <trkpt lat="47.29896" lon="-2.37841">
        <ele>-83.599998474121</ele>
        <time>2021-08-26T09:53:17.000Z</time>
      </trkpt>
      <trkpt lat="47.29889" lon="-2.37832">
        <ele>-82.800003051758</ele>
        <time>2021-08-26T09:53:21.000Z</time>
      </trkpt>
      <trkpt lat="47.29888" lon="-2.3783">
        <ele>-82.400001525879</ele>
        <time>2021-08-26T09:53:22.000Z</time>
      </trkpt>
      <trkpt lat="47.29886" lon="-2.37827">
        <ele>-82</ele>
        <time>2021-08-26T09:53:23.000Z</time>
      </trkpt>
      <trkpt lat="47.29884" lon="-2.37825">
        <ele>-81.599998474121</ele>
        <time>2021-08-26T09:53:24.000Z</time>
      </trkpt>
      <trkpt lat="47.29876" lon="-2.37818">
        <ele>-81.199996948242</ele>
        <time>2021-08-26T09:53:28.000Z</time>
      </trkpt>
      <trkpt lat="47.29874" lon="-2.37816">
        <ele>-80.800003051758</ele>
        <time>2021-08-26T09:53:29.000Z</time>
      </trkpt>
      <trkpt lat="47.29872" lon="-2.37816">
        <ele>-80.400001525879</ele>
        <time>2021-08-26T09:53:30.000Z</time>
      </trkpt>
      <trkpt lat="47.2987" lon="-2.37817">
        <ele>-80</ele>
        <time>2021-08-26T09:53:31.000Z</time>
      </trkpt>
      <trkpt lat="47.29868" lon="-2.37819">
        <ele>-79.599998474121</ele>
        <time>2021-08-26T09:53:32.000Z</time>
      </trkpt>
      <trkpt lat="47.29867" lon="-2.37822">
        <ele>-79.599998474121</ele>
        <time>2021-08-26T09:53:33.000Z</time>
      </trkpt>
      <trkpt lat="47.2986" lon="-2.37841">
        <ele>-79.599998474121</ele>
        <time>2021-08-26T09:53:38.000Z</time>
      </trkpt>
      <trkpt lat="47.29851" lon="-2.37861">
        <ele>-79.599998474121</ele>
        <time>2021-08-26T09:53:43.000Z</time>
      </trkpt>
      <trkpt lat="47.2985" lon="-2.37863">
        <ele>-79.599998474121</ele>
        <time>2021-08-26T09:53:45.000Z</time>
      </trkpt>
      <trkpt lat="47.29845" lon="-2.3787">
        <ele>-79.599998474121</ele>
        <time>2021-08-26T09:54:12.000Z</time>
      </trkpt>
      <trkpt lat="47.29843" lon="-2.37871">
        <ele>-79.599998474121</ele>
        <time>2021-08-26T09:54:13.000Z</time>
      </trkpt>
      <trkpt lat="47.29835" lon="-2.37881">
        <ele>-79.599998474121</ele>
        <time>2021-08-26T09:54:18.000Z</time>
      </trkpt>
      <trkpt lat="47.29828" lon="-2.37887">
        <ele>-79.199996948242</ele>
        <time>2021-08-26T09:54:21.000Z</time>
      </trkpt>
      <trkpt lat="47.29826" lon="-2.37889">
        <ele>-78.800003051758</ele>
        <time>2021-08-26T09:54:22.000Z</time>
      </trkpt>
      <trkpt lat="47.29822" lon="-2.37892">
        <ele>-78.400001525879</ele>
        <time>2021-08-26T09:54:23.000Z</time>
      </trkpt>
      <trkpt lat="47.29818" lon="-2.37893">
        <ele>-78</ele>
        <time>2021-08-26T09:54:24.000Z</time>
      </trkpt>
      <trkpt lat="47.29814" lon="-2.37895">
        <ele>-77.599998474121</ele>
        <time>2021-08-26T09:54:25.000Z</time>
      </trkpt>
      <trkpt lat="47.29802" lon="-2.37901">
        <ele>-77.599998474121</ele>
        <time>2021-08-26T09:54:28.000Z</time>
      </trkpt>
      <trkpt lat="47.29778" lon="-2.37918">
        <ele>-77.599998474121</ele>
        <time>2021-08-26T09:54:34.000Z</time>
      </trkpt>
      <trkpt lat="47.29753" lon="-2.37942">
        <ele>-77.599998474121</ele>
        <time>2021-08-26T09:54:39.000Z</time>
      </trkpt>
      <trkpt lat="47.29749" lon="-2.37948">
        <ele>-77.599998474121</ele>
        <time>2021-08-26T09:54:40.000Z</time>
      </trkpt>
      <trkpt lat="47.29745" lon="-2.37955">
        <ele>-77.599998474121</ele>
        <time>2021-08-26T09:54:41.000Z</time>
      </trkpt>
      <trkpt lat="47.29737" lon="-2.37974">
        <ele>-77.599998474121</ele>
        <time>2021-08-26T09:54:43.000Z</time>
      </trkpt>
      <trkpt lat="47.29734" lon="-2.37982">
        <ele>-78</ele>
        <time>2021-08-26T09:54:44.000Z</time>
      </trkpt>
      <trkpt lat="47.29732" lon="-2.3799">
        <ele>-78.400001525879</ele>
        <time>2021-08-26T09:54:45.000Z</time>
      </trkpt>
      <trkpt lat="47.29731" lon="-2.37999">
        <ele>-79.199996948242</ele>
        <time>2021-08-26T09:54:46.000Z</time>
      </trkpt>
      <trkpt lat="47.29731" lon="-2.38007">
        <ele>-79.800003051758</ele>
        <time>2021-08-26T09:54:47.000Z</time>
      </trkpt>
      <trkpt lat="47.29732" lon="-2.38015">
        <ele>-80.599998474121</ele>
        <time>2021-08-26T09:54:48.000Z</time>
      </trkpt>
      <trkpt lat="47.29733" lon="-2.38023">
        <ele>-81.199996948242</ele>
        <time>2021-08-26T09:54:49.000Z</time>
      </trkpt>
      <trkpt lat="47.29733" lon="-2.38029">
        <ele>-82</ele>
        <time>2021-08-26T09:54:50.000Z</time>
      </trkpt>
      <trkpt lat="47.29732" lon="-2.38034">
        <ele>-82.800003051758</ele>
        <time>2021-08-26T09:54:51.000Z</time>
      </trkpt>
      <trkpt lat="47.2973" lon="-2.38038">
        <ele>-83.800003051758</ele>
        <time>2021-08-26T09:54:52.000Z</time>
      </trkpt>
      <trkpt lat="47.29728" lon="-2.38041">
        <ele>-84.599998474121</ele>
        <time>2021-08-26T09:54:53.000Z</time>
      </trkpt>
      <trkpt lat="47.29723" lon="-2.38044">
        <ele>-85.400001525879</ele>
        <time>2021-08-26T09:54:54.000Z</time>
      </trkpt>
      <trkpt lat="47.29719" lon="-2.38048">
        <ele>-86.199996948242</ele>
        <time>2021-08-26T09:54:55.000Z</time>
      </trkpt>
      <trkpt lat="47.29712" lon="-2.38053">
        <ele>-86.800003051758</ele>
        <time>2021-08-26T09:54:56.000Z</time>
      </trkpt>
      <trkpt lat="47.29706" lon="-2.38059">
        <ele>-87.400001525879</ele>
        <time>2021-08-26T09:54:57.000Z</time>
      </trkpt>
      <trkpt lat="47.29699" lon="-2.38066">
        <ele>-88</ele>
        <time>2021-08-26T09:54:58.000Z</time>
      </trkpt>
      <trkpt lat="47.29691" lon="-2.38071">
        <ele>-89.199996948242</ele>
        <time>2021-08-26T09:54:59.000Z</time>
      </trkpt>
      <trkpt lat="47.29683" lon="-2.38077">
        <ele>-89.599998474121</ele>
        <time>2021-08-26T09:55:00.000Z</time>
      </trkpt>
      <trkpt lat="47.29674" lon="-2.38083">
        <ele>-90.199996948242</ele>
        <time>2021-08-26T09:55:01.000Z</time>
      </trkpt>
      <trkpt lat="47.29664" lon="-2.38088">
        <ele>-90.800003051758</ele>
        <time>2021-08-26T09:55:02.000Z</time>
      </trkpt>
      <trkpt lat="47.29654" lon="-2.38094">
        <ele>-91.400001525879</ele>
        <time>2021-08-26T09:55:03.000Z</time>
      </trkpt>
      <trkpt lat="47.29644" lon="-2.38099">
        <ele>-92</ele>
        <time>2021-08-26T09:55:04.000Z</time>
      </trkpt>
      <trkpt lat="47.29635" lon="-2.38104">
        <ele>-92.599998474121</ele>
        <time>2021-08-26T09:55:05.000Z</time>
      </trkpt>
      <trkpt lat="47.29625" lon="-2.38108">
        <ele>-93.199996948242</ele>
        <time>2021-08-26T09:55:06.000Z</time>
      </trkpt>
      <trkpt lat="47.29616" lon="-2.38112">
        <ele>-94</ele>
        <time>2021-08-26T09:55:07.000Z</time>
      </trkpt>
      <trkpt lat="47.29606" lon="-2.38114">
        <ele>-94.800003051758</ele>
        <time>2021-08-26T09:55:08.000Z</time>
      </trkpt>
      <trkpt lat="47.29596" lon="-2.38116">
        <ele>-95.400001525879</ele>
        <time>2021-08-26T09:55:09.000Z</time>
      </trkpt>
      <trkpt lat="47.29587" lon="-2.38119">
        <ele>-96</ele>
        <time>2021-08-26T09:55:10.000Z</time>
      </trkpt>
      <trkpt lat="47.29577" lon="-2.38121">
        <ele>-96.599998474121</ele>
        <time>2021-08-26T09:55:11.000Z</time>
      </trkpt>
      <trkpt lat="47.29567" lon="-2.38122">
        <ele>-97.199996948242</ele>
        <time>2021-08-26T09:55:12.000Z</time>
      </trkpt>
      <trkpt lat="47.29557" lon="-2.38124">
        <ele>-98</ele>
        <time>2021-08-26T09:55:13.000Z</time>
      </trkpt>
      <trkpt lat="47.29548" lon="-2.38125">
        <ele>-98.599998474121</ele>
        <time>2021-08-26T09:55:14.000Z</time>
      </trkpt>
      <trkpt lat="47.29539" lon="-2.38125">
        <ele>-98.599998474121</ele>
        <time>2021-08-26T09:55:15.000Z</time>
      </trkpt>
      <trkpt lat="47.2952" lon="-2.38125">
        <ele>-99</ele>
        <time>2021-08-26T09:55:17.000Z</time>
      </trkpt>
      <trkpt lat="47.29512" lon="-2.38124">
        <ele>-99.400001525879</ele>
        <time>2021-08-26T09:55:18.000Z</time>
      </trkpt>
      <trkpt lat="47.29503" lon="-2.38122">
        <ele>-99.800003051758</ele>
        <time>2021-08-26T09:55:19.000Z</time>
      </trkpt>
      <trkpt lat="47.29494" lon="-2.38122">
        <ele>-100.19999694824</ele>
        <time>2021-08-26T09:55:20.000Z</time>
      </trkpt>
      <trkpt lat="47.29487" lon="-2.38125">
        <ele>-100.80000305176</ele>
        <time>2021-08-26T09:55:21.000Z</time>
      </trkpt>
      <trkpt lat="47.2948" lon="-2.38129">
        <ele>-101.19999694824</ele>
        <time>2021-08-26T09:55:22.000Z</time>
      </trkpt>
      <trkpt lat="47.29473" lon="-2.38133">
        <ele>-101.80000305176</ele>
        <time>2021-08-26T09:55:23.000Z</time>
      </trkpt>
      <trkpt lat="47.29466" lon="-2.38138">
        <ele>-102.80000305176</ele>
        <time>2021-08-26T09:55:24.000Z</time>
      </trkpt>
      <trkpt lat="47.29455" lon="-2.38146">
        <ele>-103.19999694824</ele>
        <time>2021-08-26T09:55:26.000Z</time>
      </trkpt>
      <trkpt lat="47.29451" lon="-2.38149">
        <ele>-103.59999847412</ele>
        <time>2021-08-26T09:55:27.000Z</time>
      </trkpt>
      <trkpt lat="47.29449" lon="-2.38149">
        <ele>-104.19999694824</ele>
        <time>2021-08-26T09:55:28.000Z</time>
      </trkpt>
      <trkpt lat="47.29447" lon="-2.38149">
        <ele>-104.59999847412</ele>
        <time>2021-08-26T09:55:29.000Z</time>
      </trkpt>
      <trkpt lat="47.29447" lon="-2.38149">
        <ele>-105</ele>
        <time>2021-08-26T09:55:30.000Z</time>
      </trkpt>
      <trkpt lat="47.29447" lon="-2.38148">
        <ele>-105</ele>
        <time>2021-08-26T09:55:31.000Z</time>
      </trkpt>
      <trkpt lat="47.29446" lon="-2.38148">
        <ele>-105</ele>
        <time>2021-08-26T09:55:43.000Z</time>
      </trkpt>
      <trkpt lat="47.29442" lon="-2.38146">
        <ele>-105</ele>
        <time>2021-08-26T09:55:45.000Z</time>
      </trkpt>
      <trkpt lat="47.2944" lon="-2.38141">
        <ele>-105</ele>
        <time>2021-08-26T09:55:47.000Z</time>
      </trkpt>
      <trkpt lat="47.29439" lon="-2.38137">
        <ele>-105.40000152588</ele>
        <time>2021-08-26T09:55:48.000Z</time>
      </trkpt>
      <trkpt lat="47.29437" lon="-2.38132">
        <ele>-106.19999694824</ele>
        <time>2021-08-26T09:55:49.000Z</time>
      </trkpt>
      <trkpt lat="47.29436" lon="-2.38127">
        <ele>-106.59999847412</ele>
        <time>2021-08-26T09:55:50.000Z</time>
      </trkpt>
      <trkpt lat="47.29434" lon="-2.38121">
        <ele>-107</ele>
        <time>2021-08-26T09:55:51.000Z</time>
      </trkpt>
      <trkpt lat="47.29432" lon="-2.38116">
        <ele>-107</ele>
        <time>2021-08-26T09:55:52.000Z</time>
      </trkpt>
      <trkpt lat="47.29417" lon="-2.38073">
        <ele>-107</ele>
        <time>2021-08-26T09:55:59.000Z</time>
      </trkpt>
      <trkpt lat="47.29397" lon="-2.38016">
        <ele>-107</ele>
        <time>2021-08-26T09:56:08.000Z</time>
      </trkpt>
      <trkpt lat="47.29382" lon="-2.37975">
        <ele>-106.59999847412</ele>
        <time>2021-08-26T09:56:15.000Z</time>
      </trkpt>
      <trkpt lat="47.2938" lon="-2.37969">
        <ele>-106.19999694824</ele>
        <time>2021-08-26T09:56:16.000Z</time>
      </trkpt>
      <trkpt lat="47.29378" lon="-2.37963">
        <ele>-105.80000305176</ele>
        <time>2021-08-26T09:56:17.000Z</time>
      </trkpt>
      <trkpt lat="47.29376" lon="-2.37957">
        <ele>-105.40000152588</ele>
        <time>2021-08-26T09:56:18.000Z</time>
      </trkpt>
      <trkpt lat="47.29374" lon="-2.37952">
        <ele>-105</ele>
        <time>2021-08-26T09:56:19.000Z</time>
      </trkpt>
      <trkpt lat="47.29364" lon="-2.37923">
        <ele>-105</ele>
        <time>2021-08-26T09:56:24.000Z</time>
      </trkpt>
      <trkpt lat="47.29348" lon="-2.3788">
        <ele>-105</ele>
        <time>2021-08-26T09:56:32.000Z</time>
      </trkpt>
      <trkpt lat="47.29344" lon="-2.37868">
        <ele>-104.59999847412</ele>
        <time>2021-08-26T09:56:34.000Z</time>
      </trkpt>
      <trkpt lat="47.29341" lon="-2.37861">
        <ele>-104</ele>
        <time>2021-08-26T09:56:35.000Z</time>
      </trkpt>
      <trkpt lat="47.29339" lon="-2.37854">
        <ele>-103.59999847412</ele>
        <time>2021-08-26T09:56:36.000Z</time>
      </trkpt>
      <trkpt lat="47.29337" lon="-2.37847">
        <ele>-103.19999694824</ele>
        <time>2021-08-26T09:56:37.000Z</time>
      </trkpt>
      <trkpt lat="47.29335" lon="-2.37839">
        <ele>-102.80000305176</ele>
        <time>2021-08-26T09:56:38.000Z</time>
      </trkpt>
      <trkpt lat="47.29333" lon="-2.37824">
        <ele>-102.80000305176</ele>
        <time>2021-08-26T09:56:40.000Z</time>
      </trkpt>
      <trkpt lat="47.29332" lon="-2.37808">
        <ele>-102.40000152588</ele>
        <time>2021-08-26T09:56:42.000Z</time>
      </trkpt>
      <trkpt lat="47.29332" lon="-2.378">
        <ele>-102</ele>
        <time>2021-08-26T09:56:43.000Z</time>
      </trkpt>
      <trkpt lat="47.29331" lon="-2.37791">
        <ele>-101.59999847412</ele>
        <time>2021-08-26T09:56:44.000Z</time>
      </trkpt>
      <trkpt lat="47.29331" lon="-2.37783">
        <ele>-101.19999694824</ele>
        <time>2021-08-26T09:56:45.000Z</time>
      </trkpt>
      <trkpt lat="47.29331" lon="-2.37775">
        <ele>-100.59999847412</ele>
        <time>2021-08-26T09:56:46.000Z</time>
      </trkpt>
      <trkpt lat="47.29328" lon="-2.37737">
        <ele>-100.19999694824</ele>
        <time>2021-08-26T09:56:51.000Z</time>
      </trkpt>
      <trkpt lat="47.29328" lon="-2.37729">
        <ele>-99.800003051758</ele>
        <time>2021-08-26T09:56:52.000Z</time>
      </trkpt>
      <trkpt lat="47.29328" lon="-2.37721">
        <ele>-99.400001525879</ele>
        <time>2021-08-26T09:56:53.000Z</time>
      </trkpt>
      <trkpt lat="47.29327" lon="-2.37714">
        <ele>-99</ele>
        <time>2021-08-26T09:56:54.000Z</time>
      </trkpt>
      <trkpt lat="47.29327" lon="-2.37706">
        <ele>-98.599998474121</ele>
        <time>2021-08-26T09:56:55.000Z</time>
      </trkpt>
      <trkpt lat="47.29327" lon="-2.37684">
        <ele>-98.199996948242</ele>
        <time>2021-08-26T09:56:58.000Z</time>
      </trkpt>
      <trkpt lat="47.29327" lon="-2.37677">
        <ele>-97.800003051758</ele>
        <time>2021-08-26T09:56:59.000Z</time>
      </trkpt>
      <trkpt lat="47.29327" lon="-2.3767">
        <ele>-97.400001525879</ele>
        <time>2021-08-26T09:57:00.000Z</time>
      </trkpt>
      <trkpt lat="47.29327" lon="-2.37663">
        <ele>-97</ele>
        <time>2021-08-26T09:57:01.000Z</time>
      </trkpt>
      <trkpt lat="47.29326" lon="-2.37656">
        <ele>-96.599998474121</ele>
        <time>2021-08-26T09:57:02.000Z</time>
      </trkpt>
      <trkpt lat="47.29318" lon="-2.37618">
        <ele>-96.199996948242</ele>
        <time>2021-08-26T09:57:07.000Z</time>
      </trkpt>
      <trkpt lat="47.29314" lon="-2.3761">
        <ele>-95.800003051758</ele>
        <time>2021-08-26T09:57:08.000Z</time>
      </trkpt>
      <trkpt lat="47.2931" lon="-2.37602">
        <ele>-95.400001525879</ele>
        <time>2021-08-26T09:57:09.000Z</time>
      </trkpt>
      <trkpt lat="47.29306" lon="-2.37595">
        <ele>-95</ele>
        <time>2021-08-26T09:57:10.000Z</time>
      </trkpt>
      <trkpt lat="47.29302" lon="-2.37588">
        <ele>-94.599998474121</ele>
        <time>2021-08-26T09:57:11.000Z</time>
      </trkpt>
      <trkpt lat="47.29271" lon="-2.37534">
        <ele>-94.599998474121</ele>
        <time>2021-08-26T09:57:18.000Z</time>
      </trkpt>
      <trkpt lat="47.29263" lon="-2.3752">
        <ele>-94.599998474121</ele>
        <time>2021-08-26T09:57:20.000Z</time>
      </trkpt>
      <trkpt lat="47.2925" lon="-2.37503">
        <ele>-94.599998474121</ele>
        <time>2021-08-26T09:57:23.000Z</time>
      </trkpt>
      <trkpt lat="47.29225" lon="-2.37467">
        <ele>-94.599998474121</ele>
        <time>2021-08-26T09:57:30.000Z</time>
      </trkpt>
      <trkpt lat="47.2921" lon="-2.37444">
        <ele>-94</ele>
        <time>2021-08-26T09:57:34.000Z</time>
      </trkpt>
      <trkpt lat="47.29206" lon="-2.37438">
        <ele>-93.599998474121</ele>
        <time>2021-08-26T09:57:35.000Z</time>
      </trkpt>
      <trkpt lat="47.29202" lon="-2.37432">
        <ele>-93.199996948242</ele>
        <time>2021-08-26T09:57:36.000Z</time>
      </trkpt>
      <trkpt lat="47.29198" lon="-2.37426">
        <ele>-92.800003051758</ele>
        <time>2021-08-26T09:57:37.000Z</time>
      </trkpt>
      <trkpt lat="47.29194" lon="-2.37419">
        <ele>-92.400001525879</ele>
        <time>2021-08-26T09:57:38.000Z</time>
      </trkpt>
      <trkpt lat="47.29187" lon="-2.37407">
        <ele>-91.800003051758</ele>
        <time>2021-08-26T09:57:40.000Z</time>
      </trkpt>
      <trkpt lat="47.29183" lon="-2.37401">
        <ele>-91.400001525879</ele>
        <time>2021-08-26T09:57:41.000Z</time>
      </trkpt>
      <trkpt lat="47.2918" lon="-2.37395">
        <ele>-91</ele>
        <time>2021-08-26T09:57:42.000Z</time>
      </trkpt>
      <trkpt lat="47.29176" lon="-2.37389">
        <ele>-90.599998474121</ele>
        <time>2021-08-26T09:57:43.000Z</time>
      </trkpt>
      <trkpt lat="47.29173" lon="-2.37383">
        <ele>-90.199996948242</ele>
        <time>2021-08-26T09:57:44.000Z</time>
      </trkpt>
      <trkpt lat="47.29165" lon="-2.3737">
        <ele>-90.199996948242</ele>
        <time>2021-08-26T09:57:46.000Z</time>
      </trkpt>
      <trkpt lat="47.29148" lon="-2.37331">
        <ele>-90.199996948242</ele>
        <time>2021-08-26T09:57:51.000Z</time>
      </trkpt>
      <trkpt lat="47.2914" lon="-2.37317">
        <ele>-90.199996948242</ele>
        <time>2021-08-26T09:57:53.000Z</time>
      </trkpt>
      <trkpt lat="47.2913" lon="-2.37305">
        <ele>-90.199996948242</ele>
        <time>2021-08-26T09:57:55.000Z</time>
      </trkpt>
      <trkpt lat="47.29093" lon="-2.37265">
        <ele>-90.199996948242</ele>
        <time>2021-08-26T09:58:02.000Z</time>
      </trkpt>
      <trkpt lat="47.29045" lon="-2.37217">
        <ele>-90.199996948242</ele>
        <time>2021-08-26T09:58:10.000Z</time>
      </trkpt>
      <trkpt lat="47.29009" lon="-2.37179">
        <ele>-91</ele>
        <time>2021-08-26T09:58:16.000Z</time>
      </trkpt>
      <trkpt lat="47.29004" lon="-2.37175">
        <ele>-91.599998474121</ele>
        <time>2021-08-26T09:58:17.000Z</time>
      </trkpt>
      <trkpt lat="47.29" lon="-2.37172">
        <ele>-92</ele>
        <time>2021-08-26T09:58:18.000Z</time>
      </trkpt>
      <trkpt lat="47.28997" lon="-2.37171">
        <ele>-92.599998474121</ele>
        <time>2021-08-26T09:58:19.000Z</time>
      </trkpt>
      <trkpt lat="47.28993" lon="-2.37172">
        <ele>-93.199996948242</ele>
        <time>2021-08-26T09:58:20.000Z</time>
      </trkpt>
      <trkpt lat="47.28989" lon="-2.37175">
        <ele>-93.800003051758</ele>
        <time>2021-08-26T09:58:21.000Z</time>
      </trkpt>
      <trkpt lat="47.28985" lon="-2.37179">
        <ele>-94.400001525879</ele>
        <time>2021-08-26T09:58:22.000Z</time>
      </trkpt>
      <trkpt lat="47.28981" lon="-2.37182">
        <ele>-95</ele>
        <time>2021-08-26T09:58:23.000Z</time>
      </trkpt>
      <trkpt lat="47.28973" lon="-2.37188">
        <ele>-95.599998474121</ele>
        <time>2021-08-26T09:58:25.000Z</time>
      </trkpt>
      <trkpt lat="47.28968" lon="-2.37192">
        <ele>-96</ele>
        <time>2021-08-26T09:58:26.000Z</time>
      </trkpt>
      <trkpt lat="47.28964" lon="-2.37195">
        <ele>-96.599998474121</ele>
        <time>2021-08-26T09:58:27.000Z</time>
      </trkpt>
      <trkpt lat="47.28958" lon="-2.37199">
        <ele>-97</ele>
        <time>2021-08-26T09:58:28.000Z</time>
      </trkpt>
      <trkpt lat="47.28952" lon="-2.37202">
        <ele>-97.599998474121</ele>
        <time>2021-08-26T09:58:29.000Z</time>
      </trkpt>
      <trkpt lat="47.28931" lon="-2.37211">
        <ele>-97.599998474121</ele>
        <time>2021-08-26T09:58:32.000Z</time>
      </trkpt>
      <trkpt lat="47.289" lon="-2.37223">
        <ele>-98.199996948242</ele>
        <time>2021-08-26T09:58:36.000Z</time>
      </trkpt>
      <trkpt lat="47.28893" lon="-2.37227">
        <ele>-98.599998474121</ele>
        <time>2021-08-26T09:58:37.000Z</time>
      </trkpt>
      <trkpt lat="47.28884" lon="-2.37231">
        <ele>-99.199996948242</ele>
        <time>2021-08-26T09:58:38.000Z</time>
      </trkpt>
      <trkpt lat="47.28877" lon="-2.37235">
        <ele>-99.800003051758</ele>
        <time>2021-08-26T09:58:39.000Z</time>
      </trkpt>
      <trkpt lat="47.28869" lon="-2.37238">
        <ele>-100.19999694824</ele>
        <time>2021-08-26T09:58:40.000Z</time>
      </trkpt>
      <trkpt lat="47.28858" lon="-2.37243">
        <ele>-100.19999694824</ele>
        <time>2021-08-26T09:58:42.000Z</time>
      </trkpt>
      <trkpt lat="47.28855" lon="-2.37245">
        <ele>-100.80000305176</ele>
        <time>2021-08-26T09:58:43.000Z</time>
      </trkpt>
      <trkpt lat="47.28851" lon="-2.37245">
        <ele>-101.19999694824</ele>
        <time>2021-08-26T09:58:44.000Z</time>
      </trkpt>
      <trkpt lat="47.28848" lon="-2.37244">
        <ele>-101.80000305176</ele>
        <time>2021-08-26T09:58:45.000Z</time>
      </trkpt>
      <trkpt lat="47.28845" lon="-2.3724">
        <ele>-102.19999694824</ele>
        <time>2021-08-26T09:58:47.000Z</time>
      </trkpt>
      <trkpt lat="47.28843" lon="-2.37235">
        <ele>-102.59999847412</ele>
        <time>2021-08-26T09:58:48.000Z</time>
      </trkpt>
      <trkpt lat="47.28842" lon="-2.37231">
        <ele>-102.59999847412</ele>
        <time>2021-08-26T09:58:49.000Z</time>
      </trkpt>
      <trkpt lat="47.2884" lon="-2.37221">
        <ele>-102.59999847412</ele>
        <time>2021-08-26T09:58:51.000Z</time>
      </trkpt>
      <trkpt lat="47.28835" lon="-2.37195">
        <ele>-102.59999847412</ele>
        <time>2021-08-26T09:58:56.000Z</time>
      </trkpt>
      <trkpt lat="47.28834" lon="-2.37189">
        <ele>-102.59999847412</ele>
        <time>2021-08-26T09:58:57.000Z</time>
      </trkpt>
      <trkpt lat="47.28829" lon="-2.37167">
        <ele>-102.59999847412</ele>
        <time>2021-08-26T09:59:01.000Z</time>
      </trkpt>
      <trkpt lat="47.28825" lon="-2.37136">
        <ele>-102.59999847412</ele>
        <time>2021-08-26T09:59:07.000Z</time>
      </trkpt>
      <trkpt lat="47.28824" lon="-2.37114">
        <ele>-102.59999847412</ele>
        <time>2021-08-26T09:59:12.000Z</time>
      </trkpt>
      <trkpt lat="47.28821" lon="-2.37116">
        <ele>-102.59999847412</ele>
        <time>2021-08-26T09:59:16.000Z</time>
      </trkpt>
      <trkpt lat="47.2882" lon="-2.37118">
        <ele>-102.19999694824</ele>
        <time>2021-08-26T09:59:17.000Z</time>
      </trkpt>
      <trkpt lat="47.28819" lon="-2.3712">
        <ele>-101.80000305176</ele>
        <time>2021-08-26T09:59:18.000Z</time>
      </trkpt>
      <trkpt lat="47.28817" lon="-2.37121">
        <ele>-101.40000152588</ele>
        <time>2021-08-26T09:59:19.000Z</time>
      </trkpt>
      <trkpt lat="47.28816" lon="-2.37122">
        <ele>-101</ele>
        <time>2021-08-26T09:59:20.000Z</time>
      </trkpt>
      <trkpt lat="47.28813" lon="-2.37123">
        <ele>-100.59999847412</ele>
        <time>2021-08-26T09:59:21.000Z</time>
      </trkpt>
      <trkpt lat="47.28811" lon="-2.37123">
        <ele>-100.59999847412</ele>
        <time>2021-08-26T09:59:22.000Z</time>
      </trkpt>
      <trkpt lat="47.28809" lon="-2.37123">
        <ele>-100.19999694824</ele>
        <time>2021-08-26T09:59:23.000Z</time>
      </trkpt>
      <trkpt lat="47.28806" lon="-2.37123">
        <ele>-99.599998474121</ele>
        <time>2021-08-26T09:59:24.000Z</time>
      </trkpt>
      <trkpt lat="47.28805" lon="-2.37124">
        <ele>-99.199996948242</ele>
        <time>2021-08-26T09:59:25.000Z</time>
      </trkpt>
      <trkpt lat="47.28803" lon="-2.37123">
        <ele>-98.800003051758</ele>
        <time>2021-08-26T09:59:26.000Z</time>
      </trkpt>
      <trkpt lat="47.28802" lon="-2.37123">
        <ele>-98.199996948242</ele>
        <time>2021-08-26T09:59:27.000Z</time>
      </trkpt>
      <trkpt lat="47.28798" lon="-2.37119">
        <ele>-98.199996948242</ele>
        <time>2021-08-26T09:59:29.000Z</time>
      </trkpt>
      <trkpt lat="47.28796" lon="-2.37116">
        <ele>-97.800003051758</ele>
        <time>2021-08-26T09:59:30.000Z</time>
      </trkpt>
      <trkpt lat="47.28794" lon="-2.37112">
        <ele>-97.400001525879</ele>
        <time>2021-08-26T09:59:31.000Z</time>
      </trkpt>
      <trkpt lat="47.28794" lon="-2.37108">
        <ele>-97</ele>
        <time>2021-08-26T09:59:32.000Z</time>
      </trkpt>
      <trkpt lat="47.28793" lon="-2.37103">
        <ele>-96.599998474121</ele>
        <time>2021-08-26T09:59:33.000Z</time>
      </trkpt>
      <trkpt lat="47.28792" lon="-2.37099">
        <ele>-96</ele>
        <time>2021-08-26T09:59:34.000Z</time>
      </trkpt>
      <trkpt lat="47.28791" lon="-2.37084">
        <ele>-95.599998474121</ele>
        <time>2021-08-26T09:59:38.000Z</time>
      </trkpt>
      <trkpt lat="47.2879" lon="-2.37081">
        <ele>-95.199996948242</ele>
        <time>2021-08-26T09:59:39.000Z</time>
      </trkpt>
      <trkpt lat="47.2879" lon="-2.37079">
        <ele>-94.800003051758</ele>
        <time>2021-08-26T09:59:40.000Z</time>
      </trkpt>
      <trkpt lat="47.2879" lon="-2.37076">
        <ele>-94.400001525879</ele>
        <time>2021-08-26T09:59:41.000Z</time>
      </trkpt>
      <trkpt lat="47.28789" lon="-2.37073">
        <ele>-94</ele>
        <time>2021-08-26T09:59:42.000Z</time>
      </trkpt>
      <trkpt lat="47.28785" lon="-2.37053">
        <ele>-94</ele>
        <time>2021-08-26T09:59:47.000Z</time>
      </trkpt>
      <trkpt lat="47.28785" lon="-2.37049">
        <ele>-93.599998474121</ele>
        <time>2021-08-26T09:59:48.000Z</time>
      </trkpt>
      <trkpt lat="47.28783" lon="-2.37045">
        <ele>-93.199996948242</ele>
        <time>2021-08-26T09:59:49.000Z</time>
      </trkpt>
      <trkpt lat="47.28782" lon="-2.37042">
        <ele>-92.599998474121</ele>
        <time>2021-08-26T09:59:50.000Z</time>
      </trkpt>
      <trkpt lat="47.28781" lon="-2.37038">
        <ele>-92.199996948242</ele>
        <time>2021-08-26T09:59:51.000Z</time>
      </trkpt>
      <trkpt lat="47.2878" lon="-2.37034">
        <ele>-91.800003051758</ele>
        <time>2021-08-26T09:59:52.000Z</time>
      </trkpt>
      <trkpt lat="47.28777" lon="-2.37022">
        <ele>-91.800003051758</ele>
        <time>2021-08-26T09:59:55.000Z</time>
      </trkpt>
      <trkpt lat="47.2877" lon="-2.37007">
        <ele>-91.800003051758</ele>
        <time>2021-08-26T10:00:00.000Z</time>
      </trkpt>
      <trkpt lat="47.28765" lon="-2.37002">
        <ele>-91.400001525879</ele>
        <time>2021-08-26T10:00:02.000Z</time>
      </trkpt>
      <trkpt lat="47.28763" lon="-2.36999">
        <ele>-91</ele>
        <time>2021-08-26T10:00:03.000Z</time>
      </trkpt>
      <trkpt lat="47.28761" lon="-2.36995">
        <ele>-90.599998474121</ele>
        <time>2021-08-26T10:00:04.000Z</time>
      </trkpt>
      <trkpt lat="47.28758" lon="-2.36991">
        <ele>-90.199996948242</ele>
        <time>2021-08-26T10:00:05.000Z</time>
      </trkpt>
      <trkpt lat="47.28757" lon="-2.36986">
        <ele>-89.800003051758</ele>
        <time>2021-08-26T10:00:06.000Z</time>
      </trkpt>
      <trkpt lat="47.28756" lon="-2.3698">
        <ele>-89.800003051758</ele>
        <time>2021-08-26T10:00:07.000Z</time>
      </trkpt>
      <trkpt lat="47.28755" lon="-2.3696">
        <ele>-89.800003051758</ele>
        <time>2021-08-26T10:00:10.000Z</time>
      </trkpt>
      <trkpt lat="47.28754" lon="-2.36952">
        <ele>-90.199996948242</ele>
        <time>2021-08-26T10:00:11.000Z</time>
      </trkpt>
      <trkpt lat="47.28751" lon="-2.36944">
        <ele>-90.599998474121</ele>
        <time>2021-08-26T10:00:12.000Z</time>
      </trkpt>
      <trkpt lat="47.28747" lon="-2.36937">
        <ele>-91</ele>
        <time>2021-08-26T10:00:13.000Z</time>
      </trkpt>
      <trkpt lat="47.28743" lon="-2.3693">
        <ele>-91.400001525879</ele>
        <time>2021-08-26T10:00:14.000Z</time>
      </trkpt>
      <trkpt lat="47.28739" lon="-2.36924">
        <ele>-92</ele>
        <time>2021-08-26T10:00:15.000Z</time>
      </trkpt>
      <trkpt lat="47.28734" lon="-2.36917">
        <ele>-92.599998474121</ele>
        <time>2021-08-26T10:00:16.000Z</time>
      </trkpt>
      <trkpt lat="47.2873" lon="-2.36914">
        <ele>-93.199996948242</ele>
        <time>2021-08-26T10:00:17.000Z</time>
      </trkpt>
      <trkpt lat="47.28727" lon="-2.36911">
        <ele>-93.800003051758</ele>
        <time>2021-08-26T10:00:18.000Z</time>
      </trkpt>
      <trkpt lat="47.2872" lon="-2.36902">
        <ele>-93.800003051758</ele>
        <time>2021-08-26T10:00:22.000Z</time>
      </trkpt>
      <trkpt lat="47.2871" lon="-2.36886">
        <ele>-93.800003051758</ele>
        <time>2021-08-26T10:00:28.000Z</time>
      </trkpt>
      <trkpt lat="47.28699" lon="-2.36863">
        <ele>-93.800003051758</ele>
        <time>2021-08-26T10:00:35.000Z</time>
      </trkpt>
      <trkpt lat="47.28692" lon="-2.36847">
        <ele>-93.400001525879</ele>
        <time>2021-08-26T10:00:39.000Z</time>
      </trkpt>
      <trkpt lat="47.28689" lon="-2.36843">
        <ele>-93</ele>
        <time>2021-08-26T10:00:40.000Z</time>
      </trkpt>
      <trkpt lat="47.28686" lon="-2.3684">
        <ele>-92.400001525879</ele>
        <time>2021-08-26T10:00:41.000Z</time>
      </trkpt>
      <trkpt lat="47.28684" lon="-2.36836">
        <ele>-92</ele>
        <time>2021-08-26T10:00:42.000Z</time>
      </trkpt>
      <trkpt lat="47.28683" lon="-2.36833">
        <ele>-91.599998474121</ele>
        <time>2021-08-26T10:00:43.000Z</time>
      </trkpt>
      <trkpt lat="47.28677" lon="-2.36821">
        <ele>-91.599998474121</ele>
        <time>2021-08-26T10:00:47.000Z</time>
      </trkpt>
      <trkpt lat="47.2867" lon="-2.36807">
        <ele>-91.599998474121</ele>
        <time>2021-08-26T10:00:54.000Z</time>
      </trkpt>
      <trkpt lat="47.28668" lon="-2.36805">
        <ele>-91.599998474121</ele>
        <time>2021-08-26T10:00:55.000Z</time>
      </trkpt>
      <trkpt lat="47.28659" lon="-2.36804">
        <ele>-91.599998474121</ele>
        <time>2021-08-26T10:00:58.000Z</time>
      </trkpt>
      <trkpt lat="47.28655" lon="-2.36806">
        <ele>-91.599998474121</ele>
        <time>2021-08-26T10:00:59.000Z</time>
      </trkpt>
      <trkpt lat="47.28641" lon="-2.3682">
        <ele>-91.599998474121</ele>
        <time>2021-08-26T10:01:03.000Z</time>
      </trkpt>
      <trkpt lat="47.28615" lon="-2.36844">
        <ele>-91.599998474121</ele>
        <time>2021-08-26T10:01:09.000Z</time>
      </trkpt>
      <trkpt lat="47.28598" lon="-2.36843">
        <ele>-91.599998474121</ele>
        <time>2021-08-26T10:01:12.000Z</time>
      </trkpt>
      <trkpt lat="47.28586" lon="-2.36826">
        <ele>-91.599998474121</ele>
        <time>2021-08-26T10:01:15.000Z</time>
      </trkpt>
      <trkpt lat="47.28584" lon="-2.36821">
        <ele>-91.599998474121</ele>
        <time>2021-08-26T10:01:16.000Z</time>
      </trkpt>
      <trkpt lat="47.28571" lon="-2.368">
        <ele>-91.599998474121</ele>
        <time>2021-08-26T10:01:21.000Z</time>
      </trkpt>
      <trkpt lat="47.28557" lon="-2.36772">
        <ele>-91.599998474121</ele>
        <time>2021-08-26T10:01:28.000Z</time>
      </trkpt>
      <trkpt lat="47.28541" lon="-2.36743">
        <ele>-91.599998474121</ele>
        <time>2021-08-26T10:01:35.000Z</time>
      </trkpt>
      <trkpt lat="47.28529" lon="-2.36723">
        <ele>-91.199996948242</ele>
        <time>2021-08-26T10:01:41.000Z</time>
      </trkpt>
      <trkpt lat="47.28527" lon="-2.36719">
        <ele>-90.800003051758</ele>
        <time>2021-08-26T10:01:42.000Z</time>
      </trkpt>
      <trkpt lat="47.28525" lon="-2.36716">
        <ele>-90.400001525879</ele>
        <time>2021-08-26T10:01:43.000Z</time>
      </trkpt>
      <trkpt lat="47.28524" lon="-2.36713">
        <ele>-90</ele>
        <time>2021-08-26T10:01:44.000Z</time>
      </trkpt>
      <trkpt lat="47.28522" lon="-2.3671">
        <ele>-89.599998474121</ele>
        <time>2021-08-26T10:01:45.000Z</time>
      </trkpt>
      <trkpt lat="47.2852" lon="-2.36704">
        <ele>-89.599998474121</ele>
        <time>2021-08-26T10:01:47.000Z</time>
      </trkpt>
      <trkpt lat="47.28512" lon="-2.36692">
        <ele>-89.199996948242</ele>
        <time>2021-08-26T10:01:52.000Z</time>
      </trkpt>
      <trkpt lat="47.28511" lon="-2.3669">
        <ele>-88.800003051758</ele>
        <time>2021-08-26T10:01:53.000Z</time>
      </trkpt>
      <trkpt lat="47.2851" lon="-2.36689">
        <ele>-88.400001525879</ele>
        <time>2021-08-26T10:01:54.000Z</time>
      </trkpt>
      <trkpt lat="47.28509" lon="-2.36687">
        <ele>-88</ele>
        <time>2021-08-26T10:01:55.000Z</time>
      </trkpt>
      <trkpt lat="47.28507" lon="-2.36686">
        <ele>-87.599998474121</ele>
        <time>2021-08-26T10:01:56.000Z</time>
      </trkpt>
      <trkpt lat="47.28499" lon="-2.36676">
        <ele>-87.599998474121</ele>
        <time>2021-08-26T10:02:01.000Z</time>
      </trkpt>
      <trkpt lat="47.2849" lon="-2.36652">
        <ele>-87.599998474121</ele>
        <time>2021-08-26T10:02:06.000Z</time>
      </trkpt>
      <trkpt lat="47.28485" lon="-2.36636">
        <ele>-87.599998474121</ele>
        <time>2021-08-26T10:02:09.000Z</time>
      </trkpt>
      <trkpt lat="47.2848" lon="-2.36618">
        <ele>-87.599998474121</ele>
        <time>2021-08-26T10:02:12.000Z</time>
      </trkpt>
      <trkpt lat="47.28469" lon="-2.36576">
        <ele>-87.599998474121</ele>
        <time>2021-08-26T10:02:19.000Z</time>
      </trkpt>
      <trkpt lat="47.28471" lon="-2.36563">
        <ele>-87.599998474121</ele>
        <time>2021-08-26T10:02:21.000Z</time>
      </trkpt>
      <trkpt lat="47.28473" lon="-2.36558">
        <ele>-87.599998474121</ele>
        <time>2021-08-26T10:02:22.000Z</time>
      </trkpt>
      <trkpt lat="47.28483" lon="-2.36543">
        <ele>-87.599998474121</ele>
        <time>2021-08-26T10:02:25.000Z</time>
      </trkpt>
      <trkpt lat="47.2849" lon="-2.36535">
        <ele>-87.199996948242</ele>
        <time>2021-08-26T10:02:27.000Z</time>
      </trkpt>
      <trkpt lat="47.28493" lon="-2.36532">
        <ele>-86.800003051758</ele>
        <time>2021-08-26T10:02:28.000Z</time>
      </trkpt>
      <trkpt lat="47.28497" lon="-2.36528">
        <ele>-86.400001525879</ele>
        <time>2021-08-26T10:02:29.000Z</time>
      </trkpt>
      <trkpt lat="47.285" lon="-2.36525">
        <ele>-86</ele>
        <time>2021-08-26T10:02:30.000Z</time>
      </trkpt>
      <trkpt lat="47.28503" lon="-2.36521">
        <ele>-85.599998474121</ele>
        <time>2021-08-26T10:02:31.000Z</time>
      </trkpt>
      <trkpt lat="47.28509" lon="-2.36516">
        <ele>-85.599998474121</ele>
        <time>2021-08-26T10:02:33.000Z</time>
      </trkpt>
      <trkpt lat="47.28519" lon="-2.36503">
        <ele>-85.199996948242</ele>
        <time>2021-08-26T10:02:37.000Z</time>
      </trkpt>
      <trkpt lat="47.28521" lon="-2.36499">
        <ele>-84.800003051758</ele>
        <time>2021-08-26T10:02:38.000Z</time>
      </trkpt>
      <trkpt lat="47.2852" lon="-2.36495">
        <ele>-84.400001525879</ele>
        <time>2021-08-26T10:02:39.000Z</time>
      </trkpt>
      <trkpt lat="47.28519" lon="-2.36491">
        <ele>-84</ele>
        <time>2021-08-26T10:02:40.000Z</time>
      </trkpt>
      <trkpt lat="47.28519" lon="-2.36487">
        <ele>-83.599998474121</ele>
        <time>2021-08-26T10:02:41.000Z</time>
      </trkpt>
      <trkpt lat="47.28518" lon="-2.36479">
        <ele>-83.599998474121</ele>
        <time>2021-08-26T10:02:43.000Z</time>
      </trkpt>
      <trkpt lat="47.28513" lon="-2.36457">
        <ele>-83.599998474121</ele>
        <time>2021-08-26T10:02:48.000Z</time>
      </trkpt>
      <trkpt lat="47.2851" lon="-2.36452">
        <ele>-83.599998474121</ele>
        <time>2021-08-26T10:02:49.000Z</time>
      </trkpt>
      <trkpt lat="47.28502" lon="-2.36442">
        <ele>-83.599998474121</ele>
        <time>2021-08-26T10:02:52.000Z</time>
      </trkpt>
      <trkpt lat="47.28482" lon="-2.36429">
        <ele>-83.599998474121</ele>
        <time>2021-08-26T10:02:58.000Z</time>
      </trkpt>
      <trkpt lat="47.28479" lon="-2.36426">
        <ele>-83.199996948242</ele>
        <time>2021-08-26T10:02:59.000Z</time>
      </trkpt>
      <trkpt lat="47.28476" lon="-2.36423">
        <ele>-82.800003051758</ele>
        <time>2021-08-26T10:03:00.000Z</time>
      </trkpt>
      <trkpt lat="47.28474" lon="-2.3642">
        <ele>-82.400001525879</ele>
        <time>2021-08-26T10:03:01.000Z</time>
      </trkpt>
      <trkpt lat="47.28472" lon="-2.36416">
        <ele>-81.800003051758</ele>
        <time>2021-08-26T10:03:02.000Z</time>
      </trkpt>
      <trkpt lat="47.2847" lon="-2.36411">
        <ele>-81.400001525879</ele>
        <time>2021-08-26T10:03:03.000Z</time>
      </trkpt>
      <trkpt lat="47.28467" lon="-2.36407">
        <ele>-81.400001525879</ele>
        <time>2021-08-26T10:03:04.000Z</time>
      </trkpt>
      <trkpt lat="47.28463" lon="-2.36402">
        <ele>-81.400001525879</ele>
        <time>2021-08-26T10:03:05.000Z</time>
      </trkpt>
      <trkpt lat="47.28451" lon="-2.36387">
        <ele>-81.400001525879</ele>
        <time>2021-08-26T10:03:08.000Z</time>
      </trkpt>
      <trkpt lat="47.28445" lon="-2.36383">
        <ele>-81.400001525879</ele>
        <time>2021-08-26T10:03:09.000Z</time>
      </trkpt>
      <trkpt lat="47.28428" lon="-2.3637">
        <ele>-81.400001525879</ele>
        <time>2021-08-26T10:03:13.000Z</time>
      </trkpt>
      <trkpt lat="47.28417" lon="-2.36358">
        <ele>-81.800003051758</ele>
        <time>2021-08-26T10:03:16.000Z</time>
      </trkpt>
      <trkpt lat="47.28414" lon="-2.36354">
        <ele>-82.400001525879</ele>
        <time>2021-08-26T10:03:17.000Z</time>
      </trkpt>
      <trkpt lat="47.2841" lon="-2.3635">
        <ele>-82.800003051758</ele>
        <time>2021-08-26T10:03:18.000Z</time>
      </trkpt>
      <trkpt lat="47.28406" lon="-2.36347">
        <ele>-83.199996948242</ele>
        <time>2021-08-26T10:03:19.000Z</time>
      </trkpt>
      <trkpt lat="47.28402" lon="-2.36344">
        <ele>-83.599998474121</ele>
        <time>2021-08-26T10:03:20.000Z</time>
      </trkpt>
      <trkpt lat="47.28381" lon="-2.36325">
        <ele>-83.599998474121</ele>
        <time>2021-08-26T10:03:25.000Z</time>
      </trkpt>
      <trkpt lat="47.28377" lon="-2.36321">
        <ele>-83.599998474121</ele>
        <time>2021-08-26T10:03:26.000Z</time>
      </trkpt>
      <trkpt lat="47.28371" lon="-2.36316">
        <ele>-84</ele>
        <time>2021-08-26T10:03:28.000Z</time>
      </trkpt>
      <trkpt lat="47.28368" lon="-2.36312">
        <ele>-84.400001525879</ele>
        <time>2021-08-26T10:03:29.000Z</time>
      </trkpt>
      <trkpt lat="47.28365" lon="-2.36307">
        <ele>-84.800003051758</ele>
        <time>2021-08-26T10:03:30.000Z</time>
      </trkpt>
      <trkpt lat="47.28364" lon="-2.36304">
        <ele>-85.199996948242</ele>
        <time>2021-08-26T10:03:31.000Z</time>
      </trkpt>
      <trkpt lat="47.28363" lon="-2.36299">
        <ele>-85.599998474121</ele>
        <time>2021-08-26T10:03:32.000Z</time>
      </trkpt>
      <trkpt lat="47.28362" lon="-2.36294">
        <ele>-85.599998474121</ele>
        <time>2021-08-26T10:03:33.000Z</time>
      </trkpt>
      <trkpt lat="47.2836" lon="-2.36278">
        <ele>-85.599998474121</ele>
        <time>2021-08-26T10:03:36.000Z</time>
      </trkpt>
      <trkpt lat="47.28354" lon="-2.36269">
        <ele>-85.599998474121</ele>
        <time>2021-08-26T10:03:38.000Z</time>
      </trkpt>
      <trkpt lat="47.28337" lon="-2.36259">
        <ele>-85.599998474121</ele>
        <time>2021-08-26T10:03:42.000Z</time>
      </trkpt>
      <trkpt lat="47.28332" lon="-2.36257">
        <ele>-86</ele>
        <time>2021-08-26T10:03:43.000Z</time>
      </trkpt>
      <trkpt lat="47.28328" lon="-2.36256">
        <ele>-86.400001525879</ele>
        <time>2021-08-26T10:03:44.000Z</time>
      </trkpt>
      <trkpt lat="47.28323" lon="-2.36254">
        <ele>-86.800003051758</ele>
        <time>2021-08-26T10:03:45.000Z</time>
      </trkpt>
      <trkpt lat="47.28319" lon="-2.36253">
        <ele>-87.199996948242</ele>
        <time>2021-08-26T10:03:46.000Z</time>
      </trkpt>
      <trkpt lat="47.28315" lon="-2.36251">
        <ele>-87.599998474121</ele>
        <time>2021-08-26T10:03:47.000Z</time>
      </trkpt>
      <trkpt lat="47.2831" lon="-2.36249">
        <ele>-87.599998474121</ele>
        <time>2021-08-26T10:03:48.000Z</time>
      </trkpt>
      <trkpt lat="47.28288" lon="-2.36245">
        <ele>-87.599998474121</ele>
        <time>2021-08-26T10:03:52.000Z</time>
      </trkpt>
      <trkpt lat="47.28283" lon="-2.36242">
        <ele>-87.599998474121</ele>
        <time>2021-08-26T10:03:53.000Z</time>
      </trkpt>
      <trkpt lat="47.28272" lon="-2.36229">
        <ele>-87.599998474121</ele>
        <time>2021-08-26T10:03:56.000Z</time>
      </trkpt>
      <trkpt lat="47.28269" lon="-2.36223">
        <ele>-87.599998474121</ele>
        <time>2021-08-26T10:03:57.000Z</time>
      </trkpt>
      <trkpt lat="47.28263" lon="-2.36211">
        <ele>-88</ele>
        <time>2021-08-26T10:03:59.000Z</time>
      </trkpt>
      <trkpt lat="47.28261" lon="-2.36204">
        <ele>-88.599998474121</ele>
        <time>2021-08-26T10:04:00.000Z</time>
      </trkpt>
      <trkpt lat="47.28258" lon="-2.36198">
        <ele>-89</ele>
        <time>2021-08-26T10:04:01.000Z</time>
      </trkpt>
      <trkpt lat="47.28256" lon="-2.36191">
        <ele>-89.400001525879</ele>
        <time>2021-08-26T10:04:02.000Z</time>
      </trkpt>
      <trkpt lat="47.28253" lon="-2.36184">
        <ele>-89.800003051758</ele>
        <time>2021-08-26T10:04:03.000Z</time>
      </trkpt>
      <trkpt lat="47.28251" lon="-2.36177">
        <ele>-89.800003051758</ele>
        <time>2021-08-26T10:04:04.000Z</time>
      </trkpt>
      <trkpt lat="47.28246" lon="-2.36165">
        <ele>-89.800003051758</ele>
        <time>2021-08-26T10:04:06.000Z</time>
      </trkpt>
      <trkpt lat="47.28237" lon="-2.36143">
        <ele>-89.800003051758</ele>
        <time>2021-08-26T10:04:10.000Z</time>
      </trkpt>
      <trkpt lat="47.28225" lon="-2.36117">
        <ele>-89.800003051758</ele>
        <time>2021-08-26T10:04:15.000Z</time>
      </trkpt>
      <trkpt lat="47.28223" lon="-2.36111">
        <ele>-89.800003051758</ele>
        <time>2021-08-26T10:04:16.000Z</time>
      </trkpt>
      <trkpt lat="47.28216" lon="-2.36083">
        <ele>-89.800003051758</ele>
        <time>2021-08-26T10:04:20.000Z</time>
      </trkpt>
      <trkpt lat="47.28211" lon="-2.36067">
        <ele>-89.800003051758</ele>
        <time>2021-08-26T10:04:22.000Z</time>
      </trkpt>
      <trkpt lat="47.28198" lon="-2.36034">
        <ele>-89.800003051758</ele>
        <time>2021-08-26T10:04:27.000Z</time>
      </trkpt>
      <trkpt lat="47.28196" lon="-2.36028">
        <ele>-89.800003051758</ele>
        <time>2021-08-26T10:04:28.000Z</time>
      </trkpt>
      <trkpt lat="47.28179" lon="-2.35987">
        <ele>-89.800003051758</ele>
        <time>2021-08-26T10:04:35.000Z</time>
      </trkpt>
      <trkpt lat="47.28168" lon="-2.35961">
        <ele>-89.800003051758</ele>
        <time>2021-08-26T10:04:41.000Z</time>
      </trkpt>
      <trkpt lat="47.28158" lon="-2.35944">
        <ele>-89.800003051758</ele>
        <time>2021-08-26T10:04:46.000Z</time>
      </trkpt>
      <trkpt lat="47.28149" lon="-2.3593">
        <ele>-89.400001525879</ele>
        <time>2021-08-26T10:04:52.000Z</time>
      </trkpt>
      <trkpt lat="47.28148" lon="-2.35928">
        <ele>-88.400001525879</ele>
        <time>2021-08-26T10:04:53.000Z</time>
      </trkpt>
      <trkpt lat="47.28146" lon="-2.35926">
        <ele>-88</ele>
        <time>2021-08-26T10:04:54.000Z</time>
      </trkpt>
      <trkpt lat="47.28145" lon="-2.35924">
        <ele>-87.599998474121</ele>
        <time>2021-08-26T10:04:55.000Z</time>
      </trkpt>
      <trkpt lat="47.28139" lon="-2.35916">
        <ele>-87.599998474121</ele>
        <time>2021-08-26T10:05:00.000Z</time>
      </trkpt>
      <trkpt lat="47.28127" lon="-2.359">
        <ele>-87.599998474121</ele>
        <time>2021-08-26T10:05:06.000Z</time>
      </trkpt>
      <trkpt lat="47.28111" lon="-2.35877">
        <ele>-87.599998474121</ele>
        <time>2021-08-26T10:05:11.000Z</time>
      </trkpt>
      <trkpt lat="47.28092" lon="-2.35844">
        <ele>-87.599998474121</ele>
        <time>2021-08-26T10:05:18.000Z</time>
      </trkpt>
      <trkpt lat="47.28078" lon="-2.3581">
        <ele>-87.599998474121</ele>
        <time>2021-08-26T10:05:24.000Z</time>
      </trkpt>
      <trkpt lat="47.28077" lon="-2.35792">
        <ele>-87.599998474121</ele>
        <time>2021-08-26T10:05:28.000Z</time>
      </trkpt>
      <trkpt lat="47.2808" lon="-2.35781">
        <ele>-87.199996948242</ele>
        <time>2021-08-26T10:05:31.000Z</time>
      </trkpt>
      <trkpt lat="47.28081" lon="-2.35778">
        <ele>-86.800003051758</ele>
        <time>2021-08-26T10:05:32.000Z</time>
      </trkpt>
      <trkpt lat="47.28081" lon="-2.35774">
        <ele>-86.400001525879</ele>
        <time>2021-08-26T10:05:33.000Z</time>
      </trkpt>
      <trkpt lat="47.28082" lon="-2.3577">
        <ele>-86</ele>
        <time>2021-08-26T10:05:34.000Z</time>
      </trkpt>
      <trkpt lat="47.28082" lon="-2.35766">
        <ele>-85.599998474121</ele>
        <time>2021-08-26T10:05:35.000Z</time>
      </trkpt>
      <trkpt lat="47.28083" lon="-2.35747">
        <ele>-85.599998474121</ele>
        <time>2021-08-26T10:05:40.000Z</time>
      </trkpt>
      <trkpt lat="47.28087" lon="-2.35732">
        <ele>-85</ele>
        <time>2021-08-26T10:05:46.000Z</time>
      </trkpt>
      <trkpt lat="47.28088" lon="-2.3573">
        <ele>-84.599998474121</ele>
        <time>2021-08-26T10:05:47.000Z</time>
      </trkpt>
      <trkpt lat="47.28088" lon="-2.35727">
        <ele>-84.199996948242</ele>
        <time>2021-08-26T10:05:48.000Z</time>
      </trkpt>
      <trkpt lat="47.28088" lon="-2.35723">
        <ele>-83.800003051758</ele>
        <time>2021-08-26T10:05:49.000Z</time>
      </trkpt>
      <trkpt lat="47.28088" lon="-2.35719">
        <ele>-83.400001525879</ele>
        <time>2021-08-26T10:05:50.000Z</time>
      </trkpt>
      <trkpt lat="47.28088" lon="-2.35712">
        <ele>-83.400001525879</ele>
        <time>2021-08-26T10:05:52.000Z</time>
      </trkpt>
      <trkpt lat="47.28087" lon="-2.35693">
        <ele>-83.400001525879</ele>
        <time>2021-08-26T10:05:55.000Z</time>
      </trkpt>
      <trkpt lat="47.28087" lon="-2.35684">
        <ele>-83.400001525879</ele>
        <time>2021-08-26T10:05:56.000Z</time>
      </trkpt>
      <trkpt lat="47.28085" lon="-2.35676">
        <ele>-83.400001525879</ele>
        <time>2021-08-26T10:05:57.000Z</time>
      </trkpt>
      <trkpt lat="47.28078" lon="-2.35644">
        <ele>-83.400001525879</ele>
        <time>2021-08-26T10:06:01.000Z</time>
      </trkpt>
      <trkpt lat="47.28075" lon="-2.35624">
        <ele>-83.800003051758</ele>
        <time>2021-08-26T10:06:03.000Z</time>
      </trkpt>
      <trkpt lat="47.28075" lon="-2.35613">
        <ele>-84.400001525879</ele>
        <time>2021-08-26T10:06:04.000Z</time>
      </trkpt>
      <trkpt lat="47.28075" lon="-2.35605">
        <ele>-84.800003051758</ele>
        <time>2021-08-26T10:06:05.000Z</time>
      </trkpt>
      <trkpt lat="47.28075" lon="-2.35599">
        <ele>-85.400001525879</ele>
        <time>2021-08-26T10:06:06.000Z</time>
      </trkpt>
      <trkpt lat="47.28076" lon="-2.35595">
        <ele>-87</ele>
        <time>2021-08-26T10:06:07.000Z</time>
      </trkpt>
      <trkpt lat="47.28076" lon="-2.35592">
        <ele>-87.599998474121</ele>
        <time>2021-08-26T10:06:08.000Z</time>
      </trkpt>
      <trkpt lat="47.28076" lon="-2.3559">
        <ele>-88.400001525879</ele>
        <time>2021-08-26T10:06:09.000Z</time>
      </trkpt>
      <trkpt lat="47.28075" lon="-2.35588">
        <ele>-88.400001525879</ele>
        <time>2021-08-26T10:06:12.000Z</time>
      </trkpt>
      <trkpt lat="47.28067" lon="-2.35586">
        <ele>-88.400001525879</ele>
        <time>2021-08-26T10:25:51.000Z</time>
      </trkpt>
      <trkpt lat="47.2806" lon="-2.35584">
        <ele>-88.400001525879</ele>
        <time>2021-08-26T10:25:54.000Z</time>
      </trkpt>
      <trkpt lat="47.28041" lon="-2.3558">
        <ele>-88.400001525879</ele>
        <time>2021-08-26T10:26:00.000Z</time>
      </trkpt>
      <trkpt lat="47.28023" lon="-2.35579">
        <ele>-88.400001525879</ele>
        <time>2021-08-26T10:26:05.000Z</time>
      </trkpt>
      <trkpt lat="47.28" lon="-2.35584">
        <ele>-88.400001525879</ele>
        <time>2021-08-26T10:26:12.000Z</time>
      </trkpt>
      <trkpt lat="47.27983" lon="-2.35587">
        <ele>-88.400001525879</ele>
        <time>2021-08-26T10:26:17.000Z</time>
      </trkpt>
      <trkpt lat="47.27969" lon="-2.35584">
        <ele>-88.400001525879</ele>
        <time>2021-08-26T10:26:21.000Z</time>
      </trkpt>
      <trkpt lat="47.27961" lon="-2.35583">
        <ele>-88.400001525879</ele>
        <time>2021-08-26T10:26:23.000Z</time>
      </trkpt>
      <trkpt lat="47.27952" lon="-2.35582">
        <ele>-88.400001525879</ele>
        <time>2021-08-26T10:26:25.000Z</time>
      </trkpt>
      <trkpt lat="47.27947" lon="-2.35582">
        <ele>-88.400001525879</ele>
        <time>2021-08-26T10:26:26.000Z</time>
      </trkpt>
      <trkpt lat="47.27921" lon="-2.35589">
        <ele>-88.400001525879</ele>
        <time>2021-08-26T10:26:31.000Z</time>
      </trkpt>
      <trkpt lat="47.27885" lon="-2.35598">
        <ele>-88.400001525879</ele>
        <time>2021-08-26T10:26:37.000Z</time>
      </trkpt>
      <trkpt lat="47.27871" lon="-2.35601">
        <ele>-88.800003051758</ele>
        <time>2021-08-26T10:26:39.000Z</time>
      </trkpt>
      <trkpt lat="47.27865" lon="-2.35603">
        <ele>-89.199996948242</ele>
        <time>2021-08-26T10:26:40.000Z</time>
      </trkpt>
      <trkpt lat="47.27858" lon="-2.35604">
        <ele>-89.599998474121</ele>
        <time>2021-08-26T10:26:41.000Z</time>
      </trkpt>
      <trkpt lat="47.27851" lon="-2.35606">
        <ele>-90.599998474121</ele>
        <time>2021-08-26T10:26:42.000Z</time>
      </trkpt>
      <trkpt lat="47.27837" lon="-2.3561">
        <ele>-90.599998474121</ele>
        <time>2021-08-26T10:26:44.000Z</time>
      </trkpt>
      <trkpt lat="47.27785" lon="-2.35628">
        <ele>-90.599998474121</ele>
        <time>2021-08-26T10:26:51.000Z</time>
      </trkpt>
      <trkpt lat="47.27778" lon="-2.35632">
        <ele>-91</ele>
        <time>2021-08-26T10:26:52.000Z</time>
      </trkpt>
      <trkpt lat="47.27772" lon="-2.35638">
        <ele>-91.400001525879</ele>
        <time>2021-08-26T10:26:53.000Z</time>
      </trkpt>
      <trkpt lat="47.27765" lon="-2.35645">
        <ele>-91.800003051758</ele>
        <time>2021-08-26T10:26:54.000Z</time>
      </trkpt>
      <trkpt lat="47.27759" lon="-2.35652">
        <ele>-92.199996948242</ele>
        <time>2021-08-26T10:26:55.000Z</time>
      </trkpt>
      <trkpt lat="47.27754" lon="-2.3566">
        <ele>-92.599998474121</ele>
        <time>2021-08-26T10:26:56.000Z</time>
      </trkpt>
      <trkpt lat="47.27748" lon="-2.35668">
        <ele>-92.599998474121</ele>
        <time>2021-08-26T10:26:57.000Z</time>
      </trkpt>
      <trkpt lat="47.27726" lon="-2.35701">
        <ele>-92.599998474121</ele>
        <time>2021-08-26T10:27:01.000Z</time>
      </trkpt>
      <trkpt lat="47.277" lon="-2.35728">
        <ele>-93</ele>
        <time>2021-08-26T10:27:05.000Z</time>
      </trkpt>
      <trkpt lat="47.27693" lon="-2.35733">
        <ele>-93.400001525879</ele>
        <time>2021-08-26T10:27:06.000Z</time>
      </trkpt>
      <trkpt lat="47.27688" lon="-2.35738">
        <ele>-94.199996948242</ele>
        <time>2021-08-26T10:27:07.000Z</time>
      </trkpt>
      <trkpt lat="47.27683" lon="-2.35743">
        <ele>-94.800003051758</ele>
        <time>2021-08-26T10:27:08.000Z</time>
      </trkpt>
      <trkpt lat="47.27678" lon="-2.35747">
        <ele>-94.800003051758</ele>
        <time>2021-08-26T10:27:09.000Z</time>
      </trkpt>
      <trkpt lat="47.27666" lon="-2.35744">
        <ele>-94.800003051758</ele>
        <time>2021-08-26T10:27:11.000Z</time>
      </trkpt>
      <trkpt lat="47.27661" lon="-2.35741">
        <ele>-95.199996948242</ele>
        <time>2021-08-26T10:27:12.000Z</time>
      </trkpt>
      <trkpt lat="47.27656" lon="-2.35736">
        <ele>-95.599998474121</ele>
        <time>2021-08-26T10:27:13.000Z</time>
      </trkpt>
      <trkpt lat="47.2765" lon="-2.35731">
        <ele>-96</ele>
        <time>2021-08-26T10:27:14.000Z</time>
      </trkpt>
      <trkpt lat="47.27645" lon="-2.35728">
        <ele>-96.400001525879</ele>
        <time>2021-08-26T10:27:15.000Z</time>
      </trkpt>
      <trkpt lat="47.27638" lon="-2.35725">
        <ele>-96.800003051758</ele>
        <time>2021-08-26T10:27:16.000Z</time>
      </trkpt>
      <trkpt lat="47.27625" lon="-2.3572">
        <ele>-96.800003051758</ele>
        <time>2021-08-26T10:27:18.000Z</time>
      </trkpt>
      <trkpt lat="47.27576" lon="-2.35707">
        <ele>-96.800003051758</ele>
        <time>2021-08-26T10:27:25.000Z</time>
      </trkpt>
      <trkpt lat="47.27562" lon="-2.35703">
        <ele>-97.199996948242</ele>
        <time>2021-08-26T10:27:27.000Z</time>
      </trkpt>
      <trkpt lat="47.27554" lon="-2.35701">
        <ele>-97.599998474121</ele>
        <time>2021-08-26T10:27:28.000Z</time>
      </trkpt>
      <trkpt lat="47.27547" lon="-2.35699">
        <ele>-98</ele>
        <time>2021-08-26T10:27:29.000Z</time>
      </trkpt>
      <trkpt lat="47.2754" lon="-2.35696">
        <ele>-98.599998474121</ele>
        <time>2021-08-26T10:27:30.000Z</time>
      </trkpt>
      <trkpt lat="47.27532" lon="-2.35693">
        <ele>-99</ele>
        <time>2021-08-26T10:27:31.000Z</time>
      </trkpt>
      <trkpt lat="47.27525" lon="-2.35691">
        <ele>-99</ele>
        <time>2021-08-26T10:27:32.000Z</time>
      </trkpt>
      <trkpt lat="47.27477" lon="-2.3568">
        <ele>-99</ele>
        <time>2021-08-26T10:27:38.000Z</time>
      </trkpt>
      <trkpt lat="47.27447" lon="-2.35673">
        <ele>-99.400001525879</ele>
        <time>2021-08-26T10:27:42.000Z</time>
      </trkpt>
      <trkpt lat="47.27439" lon="-2.35671">
        <ele>-99.800003051758</ele>
        <time>2021-08-26T10:27:43.000Z</time>
      </trkpt>
      <trkpt lat="47.27432" lon="-2.35669">
        <ele>-100.19999694824</ele>
        <time>2021-08-26T10:27:44.000Z</time>
      </trkpt>
      <trkpt lat="47.27426" lon="-2.35668">
        <ele>-100.59999847412</ele>
        <time>2021-08-26T10:27:45.000Z</time>
      </trkpt>
      <trkpt lat="47.2742" lon="-2.35666">
        <ele>-101</ele>
        <time>2021-08-26T10:27:46.000Z</time>
      </trkpt>
      <trkpt lat="47.27411" lon="-2.35665">
        <ele>-101</ele>
        <time>2021-08-26T10:27:48.000Z</time>
      </trkpt>
      <trkpt lat="47.27406" lon="-2.35667">
        <ele>-101</ele>
        <time>2021-08-26T10:27:49.000Z</time>
      </trkpt>
      <trkpt lat="47.27388" lon="-2.35677">
        <ele>-101</ele>
        <time>2021-08-26T10:27:54.000Z</time>
      </trkpt>
      <trkpt lat="47.27364" lon="-2.35693">
        <ele>-101</ele>
        <time>2021-08-26T10:27:59.000Z</time>
      </trkpt>
      <trkpt lat="47.27353" lon="-2.35701">
        <ele>-101.40000152588</ele>
        <time>2021-08-26T10:28:01.000Z</time>
      </trkpt>
      <trkpt lat="47.27348" lon="-2.35705">
        <ele>-101.80000305176</ele>
        <time>2021-08-26T10:28:02.000Z</time>
      </trkpt>
      <trkpt lat="47.27343" lon="-2.35709">
        <ele>-102.19999694824</ele>
        <time>2021-08-26T10:28:03.000Z</time>
      </trkpt>
      <trkpt lat="47.27338" lon="-2.35714">
        <ele>-102.80000305176</ele>
        <time>2021-08-26T10:28:04.000Z</time>
      </trkpt>
      <trkpt lat="47.27333" lon="-2.35719">
        <ele>-103.19999694824</ele>
        <time>2021-08-26T10:28:05.000Z</time>
      </trkpt>
      <trkpt lat="47.27324" lon="-2.35729">
        <ele>-103.19999694824</ele>
        <time>2021-08-26T10:28:07.000Z</time>
      </trkpt>
      <trkpt lat="47.27317" lon="-2.35739">
        <ele>-103.19999694824</ele>
        <time>2021-08-26T10:28:09.000Z</time>
      </trkpt>
      <trkpt lat="47.27309" lon="-2.35738">
        <ele>-103.19999694824</ele>
        <time>2021-08-26T10:28:11.000Z</time>
      </trkpt>
      <trkpt lat="47.27302" lon="-2.35728">
        <ele>-102.80000305176</ele>
        <time>2021-08-26T10:28:13.000Z</time>
      </trkpt>
      <trkpt lat="47.27299" lon="-2.3572">
        <ele>-102.19999694824</ele>
        <time>2021-08-26T10:28:14.000Z</time>
      </trkpt>
      <trkpt lat="47.27296" lon="-2.35713">
        <ele>-101.80000305176</ele>
        <time>2021-08-26T10:28:15.000Z</time>
      </trkpt>
      <trkpt lat="47.27293" lon="-2.35706">
        <ele>-101.40000152588</ele>
        <time>2021-08-26T10:28:16.000Z</time>
      </trkpt>
      <trkpt lat="47.27289" lon="-2.35699">
        <ele>-101</ele>
        <time>2021-08-26T10:28:17.000Z</time>
      </trkpt>
      <trkpt lat="47.27285" lon="-2.35692">
        <ele>-101</ele>
        <time>2021-08-26T10:28:18.000Z</time>
      </trkpt>
      <trkpt lat="47.27282" lon="-2.35685">
        <ele>-101</ele>
        <time>2021-08-26T10:28:19.000Z</time>
      </trkpt>
      <trkpt lat="47.27262" lon="-2.3564">
        <ele>-101</ele>
        <time>2021-08-26T10:28:25.000Z</time>
      </trkpt>
      <trkpt lat="47.27239" lon="-2.35588">
        <ele>-101</ele>
        <time>2021-08-26T10:28:32.000Z</time>
      </trkpt>
      <trkpt lat="47.27214" lon="-2.3553">
        <ele>-100.59999847412</ele>
        <time>2021-08-26T10:28:40.000Z</time>
      </trkpt>
      <trkpt lat="47.27211" lon="-2.35523">
        <ele>-100.19999694824</ele>
        <time>2021-08-26T10:28:41.000Z</time>
      </trkpt>
      <trkpt lat="47.27207" lon="-2.35516">
        <ele>-99.800003051758</ele>
        <time>2021-08-26T10:28:42.000Z</time>
      </trkpt>
      <trkpt lat="47.27204" lon="-2.35509">
        <ele>-99.400001525879</ele>
        <time>2021-08-26T10:28:43.000Z</time>
      </trkpt>
      <trkpt lat="47.27201" lon="-2.35502">
        <ele>-99</ele>
        <time>2021-08-26T10:28:44.000Z</time>
      </trkpt>
      <trkpt lat="47.27179" lon="-2.3546">
        <ele>-99</ele>
        <time>2021-08-26T10:28:50.000Z</time>
      </trkpt>
      <trkpt lat="47.27151" lon="-2.35405">
        <ele>-99</ele>
        <time>2021-08-26T10:28:57.000Z</time>
      </trkpt>
      <trkpt lat="47.27115" lon="-2.35342">
        <ele>-99</ele>
        <time>2021-08-26T10:29:05.000Z</time>
      </trkpt>
      <trkpt lat="47.27111" lon="-2.35334">
        <ele>-99</ele>
        <time>2021-08-26T10:29:06.000Z</time>
      </trkpt>
      <trkpt lat="47.27075" lon="-2.35276">
        <ele>-99</ele>
        <time>2021-08-26T10:29:14.000Z</time>
      </trkpt>
      <trkpt lat="47.27038" lon="-2.35218">
        <ele>-99</ele>
        <time>2021-08-26T10:29:22.000Z</time>
      </trkpt>
      <trkpt lat="47.27033" lon="-2.35211">
        <ele>-99</ele>
        <time>2021-08-26T10:29:23.000Z</time>
      </trkpt>
      <trkpt lat="47.26996" lon="-2.35154">
        <ele>-99</ele>
        <time>2021-08-26T10:29:31.000Z</time>
      </trkpt>
      <trkpt lat="47.26959" lon="-2.35096">
        <ele>-99</ele>
        <time>2021-08-26T10:29:39.000Z</time>
      </trkpt>
      <trkpt lat="47.2695" lon="-2.35083">
        <ele>-99</ele>
        <time>2021-08-26T10:29:41.000Z</time>
      </trkpt>
      <trkpt lat="47.26932" lon="-2.35056">
        <ele>-99.400001525879</ele>
        <time>2021-08-26T10:29:45.000Z</time>
      </trkpt>
      <trkpt lat="47.26927" lon="-2.35049">
        <ele>-99.800003051758</ele>
        <time>2021-08-26T10:29:46.000Z</time>
      </trkpt>
      <trkpt lat="47.26923" lon="-2.35042">
        <ele>-100.19999694824</ele>
        <time>2021-08-26T10:29:47.000Z</time>
      </trkpt>
      <trkpt lat="47.26918" lon="-2.35035">
        <ele>-100.80000305176</ele>
        <time>2021-08-26T10:29:48.000Z</time>
      </trkpt>
      <trkpt lat="47.26914" lon="-2.35028">
        <ele>-101.19999694824</ele>
        <time>2021-08-26T10:29:49.000Z</time>
      </trkpt>
      <trkpt lat="47.26882" lon="-2.34978">
        <ele>-101.19999694824</ele>
        <time>2021-08-26T10:29:56.000Z</time>
      </trkpt>
      <trkpt lat="47.26841" lon="-2.34915">
        <ele>-101.19999694824</ele>
        <time>2021-08-26T10:30:05.000Z</time>
      </trkpt>
      <trkpt lat="47.26802" lon="-2.34861">
        <ele>-101.19999694824</ele>
        <time>2021-08-26T10:30:13.000Z</time>
      </trkpt>
      <trkpt lat="47.26775" lon="-2.34824">
        <ele>-101.19999694824</ele>
        <time>2021-08-26T10:30:19.000Z</time>
      </trkpt>
      <trkpt lat="47.26771" lon="-2.34818">
        <ele>-101.19999694824</ele>
        <time>2021-08-26T10:30:20.000Z</time>
      </trkpt>
      <trkpt lat="47.26766" lon="-2.34813">
        <ele>-101.19999694824</ele>
        <time>2021-08-26T10:30:21.000Z</time>
      </trkpt>
      <trkpt lat="47.26748" lon="-2.3479">
        <ele>-101.19999694824</ele>
        <time>2021-08-26T10:30:25.000Z</time>
      </trkpt>
      <trkpt lat="47.26712" lon="-2.34746">
        <ele>-101.19999694824</ele>
        <time>2021-08-26T10:30:32.000Z</time>
      </trkpt>
      <trkpt lat="47.26671" lon="-2.34694">
        <ele>-101.19999694824</ele>
        <time>2021-08-26T10:30:40.000Z</time>
      </trkpt>
      <trkpt lat="47.26666" lon="-2.34688">
        <ele>-101.19999694824</ele>
        <time>2021-08-26T10:30:41.000Z</time>
      </trkpt>
      <trkpt lat="47.26625" lon="-2.34637">
        <ele>-101.19999694824</ele>
        <time>2021-08-26T10:30:49.000Z</time>
      </trkpt>
      <trkpt lat="47.26584" lon="-2.34587">
        <ele>-101.19999694824</ele>
        <time>2021-08-26T10:30:57.000Z</time>
      </trkpt>
      <trkpt lat="47.26547" lon="-2.34549">
        <ele>-101.19999694824</ele>
        <time>2021-08-26T10:31:04.000Z</time>
      </trkpt>
      <trkpt lat="47.26506" lon="-2.34514">
        <ele>-101.19999694824</ele>
        <time>2021-08-26T10:31:11.000Z</time>
      </trkpt>
      <trkpt lat="47.26462" lon="-2.34483">
        <ele>-101.19999694824</ele>
        <time>2021-08-26T10:31:18.000Z</time>
      </trkpt>
      <trkpt lat="47.26408" lon="-2.34443">
        <ele>-101.19999694824</ele>
        <time>2021-08-26T10:31:27.000Z</time>
      </trkpt>
      <trkpt lat="47.26403" lon="-2.34438">
        <ele>-101.19999694824</ele>
        <time>2021-08-26T10:31:28.000Z</time>
      </trkpt>
      <trkpt lat="47.26353" lon="-2.34396">
        <ele>-101.19999694824</ele>
        <time>2021-08-26T10:31:37.000Z</time>
      </trkpt>
      <trkpt lat="47.26347" lon="-2.34391">
        <ele>-101.19999694824</ele>
        <time>2021-08-26T10:31:38.000Z</time>
      </trkpt>
      <trkpt lat="47.26342" lon="-2.34386">
        <ele>-101.19999694824</ele>
        <time>2021-08-26T10:31:39.000Z</time>
      </trkpt>
      <trkpt lat="47.26332" lon="-2.34384">
        <ele>-101.19999694824</ele>
        <time>2021-08-26T10:31:41.000Z</time>
      </trkpt>
      <trkpt lat="47.26315" lon="-2.34368">
        <ele>-101.19999694824</ele>
        <time>2021-08-26T10:31:45.000Z</time>
      </trkpt>
      <trkpt lat="47.26312" lon="-2.3436">
        <ele>-101.19999694824</ele>
        <time>2021-08-26T10:31:46.000Z</time>
      </trkpt>
      <trkpt lat="47.26307" lon="-2.34354">
        <ele>-101.19999694824</ele>
        <time>2021-08-26T10:31:47.000Z</time>
      </trkpt>
      <trkpt lat="47.26296" lon="-2.34342">
        <ele>-101.19999694824</ele>
        <time>2021-08-26T10:31:49.000Z</time>
      </trkpt>
      <trkpt lat="47.26249" lon="-2.34291">
        <ele>-101.19999694824</ele>
        <time>2021-08-26T10:31:57.000Z</time>
      </trkpt>
      <trkpt lat="47.26238" lon="-2.34279">
        <ele>-101.19999694824</ele>
        <time>2021-08-26T10:31:59.000Z</time>
      </trkpt>
      <trkpt lat="47.26192" lon="-2.34232">
        <ele>-101.19999694824</ele>
        <time>2021-08-26T10:32:07.000Z</time>
      </trkpt>
      <trkpt lat="47.26186" lon="-2.34226">
        <ele>-101.19999694824</ele>
        <time>2021-08-26T10:32:08.000Z</time>
      </trkpt>
      <trkpt lat="47.26146" lon="-2.34188">
        <ele>-101.19999694824</ele>
        <time>2021-08-26T10:32:15.000Z</time>
      </trkpt>
      <trkpt lat="47.26127" lon="-2.34178">
        <ele>-101.19999694824</ele>
        <time>2021-08-26T10:32:18.000Z</time>
      </trkpt>
      <trkpt lat="47.26116" lon="-2.34167">
        <ele>-101.19999694824</ele>
        <time>2021-08-26T10:32:20.000Z</time>
      </trkpt>
      <trkpt lat="47.2611" lon="-2.34163">
        <ele>-101.19999694824</ele>
        <time>2021-08-26T10:32:21.000Z</time>
      </trkpt>
      <trkpt lat="47.26103" lon="-2.34159">
        <ele>-101.19999694824</ele>
        <time>2021-08-26T10:32:22.000Z</time>
      </trkpt>
      <trkpt lat="47.26048" lon="-2.34131">
        <ele>-101.19999694824</ele>
        <time>2021-08-26T10:32:30.000Z</time>
      </trkpt>
      <trkpt lat="47.26042" lon="-2.34128">
        <ele>-101.19999694824</ele>
        <time>2021-08-26T10:32:31.000Z</time>
      </trkpt>
      <trkpt lat="47.25994" lon="-2.34104">
        <ele>-101.19999694824</ele>
        <time>2021-08-26T10:32:38.000Z</time>
      </trkpt>
      <trkpt lat="47.25953" lon="-2.34084">
        <ele>-101.19999694824</ele>
        <time>2021-08-26T10:32:45.000Z</time>
      </trkpt>
      <trkpt lat="47.25948" lon="-2.34082">
        <ele>-101.19999694824</ele>
        <time>2021-08-26T10:32:46.000Z</time>
      </trkpt>
      <trkpt lat="47.25924" lon="-2.34075">
        <ele>-101.19999694824</ele>
        <time>2021-08-26T10:32:50.000Z</time>
      </trkpt>
      <trkpt lat="47.25903" lon="-2.34069">
        <ele>-101.19999694824</ele>
        <time>2021-08-26T10:32:54.000Z</time>
      </trkpt>
      <trkpt lat="47.25898" lon="-2.34045">
        <ele>-101.59999847412</ele>
        <time>2021-08-26T10:32:57.000Z</time>
      </trkpt>
      <trkpt lat="47.25899" lon="-2.34038">
        <ele>-102</ele>
        <time>2021-08-26T10:32:58.000Z</time>
      </trkpt>
      <trkpt lat="47.259" lon="-2.34031">
        <ele>-102.40000152588</ele>
        <time>2021-08-26T10:32:59.000Z</time>
      </trkpt>
      <trkpt lat="47.25901" lon="-2.34024">
        <ele>-102.80000305176</ele>
        <time>2021-08-26T10:33:00.000Z</time>
      </trkpt>
      <trkpt lat="47.25904" lon="-2.34019">
        <ele>-103.19999694824</ele>
        <time>2021-08-26T10:33:01.000Z</time>
      </trkpt>
      <trkpt lat="47.25913" lon="-2.33991">
        <ele>-103.19999694824</ele>
        <time>2021-08-26T10:33:06.000Z</time>
      </trkpt>
      <trkpt lat="47.25919" lon="-2.33969">
        <ele>-103.19999694824</ele>
        <time>2021-08-26T10:33:09.000Z</time>
      </trkpt>
      <trkpt lat="47.25922" lon="-2.33962">
        <ele>-103.19999694824</ele>
        <time>2021-08-26T10:33:10.000Z</time>
      </trkpt>
      <trkpt lat="47.25942" lon="-2.33924">
        <ele>-103.19999694824</ele>
        <time>2021-08-26T10:33:16.000Z</time>
      </trkpt>
      <trkpt lat="47.25945" lon="-2.33914">
        <ele>-103.19999694824</ele>
        <time>2021-08-26T10:33:18.000Z</time>
      </trkpt>
      <trkpt lat="47.25946" lon="-2.33908">
        <ele>-103.19999694824</ele>
        <time>2021-08-26T10:33:20.000Z</time>
      </trkpt>
      <trkpt lat="47.25947" lon="-2.33902">
        <ele>-103.19999694824</ele>
        <time>2021-08-26T10:33:21.000Z</time>
      </trkpt>
      <trkpt lat="47.25952" lon="-2.33889">
        <ele>-103.19999694824</ele>
        <time>2021-08-26T10:33:24.000Z</time>
      </trkpt>
      <trkpt lat="47.25954" lon="-2.33883">
        <ele>-103.19999694824</ele>
        <time>2021-08-26T10:33:27.000Z</time>
      </trkpt>
      <trkpt lat="47.25955" lon="-2.3388">
        <ele>-103.59999847412</ele>
        <time>2021-08-26T10:33:28.000Z</time>
      </trkpt>
      <trkpt lat="47.25956" lon="-2.33877">
        <ele>-104</ele>
        <time>2021-08-26T10:33:29.000Z</time>
      </trkpt>
      <trkpt lat="47.25958" lon="-2.33873">
        <ele>-104.40000152588</ele>
        <time>2021-08-26T10:33:30.000Z</time>
      </trkpt>
      <trkpt lat="47.25959" lon="-2.33868">
        <ele>-104.80000305176</ele>
        <time>2021-08-26T10:33:31.000Z</time>
      </trkpt>
      <trkpt lat="47.25961" lon="-2.33863">
        <ele>-105.19999694824</ele>
        <time>2021-08-26T10:33:32.000Z</time>
      </trkpt>
      <trkpt lat="47.25962" lon="-2.33856">
        <ele>-105.19999694824</ele>
        <time>2021-08-26T10:33:33.000Z</time>
      </trkpt>
      <trkpt lat="47.25964" lon="-2.3385">
        <ele>-105.19999694824</ele>
        <time>2021-08-26T10:33:34.000Z</time>
      </trkpt>
      <trkpt lat="47.25975" lon="-2.33815">
        <ele>-105.19999694824</ele>
        <time>2021-08-26T10:33:39.000Z</time>
      </trkpt>
      <trkpt lat="47.25995" lon="-2.33756">
        <ele>-105.19999694824</ele>
        <time>2021-08-26T10:33:47.000Z</time>
      </trkpt>
      <trkpt lat="47.26013" lon="-2.33704">
        <ele>-105.19999694824</ele>
        <time>2021-08-26T10:33:55.000Z</time>
      </trkpt>
      <trkpt lat="47.26019" lon="-2.33686">
        <ele>-105.19999694824</ele>
        <time>2021-08-26T10:34:00.000Z</time>
      </trkpt>
      <trkpt lat="47.26026" lon="-2.3367">
        <ele>-105.19999694824</ele>
        <time>2021-08-26T10:34:04.000Z</time>
      </trkpt>
      <trkpt lat="47.26029" lon="-2.33669">
        <ele>-105.19999694824</ele>
        <time>2021-08-26T10:34:05.000Z</time>
      </trkpt>
      <trkpt lat="47.26043" lon="-2.3367">
        <ele>-105.19999694824</ele>
        <time>2021-08-26T10:34:09.000Z</time>
      </trkpt>
      <trkpt lat="47.26053" lon="-2.33667">
        <ele>-105.19999694824</ele>
        <time>2021-08-26T10:34:12.000Z</time>
      </trkpt>
      <trkpt lat="47.26056" lon="-2.33662">
        <ele>-105.19999694824</ele>
        <time>2021-08-26T10:34:13.000Z</time>
      </trkpt>
      <trkpt lat="47.2606" lon="-2.33644">
        <ele>-105.19999694824</ele>
        <time>2021-08-26T10:34:16.000Z</time>
      </trkpt>
      <trkpt lat="47.26064" lon="-2.33632">
        <ele>-105.19999694824</ele>
        <time>2021-08-26T10:34:18.000Z</time>
      </trkpt>
      <trkpt lat="47.26066" lon="-2.33625">
        <ele>-104.80000305176</ele>
        <time>2021-08-26T10:34:19.000Z</time>
      </trkpt>
      <trkpt lat="47.26068" lon="-2.33619">
        <ele>-104.19999694824</ele>
        <time>2021-08-26T10:34:20.000Z</time>
      </trkpt>
      <trkpt lat="47.26071" lon="-2.33611">
        <ele>-103.80000305176</ele>
        <time>2021-08-26T10:34:21.000Z</time>
      </trkpt>
      <trkpt lat="47.26073" lon="-2.33604">
        <ele>-103.40000152588</ele>
        <time>2021-08-26T10:34:22.000Z</time>
      </trkpt>
      <trkpt lat="47.26076" lon="-2.33597">
        <ele>-102.80000305176</ele>
        <time>2021-08-26T10:34:23.000Z</time>
      </trkpt>
      <trkpt lat="47.26081" lon="-2.33584">
        <ele>-102.80000305176</ele>
        <time>2021-08-26T10:34:25.000Z</time>
      </trkpt>
      <trkpt lat="47.26101" lon="-2.33527">
        <ele>-102.80000305176</ele>
        <time>2021-08-26T10:34:33.000Z</time>
      </trkpt>
      <trkpt lat="47.26118" lon="-2.33478">
        <ele>-102.80000305176</ele>
        <time>2021-08-26T10:34:40.000Z</time>
      </trkpt>
      <trkpt lat="47.26129" lon="-2.33452">
        <ele>-102.80000305176</ele>
        <time>2021-08-26T10:34:45.000Z</time>
      </trkpt>
      <trkpt lat="47.26133" lon="-2.33436">
        <ele>-102.80000305176</ele>
        <time>2021-08-26T10:34:48.000Z</time>
      </trkpt>
      <trkpt lat="47.26132" lon="-2.33424">
        <ele>-102.80000305176</ele>
        <time>2021-08-26T10:34:50.000Z</time>
      </trkpt>
      <trkpt lat="47.26123" lon="-2.33412">
        <ele>-102.80000305176</ele>
        <time>2021-08-26T10:34:53.000Z</time>
      </trkpt>
      <trkpt lat="47.26105" lon="-2.33395">
        <ele>-102.80000305176</ele>
        <time>2021-08-26T10:34:57.000Z</time>
      </trkpt>
      <trkpt lat="47.26097" lon="-2.33384">
        <ele>-102.80000305176</ele>
        <time>2021-08-26T10:34:59.000Z</time>
      </trkpt>
      <trkpt lat="47.26093" lon="-2.3338">
        <ele>-102.80000305176</ele>
        <time>2021-08-26T10:35:00.000Z</time>
      </trkpt>
      <trkpt lat="47.26083" lon="-2.33374">
        <ele>-102.80000305176</ele>
        <time>2021-08-26T10:35:02.000Z</time>
      </trkpt>
      <trkpt lat="47.26074" lon="-2.33354">
        <ele>-102.80000305176</ele>
        <time>2021-08-26T10:35:05.000Z</time>
      </trkpt>
      <trkpt lat="47.26071" lon="-2.33346">
        <ele>-102.80000305176</ele>
        <time>2021-08-26T10:35:06.000Z</time>
      </trkpt>
      <trkpt lat="47.26053" lon="-2.33293">
        <ele>-102.80000305176</ele>
        <time>2021-08-26T10:35:13.000Z</time>
      </trkpt>
      <trkpt lat="47.26028" lon="-2.33221">
        <ele>-102.80000305176</ele>
        <time>2021-08-26T10:35:22.000Z</time>
      </trkpt>
      <trkpt lat="47.26003" lon="-2.33151">
        <ele>-102.80000305176</ele>
        <time>2021-08-26T10:35:31.000Z</time>
      </trkpt>
      <trkpt lat="47.25991" lon="-2.33112">
        <ele>-102.80000305176</ele>
        <time>2021-08-26T10:35:36.000Z</time>
      </trkpt>
      <trkpt lat="47.25988" lon="-2.33094">
        <ele>-102.80000305176</ele>
        <time>2021-08-26T10:35:38.000Z</time>
      </trkpt>
      <trkpt lat="47.25986" lon="-2.33086">
        <ele>-102.80000305176</ele>
        <time>2021-08-26T10:35:39.000Z</time>
      </trkpt>
      <trkpt lat="47.25976" lon="-2.33064">
        <ele>-102.80000305176</ele>
        <time>2021-08-26T10:35:42.000Z</time>
      </trkpt>
      <trkpt lat="47.25973" lon="-2.33058">
        <ele>-102.80000305176</ele>
        <time>2021-08-26T10:35:43.000Z</time>
      </trkpt>
      <trkpt lat="47.2597" lon="-2.3305">
        <ele>-102.80000305176</ele>
        <time>2021-08-26T10:35:44.000Z</time>
      </trkpt>
      <trkpt lat="47.25963" lon="-2.33027">
        <ele>-102.80000305176</ele>
        <time>2021-08-26T10:35:47.000Z</time>
      </trkpt>
      <trkpt lat="47.25938" lon="-2.3296">
        <ele>-102.80000305176</ele>
        <time>2021-08-26T10:35:56.000Z</time>
      </trkpt>
      <trkpt lat="47.25921" lon="-2.32914">
        <ele>-102.80000305176</ele>
        <time>2021-08-26T10:36:02.000Z</time>
      </trkpt>
      <trkpt lat="47.259" lon="-2.3286">
        <ele>-102.80000305176</ele>
        <time>2021-08-26T10:36:09.000Z</time>
      </trkpt>
      <trkpt lat="47.25875" lon="-2.32789">
        <ele>-102.80000305176</ele>
        <time>2021-08-26T10:36:18.000Z</time>
      </trkpt>
      <trkpt lat="47.25873" lon="-2.32781">
        <ele>-102.80000305176</ele>
        <time>2021-08-26T10:36:19.000Z</time>
      </trkpt>
      <trkpt lat="47.25861" lon="-2.32735">
        <ele>-102.80000305176</ele>
        <time>2021-08-26T10:36:25.000Z</time>
      </trkpt>
      <trkpt lat="47.25862" lon="-2.32727">
        <ele>-102.80000305176</ele>
        <time>2021-08-26T10:36:26.000Z</time>
      </trkpt>
      <trkpt lat="47.25857" lon="-2.32706">
        <ele>-102.80000305176</ele>
        <time>2021-08-26T10:36:29.000Z</time>
      </trkpt>
      <trkpt lat="47.25847" lon="-2.32688">
        <ele>-102.80000305176</ele>
        <time>2021-08-26T10:36:32.000Z</time>
      </trkpt>
      <trkpt lat="47.25842" lon="-2.32673">
        <ele>-102.80000305176</ele>
        <time>2021-08-26T10:36:34.000Z</time>
      </trkpt>
      <trkpt lat="47.25834" lon="-2.32643">
        <ele>-102.80000305176</ele>
        <time>2021-08-26T10:36:38.000Z</time>
      </trkpt>
      <trkpt lat="47.25819" lon="-2.32582">
        <ele>-102.80000305176</ele>
        <time>2021-08-26T10:36:46.000Z</time>
      </trkpt>
      <trkpt lat="47.258" lon="-2.32505">
        <ele>-102.80000305176</ele>
        <time>2021-08-26T10:36:56.000Z</time>
      </trkpt>
      <trkpt lat="47.25796" lon="-2.32483">
        <ele>-102.80000305176</ele>
        <time>2021-08-26T10:36:59.000Z</time>
      </trkpt>
      <trkpt lat="47.25799" lon="-2.32469">
        <ele>-102.80000305176</ele>
        <time>2021-08-26T10:37:01.000Z</time>
      </trkpt>
      <trkpt lat="47.25814" lon="-2.32457">
        <ele>-102.80000305176</ele>
        <time>2021-08-26T10:37:05.000Z</time>
      </trkpt>
      <trkpt lat="47.25835" lon="-2.32469">
        <ele>-102.80000305176</ele>
        <time>2021-08-26T10:37:09.000Z</time>
      </trkpt>
      <trkpt lat="47.2584" lon="-2.32471">
        <ele>-102.80000305176</ele>
        <time>2021-08-26T10:37:10.000Z</time>
      </trkpt>
      <trkpt lat="47.25863" lon="-2.32474">
        <ele>-102.80000305176</ele>
        <time>2021-08-26T10:37:14.000Z</time>
      </trkpt>
      <trkpt lat="47.25868" lon="-2.32473">
        <ele>-102.80000305176</ele>
        <time>2021-08-26T10:37:15.000Z</time>
      </trkpt>
      <trkpt lat="47.2589" lon="-2.32467">
        <ele>-102.80000305176</ele>
        <time>2021-08-26T10:37:19.000Z</time>
      </trkpt>
      <trkpt lat="47.259" lon="-2.32458">
        <ele>-102.80000305176</ele>
        <time>2021-08-26T10:37:21.000Z</time>
      </trkpt>
      <trkpt lat="47.25909" lon="-2.32446">
        <ele>-102.80000305176</ele>
        <time>2021-08-26T10:37:23.000Z</time>
      </trkpt>
      <trkpt lat="47.25922" lon="-2.32428">
        <ele>-102.80000305176</ele>
        <time>2021-08-26T10:37:26.000Z</time>
      </trkpt>
      <trkpt lat="47.25961" lon="-2.32377">
        <ele>-102.80000305176</ele>
        <time>2021-08-26T10:37:35.000Z</time>
      </trkpt>
      <trkpt lat="47.25973" lon="-2.32361">
        <ele>-103.19999694824</ele>
        <time>2021-08-26T10:37:38.000Z</time>
      </trkpt>
      <trkpt lat="47.25977" lon="-2.32356">
        <ele>-103.59999847412</ele>
        <time>2021-08-26T10:37:39.000Z</time>
      </trkpt>
      <trkpt lat="47.25981" lon="-2.32351">
        <ele>-104.19999694824</ele>
        <time>2021-08-26T10:37:40.000Z</time>
      </trkpt>
      <trkpt lat="47.25985" lon="-2.32346">
        <ele>-104.59999847412</ele>
        <time>2021-08-26T10:37:41.000Z</time>
      </trkpt>
      <trkpt lat="47.25989" lon="-2.3234">
        <ele>-105</ele>
        <time>2021-08-26T10:37:42.000Z</time>
      </trkpt>
      <trkpt lat="47.26025" lon="-2.32295">
        <ele>-105</ele>
        <time>2021-08-26T10:37:51.000Z</time>
      </trkpt>
      <trkpt lat="47.26053" lon="-2.32262">
        <ele>-105</ele>
        <time>2021-08-26T10:37:58.000Z</time>
      </trkpt>
      <trkpt lat="47.26076" lon="-2.32238">
        <ele>-105</ele>
        <time>2021-08-26T10:38:04.000Z</time>
      </trkpt>
      <trkpt lat="47.26097" lon="-2.32207">
        <ele>-105</ele>
        <time>2021-08-26T10:38:10.000Z</time>
      </trkpt>
      <trkpt lat="47.261" lon="-2.32201">
        <ele>-105</ele>
        <time>2021-08-26T10:38:11.000Z</time>
      </trkpt>
      <trkpt lat="47.26113" lon="-2.3217">
        <ele>-105</ele>
        <time>2021-08-26T10:38:16.000Z</time>
      </trkpt>
      <trkpt lat="47.26132" lon="-2.32114">
        <ele>-105</ele>
        <time>2021-08-26T10:38:24.000Z</time>
      </trkpt>
      <trkpt lat="47.26146" lon="-2.32062">
        <ele>-105</ele>
        <time>2021-08-26T10:38:31.000Z</time>
      </trkpt>
      <trkpt lat="47.26162" lon="-2.32023">
        <ele>-105</ele>
        <time>2021-08-26T10:38:37.000Z</time>
      </trkpt>
      <trkpt lat="47.26165" lon="-2.32019">
        <ele>-105</ele>
        <time>2021-08-26T10:38:38.000Z</time>
      </trkpt>
      <trkpt lat="47.26178" lon="-2.3202">
        <ele>-105</ele>
        <time>2021-08-26T10:38:41.000Z</time>
      </trkpt>
      <trkpt lat="47.26192" lon="-2.32023">
        <ele>-105</ele>
        <time>2021-08-26T10:38:46.000Z</time>
      </trkpt>
      <trkpt lat="47.26195" lon="-2.3202">
        <ele>-105</ele>
        <time>2021-08-26T10:38:48.000Z</time>
      </trkpt>
      <trkpt lat="47.26195" lon="-2.32012">
        <ele>-105</ele>
        <time>2021-08-26T10:38:50.000Z</time>
      </trkpt>
      <trkpt lat="47.26196" lon="-2.32009">
        <ele>-105</ele>
        <time>2021-08-26T10:38:51.000Z</time>
      </trkpt>
      <trkpt lat="47.262" lon="-2.32005">
        <ele>-105</ele>
        <time>2021-08-26T10:38:53.000Z</time>
      </trkpt>
      <trkpt lat="47.26206" lon="-2.31998">
        <ele>-105</ele>
        <time>2021-08-26T10:38:55.000Z</time>
      </trkpt>
      <trkpt lat="47.26216" lon="-2.31987">
        <ele>-105</ele>
        <time>2021-08-26T10:38:58.000Z</time>
      </trkpt>
      <trkpt lat="47.26222" lon="-2.3198">
        <ele>-105</ele>
        <time>2021-08-26T10:39:00.000Z</time>
      </trkpt>
      <trkpt lat="47.2623" lon="-2.31977">
        <ele>-105</ele>
        <time>2021-08-26T10:39:02.000Z</time>
      </trkpt>
      <trkpt lat="47.26241" lon="-2.31961">
        <ele>-105</ele>
        <time>2021-08-26T10:39:05.000Z</time>
      </trkpt>
      <trkpt lat="47.26244" lon="-2.31956">
        <ele>-105</ele>
        <time>2021-08-26T10:39:06.000Z</time>
      </trkpt>
      <trkpt lat="47.26255" lon="-2.31939">
        <ele>-105</ele>
        <time>2021-08-26T10:39:10.000Z</time>
      </trkpt>
      <trkpt lat="47.26268" lon="-2.31915">
        <ele>-105</ele>
        <time>2021-08-26T10:39:15.000Z</time>
      </trkpt>
      <trkpt lat="47.26276" lon="-2.31907">
        <ele>-105</ele>
        <time>2021-08-26T10:39:17.000Z</time>
      </trkpt>
      <trkpt lat="47.26284" lon="-2.31901">
        <ele>-105</ele>
        <time>2021-08-26T10:39:19.000Z</time>
      </trkpt>
      <trkpt lat="47.26288" lon="-2.31898">
        <ele>-105</ele>
        <time>2021-08-26T10:39:20.000Z</time>
      </trkpt>
      <trkpt lat="47.26295" lon="-2.31883">
        <ele>-105</ele>
        <time>2021-08-26T10:39:23.000Z</time>
      </trkpt>
      <trkpt lat="47.26295" lon="-2.31876">
        <ele>-105</ele>
        <time>2021-08-26T10:39:24.000Z</time>
      </trkpt>
      <trkpt lat="47.26298" lon="-2.31842">
        <ele>-105</ele>
        <time>2021-08-26T10:39:29.000Z</time>
      </trkpt>
      <trkpt lat="47.26302" lon="-2.31788">
        <ele>-105</ele>
        <time>2021-08-26T10:39:36.000Z</time>
      </trkpt>
      <trkpt lat="47.26299" lon="-2.31742">
        <ele>-105</ele>
        <time>2021-08-26T10:39:42.000Z</time>
      </trkpt>
      <trkpt lat="47.26299" lon="-2.31728">
        <ele>-105</ele>
        <time>2021-08-26T10:39:44.000Z</time>
      </trkpt>
      <trkpt lat="47.26304" lon="-2.31717">
        <ele>-105</ele>
        <time>2021-08-26T10:39:46.000Z</time>
      </trkpt>
      <trkpt lat="47.26315" lon="-2.31709">
        <ele>-105</ele>
        <time>2021-08-26T10:39:49.000Z</time>
      </trkpt>
      <trkpt lat="47.26319" lon="-2.31707">
        <ele>-105</ele>
        <time>2021-08-26T10:39:50.000Z</time>
      </trkpt>
      <trkpt lat="47.26329" lon="-2.31697">
        <ele>-105</ele>
        <time>2021-08-26T10:39:53.000Z</time>
      </trkpt>
      <trkpt lat="47.2633" lon="-2.31692">
        <ele>-105</ele>
        <time>2021-08-26T10:39:54.000Z</time>
      </trkpt>
      <trkpt lat="47.26332" lon="-2.31688">
        <ele>-104.59999847412</ele>
        <time>2021-08-26T10:39:55.000Z</time>
      </trkpt>
      <trkpt lat="47.26335" lon="-2.31686">
        <ele>-104</ele>
        <time>2021-08-26T10:39:56.000Z</time>
      </trkpt>
      <trkpt lat="47.26338" lon="-2.31684">
        <ele>-103.59999847412</ele>
        <time>2021-08-26T10:39:57.000Z</time>
      </trkpt>
      <trkpt lat="47.26342" lon="-2.31682">
        <ele>-103.19999694824</ele>
        <time>2021-08-26T10:39:58.000Z</time>
      </trkpt>
      <trkpt lat="47.26345" lon="-2.3168">
        <ele>-102.80000305176</ele>
        <time>2021-08-26T10:39:59.000Z</time>
      </trkpt>
      <trkpt lat="47.26357" lon="-2.31675">
        <ele>-102.80000305176</ele>
        <time>2021-08-26T10:40:02.000Z</time>
      </trkpt>
      <trkpt lat="47.2638" lon="-2.31666">
        <ele>-102.80000305176</ele>
        <time>2021-08-26T10:40:07.000Z</time>
      </trkpt>
      <trkpt lat="47.26385" lon="-2.31663">
        <ele>-102.80000305176</ele>
        <time>2021-08-26T10:40:08.000Z</time>
      </trkpt>
      <trkpt lat="47.26392" lon="-2.3166">
        <ele>-102.40000152588</ele>
        <time>2021-08-26T10:40:10.000Z</time>
      </trkpt>
      <trkpt lat="47.26396" lon="-2.31658">
        <ele>-102</ele>
        <time>2021-08-26T10:40:11.000Z</time>
      </trkpt>
      <trkpt lat="47.26399" lon="-2.31656">
        <ele>-101.59999847412</ele>
        <time>2021-08-26T10:40:12.000Z</time>
      </trkpt>
      <trkpt lat="47.26401" lon="-2.31655">
        <ele>-101.19999694824</ele>
        <time>2021-08-26T10:40:13.000Z</time>
      </trkpt>
      <trkpt lat="47.26404" lon="-2.31653">
        <ele>-100.80000305176</ele>
        <time>2021-08-26T10:40:14.000Z</time>
      </trkpt>
      <trkpt lat="47.26409" lon="-2.31647">
        <ele>-100.80000305176</ele>
        <time>2021-08-26T10:40:16.000Z</time>
      </trkpt>
      <trkpt lat="47.2641" lon="-2.31643">
        <ele>-100.80000305176</ele>
        <time>2021-08-26T10:40:17.000Z</time>
      </trkpt>
      <trkpt lat="47.26411" lon="-2.31609">
        <ele>-100.80000305176</ele>
        <time>2021-08-26T10:40:23.000Z</time>
      </trkpt>
      <trkpt lat="47.26411" lon="-2.31573">
        <ele>-100.80000305176</ele>
        <time>2021-08-26T10:40:30.000Z</time>
      </trkpt>
      <trkpt lat="47.26411" lon="-2.31552">
        <ele>-100.80000305176</ele>
        <time>2021-08-26T10:40:35.000Z</time>
      </trkpt>
      <trkpt lat="47.26414" lon="-2.31551">
        <ele>-100.80000305176</ele>
        <time>2021-08-26T10:40:36.000Z</time>
      </trkpt>
      <trkpt lat="47.26416" lon="-2.31552">
        <ele>-100.80000305176</ele>
        <time>2021-08-26T10:40:40.000Z</time>
      </trkpt>
    </trkseg>
  </trk>
</gpx>